<?xml version="1.0" encoding="UTF-8" standalone="no" ?>
<gpx xmlns="http://www.topografix.com/GPX/1/1" xmlns:xsi="http://www.w3.org/2001/XMLSchema-instance" xsi:schemaLocation="http://www.topografix.com/GPX/1/1 http://www.topografix.com/GPX/1/1/gpx.xsd" version="1.1" creator="VisuGPX - https://www.visugpx.com">
  <metadata>
    <name>Les bornes</name>
    <desc><![CDATA[Les bornes

Les bornes]]></desc>
  </metadata>
  <wpt lat="46.0782" lon="6.2329">
    <ele>882</ele>
    <name><![CDATA[Photo]]></name>
    <cmt><![CDATA[Photo]]></cmt>
  </wpt>
  <trk>
    <name><![CDATA[Les bornes]]></name>
    <cmt><![CDATA[Les bornes]]></cmt>
    <desc><![CDATA[Les bornes]]></desc>
    <trkseg>
      <trkpt lat="46.08743" lon="6.23116">
        <ele>817.258</ele>
        <time>2020-05-02T10:20:19Z</time>
      </trkpt>
      <trkpt lat="46.08736" lon="6.23115">
        <ele>817.552</ele>
        <time>2020-05-02T10:20:28Z</time>
      </trkpt>
      <trkpt lat="46.08725" lon="6.23112">
        <ele>817.617</ele>
        <time>2020-05-02T10:20:30Z</time>
      </trkpt>
      <trkpt lat="46.08718" lon="6.23111">
        <ele>817.708</ele>
        <time>2020-05-02T10:20:31Z</time>
      </trkpt>
      <trkpt lat="46.08712" lon="6.2311">
        <ele>817.879</ele>
        <time>2020-05-02T10:20:32Z</time>
      </trkpt>
      <trkpt lat="46.08706" lon="6.23108">
        <ele>817.863</ele>
        <time>2020-05-02T10:20:33Z</time>
      </trkpt>
      <trkpt lat="46.087" lon="6.23106">
        <ele>817.962</ele>
        <time>2020-05-02T10:20:34Z</time>
      </trkpt>
      <trkpt lat="46.08691" lon="6.23106">
        <ele>817.934</ele>
        <time>2020-05-02T10:20:35Z</time>
      </trkpt>
      <trkpt lat="46.0868" lon="6.23105">
        <ele>817.979</ele>
        <time>2020-05-02T10:20:36Z</time>
      </trkpt>
      <trkpt lat="46.08668" lon="6.23103">
        <ele>817.733</ele>
        <time>2020-05-02T10:20:37Z</time>
      </trkpt>
      <trkpt lat="46.08658" lon="6.23102">
        <ele>817.737</ele>
        <time>2020-05-02T10:20:38Z</time>
      </trkpt>
      <trkpt lat="46.0865" lon="6.23101">
        <ele>817.738</ele>
        <time>2020-05-02T10:20:39Z</time>
      </trkpt>
      <trkpt lat="46.08641" lon="6.231">
        <ele>817.568</ele>
        <time>2020-05-02T10:20:40Z</time>
      </trkpt>
      <trkpt lat="46.08633" lon="6.23099">
        <ele>817.042</ele>
        <time>2020-05-02T10:20:41Z</time>
      </trkpt>
      <trkpt lat="46.08626" lon="6.23097">
        <ele>816.826</ele>
        <time>2020-05-02T10:20:42Z</time>
      </trkpt>
      <trkpt lat="46.08618" lon="6.23095">
        <ele>816.408</ele>
        <time>2020-05-02T10:20:43Z</time>
      </trkpt>
      <trkpt lat="46.0861" lon="6.23093">
        <ele>815.93</ele>
        <time>2020-05-02T10:20:44Z</time>
      </trkpt>
      <trkpt lat="46.08603" lon="6.2309">
        <ele>815.564</ele>
        <time>2020-05-02T10:20:45Z</time>
      </trkpt>
      <trkpt lat="46.08595" lon="6.23086">
        <ele>815.153</ele>
        <time>2020-05-02T10:20:46Z</time>
      </trkpt>
      <trkpt lat="46.08589" lon="6.23083">
        <ele>814.565</ele>
        <time>2020-05-02T10:20:47Z</time>
      </trkpt>
      <trkpt lat="46.08583" lon="6.23079">
        <ele>813.99</ele>
        <time>2020-05-02T10:20:48Z</time>
      </trkpt>
      <trkpt lat="46.08576" lon="6.23076">
        <ele>813.164</ele>
        <time>2020-05-02T10:20:49Z</time>
      </trkpt>
      <trkpt lat="46.0857" lon="6.2307">
        <ele>812.418</ele>
        <time>2020-05-02T10:20:50Z</time>
      </trkpt>
      <trkpt lat="46.08564" lon="6.23064">
        <ele>811.859</ele>
        <time>2020-05-02T10:20:51Z</time>
      </trkpt>
      <trkpt lat="46.08559" lon="6.2306">
        <ele>811.347</ele>
        <time>2020-05-02T10:20:52Z</time>
      </trkpt>
      <trkpt lat="46.08551" lon="6.23054">
        <ele>811.329</ele>
        <time>2020-05-02T10:20:53Z</time>
      </trkpt>
      <trkpt lat="46.08545" lon="6.2305">
        <ele>810.921</ele>
        <time>2020-05-02T10:20:54Z</time>
      </trkpt>
      <trkpt lat="46.08539" lon="6.23044">
        <ele>810.508</ele>
        <time>2020-05-02T10:20:55Z</time>
      </trkpt>
      <trkpt lat="46.08533" lon="6.23039">
        <ele>810.078</ele>
        <time>2020-05-02T10:20:56Z</time>
      </trkpt>
      <trkpt lat="46.08527" lon="6.23035">
        <ele>809.562</ele>
        <time>2020-05-02T10:20:57Z</time>
      </trkpt>
      <trkpt lat="46.08522" lon="6.2303">
        <ele>808.961</ele>
        <time>2020-05-02T10:20:58Z</time>
      </trkpt>
      <trkpt lat="46.08517" lon="6.23024">
        <ele>808.343</ele>
        <time>2020-05-02T10:20:59Z</time>
      </trkpt>
      <trkpt lat="46.08514" lon="6.23017">
        <ele>807.648</ele>
        <time>2020-05-02T10:21:00Z</time>
      </trkpt>
      <trkpt lat="46.0851" lon="6.23012">
        <ele>807.192</ele>
        <time>2020-05-02T10:21:01Z</time>
      </trkpt>
      <trkpt lat="46.08504" lon="6.23009">
        <ele>806.786</ele>
        <time>2020-05-02T10:21:02Z</time>
      </trkpt>
      <trkpt lat="46.08499" lon="6.23009">
        <ele>806.327</ele>
        <time>2020-05-02T10:21:03Z</time>
      </trkpt>
      <trkpt lat="46.08494" lon="6.23011">
        <ele>806.065</ele>
        <time>2020-05-02T10:21:04Z</time>
      </trkpt>
      <trkpt lat="46.08487" lon="6.23011">
        <ele>805.668</ele>
        <time>2020-05-02T10:21:05Z</time>
      </trkpt>
      <trkpt lat="46.08479" lon="6.23011">
        <ele>805.214</ele>
        <time>2020-05-02T10:21:06Z</time>
      </trkpt>
      <trkpt lat="46.08472" lon="6.23009">
        <ele>804.708</ele>
        <time>2020-05-02T10:21:07Z</time>
      </trkpt>
      <trkpt lat="46.08462" lon="6.23003">
        <ele>804.16</ele>
        <time>2020-05-02T10:21:08Z</time>
      </trkpt>
      <trkpt lat="46.08452" lon="6.22994">
        <ele>803.644</ele>
        <time>2020-05-02T10:21:09Z</time>
      </trkpt>
      <trkpt lat="46.08443" lon="6.22986">
        <ele>803.253</ele>
        <time>2020-05-02T10:21:10Z</time>
      </trkpt>
      <trkpt lat="46.08435" lon="6.22978">
        <ele>803.035</ele>
        <time>2020-05-02T10:21:11Z</time>
      </trkpt>
      <trkpt lat="46.08428" lon="6.22972">
        <ele>802.69</ele>
        <time>2020-05-02T10:21:12Z</time>
      </trkpt>
      <trkpt lat="46.08421" lon="6.22969">
        <ele>802.334</ele>
        <time>2020-05-02T10:21:13Z</time>
      </trkpt>
      <trkpt lat="46.08413" lon="6.22966">
        <ele>801.948</ele>
        <time>2020-05-02T10:21:14Z</time>
      </trkpt>
      <trkpt lat="46.08406" lon="6.22967">
        <ele>801.469</ele>
        <time>2020-05-02T10:21:15Z</time>
      </trkpt>
      <trkpt lat="46.08399" lon="6.22969">
        <ele>800.635</ele>
        <time>2020-05-02T10:21:16Z</time>
      </trkpt>
      <trkpt lat="46.08392" lon="6.2297">
        <ele>799.986</ele>
        <time>2020-05-02T10:21:17Z</time>
      </trkpt>
      <trkpt lat="46.08387" lon="6.22968">
        <ele>799.214</ele>
        <time>2020-05-02T10:21:18Z</time>
      </trkpt>
      <trkpt lat="46.0838" lon="6.22964">
        <ele>798.408</ele>
        <time>2020-05-02T10:21:19Z</time>
      </trkpt>
      <trkpt lat="46.08373" lon="6.22958">
        <ele>797.717</ele>
        <time>2020-05-02T10:21:20Z</time>
      </trkpt>
      <trkpt lat="46.08367" lon="6.22951">
        <ele>797.171</ele>
        <time>2020-05-02T10:21:21Z</time>
      </trkpt>
      <trkpt lat="46.0836" lon="6.2294">
        <ele>796.69</ele>
        <time>2020-05-02T10:21:22Z</time>
      </trkpt>
      <trkpt lat="46.08352" lon="6.22929">
        <ele>796.272</ele>
        <time>2020-05-02T10:21:23Z</time>
      </trkpt>
      <trkpt lat="46.08346" lon="6.22917">
        <ele>796.047</ele>
        <time>2020-05-02T10:21:24Z</time>
      </trkpt>
      <trkpt lat="46.0834" lon="6.22905">
        <ele>796.011</ele>
        <time>2020-05-02T10:21:25Z</time>
      </trkpt>
      <trkpt lat="46.08336" lon="6.22892">
        <ele>796.155</ele>
        <time>2020-05-02T10:21:26Z</time>
      </trkpt>
      <trkpt lat="46.08334" lon="6.22878">
        <ele>796.486</ele>
        <time>2020-05-02T10:21:27Z</time>
      </trkpt>
      <trkpt lat="46.08336" lon="6.22862">
        <ele>796.845</ele>
        <time>2020-05-02T10:21:28Z</time>
      </trkpt>
      <trkpt lat="46.08336" lon="6.22848">
        <ele>797.347</ele>
        <time>2020-05-02T10:21:29Z</time>
      </trkpt>
      <trkpt lat="46.0834" lon="6.22831">
        <ele>797.711</ele>
        <time>2020-05-02T10:21:30Z</time>
      </trkpt>
      <trkpt lat="46.08345" lon="6.22815">
        <ele>798.008</ele>
        <time>2020-05-02T10:21:31Z</time>
      </trkpt>
      <trkpt lat="46.0835" lon="6.22801">
        <ele>798.728</ele>
        <time>2020-05-02T10:21:32Z</time>
      </trkpt>
      <trkpt lat="46.08355" lon="6.22787">
        <ele>799.342</ele>
        <time>2020-05-02T10:21:33Z</time>
      </trkpt>
      <trkpt lat="46.08359" lon="6.22774">
        <ele>799.791</ele>
        <time>2020-05-02T10:21:34Z</time>
      </trkpt>
      <trkpt lat="46.08364" lon="6.22762">
        <ele>800.263</ele>
        <time>2020-05-02T10:21:35Z</time>
      </trkpt>
      <trkpt lat="46.08369" lon="6.2275">
        <ele>800.898</ele>
        <time>2020-05-02T10:21:36Z</time>
      </trkpt>
      <trkpt lat="46.08375" lon="6.22736">
        <ele>801.062</ele>
        <time>2020-05-02T10:21:37Z</time>
      </trkpt>
      <trkpt lat="46.0838" lon="6.22723">
        <ele>801.286</ele>
        <time>2020-05-02T10:21:38Z</time>
      </trkpt>
      <trkpt lat="46.08386" lon="6.2271">
        <ele>801.577</ele>
        <time>2020-05-02T10:21:39Z</time>
      </trkpt>
      <trkpt lat="46.08391" lon="6.22698">
        <ele>801.964</ele>
        <time>2020-05-02T10:21:40Z</time>
      </trkpt>
      <trkpt lat="46.08394" lon="6.22685">
        <ele>801.906</ele>
        <time>2020-05-02T10:21:41Z</time>
      </trkpt>
      <trkpt lat="46.08396" lon="6.22672">
        <ele>801.916</ele>
        <time>2020-05-02T10:21:42Z</time>
      </trkpt>
      <trkpt lat="46.08396" lon="6.22657">
        <ele>802.108</ele>
        <time>2020-05-02T10:21:43Z</time>
      </trkpt>
      <trkpt lat="46.08394" lon="6.22643">
        <ele>802.28</ele>
        <time>2020-05-02T10:21:44Z</time>
      </trkpt>
      <trkpt lat="46.08392" lon="6.22629">
        <ele>802.234</ele>
        <time>2020-05-02T10:21:45Z</time>
      </trkpt>
      <trkpt lat="46.08389" lon="6.22617">
        <ele>802.463</ele>
        <time>2020-05-02T10:21:46Z</time>
      </trkpt>
      <trkpt lat="46.08387" lon="6.22607">
        <ele>802.615</ele>
        <time>2020-05-02T10:21:47Z</time>
      </trkpt>
      <trkpt lat="46.08384" lon="6.22595">
        <ele>802.69</ele>
        <time>2020-05-02T10:21:48Z</time>
      </trkpt>
      <trkpt lat="46.08382" lon="6.22586">
        <ele>802.434</ele>
        <time>2020-05-02T10:21:49Z</time>
      </trkpt>
      <trkpt lat="46.0838" lon="6.22577">
        <ele>802.378</ele>
        <time>2020-05-02T10:21:50Z</time>
      </trkpt>
      <trkpt lat="46.08378" lon="6.22569">
        <ele>802.229</ele>
        <time>2020-05-02T10:21:51Z</time>
      </trkpt>
      <trkpt lat="46.08378" lon="6.2256">
        <ele>802.039</ele>
        <time>2020-05-02T10:21:52Z</time>
      </trkpt>
      <trkpt lat="46.08376" lon="6.2255">
        <ele>801.801</ele>
        <time>2020-05-02T10:21:53Z</time>
      </trkpt>
      <trkpt lat="46.08374" lon="6.22543">
        <ele>801.821</ele>
        <time>2020-05-02T10:21:54Z</time>
      </trkpt>
      <trkpt lat="46.08369" lon="6.22534">
        <ele>801.708</ele>
        <time>2020-05-02T10:21:55Z</time>
      </trkpt>
      <trkpt lat="46.08362" lon="6.22526">
        <ele>801.627</ele>
        <time>2020-05-02T10:21:56Z</time>
      </trkpt>
      <trkpt lat="46.08353" lon="6.2252">
        <ele>801.631</ele>
        <time>2020-05-02T10:21:57Z</time>
      </trkpt>
      <trkpt lat="46.08346" lon="6.22515">
        <ele>801.66</ele>
        <time>2020-05-02T10:21:58Z</time>
      </trkpt>
      <trkpt lat="46.08339" lon="6.2251">
        <ele>801.812</ele>
        <time>2020-05-02T10:21:59Z</time>
      </trkpt>
      <trkpt lat="46.08334" lon="6.22505">
        <ele>802.097</ele>
        <time>2020-05-02T10:22:00Z</time>
      </trkpt>
      <trkpt lat="46.08328" lon="6.22502">
        <ele>802.251</ele>
        <time>2020-05-02T10:22:01Z</time>
      </trkpt>
      <trkpt lat="46.08323" lon="6.22498">
        <ele>802.595</ele>
        <time>2020-05-02T10:22:02Z</time>
      </trkpt>
      <trkpt lat="46.08318" lon="6.22494">
        <ele>802.856</ele>
        <time>2020-05-02T10:22:03Z</time>
      </trkpt>
      <trkpt lat="46.08311" lon="6.22491">
        <ele>803.122</ele>
        <time>2020-05-02T10:22:04Z</time>
      </trkpt>
      <trkpt lat="46.08303" lon="6.22486">
        <ele>803.562</ele>
        <time>2020-05-02T10:22:05Z</time>
      </trkpt>
      <trkpt lat="46.08295" lon="6.22483">
        <ele>804.008</ele>
        <time>2020-05-02T10:22:06Z</time>
      </trkpt>
      <trkpt lat="46.08286" lon="6.22481">
        <ele>804.508</ele>
        <time>2020-05-02T10:22:07Z</time>
      </trkpt>
      <trkpt lat="46.08277" lon="6.22479">
        <ele>805.266</ele>
        <time>2020-05-02T10:22:08Z</time>
      </trkpt>
      <trkpt lat="46.08269" lon="6.22476">
        <ele>805.94</ele>
        <time>2020-05-02T10:22:09Z</time>
      </trkpt>
      <trkpt lat="46.08262" lon="6.22473">
        <ele>806.679</ele>
        <time>2020-05-02T10:22:10Z</time>
      </trkpt>
      <trkpt lat="46.08253" lon="6.2247">
        <ele>807.441</ele>
        <time>2020-05-02T10:22:11Z</time>
      </trkpt>
      <trkpt lat="46.08244" lon="6.22466">
        <ele>808.366</ele>
        <time>2020-05-02T10:22:12Z</time>
      </trkpt>
      <trkpt lat="46.08237" lon="6.22461">
        <ele>809.08</ele>
        <time>2020-05-02T10:22:13Z</time>
      </trkpt>
      <trkpt lat="46.08231" lon="6.22456">
        <ele>809.834</ele>
        <time>2020-05-02T10:22:14Z</time>
      </trkpt>
      <trkpt lat="46.08225" lon="6.22448">
        <ele>810.615</ele>
        <time>2020-05-02T10:22:15Z</time>
      </trkpt>
      <trkpt lat="46.08219" lon="6.2244">
        <ele>811.452</ele>
        <time>2020-05-02T10:22:16Z</time>
      </trkpt>
      <trkpt lat="46.08214" lon="6.22433">
        <ele>811.953</ele>
        <time>2020-05-02T10:22:17Z</time>
      </trkpt>
      <trkpt lat="46.08209" lon="6.22425">
        <ele>812.508</ele>
        <time>2020-05-02T10:22:18Z</time>
      </trkpt>
      <trkpt lat="46.08203" lon="6.22414">
        <ele>813.008</ele>
        <time>2020-05-02T10:22:19Z</time>
      </trkpt>
      <trkpt lat="46.08196" lon="6.22404">
        <ele>813.759</ele>
        <time>2020-05-02T10:22:20Z</time>
      </trkpt>
      <trkpt lat="46.08189" lon="6.22395">
        <ele>814.523</ele>
        <time>2020-05-02T10:22:21Z</time>
      </trkpt>
      <trkpt lat="46.08183" lon="6.22389">
        <ele>815.482</ele>
        <time>2020-05-02T10:22:22Z</time>
      </trkpt>
      <trkpt lat="46.08177" lon="6.22385">
        <ele>816.234</ele>
        <time>2020-05-02T10:22:23Z</time>
      </trkpt>
      <trkpt lat="46.0817" lon="6.2238">
        <ele>817.169</ele>
        <time>2020-05-02T10:22:24Z</time>
      </trkpt>
      <trkpt lat="46.08164" lon="6.22374">
        <ele>818.093</ele>
        <time>2020-05-02T10:22:25Z</time>
      </trkpt>
      <trkpt lat="46.08157" lon="6.22368">
        <ele>818.937</ele>
        <time>2020-05-02T10:22:26Z</time>
      </trkpt>
      <trkpt lat="46.0815" lon="6.22363">
        <ele>820.078</ele>
        <time>2020-05-02T10:22:27Z</time>
      </trkpt>
      <trkpt lat="46.08143" lon="6.22357">
        <ele>821.158</ele>
        <time>2020-05-02T10:22:28Z</time>
      </trkpt>
      <trkpt lat="46.08137" lon="6.22353">
        <ele>822.352</ele>
        <time>2020-05-02T10:22:29Z</time>
      </trkpt>
      <trkpt lat="46.08129" lon="6.22348">
        <ele>823.417</ele>
        <time>2020-05-02T10:22:30Z</time>
      </trkpt>
      <trkpt lat="46.08118" lon="6.22339">
        <ele>824.608</ele>
        <time>2020-05-02T10:22:31Z</time>
      </trkpt>
      <trkpt lat="46.08109" lon="6.22331">
        <ele>825.889</ele>
        <time>2020-05-02T10:22:32Z</time>
      </trkpt>
      <trkpt lat="46.08098" lon="6.22322">
        <ele>827.233</ele>
        <time>2020-05-02T10:22:33Z</time>
      </trkpt>
      <trkpt lat="46.08084" lon="6.22311">
        <ele>828.852</ele>
        <time>2020-05-02T10:22:34Z</time>
      </trkpt>
      <trkpt lat="46.08069" lon="6.22301">
        <ele>830.664</ele>
        <time>2020-05-02T10:22:35Z</time>
      </trkpt>
      <trkpt lat="46.08053" lon="6.22291">
        <ele>832.599</ele>
        <time>2020-05-02T10:22:36Z</time>
      </trkpt>
      <trkpt lat="46.08035" lon="6.22279">
        <ele>835.083</ele>
        <time>2020-05-02T10:22:37Z</time>
      </trkpt>
      <trkpt lat="46.08021" lon="6.2227">
        <ele>837.627</ele>
        <time>2020-05-02T10:22:38Z</time>
      </trkpt>
      <trkpt lat="46.08011" lon="6.22263">
        <ele>840.058</ele>
        <time>2020-05-02T10:22:39Z</time>
      </trkpt>
      <trkpt lat="46.08003" lon="6.22257">
        <ele>842.593</ele>
        <time>2020-05-02T10:22:40Z</time>
      </trkpt>
      <trkpt lat="46.07992" lon="6.22253">
        <ele>844.765</ele>
        <time>2020-05-02T10:22:41Z</time>
      </trkpt>
      <trkpt lat="46.07982" lon="6.2225">
        <ele>846.421</ele>
        <time>2020-05-02T10:22:42Z</time>
      </trkpt>
      <trkpt lat="46.07971" lon="6.22249">
        <ele>847.808</ele>
        <time>2020-05-02T10:22:43Z</time>
      </trkpt>
      <trkpt lat="46.07961" lon="6.22249">
        <ele>848.843</ele>
        <time>2020-05-02T10:22:44Z</time>
      </trkpt>
      <trkpt lat="46.07953" lon="6.22248">
        <ele>849.777</ele>
        <time>2020-05-02T10:22:45Z</time>
      </trkpt>
      <trkpt lat="46.07944" lon="6.22247">
        <ele>850.666</ele>
        <time>2020-05-02T10:22:46Z</time>
      </trkpt>
      <trkpt lat="46.07936" lon="6.22247">
        <ele>851.398</ele>
        <time>2020-05-02T10:22:47Z</time>
      </trkpt>
      <trkpt lat="46.07927" lon="6.22247">
        <ele>851.813</ele>
        <time>2020-05-02T10:22:48Z</time>
      </trkpt>
      <trkpt lat="46.07919" lon="6.22247">
        <ele>852.237</ele>
        <time>2020-05-02T10:22:49Z</time>
      </trkpt>
      <trkpt lat="46.07913" lon="6.22247">
        <ele>852.551</ele>
        <time>2020-05-02T10:22:50Z</time>
      </trkpt>
      <trkpt lat="46.07905" lon="6.22247">
        <ele>852.972</ele>
        <time>2020-05-02T10:22:51Z</time>
      </trkpt>
      <trkpt lat="46.07897" lon="6.22247">
        <ele>853.399</ele>
        <time>2020-05-02T10:22:52Z</time>
      </trkpt>
      <trkpt lat="46.07888" lon="6.22247">
        <ele>853.807</ele>
        <time>2020-05-02T10:22:53Z</time>
      </trkpt>
      <trkpt lat="46.07881" lon="6.22247">
        <ele>854.527</ele>
        <time>2020-05-02T10:22:54Z</time>
      </trkpt>
      <trkpt lat="46.07874" lon="6.22249">
        <ele>855.208</ele>
        <time>2020-05-02T10:22:55Z</time>
      </trkpt>
      <trkpt lat="46.07867" lon="6.22253">
        <ele>855.893</ele>
        <time>2020-05-02T10:22:56Z</time>
      </trkpt>
      <trkpt lat="46.07861" lon="6.22258">
        <ele>856.457</ele>
        <time>2020-05-02T10:22:57Z</time>
      </trkpt>
      <trkpt lat="46.07854" lon="6.22265">
        <ele>856.926</ele>
        <time>2020-05-02T10:22:58Z</time>
      </trkpt>
      <trkpt lat="46.07849" lon="6.22272">
        <ele>857.248</ele>
        <time>2020-05-02T10:22:59Z</time>
      </trkpt>
      <trkpt lat="46.07844" lon="6.2228">
        <ele>857.583</ele>
        <time>2020-05-02T10:23:00Z</time>
      </trkpt>
      <trkpt lat="46.0784" lon="6.22288">
        <ele>857.847</ele>
        <time>2020-05-02T10:23:01Z</time>
      </trkpt>
      <trkpt lat="46.07836" lon="6.22294">
        <ele>857.941</ele>
        <time>2020-05-02T10:23:02Z</time>
      </trkpt>
      <trkpt lat="46.07831" lon="6.223">
        <ele>857.982</ele>
        <time>2020-05-02T10:23:03Z</time>
      </trkpt>
      <trkpt lat="46.07826" lon="6.22304">
        <ele>857.991</ele>
        <time>2020-05-02T10:23:04Z</time>
      </trkpt>
      <trkpt lat="46.0782" lon="6.22304">
        <ele>857.881</ele>
        <time>2020-05-02T10:23:05Z</time>
      </trkpt>
      <trkpt lat="46.07814" lon="6.22302">
        <ele>857.719</ele>
        <time>2020-05-02T10:23:06Z</time>
      </trkpt>
      <trkpt lat="46.07808" lon="6.22297">
        <ele>857.608</ele>
        <time>2020-05-02T10:23:07Z</time>
      </trkpt>
      <trkpt lat="46.07802" lon="6.22292">
        <ele>857.523</ele>
        <time>2020-05-02T10:23:08Z</time>
      </trkpt>
      <trkpt lat="46.07795" lon="6.22288">
        <ele>857.517</ele>
        <time>2020-05-02T10:23:09Z</time>
      </trkpt>
      <trkpt lat="46.07788" lon="6.22284">
        <ele>857.576</ele>
        <time>2020-05-02T10:23:10Z</time>
      </trkpt>
      <trkpt lat="46.07781" lon="6.22279">
        <ele>857.588</ele>
        <time>2020-05-02T10:23:11Z</time>
      </trkpt>
      <trkpt lat="46.07774" lon="6.22275">
        <ele>857.593</ele>
        <time>2020-05-02T10:23:12Z</time>
      </trkpt>
      <trkpt lat="46.07766" lon="6.22271">
        <ele>857.577</ele>
        <time>2020-05-02T10:23:13Z</time>
      </trkpt>
      <trkpt lat="46.07758" lon="6.22266">
        <ele>857.561</ele>
        <time>2020-05-02T10:23:14Z</time>
      </trkpt>
      <trkpt lat="46.07751" lon="6.2226">
        <ele>857.522</ele>
        <time>2020-05-02T10:23:15Z</time>
      </trkpt>
      <trkpt lat="46.07745" lon="6.22256">
        <ele>857.585</ele>
        <time>2020-05-02T10:23:16Z</time>
      </trkpt>
      <trkpt lat="46.07739" lon="6.22251">
        <ele>857.489</ele>
        <time>2020-05-02T10:23:17Z</time>
      </trkpt>
      <trkpt lat="46.07732" lon="6.22246">
        <ele>857.417</ele>
        <time>2020-05-02T10:23:18Z</time>
      </trkpt>
      <trkpt lat="46.07725" lon="6.2224">
        <ele>857.408</ele>
        <time>2020-05-02T10:23:19Z</time>
      </trkpt>
      <trkpt lat="46.07718" lon="6.22236">
        <ele>857.392</ele>
        <time>2020-05-02T10:23:20Z</time>
      </trkpt>
      <trkpt lat="46.0771" lon="6.22231">
        <ele>857.346</ele>
        <time>2020-05-02T10:23:21Z</time>
      </trkpt>
      <trkpt lat="46.07703" lon="6.22226">
        <ele>857.395</ele>
        <time>2020-05-02T10:23:22Z</time>
      </trkpt>
      <trkpt lat="46.07693" lon="6.22222">
        <ele>857.437</ele>
        <time>2020-05-02T10:23:23Z</time>
      </trkpt>
      <trkpt lat="46.07685" lon="6.22217">
        <ele>857.792</ele>
        <time>2020-05-02T10:23:24Z</time>
      </trkpt>
      <trkpt lat="46.07676" lon="6.22212">
        <ele>858.086</ele>
        <time>2020-05-02T10:23:25Z</time>
      </trkpt>
      <trkpt lat="46.07665" lon="6.22207">
        <ele>858.62</ele>
        <time>2020-05-02T10:23:26Z</time>
      </trkpt>
      <trkpt lat="46.07655" lon="6.22202">
        <ele>859.051</ele>
        <time>2020-05-02T10:23:27Z</time>
      </trkpt>
      <trkpt lat="46.07644" lon="6.22196">
        <ele>859.459</ele>
        <time>2020-05-02T10:23:28Z</time>
      </trkpt>
      <trkpt lat="46.07632" lon="6.22189">
        <ele>859.803</ele>
        <time>2020-05-02T10:23:29Z</time>
      </trkpt>
      <trkpt lat="46.0762" lon="6.22181">
        <ele>860.123</ele>
        <time>2020-05-02T10:23:30Z</time>
      </trkpt>
      <trkpt lat="46.07609" lon="6.22174">
        <ele>860.308</ele>
        <time>2020-05-02T10:23:31Z</time>
      </trkpt>
      <trkpt lat="46.07599" lon="6.22165">
        <ele>860.889</ele>
        <time>2020-05-02T10:23:32Z</time>
      </trkpt>
      <trkpt lat="46.07589" lon="6.22156">
        <ele>861.583</ele>
        <time>2020-05-02T10:23:33Z</time>
      </trkpt>
      <trkpt lat="46.07578" lon="6.22149">
        <ele>862.172</ele>
        <time>2020-05-02T10:23:34Z</time>
      </trkpt>
      <trkpt lat="46.07569" lon="6.22143">
        <ele>862.634</ele>
        <time>2020-05-02T10:23:35Z</time>
      </trkpt>
      <trkpt lat="46.07561" lon="6.22135">
        <ele>862.959</ele>
        <time>2020-05-02T10:23:36Z</time>
      </trkpt>
      <trkpt lat="46.07553" lon="6.22129">
        <ele>862.973</ele>
        <time>2020-05-02T10:23:37Z</time>
      </trkpt>
      <trkpt lat="46.07546" lon="6.22123">
        <ele>862.557</ele>
        <time>2020-05-02T10:23:38Z</time>
      </trkpt>
      <trkpt lat="46.07539" lon="6.22118">
        <ele>862.068</ele>
        <time>2020-05-02T10:23:39Z</time>
      </trkpt>
      <trkpt lat="46.07533" lon="6.22111">
        <ele>861.419</ele>
        <time>2020-05-02T10:23:40Z</time>
      </trkpt>
      <trkpt lat="46.07526" lon="6.22105">
        <ele>860.809</ele>
        <time>2020-05-02T10:23:41Z</time>
      </trkpt>
      <trkpt lat="46.07519" lon="6.221">
        <ele>860.219</ele>
        <time>2020-05-02T10:23:42Z</time>
      </trkpt>
      <trkpt lat="46.0751" lon="6.22095">
        <ele>859.508</ele>
        <time>2020-05-02T10:23:43Z</time>
      </trkpt>
      <trkpt lat="46.07501" lon="6.2209">
        <ele>858.765</ele>
        <time>2020-05-02T10:23:44Z</time>
      </trkpt>
      <trkpt lat="46.07493" lon="6.22085">
        <ele>857.999</ele>
        <time>2020-05-02T10:23:45Z</time>
      </trkpt>
      <trkpt lat="46.07484" lon="6.22081">
        <ele>857.178</ele>
        <time>2020-05-02T10:23:46Z</time>
      </trkpt>
      <trkpt lat="46.07476" lon="6.22078">
        <ele>856.41</ele>
        <time>2020-05-02T10:23:47Z</time>
      </trkpt>
      <trkpt lat="46.07467" lon="6.22068">
        <ele>855.745</ele>
        <time>2020-05-02T10:23:48Z</time>
      </trkpt>
      <trkpt lat="46.07457" lon="6.22062">
        <ele>854.939</ele>
        <time>2020-05-02T10:23:49Z</time>
      </trkpt>
      <trkpt lat="46.07451" lon="6.22051">
        <ele>854.473</ele>
        <time>2020-05-02T10:23:50Z</time>
      </trkpt>
      <trkpt lat="46.07449" lon="6.22042">
        <ele>853.954</ele>
        <time>2020-05-02T10:23:51Z</time>
      </trkpt>
      <trkpt lat="46.07449" lon="6.22033">
        <ele>853.588</ele>
        <time>2020-05-02T10:23:52Z</time>
      </trkpt>
      <trkpt lat="46.0745" lon="6.22019">
        <ele>853.524</ele>
        <time>2020-05-02T10:23:53Z</time>
      </trkpt>
      <trkpt lat="46.0745" lon="6.22002">
        <ele>853.826</ele>
        <time>2020-05-02T10:23:54Z</time>
      </trkpt>
      <trkpt lat="46.0745" lon="6.21985">
        <ele>854.308</ele>
        <time>2020-05-02T10:23:55Z</time>
      </trkpt>
      <trkpt lat="46.07449" lon="6.21973">
        <ele>855.032</ele>
        <time>2020-05-02T10:23:56Z</time>
      </trkpt>
      <trkpt lat="46.07447" lon="6.21964">
        <ele>855.786</ele>
        <time>2020-05-02T10:23:57Z</time>
      </trkpt>
      <trkpt lat="46.07445" lon="6.21955">
        <ele>856.335</ele>
        <time>2020-05-02T10:23:58Z</time>
      </trkpt>
      <trkpt lat="46.07441" lon="6.2195">
        <ele>856.837</ele>
        <time>2020-05-02T10:23:59Z</time>
      </trkpt>
      <trkpt lat="46.07438" lon="6.2194">
        <ele>857.242</ele>
        <time>2020-05-02T10:24:00Z</time>
      </trkpt>
      <trkpt lat="46.07432" lon="6.21926">
        <ele>857.456</ele>
        <time>2020-05-02T10:24:01Z</time>
      </trkpt>
      <trkpt lat="46.07431" lon="6.21938">
        <ele>857.93</ele>
        <time>2020-05-02T10:24:02Z</time>
      </trkpt>
      <trkpt lat="46.07421" lon="6.21932">
        <ele>858.491</ele>
        <time>2020-05-02T10:24:03Z</time>
      </trkpt>
      <trkpt lat="46.07411" lon="6.21928">
        <ele>858.946</ele>
        <time>2020-05-02T10:24:04Z</time>
      </trkpt>
      <trkpt lat="46.07402" lon="6.21922">
        <ele>859.688</ele>
        <time>2020-05-02T10:24:05Z</time>
      </trkpt>
      <trkpt lat="46.07396" lon="6.2192">
        <ele>860.516</ele>
        <time>2020-05-02T10:24:06Z</time>
      </trkpt>
      <trkpt lat="46.07389" lon="6.21918">
        <ele>861.308</ele>
        <time>2020-05-02T10:24:07Z</time>
      </trkpt>
      <trkpt lat="46.07381" lon="6.21915">
        <ele>862.198</ele>
        <time>2020-05-02T10:24:08Z</time>
      </trkpt>
      <trkpt lat="46.07371" lon="6.2191">
        <ele>863.172</ele>
        <time>2020-05-02T10:24:09Z</time>
      </trkpt>
      <trkpt lat="46.07362" lon="6.21907">
        <ele>863.131</ele>
        <time>2020-05-02T10:24:10Z</time>
      </trkpt>
      <trkpt lat="46.07354" lon="6.21903">
        <ele>864.113</ele>
        <time>2020-05-02T10:24:11Z</time>
      </trkpt>
      <trkpt lat="46.07348" lon="6.21899">
        <ele>865.048</ele>
        <time>2020-05-02T10:24:12Z</time>
      </trkpt>
      <trkpt lat="46.07344" lon="6.21894">
        <ele>866.062</ele>
        <time>2020-05-02T10:24:13Z</time>
      </trkpt>
      <trkpt lat="46.0734" lon="6.2189">
        <ele>866.946</ele>
        <time>2020-05-02T10:24:14Z</time>
      </trkpt>
      <trkpt lat="46.07335" lon="6.21885">
        <ele>867.667</ele>
        <time>2020-05-02T10:24:15Z</time>
      </trkpt>
      <trkpt lat="46.07329" lon="6.21881">
        <ele>868.126</ele>
        <time>2020-05-02T10:24:16Z</time>
      </trkpt>
      <trkpt lat="46.07323" lon="6.21878">
        <ele>868.647</ele>
        <time>2020-05-02T10:24:17Z</time>
      </trkpt>
      <trkpt lat="46.07316" lon="6.21874">
        <ele>868.911</ele>
        <time>2020-05-02T10:24:18Z</time>
      </trkpt>
      <trkpt lat="46.07309" lon="6.2187">
        <ele>869.308</ele>
        <time>2020-05-02T10:24:19Z</time>
      </trkpt>
      <trkpt lat="46.07303" lon="6.21866">
        <ele>869.866</ele>
        <time>2020-05-02T10:24:20Z</time>
      </trkpt>
      <trkpt lat="46.07299" lon="6.21861">
        <ele>870.28</ele>
        <time>2020-05-02T10:24:21Z</time>
      </trkpt>
      <trkpt lat="46.07294" lon="6.21858">
        <ele>870.769</ele>
        <time>2020-05-02T10:24:22Z</time>
      </trkpt>
      <trkpt lat="46.07289" lon="6.21855">
        <ele>871.141</ele>
        <time>2020-05-02T10:24:23Z</time>
      </trkpt>
      <trkpt lat="46.07283" lon="6.21851">
        <ele>871.726</ele>
        <time>2020-05-02T10:24:25Z</time>
      </trkpt>
      <trkpt lat="46.07276" lon="6.21849">
        <ele>872.05</ele>
        <time>2020-05-02T10:24:27Z</time>
      </trkpt>
      <trkpt lat="46.07271" lon="6.21849">
        <ele>872.174</ele>
        <time>2020-05-02T10:24:28Z</time>
      </trkpt>
      <trkpt lat="46.07261" lon="6.21847">
        <ele>872.465</ele>
        <time>2020-05-02T10:24:30Z</time>
      </trkpt>
      <trkpt lat="46.07256" lon="6.21844">
        <ele>872.462</ele>
        <time>2020-05-02T10:24:31Z</time>
      </trkpt>
      <trkpt lat="46.07251" lon="6.21842">
        <ele>872.583</ele>
        <time>2020-05-02T10:24:32Z</time>
      </trkpt>
      <trkpt lat="46.07243" lon="6.21842">
        <ele>872.611</ele>
        <time>2020-05-02T10:24:33Z</time>
      </trkpt>
      <trkpt lat="46.07235" lon="6.21838">
        <ele>872.708</ele>
        <time>2020-05-02T10:24:35Z</time>
      </trkpt>
      <trkpt lat="46.0723" lon="6.21835">
        <ele>872.81</ele>
        <time>2020-05-02T10:24:36Z</time>
      </trkpt>
      <trkpt lat="46.07224" lon="6.21834">
        <ele>872.834</ele>
        <time>2020-05-02T10:24:37Z</time>
      </trkpt>
      <trkpt lat="46.07218" lon="6.21833">
        <ele>872.823</ele>
        <time>2020-05-02T10:24:38Z</time>
      </trkpt>
      <trkpt lat="46.07212" lon="6.2183">
        <ele>872.875</ele>
        <time>2020-05-02T10:24:39Z</time>
      </trkpt>
      <trkpt lat="46.07206" lon="6.21827">
        <ele>872.88</ele>
        <time>2020-05-02T10:24:40Z</time>
      </trkpt>
      <trkpt lat="46.07199" lon="6.21824">
        <ele>872.974</ele>
        <time>2020-05-02T10:24:41Z</time>
      </trkpt>
      <trkpt lat="46.07193" lon="6.21821">
        <ele>872.948</ele>
        <time>2020-05-02T10:24:42Z</time>
      </trkpt>
      <trkpt lat="46.07186" lon="6.21816">
        <ele>872.929</ele>
        <time>2020-05-02T10:24:43Z</time>
      </trkpt>
      <trkpt lat="46.07179" lon="6.21812">
        <ele>872.999</ele>
        <time>2020-05-02T10:24:44Z</time>
      </trkpt>
      <trkpt lat="46.07172" lon="6.21807">
        <ele>872.907</ele>
        <time>2020-05-02T10:24:45Z</time>
      </trkpt>
      <trkpt lat="46.07165" lon="6.21802">
        <ele>872.727</ele>
        <time>2020-05-02T10:24:46Z</time>
      </trkpt>
      <trkpt lat="46.07158" lon="6.21797">
        <ele>872.508</ele>
        <time>2020-05-02T10:24:47Z</time>
      </trkpt>
      <trkpt lat="46.07151" lon="6.21794">
        <ele>872.343</ele>
        <time>2020-05-02T10:24:48Z</time>
      </trkpt>
      <trkpt lat="46.07144" lon="6.2179">
        <ele>872.087</ele>
        <time>2020-05-02T10:24:49Z</time>
      </trkpt>
      <trkpt lat="46.07139" lon="6.21782">
        <ele>871.896</ele>
        <time>2020-05-02T10:24:50Z</time>
      </trkpt>
      <trkpt lat="46.07133" lon="6.21775">
        <ele>871.648</ele>
        <time>2020-05-02T10:24:51Z</time>
      </trkpt>
      <trkpt lat="46.07127" lon="6.21769">
        <ele>871.583</ele>
        <time>2020-05-02T10:24:52Z</time>
      </trkpt>
      <trkpt lat="46.0712" lon="6.21763">
        <ele>871.437</ele>
        <time>2020-05-02T10:24:53Z</time>
      </trkpt>
      <trkpt lat="46.07115" lon="6.21757">
        <ele>871.341</ele>
        <time>2020-05-02T10:24:54Z</time>
      </trkpt>
      <trkpt lat="46.0711" lon="6.2175">
        <ele>871.112</ele>
        <time>2020-05-02T10:24:55Z</time>
      </trkpt>
      <trkpt lat="46.07105" lon="6.21745">
        <ele>870.813</ele>
        <time>2020-05-02T10:24:56Z</time>
      </trkpt>
      <trkpt lat="46.071" lon="6.21741">
        <ele>870.343</ele>
        <time>2020-05-02T10:24:57Z</time>
      </trkpt>
      <trkpt lat="46.07093" lon="6.21742">
        <ele>869.707</ele>
        <time>2020-05-02T10:24:58Z</time>
      </trkpt>
      <trkpt lat="46.07087" lon="6.21747">
        <ele>868.808</ele>
        <time>2020-05-02T10:24:59Z</time>
      </trkpt>
      <trkpt lat="46.07081" lon="6.21755">
        <ele>868.085</ele>
        <time>2020-05-02T10:25:00Z</time>
      </trkpt>
      <trkpt lat="46.07075" lon="6.21765">
        <ele>867.399</ele>
        <time>2020-05-02T10:25:01Z</time>
      </trkpt>
      <trkpt lat="46.07068" lon="6.21773">
        <ele>866.898</ele>
        <time>2020-05-02T10:25:02Z</time>
      </trkpt>
      <trkpt lat="46.0706" lon="6.21781">
        <ele>866.36</ele>
        <time>2020-05-02T10:25:03Z</time>
      </trkpt>
      <trkpt lat="46.07051" lon="6.21787">
        <ele>866.165</ele>
        <time>2020-05-02T10:25:04Z</time>
      </trkpt>
      <trkpt lat="46.07043" lon="6.21793">
        <ele>865.939</ele>
        <time>2020-05-02T10:25:05Z</time>
      </trkpt>
      <trkpt lat="46.07035" lon="6.21799">
        <ele>865.763</ele>
        <time>2020-05-02T10:25:06Z</time>
      </trkpt>
      <trkpt lat="46.07029" lon="6.21803">
        <ele>865.454</ele>
        <time>2020-05-02T10:25:07Z</time>
      </trkpt>
      <trkpt lat="46.07025" lon="6.21807">
        <ele>865.258</ele>
        <time>2020-05-02T10:25:08Z</time>
      </trkpt>
      <trkpt lat="46.0702" lon="6.21807">
        <ele>864.752</ele>
        <time>2020-05-02T10:25:11Z</time>
      </trkpt>
      <trkpt lat="46.07013" lon="6.21808">
        <ele>864.817</ele>
        <time>2020-05-02T10:25:14Z</time>
      </trkpt>
      <trkpt lat="46.07007" lon="6.21806">
        <ele>865.108</ele>
        <time>2020-05-02T10:25:16Z</time>
      </trkpt>
      <trkpt lat="46.07001" lon="6.21806">
        <ele>865.779</ele>
        <time>2020-05-02T10:25:18Z</time>
      </trkpt>
      <trkpt lat="46.06995" lon="6.21806">
        <ele>866.643</ele>
        <time>2020-05-02T10:25:20Z</time>
      </trkpt>
      <trkpt lat="46.06986" lon="6.21805">
        <ele>867.962</ele>
        <time>2020-05-02T10:25:22Z</time>
      </trkpt>
      <trkpt lat="46.06983" lon="6.218">
        <ele>868.624</ele>
        <time>2020-05-02T10:25:23Z</time>
      </trkpt>
      <trkpt lat="46.06978" lon="6.21798">
        <ele>869.869</ele>
        <time>2020-05-02T10:25:25Z</time>
      </trkpt>
      <trkpt lat="46.06972" lon="6.21792">
        <ele>870.883</ele>
        <time>2020-05-02T10:25:27Z</time>
      </trkpt>
      <trkpt lat="46.06968" lon="6.21787">
        <ele>871.317</ele>
        <time>2020-05-02T10:25:28Z</time>
      </trkpt>
      <trkpt lat="46.06962" lon="6.21784">
        <ele>872.568</ele>
        <time>2020-05-02T10:25:30Z</time>
      </trkpt>
      <trkpt lat="46.06956" lon="6.21789">
        <ele>873.554</ele>
        <time>2020-05-02T10:25:32Z</time>
      </trkpt>
      <trkpt lat="46.0695" lon="6.2179">
        <ele>874.256</ele>
        <time>2020-05-02T10:25:34Z</time>
      </trkpt>
      <trkpt lat="46.06943" lon="6.21787">
        <ele>874.911</ele>
        <time>2020-05-02T10:25:36Z</time>
      </trkpt>
      <trkpt lat="46.06937" lon="6.21781">
        <ele>875.708</ele>
        <time>2020-05-02T10:25:38Z</time>
      </trkpt>
      <trkpt lat="46.06932" lon="6.2178">
        <ele>876.489</ele>
        <time>2020-05-02T10:25:40Z</time>
      </trkpt>
      <trkpt lat="46.06926" lon="6.21778">
        <ele>877.253</ele>
        <time>2020-05-02T10:25:42Z</time>
      </trkpt>
      <trkpt lat="46.06917" lon="6.21776">
        <ele>879.232</ele>
        <time>2020-05-02T10:25:47Z</time>
      </trkpt>
      <trkpt lat="46.06912" lon="6.21777">
        <ele>879.434</ele>
        <time>2020-05-02T10:25:49Z</time>
      </trkpt>
      <trkpt lat="46.06905" lon="6.21779">
        <ele>879.499</ele>
        <time>2020-05-02T10:25:52Z</time>
      </trkpt>
      <trkpt lat="46.069" lon="6.21774">
        <ele>879.593</ele>
        <time>2020-05-02T10:25:54Z</time>
      </trkpt>
      <trkpt lat="46.06894" lon="6.21769">
        <ele>880.287</ele>
        <time>2020-05-02T10:25:56Z</time>
      </trkpt>
      <trkpt lat="46.06887" lon="6.21764">
        <ele>880.898</ele>
        <time>2020-05-02T10:25:57Z</time>
      </trkpt>
      <trkpt lat="46.06881" lon="6.2176">
        <ele>881.567</ele>
        <time>2020-05-02T10:25:58Z</time>
      </trkpt>
      <trkpt lat="46.06875" lon="6.21759">
        <ele>882.381</ele>
        <time>2020-05-02T10:25:59Z</time>
      </trkpt>
      <trkpt lat="46.06865" lon="6.21754">
        <ele>883.919</ele>
        <time>2020-05-02T10:26:01Z</time>
      </trkpt>
      <trkpt lat="46.06857" lon="6.2175">
        <ele>884.708</ele>
        <time>2020-05-02T10:26:02Z</time>
      </trkpt>
      <trkpt lat="46.0685" lon="6.21743">
        <ele>885.65</ele>
        <time>2020-05-02T10:26:03Z</time>
      </trkpt>
      <trkpt lat="46.06842" lon="6.21735">
        <ele>886.684</ele>
        <time>2020-05-02T10:26:04Z</time>
      </trkpt>
      <trkpt lat="46.06834" lon="6.21727">
        <ele>887.693</ele>
        <time>2020-05-02T10:26:05Z</time>
      </trkpt>
      <trkpt lat="46.06828" lon="6.21718">
        <ele>888.545</ele>
        <time>2020-05-02T10:26:06Z</time>
      </trkpt>
      <trkpt lat="46.06825" lon="6.21709">
        <ele>889.65</ele>
        <time>2020-05-02T10:26:07Z</time>
      </trkpt>
      <trkpt lat="46.06822" lon="6.21701">
        <ele>890.524</ele>
        <time>2020-05-02T10:26:08Z</time>
      </trkpt>
      <trkpt lat="46.06817" lon="6.21688">
        <ele>891.378</ele>
        <time>2020-05-02T10:26:09Z</time>
      </trkpt>
      <trkpt lat="46.06812" lon="6.21679">
        <ele>892.089</ele>
        <time>2020-05-02T10:26:10Z</time>
      </trkpt>
      <trkpt lat="46.06806" lon="6.2167">
        <ele>892.739</ele>
        <time>2020-05-02T10:26:11Z</time>
      </trkpt>
      <trkpt lat="46.06802" lon="6.2166">
        <ele>893.401</ele>
        <time>2020-05-02T10:26:12Z</time>
      </trkpt>
      <trkpt lat="46.06799" lon="6.21653">
        <ele>894.221</ele>
        <time>2020-05-02T10:26:13Z</time>
      </trkpt>
      <trkpt lat="46.06801" lon="6.21646">
        <ele>894.908</ele>
        <time>2020-05-02T10:26:14Z</time>
      </trkpt>
      <trkpt lat="46.068" lon="6.2164">
        <ele>895.447</ele>
        <time>2020-05-02T10:26:15Z</time>
      </trkpt>
      <trkpt lat="46.068" lon="6.21633">
        <ele>895.871</ele>
        <time>2020-05-02T10:26:16Z</time>
      </trkpt>
      <trkpt lat="46.06799" lon="6.21623">
        <ele>896.18</ele>
        <time>2020-05-02T10:26:18Z</time>
      </trkpt>
      <trkpt lat="46.06797" lon="6.21615">
        <ele>896.282</ele>
        <time>2020-05-02T10:26:20Z</time>
      </trkpt>
      <trkpt lat="46.06796" lon="6.21606">
        <ele>896.387</ele>
        <time>2020-05-02T10:26:22Z</time>
      </trkpt>
      <trkpt lat="46.06798" lon="6.21592">
        <ele>896.571</ele>
        <time>2020-05-02T10:26:24Z</time>
      </trkpt>
      <trkpt lat="46.06801" lon="6.21581">
        <ele>896.795</ele>
        <time>2020-05-02T10:26:25Z</time>
      </trkpt>
      <trkpt lat="46.06805" lon="6.2157">
        <ele>896.976</ele>
        <time>2020-05-02T10:26:26Z</time>
      </trkpt>
      <trkpt lat="46.0681" lon="6.21563">
        <ele>897.235</ele>
        <time>2020-05-02T10:26:27Z</time>
      </trkpt>
      <trkpt lat="46.06813" lon="6.21553">
        <ele>897.586</ele>
        <time>2020-05-02T10:26:28Z</time>
      </trkpt>
      <trkpt lat="46.06816" lon="6.21544">
        <ele>897.914</ele>
        <time>2020-05-02T10:26:29Z</time>
      </trkpt>
      <trkpt lat="46.06816" lon="6.21536">
        <ele>898.508</ele>
        <time>2020-05-02T10:26:30Z</time>
      </trkpt>
      <trkpt lat="46.06814" lon="6.21528">
        <ele>899.257</ele>
        <time>2020-05-02T10:26:31Z</time>
      </trkpt>
      <trkpt lat="46.06812" lon="6.2152">
        <ele>900.011</ele>
        <time>2020-05-02T10:26:32Z</time>
      </trkpt>
      <trkpt lat="46.06806" lon="6.21509">
        <ele>900.97</ele>
        <time>2020-05-02T10:26:33Z</time>
      </trkpt>
      <trkpt lat="46.06801" lon="6.21497">
        <ele>901.962</ele>
        <time>2020-05-02T10:26:34Z</time>
      </trkpt>
      <trkpt lat="46.06792" lon="6.21484">
        <ele>902.867</ele>
        <time>2020-05-02T10:26:35Z</time>
      </trkpt>
      <trkpt lat="46.06787" lon="6.21473">
        <ele>903.871</ele>
        <time>2020-05-02T10:26:36Z</time>
      </trkpt>
      <trkpt lat="46.06783" lon="6.21468">
        <ele>904.735</ele>
        <time>2020-05-02T10:26:37Z</time>
      </trkpt>
      <trkpt lat="46.06775" lon="6.21456">
        <ele>906.376</ele>
        <time>2020-05-02T10:26:39Z</time>
      </trkpt>
      <trkpt lat="46.06768" lon="6.21446">
        <ele>907.188</ele>
        <time>2020-05-02T10:26:40Z</time>
      </trkpt>
      <trkpt lat="46.0676" lon="6.21428">
        <ele>907.924</ele>
        <time>2020-05-02T10:26:41Z</time>
      </trkpt>
      <trkpt lat="46.06755" lon="6.21413">
        <ele>908.726</ele>
        <time>2020-05-02T10:26:42Z</time>
      </trkpt>
      <trkpt lat="46.06751" lon="6.21404">
        <ele>909.508</ele>
        <time>2020-05-02T10:26:43Z</time>
      </trkpt>
      <trkpt lat="46.06746" lon="6.21397">
        <ele>910.142</ele>
        <time>2020-05-02T10:26:44Z</time>
      </trkpt>
      <trkpt lat="46.06743" lon="6.2139">
        <ele>910.666</ele>
        <time>2020-05-02T10:26:45Z</time>
      </trkpt>
      <trkpt lat="46.06738" lon="6.21383">
        <ele>911.095</ele>
        <time>2020-05-02T10:26:47Z</time>
      </trkpt>
      <trkpt lat="46.06733" lon="6.21377">
        <ele>911.297</ele>
        <time>2020-05-02T10:26:49Z</time>
      </trkpt>
      <trkpt lat="46.06729" lon="6.21371">
        <ele>911.382</ele>
        <time>2020-05-02T10:26:50Z</time>
      </trkpt>
      <trkpt lat="46.06726" lon="6.21362">
        <ele>911.676</ele>
        <time>2020-05-02T10:26:52Z</time>
      </trkpt>
      <trkpt lat="46.0672" lon="6.21354">
        <ele>911.92</ele>
        <time>2020-05-02T10:26:54Z</time>
      </trkpt>
      <trkpt lat="46.06717" lon="6.21347">
        <ele>912.391</ele>
        <time>2020-05-02T10:26:56Z</time>
      </trkpt>
      <trkpt lat="46.06713" lon="6.21342">
        <ele>912.531</ele>
        <time>2020-05-02T10:26:58Z</time>
      </trkpt>
      <trkpt lat="46.06711" lon="6.21329">
        <ele>912.461</ele>
        <time>2020-05-02T10:27:02Z</time>
      </trkpt>
      <trkpt lat="46.06709" lon="6.21321">
        <ele>912.307</ele>
        <time>2020-05-02T10:27:03Z</time>
      </trkpt>
      <trkpt lat="46.06708" lon="6.21314">
        <ele>912.208</ele>
        <time>2020-05-02T10:27:04Z</time>
      </trkpt>
      <trkpt lat="46.067" lon="6.21308">
        <ele>912.037</ele>
        <time>2020-05-02T10:27:08Z</time>
      </trkpt>
      <trkpt lat="46.06694" lon="6.21302">
        <ele>912.041</ele>
        <time>2020-05-02T10:27:09Z</time>
      </trkpt>
      <trkpt lat="46.06684" lon="6.21296">
        <ele>912.18</ele>
        <time>2020-05-02T10:27:10Z</time>
      </trkpt>
      <trkpt lat="46.06678" lon="6.21294">
        <ele>912.332</ele>
        <time>2020-05-02T10:27:11Z</time>
      </trkpt>
      <trkpt lat="46.06671" lon="6.21288">
        <ele>912.567</ele>
        <time>2020-05-02T10:27:12Z</time>
      </trkpt>
      <trkpt lat="46.06668" lon="6.21281">
        <ele>912.751</ele>
        <time>2020-05-02T10:27:13Z</time>
      </trkpt>
      <trkpt lat="46.06662" lon="6.21274">
        <ele>912.825</ele>
        <time>2020-05-02T10:27:15Z</time>
      </trkpt>
      <trkpt lat="46.06654" lon="6.21266">
        <ele>912.856</ele>
        <time>2020-05-02T10:27:17Z</time>
      </trkpt>
      <trkpt lat="46.06649" lon="6.21257">
        <ele>912.754</ele>
        <time>2020-05-02T10:27:18Z</time>
      </trkpt>
      <trkpt lat="46.06644" lon="6.21253">
        <ele>912.756</ele>
        <time>2020-05-02T10:27:19Z</time>
      </trkpt>
      <trkpt lat="46.06636" lon="6.21249">
        <ele>912.711</ele>
        <time>2020-05-02T10:27:21Z</time>
      </trkpt>
      <trkpt lat="46.06634" lon="6.21239">
        <ele>912.808</ele>
        <time>2020-05-02T10:27:23Z</time>
      </trkpt>
      <trkpt lat="46.06639" lon="6.21229">
        <ele>913.219</ele>
        <time>2020-05-02T10:27:25Z</time>
      </trkpt>
      <trkpt lat="46.06643" lon="6.21222">
        <ele>913.493</ele>
        <time>2020-05-02T10:27:26Z</time>
      </trkpt>
      <trkpt lat="46.06648" lon="6.21216">
        <ele>913.622</ele>
        <time>2020-05-02T10:27:27Z</time>
      </trkpt>
      <trkpt lat="46.06652" lon="6.21211">
        <ele>913.614</ele>
        <time>2020-05-02T10:27:28Z</time>
      </trkpt>
      <trkpt lat="46.06654" lon="6.21204">
        <ele>913.879</ele>
        <time>2020-05-02T10:27:29Z</time>
      </trkpt>
      <trkpt lat="46.06657" lon="6.21199">
        <ele>913.833</ele>
        <time>2020-05-02T10:27:30Z</time>
      </trkpt>
      <trkpt lat="46.06663" lon="6.21194">
        <ele>913.867</ele>
        <time>2020-05-02T10:27:32Z</time>
      </trkpt>
      <trkpt lat="46.06668" lon="6.21189">
        <ele>913.898</ele>
        <time>2020-05-02T10:27:33Z</time>
      </trkpt>
      <trkpt lat="46.06672" lon="6.21185">
        <ele>913.991</ele>
        <time>2020-05-02T10:27:34Z</time>
      </trkpt>
      <trkpt lat="46.06677" lon="6.21175">
        <ele>914.281</ele>
        <time>2020-05-02T10:27:36Z</time>
      </trkpt>
      <trkpt lat="46.0668" lon="6.21166">
        <ele>914.819</ele>
        <time>2020-05-02T10:27:38Z</time>
      </trkpt>
      <trkpt lat="46.06687" lon="6.21159">
        <ele>915.808</ele>
        <time>2020-05-02T10:27:40Z</time>
      </trkpt>
      <trkpt lat="46.06693" lon="6.21149">
        <ele>917.163</ele>
        <time>2020-05-02T10:27:42Z</time>
      </trkpt>
      <trkpt lat="46.06696" lon="6.21141">
        <ele>917.857</ele>
        <time>2020-05-02T10:27:43Z</time>
      </trkpt>
      <trkpt lat="46.06701" lon="6.21135">
        <ele>918.636</ele>
        <time>2020-05-02T10:27:44Z</time>
      </trkpt>
      <trkpt lat="46.06706" lon="6.21129">
        <ele>919.298</ele>
        <time>2020-05-02T10:27:45Z</time>
      </trkpt>
      <trkpt lat="46.06712" lon="6.21121">
        <ele>919.863</ele>
        <time>2020-05-02T10:27:46Z</time>
      </trkpt>
      <trkpt lat="46.0672" lon="6.21105">
        <ele>920.547</ele>
        <time>2020-05-02T10:27:47Z</time>
      </trkpt>
      <trkpt lat="46.06729" lon="6.21085">
        <ele>921.131</ele>
        <time>2020-05-02T10:27:48Z</time>
      </trkpt>
      <trkpt lat="46.06738" lon="6.21069">
        <ele>921.942</ele>
        <time>2020-05-02T10:27:49Z</time>
      </trkpt>
      <trkpt lat="46.06744" lon="6.21057">
        <ele>922.781</ele>
        <time>2020-05-02T10:27:50Z</time>
      </trkpt>
      <trkpt lat="46.06749" lon="6.21051">
        <ele>923.461</ele>
        <time>2020-05-02T10:27:51Z</time>
      </trkpt>
      <trkpt lat="46.06753" lon="6.21047">
        <ele>923.917</ele>
        <time>2020-05-02T10:27:52Z</time>
      </trkpt>
      <trkpt lat="46.06759" lon="6.21039">
        <ele>924.108</ele>
        <time>2020-05-02T10:27:54Z</time>
      </trkpt>
      <trkpt lat="46.06765" lon="6.21033">
        <ele>924.162</ele>
        <time>2020-05-02T10:27:55Z</time>
      </trkpt>
      <trkpt lat="46.06772" lon="6.21027">
        <ele>924.196</ele>
        <time>2020-05-02T10:27:56Z</time>
      </trkpt>
      <trkpt lat="46.06777" lon="6.21021">
        <ele>924.125</ele>
        <time>2020-05-02T10:27:57Z</time>
      </trkpt>
      <trkpt lat="46.0678" lon="6.21016">
        <ele>923.137</ele>
        <time>2020-05-02T10:28:02Z</time>
      </trkpt>
      <trkpt lat="46.06786" lon="6.21011">
        <ele>923.082</ele>
        <time>2020-05-02T10:28:04Z</time>
      </trkpt>
      <trkpt lat="46.06789" lon="6.21006">
        <ele>923.086</ele>
        <time>2020-05-02T10:28:05Z</time>
      </trkpt>
      <trkpt lat="46.06796" lon="6.20999">
        <ele>923.01</ele>
        <time>2020-05-02T10:28:07Z</time>
      </trkpt>
      <trkpt lat="46.06801" lon="6.20992">
        <ele>923.071</ele>
        <time>2020-05-02T10:28:08Z</time>
      </trkpt>
      <trkpt lat="46.06805" lon="6.20986">
        <ele>923.098</ele>
        <time>2020-05-02T10:28:09Z</time>
      </trkpt>
      <trkpt lat="46.06809" lon="6.20976">
        <ele>923.215</ele>
        <time>2020-05-02T10:28:11Z</time>
      </trkpt>
      <trkpt lat="46.06811" lon="6.20969">
        <ele>923.326</ele>
        <time>2020-05-02T10:28:12Z</time>
      </trkpt>
      <trkpt lat="46.0681" lon="6.20961">
        <ele>923.408</ele>
        <time>2020-05-02T10:28:13Z</time>
      </trkpt>
      <trkpt lat="46.0681" lon="6.20954">
        <ele>923.583</ele>
        <time>2020-05-02T10:28:14Z</time>
      </trkpt>
      <trkpt lat="46.06809" lon="6.20941">
        <ele>923.737</ele>
        <time>2020-05-02T10:28:15Z</time>
      </trkpt>
      <trkpt lat="46.06808" lon="6.20932">
        <ele>923.866</ele>
        <time>2020-05-02T10:28:16Z</time>
      </trkpt>
      <trkpt lat="46.06807" lon="6.2092">
        <ele>923.958</ele>
        <time>2020-05-02T10:28:17Z</time>
      </trkpt>
      <trkpt lat="46.06808" lon="6.20904">
        <ele>924.183</ele>
        <time>2020-05-02T10:28:18Z</time>
      </trkpt>
      <trkpt lat="46.06809" lon="6.20885">
        <ele>924.377</ele>
        <time>2020-05-02T10:28:19Z</time>
      </trkpt>
      <trkpt lat="46.06809" lon="6.20864">
        <ele>924.631</ele>
        <time>2020-05-02T10:28:20Z</time>
      </trkpt>
      <trkpt lat="46.06808" lon="6.20844">
        <ele>925.392</ele>
        <time>2020-05-02T10:28:21Z</time>
      </trkpt>
      <trkpt lat="46.06805" lon="6.20828">
        <ele>926.348</ele>
        <time>2020-05-02T10:28:22Z</time>
      </trkpt>
      <trkpt lat="46.06803" lon="6.20811">
        <ele>927.261</ele>
        <time>2020-05-02T10:28:23Z</time>
      </trkpt>
      <trkpt lat="46.06801" lon="6.20799">
        <ele>928.217</ele>
        <time>2020-05-02T10:28:24Z</time>
      </trkpt>
      <trkpt lat="46.06801" lon="6.20792">
        <ele>929.008</ele>
        <time>2020-05-02T10:28:25Z</time>
      </trkpt>
      <trkpt lat="46.06803" lon="6.20784">
        <ele>929.218</ele>
        <time>2020-05-02T10:28:27Z</time>
      </trkpt>
      <trkpt lat="46.06814" lon="6.20779">
        <ele>928.942</ele>
        <time>2020-05-02T10:28:29Z</time>
      </trkpt>
      <trkpt lat="46.06825" lon="6.20778">
        <ele>928.911</ele>
        <time>2020-05-02T10:28:30Z</time>
      </trkpt>
      <trkpt lat="46.0684" lon="6.20778">
        <ele>928.913</ele>
        <time>2020-05-02T10:28:31Z</time>
      </trkpt>
      <trkpt lat="46.06857" lon="6.20779">
        <ele>929.088</ele>
        <time>2020-05-02T10:28:32Z</time>
      </trkpt>
      <trkpt lat="46.06875" lon="6.20781">
        <ele>929.362</ele>
        <time>2020-05-02T10:28:33Z</time>
      </trkpt>
      <trkpt lat="46.06888" lon="6.20782">
        <ele>930.146</ele>
        <time>2020-05-02T10:28:34Z</time>
      </trkpt>
      <trkpt lat="46.06896" lon="6.20784">
        <ele>930.667</ele>
        <time>2020-05-02T10:28:35Z</time>
      </trkpt>
      <trkpt lat="46.06903" lon="6.20785">
        <ele>930.924</ele>
        <time>2020-05-02T10:28:36Z</time>
      </trkpt>
      <trkpt lat="46.06908" lon="6.20786">
        <ele>931.104</ele>
        <time>2020-05-02T10:28:37Z</time>
      </trkpt>
      <trkpt lat="46.06913" lon="6.20786">
        <ele>931.114</ele>
        <time>2020-05-02T10:28:38Z</time>
      </trkpt>
      <trkpt lat="46.06919" lon="6.20787">
        <ele>930.608</ele>
        <time>2020-05-02T10:28:39Z</time>
      </trkpt>
      <trkpt lat="46.06924" lon="6.20786">
        <ele>930.396</ele>
        <time>2020-05-02T10:28:40Z</time>
      </trkpt>
      <trkpt lat="46.06929" lon="6.20781">
        <ele>930.03</ele>
        <time>2020-05-02T10:28:41Z</time>
      </trkpt>
      <trkpt lat="46.06934" lon="6.20774">
        <ele>929.829</ele>
        <time>2020-05-02T10:28:42Z</time>
      </trkpt>
      <trkpt lat="46.06938" lon="6.20765">
        <ele>929.841</ele>
        <time>2020-05-02T10:28:43Z</time>
      </trkpt>
      <trkpt lat="46.06941" lon="6.20757">
        <ele>929.876</ele>
        <time>2020-05-02T10:28:44Z</time>
      </trkpt>
      <trkpt lat="46.06944" lon="6.20748">
        <ele>929.92</ele>
        <time>2020-05-02T10:28:45Z</time>
      </trkpt>
      <trkpt lat="46.06953" lon="6.20694">
        <ele>931.514</ele>
        <time>2020-05-02T10:28:51Z</time>
      </trkpt>
      <trkpt lat="46.06956" lon="6.20683">
        <ele>931.765</ele>
        <time>2020-05-02T10:28:52Z</time>
      </trkpt>
      <trkpt lat="46.06959" lon="6.20671">
        <ele>932.189</ele>
        <time>2020-05-02T10:28:53Z</time>
      </trkpt>
      <trkpt lat="46.06963" lon="6.20658">
        <ele>932.606</ele>
        <time>2020-05-02T10:28:54Z</time>
      </trkpt>
      <trkpt lat="46.06966" lon="6.20648">
        <ele>933.126</ele>
        <time>2020-05-02T10:28:55Z</time>
      </trkpt>
      <trkpt lat="46.06969" lon="6.20636">
        <ele>933.408</ele>
        <time>2020-05-02T10:28:56Z</time>
      </trkpt>
      <trkpt lat="46.06973" lon="6.20626">
        <ele>933.852</ele>
        <time>2020-05-02T10:28:57Z</time>
      </trkpt>
      <trkpt lat="46.06978" lon="6.20615">
        <ele>933.856</ele>
        <time>2020-05-02T10:28:58Z</time>
      </trkpt>
      <trkpt lat="46.06983" lon="6.20605">
        <ele>933.895</ele>
        <time>2020-05-02T10:28:59Z</time>
      </trkpt>
      <trkpt lat="46.06988" lon="6.20595">
        <ele>933.837</ele>
        <time>2020-05-02T10:29:00Z</time>
      </trkpt>
      <trkpt lat="46.06993" lon="6.20585">
        <ele>933.992</ele>
        <time>2020-05-02T10:29:01Z</time>
      </trkpt>
      <trkpt lat="46.06999" lon="6.20575">
        <ele>934.086</ele>
        <time>2020-05-02T10:29:02Z</time>
      </trkpt>
      <trkpt lat="46.07005" lon="6.20565">
        <ele>934.05</ele>
        <time>2020-05-02T10:29:03Z</time>
      </trkpt>
      <trkpt lat="46.0701" lon="6.20556">
        <ele>933.911</ele>
        <time>2020-05-02T10:29:04Z</time>
      </trkpt>
      <trkpt lat="46.07016" lon="6.20546">
        <ele>933.789</ele>
        <time>2020-05-02T10:29:05Z</time>
      </trkpt>
      <trkpt lat="46.0702" lon="6.20538">
        <ele>933.606</ele>
        <time>2020-05-02T10:29:06Z</time>
      </trkpt>
      <trkpt lat="46.07025" lon="6.2053">
        <ele>933.326</ele>
        <time>2020-05-02T10:29:07Z</time>
      </trkpt>
      <trkpt lat="46.07029" lon="6.20524">
        <ele>933.108</ele>
        <time>2020-05-02T10:29:08Z</time>
      </trkpt>
      <trkpt lat="46.07033" lon="6.20517">
        <ele>932.972</ele>
        <time>2020-05-02T10:29:09Z</time>
      </trkpt>
      <trkpt lat="46.07037" lon="6.2051">
        <ele>932.876</ele>
        <time>2020-05-02T10:29:10Z</time>
      </trkpt>
      <trkpt lat="46.07042" lon="6.20501">
        <ele>932.595</ele>
        <time>2020-05-02T10:29:12Z</time>
      </trkpt>
      <trkpt lat="46.07044" lon="6.20494">
        <ele>932.277</ele>
        <time>2020-05-02T10:29:14Z</time>
      </trkpt>
      <trkpt lat="46.07038" lon="6.20487">
        <ele>932.182</ele>
        <time>2020-05-02T10:29:16Z</time>
      </trkpt>
      <trkpt lat="46.07032" lon="6.20481">
        <ele>932.156</ele>
        <time>2020-05-02T10:29:17Z</time>
      </trkpt>
      <trkpt lat="46.07026" lon="6.20474">
        <ele>932.15</ele>
        <time>2020-05-02T10:29:18Z</time>
      </trkpt>
      <trkpt lat="46.07015" lon="6.2046">
        <ele>932.211</ele>
        <time>2020-05-02T10:29:19Z</time>
      </trkpt>
      <trkpt lat="46.07004" lon="6.20444">
        <ele>932.657</ele>
        <time>2020-05-02T10:29:20Z</time>
      </trkpt>
      <trkpt lat="46.06993" lon="6.20431">
        <ele>933.4</ele>
        <time>2020-05-02T10:29:21Z</time>
      </trkpt>
      <trkpt lat="46.06985" lon="6.20421">
        <ele>934.52</ele>
        <time>2020-05-02T10:29:22Z</time>
      </trkpt>
      <trkpt lat="46.06977" lon="6.20415">
        <ele>935.408</ele>
        <time>2020-05-02T10:29:23Z</time>
      </trkpt>
      <trkpt lat="46.06972" lon="6.20408">
        <ele>936.299</ele>
        <time>2020-05-02T10:29:24Z</time>
      </trkpt>
      <trkpt lat="46.06969" lon="6.20399">
        <ele>936.613</ele>
        <time>2020-05-02T10:29:25Z</time>
      </trkpt>
      <trkpt lat="46.06967" lon="6.20392">
        <ele>936.632</ele>
        <time>2020-05-02T10:29:26Z</time>
      </trkpt>
      <trkpt lat="46.06965" lon="6.20382">
        <ele>936.354</ele>
        <time>2020-05-02T10:29:27Z</time>
      </trkpt>
      <trkpt lat="46.06964" lon="6.20371">
        <ele>936.099</ele>
        <time>2020-05-02T10:29:28Z</time>
      </trkpt>
      <trkpt lat="46.06963" lon="6.2036">
        <ele>935.593</ele>
        <time>2020-05-02T10:29:29Z</time>
      </trkpt>
      <trkpt lat="46.06961" lon="6.20351">
        <ele>935.217</ele>
        <time>2020-05-02T10:29:30Z</time>
      </trkpt>
      <trkpt lat="46.06959" lon="6.20343">
        <ele>934.998</ele>
        <time>2020-05-02T10:29:31Z</time>
      </trkpt>
      <trkpt lat="46.06957" lon="6.20335">
        <ele>934.663</ele>
        <time>2020-05-02T10:29:32Z</time>
      </trkpt>
      <trkpt lat="46.06952" lon="6.20322">
        <ele>934.644</ele>
        <time>2020-05-02T10:29:34Z</time>
      </trkpt>
      <trkpt lat="46.06951" lon="6.20313">
        <ele>934.818</ele>
        <time>2020-05-02T10:29:35Z</time>
      </trkpt>
      <trkpt lat="46.06951" lon="6.20306">
        <ele>935.008</ele>
        <time>2020-05-02T10:29:36Z</time>
      </trkpt>
      <trkpt lat="46.0695" lon="6.20291">
        <ele>935.32</ele>
        <time>2020-05-02T10:29:37Z</time>
      </trkpt>
      <trkpt lat="46.0695" lon="6.2027">
        <ele>935.674</ele>
        <time>2020-05-02T10:29:38Z</time>
      </trkpt>
      <trkpt lat="46.06951" lon="6.20248">
        <ele>935.853</ele>
        <time>2020-05-02T10:29:39Z</time>
      </trkpt>
      <trkpt lat="46.06951" lon="6.20237">
        <ele>936.595</ele>
        <time>2020-05-02T10:29:40Z</time>
      </trkpt>
      <trkpt lat="46.06951" lon="6.20225">
        <ele>937.66</ele>
        <time>2020-05-02T10:29:41Z</time>
      </trkpt>
      <trkpt lat="46.06951" lon="6.20214">
        <ele>938.374</ele>
        <time>2020-05-02T10:29:42Z</time>
      </trkpt>
      <trkpt lat="46.0695" lon="6.20202">
        <ele>939.398</ele>
        <time>2020-05-02T10:29:43Z</time>
      </trkpt>
      <trkpt lat="46.06947" lon="6.2019">
        <ele>940.539</ele>
        <time>2020-05-02T10:29:44Z</time>
      </trkpt>
      <trkpt lat="46.06946" lon="6.20178">
        <ele>941.548</ele>
        <time>2020-05-02T10:29:45Z</time>
      </trkpt>
      <trkpt lat="46.06945" lon="6.20169">
        <ele>942.061</ele>
        <time>2020-05-02T10:29:46Z</time>
      </trkpt>
      <trkpt lat="46.06945" lon="6.20161">
        <ele>942.417</ele>
        <time>2020-05-02T10:29:47Z</time>
      </trkpt>
      <trkpt lat="46.06945" lon="6.20152">
        <ele>942.508</ele>
        <time>2020-05-02T10:29:48Z</time>
      </trkpt>
      <trkpt lat="46.06947" lon="6.20137">
        <ele>942.198</ele>
        <time>2020-05-02T10:29:50Z</time>
      </trkpt>
      <trkpt lat="46.06951" lon="6.20124">
        <ele>941.942</ele>
        <time>2020-05-02T10:29:51Z</time>
      </trkpt>
      <trkpt lat="46.06955" lon="6.20109">
        <ele>941.961</ele>
        <time>2020-05-02T10:29:52Z</time>
      </trkpt>
      <trkpt lat="46.0696" lon="6.20091">
        <ele>941.983</ele>
        <time>2020-05-02T10:29:53Z</time>
      </trkpt>
      <trkpt lat="46.06963" lon="6.20071">
        <ele>942.598</ele>
        <time>2020-05-02T10:29:54Z</time>
      </trkpt>
      <trkpt lat="46.06965" lon="6.20056">
        <ele>943.442</ele>
        <time>2020-05-02T10:29:55Z</time>
      </trkpt>
      <trkpt lat="46.06966" lon="6.20042">
        <ele>944.426</ele>
        <time>2020-05-02T10:29:56Z</time>
      </trkpt>
      <trkpt lat="46.06967" lon="6.20029">
        <ele>945.457</ele>
        <time>2020-05-02T10:29:57Z</time>
      </trkpt>
      <trkpt lat="46.06968" lon="6.20018">
        <ele>946.636</ele>
        <time>2020-05-02T10:29:58Z</time>
      </trkpt>
      <trkpt lat="46.06968" lon="6.20008">
        <ele>947.517</ele>
        <time>2020-05-02T10:29:59Z</time>
      </trkpt>
      <trkpt lat="46.06969" lon="6.19997">
        <ele>948.418</ele>
        <time>2020-05-02T10:30:00Z</time>
      </trkpt>
      <trkpt lat="46.0697" lon="6.19989">
        <ele>949.208</ele>
        <time>2020-05-02T10:30:01Z</time>
      </trkpt>
      <trkpt lat="46.06972" lon="6.19981">
        <ele>950.057</ele>
        <time>2020-05-02T10:30:02Z</time>
      </trkpt>
      <trkpt lat="46.06973" lon="6.19973">
        <ele>950.781</ele>
        <time>2020-05-02T10:30:03Z</time>
      </trkpt>
      <trkpt lat="46.06974" lon="6.19963">
        <ele>951.24</ele>
        <time>2020-05-02T10:30:04Z</time>
      </trkpt>
      <trkpt lat="46.06975" lon="6.19955">
        <ele>951.362</ele>
        <time>2020-05-02T10:30:05Z</time>
      </trkpt>
      <trkpt lat="46.06977" lon="6.19944">
        <ele>951.387</ele>
        <time>2020-05-02T10:30:06Z</time>
      </trkpt>
      <trkpt lat="46.06978" lon="6.19933">
        <ele>951.141</ele>
        <time>2020-05-02T10:30:07Z</time>
      </trkpt>
      <trkpt lat="46.06981" lon="6.19923">
        <ele>950.835</ele>
        <time>2020-05-02T10:30:08Z</time>
      </trkpt>
      <trkpt lat="46.06984" lon="6.19917">
        <ele>950.576</ele>
        <time>2020-05-02T10:30:09Z</time>
      </trkpt>
      <trkpt lat="46.06991" lon="6.19903">
        <ele>950.371</ele>
        <time>2020-05-02T10:30:11Z</time>
      </trkpt>
      <trkpt lat="46.06995" lon="6.19892">
        <ele>950.541</ele>
        <time>2020-05-02T10:30:12Z</time>
      </trkpt>
      <trkpt lat="46.06999" lon="6.19882">
        <ele>951.215</ele>
        <time>2020-05-02T10:30:14Z</time>
      </trkpt>
      <trkpt lat="46.07002" lon="6.1987">
        <ele>951.708</ele>
        <time>2020-05-02T10:30:15Z</time>
      </trkpt>
      <trkpt lat="46.07005" lon="6.19856">
        <ele>952.141</ele>
        <time>2020-05-02T10:30:16Z</time>
      </trkpt>
      <trkpt lat="46.07006" lon="6.19844">
        <ele>952.245</ele>
        <time>2020-05-02T10:30:17Z</time>
      </trkpt>
      <trkpt lat="46.07007" lon="6.19833">
        <ele>952.244</ele>
        <time>2020-05-02T10:30:18Z</time>
      </trkpt>
      <trkpt lat="46.07008" lon="6.19823">
        <ele>952.096</ele>
        <time>2020-05-02T10:30:19Z</time>
      </trkpt>
      <trkpt lat="46.07008" lon="6.19812">
        <ele>951.791</ele>
        <time>2020-05-02T10:30:20Z</time>
      </trkpt>
      <trkpt lat="46.07008" lon="6.19801">
        <ele>951.475</ele>
        <time>2020-05-02T10:30:21Z</time>
      </trkpt>
      <trkpt lat="46.07008" lon="6.19792">
        <ele>951.019</ele>
        <time>2020-05-02T10:30:22Z</time>
      </trkpt>
      <trkpt lat="46.0701" lon="6.19782">
        <ele>950.61</ele>
        <time>2020-05-02T10:30:23Z</time>
      </trkpt>
      <trkpt lat="46.07012" lon="6.19774">
        <ele>950.072</ele>
        <time>2020-05-02T10:30:24Z</time>
      </trkpt>
      <trkpt lat="46.07016" lon="6.19766">
        <ele>949.413</ele>
        <time>2020-05-02T10:30:25Z</time>
      </trkpt>
      <trkpt lat="46.07019" lon="6.19758">
        <ele>948.714</ele>
        <time>2020-05-02T10:30:26Z</time>
      </trkpt>
      <trkpt lat="46.07023" lon="6.19751">
        <ele>948.008</ele>
        <time>2020-05-02T10:30:27Z</time>
      </trkpt>
      <trkpt lat="46.07026" lon="6.19741">
        <ele>947.311</ele>
        <time>2020-05-02T10:30:28Z</time>
      </trkpt>
      <trkpt lat="46.07029" lon="6.19735">
        <ele>946.825</ele>
        <time>2020-05-02T10:30:29Z</time>
      </trkpt>
      <trkpt lat="46.07031" lon="6.19727">
        <ele>946.384</ele>
        <time>2020-05-02T10:30:30Z</time>
      </trkpt>
      <trkpt lat="46.07034" lon="6.19718">
        <ele>945.646</ele>
        <time>2020-05-02T10:30:32Z</time>
      </trkpt>
      <trkpt lat="46.07035" lon="6.19711">
        <ele>945.541</ele>
        <time>2020-05-02T10:30:33Z</time>
      </trkpt>
      <trkpt lat="46.07034" lon="6.19705">
        <ele>945.365</ele>
        <time>2020-05-02T10:30:34Z</time>
      </trkpt>
      <trkpt lat="46.07031" lon="6.19695">
        <ele>945.379</ele>
        <time>2020-05-02T10:30:35Z</time>
      </trkpt>
      <trkpt lat="46.07027" lon="6.19686">
        <ele>945.39</ele>
        <time>2020-05-02T10:30:36Z</time>
      </trkpt>
      <trkpt lat="46.07023" lon="6.19678">
        <ele>945.552</ele>
        <time>2020-05-02T10:30:37Z</time>
      </trkpt>
      <trkpt lat="46.07019" lon="6.19673">
        <ele>945.653</ele>
        <time>2020-05-02T10:30:38Z</time>
      </trkpt>
      <trkpt lat="46.07013" lon="6.19667">
        <ele>945.708</ele>
        <time>2020-05-02T10:30:39Z</time>
      </trkpt>
      <trkpt lat="46.07007" lon="6.19659">
        <ele>945.808</ele>
        <time>2020-05-02T10:30:40Z</time>
      </trkpt>
      <trkpt lat="46.07002" lon="6.19653">
        <ele>946.179</ele>
        <time>2020-05-02T10:30:41Z</time>
      </trkpt>
      <trkpt lat="46.06998" lon="6.19649">
        <ele>946.283</ele>
        <time>2020-05-02T10:30:42Z</time>
      </trkpt>
      <trkpt lat="46.06992" lon="6.19641">
        <ele>946.412</ele>
        <time>2020-05-02T10:30:43Z</time>
      </trkpt>
      <trkpt lat="46.06987" lon="6.19632">
        <ele>946.834</ele>
        <time>2020-05-02T10:30:44Z</time>
      </trkpt>
      <trkpt lat="46.0698" lon="6.19623">
        <ele>947.239</ele>
        <time>2020-05-02T10:30:45Z</time>
      </trkpt>
      <trkpt lat="46.06974" lon="6.19613">
        <ele>947.583</ele>
        <time>2020-05-02T10:30:46Z</time>
      </trkpt>
      <trkpt lat="46.06969" lon="6.19605">
        <ele>947.977</ele>
        <time>2020-05-02T10:30:47Z</time>
      </trkpt>
      <trkpt lat="46.06964" lon="6.19598">
        <ele>948.238</ele>
        <time>2020-05-02T10:30:48Z</time>
      </trkpt>
      <trkpt lat="46.06959" lon="6.1959">
        <ele>948.613</ele>
        <time>2020-05-02T10:30:49Z</time>
      </trkpt>
      <trkpt lat="46.06954" lon="6.19584">
        <ele>949.043</ele>
        <time>2020-05-02T10:30:50Z</time>
      </trkpt>
      <trkpt lat="46.06949" lon="6.19585">
        <ele>949.307</ele>
        <time>2020-05-02T10:30:51Z</time>
      </trkpt>
      <trkpt lat="46.06941" lon="6.19587">
        <ele>949.708</ele>
        <time>2020-05-02T10:30:52Z</time>
      </trkpt>
      <trkpt lat="46.06932" lon="6.19593">
        <ele>950.255</ele>
        <time>2020-05-02T10:30:53Z</time>
      </trkpt>
      <trkpt lat="46.06927" lon="6.19598">
        <ele>950.219</ele>
        <time>2020-05-02T10:30:54Z</time>
      </trkpt>
      <trkpt lat="46.06923" lon="6.19603">
        <ele>950.698</ele>
        <time>2020-05-02T10:30:55Z</time>
      </trkpt>
      <trkpt lat="46.06919" lon="6.19607">
        <ele>951.02</ele>
        <time>2020-05-02T10:30:56Z</time>
      </trkpt>
      <trkpt lat="46.06915" lon="6.1961">
        <ele>951.545</ele>
        <time>2020-05-02T10:30:57Z</time>
      </trkpt>
      <trkpt lat="46.06911" lon="6.1961">
        <ele>951.819</ele>
        <time>2020-05-02T10:30:58Z</time>
      </trkpt>
      <trkpt lat="46.06905" lon="6.19608">
        <ele>951.823</ele>
        <time>2020-05-02T10:30:59Z</time>
      </trkpt>
      <trkpt lat="46.069" lon="6.19604">
        <ele>951.874</ele>
        <time>2020-05-02T10:31:00Z</time>
      </trkpt>
      <trkpt lat="46.06895" lon="6.19602">
        <ele>951.689</ele>
        <time>2020-05-02T10:31:01Z</time>
      </trkpt>
      <trkpt lat="46.06888" lon="6.196">
        <ele>951.206</ele>
        <time>2020-05-02T10:31:02Z</time>
      </trkpt>
      <trkpt lat="46.06882" lon="6.19596">
        <ele>950.826</ele>
        <time>2020-05-02T10:31:03Z</time>
      </trkpt>
      <trkpt lat="46.06877" lon="6.19593">
        <ele>950.408</ele>
        <time>2020-05-02T10:31:04Z</time>
      </trkpt>
      <trkpt lat="46.06871" lon="6.1959">
        <ele>949.912</ele>
        <time>2020-05-02T10:31:05Z</time>
      </trkpt>
      <trkpt lat="46.06866" lon="6.19588">
        <ele>949.446</ele>
        <time>2020-05-02T10:31:06Z</time>
      </trkpt>
      <trkpt lat="46.06859" lon="6.19585">
        <ele>948.955</ele>
        <time>2020-05-02T10:31:07Z</time>
      </trkpt>
      <trkpt lat="46.06853" lon="6.19581">
        <ele>948.377</ele>
        <time>2020-05-02T10:31:08Z</time>
      </trkpt>
      <trkpt lat="46.06848" lon="6.19577">
        <ele>947.762</ele>
        <time>2020-05-02T10:31:09Z</time>
      </trkpt>
      <trkpt lat="46.06842" lon="6.19573">
        <ele>947.046</ele>
        <time>2020-05-02T10:31:10Z</time>
      </trkpt>
      <trkpt lat="46.06836" lon="6.19569">
        <ele>946.44</ele>
        <time>2020-05-02T10:31:11Z</time>
      </trkpt>
      <trkpt lat="46.0683" lon="6.19565">
        <ele>945.821</ele>
        <time>2020-05-02T10:31:12Z</time>
      </trkpt>
      <trkpt lat="46.06825" lon="6.19561">
        <ele>945.215</ele>
        <time>2020-05-02T10:31:13Z</time>
      </trkpt>
      <trkpt lat="46.06821" lon="6.19554">
        <ele>944.665</ele>
        <time>2020-05-02T10:31:14Z</time>
      </trkpt>
      <trkpt lat="46.06817" lon="6.19546">
        <ele>944.111</ele>
        <time>2020-05-02T10:31:15Z</time>
      </trkpt>
      <trkpt lat="46.06814" lon="6.19537">
        <ele>943.608</ele>
        <time>2020-05-02T10:31:16Z</time>
      </trkpt>
      <trkpt lat="46.06812" lon="6.19527">
        <ele>943.115</ele>
        <time>2020-05-02T10:31:17Z</time>
      </trkpt>
      <trkpt lat="46.0681" lon="6.19517">
        <ele>942.779</ele>
        <time>2020-05-02T10:31:18Z</time>
      </trkpt>
      <trkpt lat="46.06806" lon="6.19507">
        <ele>942.538</ele>
        <time>2020-05-02T10:31:19Z</time>
      </trkpt>
      <trkpt lat="46.06802" lon="6.19499">
        <ele>942.28</ele>
        <time>2020-05-02T10:31:20Z</time>
      </trkpt>
      <trkpt lat="46.06797" lon="6.19493">
        <ele>942.095</ele>
        <time>2020-05-02T10:31:21Z</time>
      </trkpt>
      <trkpt lat="46.06791" lon="6.19487">
        <ele>941.829</ele>
        <time>2020-05-02T10:31:22Z</time>
      </trkpt>
      <trkpt lat="46.06784" lon="6.19483">
        <ele>941.673</ele>
        <time>2020-05-02T10:31:23Z</time>
      </trkpt>
      <trkpt lat="46.06777" lon="6.19482">
        <ele>941.494</ele>
        <time>2020-05-02T10:31:24Z</time>
      </trkpt>
      <trkpt lat="46.06769" lon="6.19481">
        <ele>941.359</ele>
        <time>2020-05-02T10:31:25Z</time>
      </trkpt>
      <trkpt lat="46.0676" lon="6.19481">
        <ele>941.303</ele>
        <time>2020-05-02T10:31:26Z</time>
      </trkpt>
      <trkpt lat="46.0675" lon="6.1948">
        <ele>941.323</ele>
        <time>2020-05-02T10:31:27Z</time>
      </trkpt>
      <trkpt lat="46.06738" lon="6.19475">
        <ele>941.208</ele>
        <time>2020-05-02T10:31:28Z</time>
      </trkpt>
      <trkpt lat="46.06721" lon="6.19467">
        <ele>941.229</ele>
        <time>2020-05-02T10:31:29Z</time>
      </trkpt>
      <trkpt lat="46.06707" lon="6.19462">
        <ele>941.253</ele>
        <time>2020-05-02T10:31:30Z</time>
      </trkpt>
      <trkpt lat="46.06697" lon="6.19454">
        <ele>941.842</ele>
        <time>2020-05-02T10:31:31Z</time>
      </trkpt>
      <trkpt lat="46.06689" lon="6.19447">
        <ele>942.614</ele>
        <time>2020-05-02T10:31:32Z</time>
      </trkpt>
      <trkpt lat="46.06681" lon="6.19439">
        <ele>943.779</ele>
        <time>2020-05-02T10:31:33Z</time>
      </trkpt>
      <trkpt lat="46.06672" lon="6.19433">
        <ele>945.133</ele>
        <time>2020-05-02T10:31:34Z</time>
      </trkpt>
      <trkpt lat="46.06664" lon="6.19429">
        <ele>946.337</ele>
        <time>2020-05-02T10:31:35Z</time>
      </trkpt>
      <trkpt lat="46.06653" lon="6.19423">
        <ele>947.128</ele>
        <time>2020-05-02T10:31:36Z</time>
      </trkpt>
      <trkpt lat="46.06643" lon="6.19416">
        <ele>947.843</ele>
        <time>2020-05-02T10:31:37Z</time>
      </trkpt>
      <trkpt lat="46.06635" lon="6.19409">
        <ele>948.564</ele>
        <time>2020-05-02T10:31:38Z</time>
      </trkpt>
      <trkpt lat="46.06627" lon="6.19403">
        <ele>949.11</ele>
        <time>2020-05-02T10:31:39Z</time>
      </trkpt>
      <trkpt lat="46.06619" lon="6.19399">
        <ele>949.408</ele>
        <time>2020-05-02T10:31:40Z</time>
      </trkpt>
      <trkpt lat="46.06611" lon="6.19395">
        <ele>949.968</ele>
        <time>2020-05-02T10:31:41Z</time>
      </trkpt>
      <trkpt lat="46.06604" lon="6.1939">
        <ele>950.142</ele>
        <time>2020-05-02T10:31:42Z</time>
      </trkpt>
      <trkpt lat="46.06596" lon="6.19387">
        <ele>950.191</ele>
        <time>2020-05-02T10:31:43Z</time>
      </trkpt>
      <trkpt lat="46.0659" lon="6.19384">
        <ele>949.653</ele>
        <time>2020-05-02T10:31:44Z</time>
      </trkpt>
      <trkpt lat="46.06584" lon="6.19381">
        <ele>949.398</ele>
        <time>2020-05-02T10:31:45Z</time>
      </trkpt>
      <trkpt lat="46.06578" lon="6.19376">
        <ele>948.842</ele>
        <time>2020-05-02T10:31:46Z</time>
      </trkpt>
      <trkpt lat="46.06573" lon="6.1937">
        <ele>948.436</ele>
        <time>2020-05-02T10:31:47Z</time>
      </trkpt>
      <trkpt lat="46.06568" lon="6.19364">
        <ele>947.787</ele>
        <time>2020-05-02T10:31:48Z</time>
      </trkpt>
      <trkpt lat="46.06563" lon="6.19355">
        <ele>946.992</ele>
        <time>2020-05-02T10:31:49Z</time>
      </trkpt>
      <trkpt lat="46.06559" lon="6.19344">
        <ele>946.173</ele>
        <time>2020-05-02T10:31:50Z</time>
      </trkpt>
      <trkpt lat="46.06556" lon="6.19335">
        <ele>945.02</ele>
        <time>2020-05-02T10:31:51Z</time>
      </trkpt>
      <trkpt lat="46.06555" lon="6.19326">
        <ele>943.608</ele>
        <time>2020-05-02T10:31:52Z</time>
      </trkpt>
      <trkpt lat="46.06553" lon="6.19317">
        <ele>942.453</ele>
        <time>2020-05-02T10:31:53Z</time>
      </trkpt>
      <trkpt lat="46.06552" lon="6.19307">
        <ele>941.237</ele>
        <time>2020-05-02T10:31:54Z</time>
      </trkpt>
      <trkpt lat="46.0655" lon="6.19296">
        <ele>940.146</ele>
        <time>2020-05-02T10:31:55Z</time>
      </trkpt>
      <trkpt lat="46.06549" lon="6.19285">
        <ele>939.058</ele>
        <time>2020-05-02T10:31:56Z</time>
      </trkpt>
      <trkpt lat="46.06546" lon="6.19277">
        <ele>938.083</ele>
        <time>2020-05-02T10:31:57Z</time>
      </trkpt>
      <trkpt lat="46.06542" lon="6.19271">
        <ele>937.147</ele>
        <time>2020-05-02T10:31:58Z</time>
      </trkpt>
      <trkpt lat="46.06538" lon="6.19265">
        <ele>936.311</ele>
        <time>2020-05-02T10:31:59Z</time>
      </trkpt>
      <trkpt lat="46.06531" lon="6.19259">
        <ele>935.872</ele>
        <time>2020-05-02T10:32:00Z</time>
      </trkpt>
      <trkpt lat="46.06523" lon="6.19251">
        <ele>935.412</ele>
        <time>2020-05-02T10:32:01Z</time>
      </trkpt>
      <trkpt lat="46.06514" lon="6.19243">
        <ele>935.232</ele>
        <time>2020-05-02T10:32:02Z</time>
      </trkpt>
      <trkpt lat="46.06507" lon="6.19237">
        <ele>935.005</ele>
        <time>2020-05-02T10:32:03Z</time>
      </trkpt>
      <trkpt lat="46.065" lon="6.19231">
        <ele>934.908</ele>
        <time>2020-05-02T10:32:04Z</time>
      </trkpt>
      <trkpt lat="46.06487" lon="6.19225">
        <ele>934.965</ele>
        <time>2020-05-02T10:32:05Z</time>
      </trkpt>
      <trkpt lat="46.06473" lon="6.19215">
        <ele>934.959</ele>
        <time>2020-05-02T10:32:06Z</time>
      </trkpt>
      <trkpt lat="46.06464" lon="6.19206">
        <ele>934.988</ele>
        <time>2020-05-02T10:32:07Z</time>
      </trkpt>
      <trkpt lat="46.06454" lon="6.19191">
        <ele>935.18</ele>
        <time>2020-05-02T10:32:08Z</time>
      </trkpt>
      <trkpt lat="46.06445" lon="6.19176">
        <ele>935.365</ele>
        <time>2020-05-02T10:32:09Z</time>
      </trkpt>
      <trkpt lat="46.06436" lon="6.19162">
        <ele>935.479</ele>
        <time>2020-05-02T10:32:10Z</time>
      </trkpt>
      <trkpt lat="46.06429" lon="6.19174">
        <ele>935.793</ele>
        <time>2020-05-02T10:32:11Z</time>
      </trkpt>
      <trkpt lat="46.06417" lon="6.19166">
        <ele>935.894</ele>
        <time>2020-05-02T10:32:12Z</time>
      </trkpt>
      <trkpt lat="46.06405" lon="6.19156">
        <ele>935.911</ele>
        <time>2020-05-02T10:32:13Z</time>
      </trkpt>
      <trkpt lat="46.06394" lon="6.19147">
        <ele>936.121</ele>
        <time>2020-05-02T10:32:14Z</time>
      </trkpt>
      <trkpt lat="46.06386" lon="6.19138">
        <ele>936.603</ele>
        <time>2020-05-02T10:32:15Z</time>
      </trkpt>
      <trkpt lat="46.06378" lon="6.1913">
        <ele>937.208</ele>
        <time>2020-05-02T10:32:16Z</time>
      </trkpt>
      <trkpt lat="46.06369" lon="6.19124">
        <ele>937.815</ele>
        <time>2020-05-02T10:32:17Z</time>
      </trkpt>
      <trkpt lat="46.06361" lon="6.19117">
        <ele>938.499</ele>
        <time>2020-05-02T10:32:18Z</time>
      </trkpt>
      <trkpt lat="46.06353" lon="6.19112">
        <ele>939.088</ele>
        <time>2020-05-02T10:32:19Z</time>
      </trkpt>
      <trkpt lat="46.06345" lon="6.19106">
        <ele>939.36</ele>
        <time>2020-05-02T10:32:20Z</time>
      </trkpt>
      <trkpt lat="46.06338" lon="6.19101">
        <ele>939.655</ele>
        <time>2020-05-02T10:32:21Z</time>
      </trkpt>
      <trkpt lat="46.06331" lon="6.19096">
        <ele>939.979</ele>
        <time>2020-05-02T10:32:22Z</time>
      </trkpt>
      <trkpt lat="46.06324" lon="6.19091">
        <ele>940.313</ele>
        <time>2020-05-02T10:32:23Z</time>
      </trkpt>
      <trkpt lat="46.06317" lon="6.19087">
        <ele>940.534</ele>
        <time>2020-05-02T10:32:24Z</time>
      </trkpt>
      <trkpt lat="46.06309" lon="6.19083">
        <ele>940.841</ele>
        <time>2020-05-02T10:32:25Z</time>
      </trkpt>
      <trkpt lat="46.06301" lon="6.1908">
        <ele>941.181</ele>
        <time>2020-05-02T10:32:26Z</time>
      </trkpt>
      <trkpt lat="46.06296" lon="6.19077">
        <ele>941.309</ele>
        <time>2020-05-02T10:32:27Z</time>
      </trkpt>
      <trkpt lat="46.06291" lon="6.19074">
        <ele>941.508</ele>
        <time>2020-05-02T10:32:28Z</time>
      </trkpt>
      <trkpt lat="46.06284" lon="6.19071">
        <ele>941.948</ele>
        <time>2020-05-02T10:32:30Z</time>
      </trkpt>
      <trkpt lat="46.0628" lon="6.19067">
        <ele>942.252</ele>
        <time>2020-05-02T10:32:31Z</time>
      </trkpt>
      <trkpt lat="46.06272" lon="6.19062">
        <ele>942.511</ele>
        <time>2020-05-02T10:32:33Z</time>
      </trkpt>
      <trkpt lat="46.06266" lon="6.19059">
        <ele>942.943</ele>
        <time>2020-05-02T10:32:34Z</time>
      </trkpt>
      <trkpt lat="46.06262" lon="6.19055">
        <ele>943.318</ele>
        <time>2020-05-02T10:32:35Z</time>
      </trkpt>
      <trkpt lat="46.06258" lon="6.19052">
        <ele>943.582</ele>
        <time>2020-05-02T10:32:36Z</time>
      </trkpt>
      <trkpt lat="46.06254" lon="6.19047">
        <ele>944.056</ele>
        <time>2020-05-02T10:32:37Z</time>
      </trkpt>
      <trkpt lat="46.0625" lon="6.19042">
        <ele>944.467</ele>
        <time>2020-05-02T10:32:38Z</time>
      </trkpt>
      <trkpt lat="46.06246" lon="6.19036">
        <ele>944.716</ele>
        <time>2020-05-02T10:32:39Z</time>
      </trkpt>
      <trkpt lat="46.06242" lon="6.19031">
        <ele>945.176</ele>
        <time>2020-05-02T10:32:40Z</time>
      </trkpt>
      <trkpt lat="46.06236" lon="6.19028">
        <ele>945.413</ele>
        <time>2020-05-02T10:32:41Z</time>
      </trkpt>
      <trkpt lat="46.0623" lon="6.19023">
        <ele>945.508</ele>
        <time>2020-05-02T10:32:42Z</time>
      </trkpt>
      <trkpt lat="46.06226" lon="6.19019">
        <ele>945.515</ele>
        <time>2020-05-02T10:32:43Z</time>
      </trkpt>
      <trkpt lat="46.06221" lon="6.19014">
        <ele>945.489</ele>
        <time>2020-05-02T10:32:44Z</time>
      </trkpt>
      <trkpt lat="46.06216" lon="6.19009">
        <ele>944.948</ele>
        <time>2020-05-02T10:32:45Z</time>
      </trkpt>
      <trkpt lat="46.06211" lon="6.19004">
        <ele>944.48</ele>
        <time>2020-05-02T10:32:46Z</time>
      </trkpt>
      <trkpt lat="46.06205" lon="6.18998">
        <ele>943.855</ele>
        <time>2020-05-02T10:32:47Z</time>
      </trkpt>
      <trkpt lat="46.06199" lon="6.18993">
        <ele>943.139</ele>
        <time>2020-05-02T10:32:48Z</time>
      </trkpt>
      <trkpt lat="46.06193" lon="6.18988">
        <ele>942.333</ele>
        <time>2020-05-02T10:32:49Z</time>
      </trkpt>
      <trkpt lat="46.06187" lon="6.18981">
        <ele>941.624</ele>
        <time>2020-05-02T10:32:50Z</time>
      </trkpt>
      <trkpt lat="46.06182" lon="6.18975">
        <ele>940.896</ele>
        <time>2020-05-02T10:32:51Z</time>
      </trkpt>
      <trkpt lat="46.06175" lon="6.18969">
        <ele>940.131</ele>
        <time>2020-05-02T10:32:52Z</time>
      </trkpt>
      <trkpt lat="46.06167" lon="6.18964">
        <ele>939.424</ele>
        <time>2020-05-02T10:32:53Z</time>
      </trkpt>
      <trkpt lat="46.06162" lon="6.18958">
        <ele>938.708</ele>
        <time>2020-05-02T10:32:54Z</time>
      </trkpt>
      <trkpt lat="46.06158" lon="6.18951">
        <ele>938.023</ele>
        <time>2020-05-02T10:32:55Z</time>
      </trkpt>
      <trkpt lat="46.06153" lon="6.18947">
        <ele>937.697</ele>
        <time>2020-05-02T10:32:56Z</time>
      </trkpt>
      <trkpt lat="46.06149" lon="6.18942">
        <ele>937.156</ele>
        <time>2020-05-02T10:32:57Z</time>
      </trkpt>
      <trkpt lat="46.06145" lon="6.18936">
        <ele>936.728</ele>
        <time>2020-05-02T10:32:58Z</time>
      </trkpt>
      <trkpt lat="46.06144" lon="6.18929">
        <ele>936.363</ele>
        <time>2020-05-02T10:32:59Z</time>
      </trkpt>
      <trkpt lat="46.06145" lon="6.18922">
        <ele>936.037</ele>
        <time>2020-05-02T10:33:00Z</time>
      </trkpt>
      <trkpt lat="46.06149" lon="6.18915">
        <ele>935.671</ele>
        <time>2020-05-02T10:33:01Z</time>
      </trkpt>
      <trkpt lat="46.06157" lon="6.18908">
        <ele>935.462</ele>
        <time>2020-05-02T10:33:02Z</time>
      </trkpt>
      <trkpt lat="46.06166" lon="6.18897">
        <ele>935.289</ele>
        <time>2020-05-02T10:33:03Z</time>
      </trkpt>
      <trkpt lat="46.06177" lon="6.18878">
        <ele>935.206</ele>
        <time>2020-05-02T10:33:04Z</time>
      </trkpt>
      <trkpt lat="46.06186" lon="6.18863">
        <ele>935.426</ele>
        <time>2020-05-02T10:33:05Z</time>
      </trkpt>
      <trkpt lat="46.06196" lon="6.1885">
        <ele>935.508</ele>
        <time>2020-05-02T10:33:06Z</time>
      </trkpt>
      <trkpt lat="46.06206" lon="6.18837">
        <ele>935.992</ele>
        <time>2020-05-02T10:33:07Z</time>
      </trkpt>
      <trkpt lat="46.06215" lon="6.18822">
        <ele>936.466</ele>
        <time>2020-05-02T10:33:08Z</time>
      </trkpt>
      <trkpt lat="46.06224" lon="6.18809">
        <ele>936.675</ele>
        <time>2020-05-02T10:33:09Z</time>
      </trkpt>
      <trkpt lat="46.0623" lon="6.188">
        <ele>936.617</ele>
        <time>2020-05-02T10:33:10Z</time>
      </trkpt>
      <trkpt lat="46.06234" lon="6.18793">
        <ele>936.362</ele>
        <time>2020-05-02T10:33:11Z</time>
      </trkpt>
      <trkpt lat="46.06239" lon="6.18786">
        <ele>935.976</ele>
        <time>2020-05-02T10:33:12Z</time>
      </trkpt>
      <trkpt lat="46.06246" lon="6.18782">
        <ele>935.39</ele>
        <time>2020-05-02T10:33:13Z</time>
      </trkpt>
      <trkpt lat="46.06254" lon="6.18781">
        <ele>934.721</ele>
        <time>2020-05-02T10:33:14Z</time>
      </trkpt>
      <trkpt lat="46.06263" lon="6.18781">
        <ele>934.265</ele>
        <time>2020-05-02T10:33:15Z</time>
      </trkpt>
      <trkpt lat="46.0627" lon="6.18784">
        <ele>933.868</ele>
        <time>2020-05-02T10:33:16Z</time>
      </trkpt>
      <trkpt lat="46.06278" lon="6.18786">
        <ele>933.314</ele>
        <time>2020-05-02T10:33:17Z</time>
      </trkpt>
      <trkpt lat="46.06286" lon="6.18788">
        <ele>932.808</ele>
        <time>2020-05-02T10:33:18Z</time>
      </trkpt>
      <trkpt lat="46.06293" lon="6.18789">
        <ele>932.38</ele>
        <time>2020-05-02T10:33:19Z</time>
      </trkpt>
      <trkpt lat="46.06301" lon="6.18791">
        <ele>931.884</ele>
        <time>2020-05-02T10:33:20Z</time>
      </trkpt>
      <trkpt lat="46.06308" lon="6.18793">
        <ele>931.433</ele>
        <time>2020-05-02T10:33:21Z</time>
      </trkpt>
      <trkpt lat="46.06315" lon="6.18794">
        <ele>930.855</ele>
        <time>2020-05-02T10:33:23Z</time>
      </trkpt>
      <trkpt lat="46.06317" lon="6.18788">
        <ele>930.36</ele>
        <time>2020-05-02T10:33:25Z</time>
      </trkpt>
      <trkpt lat="46.06311" lon="6.18776">
        <ele>929.934</ele>
        <time>2020-05-02T10:33:27Z</time>
      </trkpt>
      <trkpt lat="46.06302" lon="6.18769">
        <ele>929.778</ele>
        <time>2020-05-02T10:33:28Z</time>
      </trkpt>
      <trkpt lat="46.06292" lon="6.1876">
        <ele>929.569</ele>
        <time>2020-05-02T10:33:29Z</time>
      </trkpt>
      <trkpt lat="46.06284" lon="6.18749">
        <ele>929.473</ele>
        <time>2020-05-02T10:33:30Z</time>
      </trkpt>
      <trkpt lat="46.06277" lon="6.1874">
        <ele>929.285</ele>
        <time>2020-05-02T10:33:31Z</time>
      </trkpt>
      <trkpt lat="46.06272" lon="6.18733">
        <ele>928.913</ele>
        <time>2020-05-02T10:33:32Z</time>
      </trkpt>
      <trkpt lat="46.06268" lon="6.18726">
        <ele>928.508</ele>
        <time>2020-05-02T10:33:33Z</time>
      </trkpt>
      <trkpt lat="46.06265" lon="6.18719">
        <ele>927.931</ele>
        <time>2020-05-02T10:33:34Z</time>
      </trkpt>
      <trkpt lat="46.0626" lon="6.18711">
        <ele>927.095</ele>
        <time>2020-05-02T10:33:35Z</time>
      </trkpt>
      <trkpt lat="46.06256" lon="6.187">
        <ele>926.214</ele>
        <time>2020-05-02T10:33:36Z</time>
      </trkpt>
      <trkpt lat="46.06254" lon="6.18692">
        <ele>925.356</ele>
        <time>2020-05-02T10:33:37Z</time>
      </trkpt>
      <trkpt lat="46.06253" lon="6.18682">
        <ele>924.571</ele>
        <time>2020-05-02T10:33:38Z</time>
      </trkpt>
      <trkpt lat="46.06252" lon="6.18671">
        <ele>923.785</ele>
        <time>2020-05-02T10:33:39Z</time>
      </trkpt>
      <trkpt lat="46.06252" lon="6.18662">
        <ele>922.949</ele>
        <time>2020-05-02T10:33:40Z</time>
      </trkpt>
      <trkpt lat="46.06252" lon="6.18655">
        <ele>922.07</ele>
        <time>2020-05-02T10:33:41Z</time>
      </trkpt>
      <trkpt lat="46.06251" lon="6.18645">
        <ele>921.063</ele>
        <time>2020-05-02T10:33:42Z</time>
      </trkpt>
      <trkpt lat="46.06248" lon="6.18635">
        <ele>920.144</ele>
        <time>2020-05-02T10:33:43Z</time>
      </trkpt>
      <trkpt lat="46.06246" lon="6.18627">
        <ele>919.418</ele>
        <time>2020-05-02T10:33:44Z</time>
      </trkpt>
      <trkpt lat="46.06243" lon="6.18616">
        <ele>918.708</ele>
        <time>2020-05-02T10:33:45Z</time>
      </trkpt>
      <trkpt lat="46.06241" lon="6.18607">
        <ele>918.04</ele>
        <time>2020-05-02T10:33:46Z</time>
      </trkpt>
      <trkpt lat="46.06236" lon="6.18599">
        <ele>917.434</ele>
        <time>2020-05-02T10:33:47Z</time>
      </trkpt>
      <trkpt lat="46.06232" lon="6.18591">
        <ele>916.813</ele>
        <time>2020-05-02T10:33:48Z</time>
      </trkpt>
      <trkpt lat="46.06227" lon="6.18581">
        <ele>916.295</ele>
        <time>2020-05-02T10:33:49Z</time>
      </trkpt>
      <trkpt lat="46.06222" lon="6.18574">
        <ele>915.51</ele>
        <time>2020-05-02T10:33:50Z</time>
      </trkpt>
      <trkpt lat="46.06215" lon="6.18569">
        <ele>915.024</ele>
        <time>2020-05-02T10:33:51Z</time>
      </trkpt>
      <trkpt lat="46.06206" lon="6.18563">
        <ele>914.578</ele>
        <time>2020-05-02T10:33:52Z</time>
      </trkpt>
      <trkpt lat="46.06198" lon="6.18557">
        <ele>914.219</ele>
        <time>2020-05-02T10:33:53Z</time>
      </trkpt>
      <trkpt lat="46.06192" lon="6.18551">
        <ele>913.872</ele>
        <time>2020-05-02T10:33:54Z</time>
      </trkpt>
      <trkpt lat="46.06185" lon="6.18545">
        <ele>913.413</ele>
        <time>2020-05-02T10:33:55Z</time>
      </trkpt>
      <trkpt lat="46.06179" lon="6.1854">
        <ele>913.014</ele>
        <time>2020-05-02T10:33:56Z</time>
      </trkpt>
      <trkpt lat="46.06174" lon="6.18536">
        <ele>912.508</ele>
        <time>2020-05-02T10:33:57Z</time>
      </trkpt>
      <trkpt lat="46.06169" lon="6.18534">
        <ele>911.971</ele>
        <time>2020-05-02T10:33:58Z</time>
      </trkpt>
      <trkpt lat="46.06162" lon="6.18533">
        <ele>911.235</ele>
        <time>2020-05-02T10:33:59Z</time>
      </trkpt>
      <trkpt lat="46.06153" lon="6.18531">
        <ele>910.574</ele>
        <time>2020-05-02T10:34:00Z</time>
      </trkpt>
      <trkpt lat="46.06144" lon="6.18531">
        <ele>909.766</ele>
        <time>2020-05-02T10:34:01Z</time>
      </trkpt>
      <trkpt lat="46.06136" lon="6.18531">
        <ele>909.091</ele>
        <time>2020-05-02T10:34:02Z</time>
      </trkpt>
      <trkpt lat="46.06128" lon="6.18532">
        <ele>907.535</ele>
        <time>2020-05-02T10:34:04Z</time>
      </trkpt>
      <trkpt lat="46.06122" lon="6.18533">
        <ele>906.949</ele>
        <time>2020-05-02T10:34:05Z</time>
      </trkpt>
      <trkpt lat="46.06116" lon="6.18534">
        <ele>906.44</ele>
        <time>2020-05-02T10:34:06Z</time>
      </trkpt>
      <trkpt lat="46.06109" lon="6.18536">
        <ele>906.023</ele>
        <time>2020-05-02T10:34:07Z</time>
      </trkpt>
      <trkpt lat="46.06102" lon="6.18537">
        <ele>905.583</ele>
        <time>2020-05-02T10:34:08Z</time>
      </trkpt>
      <trkpt lat="46.06097" lon="6.18537">
        <ele>905.111</ele>
        <time>2020-05-02T10:34:09Z</time>
      </trkpt>
      <trkpt lat="46.06091" lon="6.18535">
        <ele>904.708</ele>
        <time>2020-05-02T10:34:10Z</time>
      </trkpt>
      <trkpt lat="46.06086" lon="6.18531">
        <ele>904.376</ele>
        <time>2020-05-02T10:34:11Z</time>
      </trkpt>
      <trkpt lat="46.0608" lon="6.1853">
        <ele>903.84</ele>
        <time>2020-05-02T10:34:12Z</time>
      </trkpt>
      <trkpt lat="46.06073" lon="6.18528">
        <ele>903.449</ele>
        <time>2020-05-02T10:34:13Z</time>
      </trkpt>
      <trkpt lat="46.06067" lon="6.18523">
        <ele>903.421</ele>
        <time>2020-05-02T10:34:14Z</time>
      </trkpt>
      <trkpt lat="46.06062" lon="6.18516">
        <ele>903.026</ele>
        <time>2020-05-02T10:34:15Z</time>
      </trkpt>
      <trkpt lat="46.06058" lon="6.1851">
        <ele>902.63</ele>
        <time>2020-05-02T10:34:16Z</time>
      </trkpt>
      <trkpt lat="46.06053" lon="6.18505">
        <ele>902.374</ele>
        <time>2020-05-02T10:34:17Z</time>
      </trkpt>
      <trkpt lat="46.06046" lon="6.18499">
        <ele>901.935</ele>
        <time>2020-05-02T10:34:19Z</time>
      </trkpt>
      <trkpt lat="46.06039" lon="6.18491">
        <ele>901.559</ele>
        <time>2020-05-02T10:34:21Z</time>
      </trkpt>
      <trkpt lat="46.06033" lon="6.18481">
        <ele>901.403</ele>
        <time>2020-05-02T10:34:22Z</time>
      </trkpt>
      <trkpt lat="46.06027" lon="6.18474">
        <ele>901.223</ele>
        <time>2020-05-02T10:34:23Z</time>
      </trkpt>
      <trkpt lat="46.06021" lon="6.18467">
        <ele>901.008</ele>
        <time>2020-05-02T10:34:24Z</time>
      </trkpt>
      <trkpt lat="46.06015" lon="6.18459">
        <ele>900.869</ele>
        <time>2020-05-02T10:34:25Z</time>
      </trkpt>
      <trkpt lat="46.06011" lon="6.18455">
        <ele>900.453</ele>
        <time>2020-05-02T10:34:26Z</time>
      </trkpt>
      <trkpt lat="46.06007" lon="6.18449">
        <ele>899.912</ele>
        <time>2020-05-02T10:34:27Z</time>
      </trkpt>
      <trkpt lat="46.06002" lon="6.18443">
        <ele>899.464</ele>
        <time>2020-05-02T10:34:28Z</time>
      </trkpt>
      <trkpt lat="46.05998" lon="6.18437">
        <ele>898.979</ele>
        <time>2020-05-02T10:34:29Z</time>
      </trkpt>
      <trkpt lat="46.05991" lon="6.1843">
        <ele>898.363</ele>
        <time>2020-05-02T10:34:30Z</time>
      </trkpt>
      <trkpt lat="46.05985" lon="6.18426">
        <ele>897.927</ele>
        <time>2020-05-02T10:34:31Z</time>
      </trkpt>
      <trkpt lat="46.05978" lon="6.18421">
        <ele>897.438</ele>
        <time>2020-05-02T10:34:32Z</time>
      </trkpt>
      <trkpt lat="46.05972" lon="6.18416">
        <ele>896.967</ele>
        <time>2020-05-02T10:34:33Z</time>
      </trkpt>
      <trkpt lat="46.05966" lon="6.18412">
        <ele>896.481</ele>
        <time>2020-05-02T10:34:34Z</time>
      </trkpt>
      <trkpt lat="46.0596" lon="6.18408">
        <ele>895.919</ele>
        <time>2020-05-02T10:34:35Z</time>
      </trkpt>
      <trkpt lat="46.05953" lon="6.18404">
        <ele>895.308</ele>
        <time>2020-05-02T10:34:36Z</time>
      </trkpt>
      <trkpt lat="46.05947" lon="6.18399">
        <ele>894.87</ele>
        <time>2020-05-02T10:34:37Z</time>
      </trkpt>
      <trkpt lat="46.0594" lon="6.18396">
        <ele>894.314</ele>
        <time>2020-05-02T10:34:38Z</time>
      </trkpt>
      <trkpt lat="46.05934" lon="6.18395">
        <ele>893.833</ele>
        <time>2020-05-02T10:34:39Z</time>
      </trkpt>
      <trkpt lat="46.05927" lon="6.18392">
        <ele>892.865</ele>
        <time>2020-05-02T10:34:41Z</time>
      </trkpt>
      <trkpt lat="46.05919" lon="6.18391">
        <ele>892.16</ele>
        <time>2020-05-02T10:34:43Z</time>
      </trkpt>
      <trkpt lat="46.0591" lon="6.1839">
        <ele>891.954</ele>
        <time>2020-05-02T10:34:45Z</time>
      </trkpt>
      <trkpt lat="46.05902" lon="6.18386">
        <ele>891.948</ele>
        <time>2020-05-02T10:34:48Z</time>
      </trkpt>
      <trkpt lat="46.05897" lon="6.18384">
        <ele>891.979</ele>
        <time>2020-05-02T10:34:49Z</time>
      </trkpt>
      <trkpt lat="46.05888" lon="6.18379">
        <ele>891.853</ele>
        <time>2020-05-02T10:34:51Z</time>
      </trkpt>
      <trkpt lat="46.05884" lon="6.18375">
        <ele>891.604</ele>
        <time>2020-05-02T10:34:52Z</time>
      </trkpt>
      <trkpt lat="46.05879" lon="6.1837">
        <ele>891.314</ele>
        <time>2020-05-02T10:34:53Z</time>
      </trkpt>
      <trkpt lat="46.05872" lon="6.18357">
        <ele>890.408</ele>
        <time>2020-05-02T10:34:55Z</time>
      </trkpt>
      <trkpt lat="46.05868" lon="6.18347">
        <ele>889.949</ele>
        <time>2020-05-02T10:34:56Z</time>
      </trkpt>
      <trkpt lat="46.05865" lon="6.18335">
        <ele>889.523</ele>
        <time>2020-05-02T10:34:57Z</time>
      </trkpt>
      <trkpt lat="46.05864" lon="6.18323">
        <ele>889.112</ele>
        <time>2020-05-02T10:34:58Z</time>
      </trkpt>
      <trkpt lat="46.05863" lon="6.18311">
        <ele>888.334</ele>
        <time>2020-05-02T10:35:00Z</time>
      </trkpt>
      <trkpt lat="46.0586" lon="6.18304">
        <ele>887.849</ele>
        <time>2020-05-02T10:35:01Z</time>
      </trkpt>
      <trkpt lat="46.05857" lon="6.18294">
        <ele>886.643</ele>
        <time>2020-05-02T10:35:03Z</time>
      </trkpt>
      <trkpt lat="46.05853" lon="6.18287">
        <ele>885.967</ele>
        <time>2020-05-02T10:35:04Z</time>
      </trkpt>
      <trkpt lat="46.05849" lon="6.18279">
        <ele>885.388</ele>
        <time>2020-05-02T10:35:05Z</time>
      </trkpt>
      <trkpt lat="46.05846" lon="6.18271">
        <ele>884.611</ele>
        <time>2020-05-02T10:35:06Z</time>
      </trkpt>
      <trkpt lat="46.05842" lon="6.18263">
        <ele>883.921</ele>
        <time>2020-05-02T10:35:07Z</time>
      </trkpt>
      <trkpt lat="46.05837" lon="6.18253">
        <ele>883.103</ele>
        <time>2020-05-02T10:35:08Z</time>
      </trkpt>
      <trkpt lat="46.05833" lon="6.18242">
        <ele>882.208</ele>
        <time>2020-05-02T10:35:09Z</time>
      </trkpt>
      <trkpt lat="46.05831" lon="6.18233">
        <ele>881.295</ele>
        <time>2020-05-02T10:35:10Z</time>
      </trkpt>
      <trkpt lat="46.05827" lon="6.18221">
        <ele>880.249</ele>
        <time>2020-05-02T10:35:11Z</time>
      </trkpt>
      <trkpt lat="46.05826" lon="6.18214">
        <ele>879.268</ele>
        <time>2020-05-02T10:35:12Z</time>
      </trkpt>
      <trkpt lat="46.05821" lon="6.1821">
        <ele>877.29</ele>
        <time>2020-05-02T10:35:14Z</time>
      </trkpt>
      <trkpt lat="46.05815" lon="6.18198">
        <ele>875.335</ele>
        <time>2020-05-02T10:35:16Z</time>
      </trkpt>
      <trkpt lat="46.05812" lon="6.18192">
        <ele>874.369</ele>
        <time>2020-05-02T10:35:17Z</time>
      </trkpt>
      <trkpt lat="46.0581" lon="6.18185">
        <ele>873.353</ele>
        <time>2020-05-02T10:35:18Z</time>
      </trkpt>
      <trkpt lat="46.05808" lon="6.18179">
        <ele>872.324</ele>
        <time>2020-05-02T10:35:19Z</time>
      </trkpt>
      <trkpt lat="46.05805" lon="6.18173">
        <ele>871.258</ele>
        <time>2020-05-02T10:35:20Z</time>
      </trkpt>
      <trkpt lat="46.05798" lon="6.1816">
        <ele>869.052</ele>
        <time>2020-05-02T10:35:22Z</time>
      </trkpt>
      <trkpt lat="46.05794" lon="6.18152">
        <ele>867.917</ele>
        <time>2020-05-02T10:35:23Z</time>
      </trkpt>
      <trkpt lat="46.05791" lon="6.18143">
        <ele>866.808</ele>
        <time>2020-05-02T10:35:24Z</time>
      </trkpt>
      <trkpt lat="46.05789" lon="6.18135">
        <ele>865.769</ele>
        <time>2020-05-02T10:35:25Z</time>
      </trkpt>
      <trkpt lat="46.05786" lon="6.18126">
        <ele>864.613</ele>
        <time>2020-05-02T10:35:26Z</time>
      </trkpt>
      <trkpt lat="46.05783" lon="6.18116">
        <ele>863.552</ele>
        <time>2020-05-02T10:35:27Z</time>
      </trkpt>
      <trkpt lat="46.0578" lon="6.18104">
        <ele>862.454</ele>
        <time>2020-05-02T10:35:28Z</time>
      </trkpt>
      <trkpt lat="46.05776" lon="6.18094">
        <ele>861.339</ele>
        <time>2020-05-02T10:35:29Z</time>
      </trkpt>
      <trkpt lat="46.05772" lon="6.18085">
        <ele>860.283</ele>
        <time>2020-05-02T10:35:30Z</time>
      </trkpt>
      <trkpt lat="46.05768" lon="6.18077">
        <ele>859.167</ele>
        <time>2020-05-02T10:35:31Z</time>
      </trkpt>
      <trkpt lat="46.05765" lon="6.18068">
        <ele>858.078</ele>
        <time>2020-05-02T10:35:32Z</time>
      </trkpt>
      <trkpt lat="46.05762" lon="6.18061">
        <ele>857.065</ele>
        <time>2020-05-02T10:35:33Z</time>
      </trkpt>
      <trkpt lat="46.05758" lon="6.18055">
        <ele>853.868</ele>
        <time>2020-05-02T10:35:36Z</time>
      </trkpt>
      <trkpt lat="46.05755" lon="6.18048">
        <ele>851.114</ele>
        <time>2020-05-02T10:35:39Z</time>
      </trkpt>
      <trkpt lat="46.05762" lon="6.18047">
        <ele>849.508</ele>
        <time>2020-05-02T10:35:42Z</time>
      </trkpt>
      <trkpt lat="46.05766" lon="6.18053">
        <ele>849.29</ele>
        <time>2020-05-02T10:35:43Z</time>
      </trkpt>
      <trkpt lat="46.05771" lon="6.1806">
        <ele>849.044</ele>
        <time>2020-05-02T10:35:44Z</time>
      </trkpt>
      <trkpt lat="46.05776" lon="6.18067">
        <ele>848.933</ele>
        <time>2020-05-02T10:35:45Z</time>
      </trkpt>
      <trkpt lat="46.05781" lon="6.18074">
        <ele>848.835</ele>
        <time>2020-05-02T10:35:46Z</time>
      </trkpt>
      <trkpt lat="46.05787" lon="6.18082">
        <ele>848.84</ele>
        <time>2020-05-02T10:35:47Z</time>
      </trkpt>
      <trkpt lat="46.05791" lon="6.1809">
        <ele>848.774</ele>
        <time>2020-05-02T10:35:48Z</time>
      </trkpt>
      <trkpt lat="46.05798" lon="6.18099">
        <ele>848.528</ele>
        <time>2020-05-02T10:35:49Z</time>
      </trkpt>
      <trkpt lat="46.05804" lon="6.18106">
        <ele>848.329</ele>
        <time>2020-05-02T10:35:50Z</time>
      </trkpt>
      <trkpt lat="46.05808" lon="6.1811">
        <ele>848.079</ele>
        <time>2020-05-02T10:35:51Z</time>
      </trkpt>
      <trkpt lat="46.05815" lon="6.18109">
        <ele>847.605</ele>
        <time>2020-05-02T10:35:52Z</time>
      </trkpt>
      <trkpt lat="46.05821" lon="6.1811">
        <ele>847.225</ele>
        <time>2020-05-02T10:35:53Z</time>
      </trkpt>
      <trkpt lat="46.05826" lon="6.18091">
        <ele>846.808</ele>
        <time>2020-05-02T10:35:54Z</time>
      </trkpt>
      <trkpt lat="46.05827" lon="6.18083">
        <ele>846.431</ele>
        <time>2020-05-02T10:35:55Z</time>
      </trkpt>
      <trkpt lat="46.05826" lon="6.18072">
        <ele>846.185</ele>
        <time>2020-05-02T10:35:56Z</time>
      </trkpt>
      <trkpt lat="46.05823" lon="6.18061">
        <ele>846.094</ele>
        <time>2020-05-02T10:35:57Z</time>
      </trkpt>
      <trkpt lat="46.05821" lon="6.18044">
        <ele>846.016</ele>
        <time>2020-05-02T10:35:58Z</time>
      </trkpt>
      <trkpt lat="46.05821" lon="6.18029">
        <ele>845.991</ele>
        <time>2020-05-02T10:35:59Z</time>
      </trkpt>
      <trkpt lat="46.05819" lon="6.18018">
        <ele>845.995</ele>
        <time>2020-05-02T10:36:00Z</time>
      </trkpt>
      <trkpt lat="46.05817" lon="6.18006">
        <ele>845.949</ele>
        <time>2020-05-02T10:36:01Z</time>
      </trkpt>
      <trkpt lat="46.05817" lon="6.17994">
        <ele>845.97</ele>
        <time>2020-05-02T10:36:02Z</time>
      </trkpt>
      <trkpt lat="46.05819" lon="6.17981">
        <ele>846.026</ele>
        <time>2020-05-02T10:36:03Z</time>
      </trkpt>
      <trkpt lat="46.05821" lon="6.1797">
        <ele>846.247</ele>
        <time>2020-05-02T10:36:04Z</time>
      </trkpt>
      <trkpt lat="46.05823" lon="6.17959">
        <ele>846.511</ele>
        <time>2020-05-02T10:36:05Z</time>
      </trkpt>
      <trkpt lat="46.05824" lon="6.17949">
        <ele>846.808</ele>
        <time>2020-05-02T10:36:06Z</time>
      </trkpt>
      <trkpt lat="46.05826" lon="6.17939">
        <ele>847.186</ele>
        <time>2020-05-02T10:36:07Z</time>
      </trkpt>
      <trkpt lat="46.05828" lon="6.17928">
        <ele>847.22</ele>
        <time>2020-05-02T10:36:08Z</time>
      </trkpt>
      <trkpt lat="46.05831" lon="6.17916">
        <ele>847.299</ele>
        <time>2020-05-02T10:36:09Z</time>
      </trkpt>
      <trkpt lat="46.05833" lon="6.17905">
        <ele>847.141</ele>
        <time>2020-05-02T10:36:10Z</time>
      </trkpt>
      <trkpt lat="46.05836" lon="6.17894">
        <ele>846.846</ele>
        <time>2020-05-02T10:36:11Z</time>
      </trkpt>
      <trkpt lat="46.05842" lon="6.17883">
        <ele>846.42</ele>
        <time>2020-05-02T10:36:12Z</time>
      </trkpt>
      <trkpt lat="46.05847" lon="6.17873">
        <ele>845.824</ele>
        <time>2020-05-02T10:36:13Z</time>
      </trkpt>
      <trkpt lat="46.05851" lon="6.17862">
        <ele>845.185</ele>
        <time>2020-05-02T10:36:14Z</time>
      </trkpt>
      <trkpt lat="46.05854" lon="6.17849">
        <ele>844.495</ele>
        <time>2020-05-02T10:36:15Z</time>
      </trkpt>
      <trkpt lat="46.05856" lon="6.17834">
        <ele>843.749</ele>
        <time>2020-05-02T10:36:16Z</time>
      </trkpt>
      <trkpt lat="46.05858" lon="6.17817">
        <ele>842.923</ele>
        <time>2020-05-02T10:36:17Z</time>
      </trkpt>
      <trkpt lat="46.0586" lon="6.17799">
        <ele>842.108</ele>
        <time>2020-05-02T10:36:18Z</time>
      </trkpt>
      <trkpt lat="46.05862" lon="6.17781">
        <ele>841.173</ele>
        <time>2020-05-02T10:36:19Z</time>
      </trkpt>
      <trkpt lat="46.05863" lon="6.17763">
        <ele>840.197</ele>
        <time>2020-05-02T10:36:20Z</time>
      </trkpt>
      <trkpt lat="46.05864" lon="6.17746">
        <ele>838.926</ele>
        <time>2020-05-02T10:36:21Z</time>
      </trkpt>
      <trkpt lat="46.05865" lon="6.17729">
        <ele>837.888</ele>
        <time>2020-05-02T10:36:22Z</time>
      </trkpt>
      <trkpt lat="46.05865" lon="6.17713">
        <ele>836.533</ele>
        <time>2020-05-02T10:36:23Z</time>
      </trkpt>
      <trkpt lat="46.05864" lon="6.17698">
        <ele>835.577</ele>
        <time>2020-05-02T10:36:24Z</time>
      </trkpt>
      <trkpt lat="46.05863" lon="6.17683">
        <ele>834.661</ele>
        <time>2020-05-02T10:36:25Z</time>
      </trkpt>
      <trkpt lat="46.05861" lon="6.17669">
        <ele>833.672</ele>
        <time>2020-05-02T10:36:26Z</time>
      </trkpt>
      <trkpt lat="46.05859" lon="6.17655">
        <ele>832.661</ele>
        <time>2020-05-02T10:36:27Z</time>
      </trkpt>
      <trkpt lat="46.05856" lon="6.17642">
        <ele>831.821</ele>
        <time>2020-05-02T10:36:28Z</time>
      </trkpt>
      <trkpt lat="46.05854" lon="6.17629">
        <ele>831.213</ele>
        <time>2020-05-02T10:36:29Z</time>
      </trkpt>
      <trkpt lat="46.05852" lon="6.17615">
        <ele>830.508</ele>
        <time>2020-05-02T10:36:30Z</time>
      </trkpt>
      <trkpt lat="46.0585" lon="6.17603">
        <ele>830.28</ele>
        <time>2020-05-02T10:36:31Z</time>
      </trkpt>
      <trkpt lat="46.05848" lon="6.17591">
        <ele>830.034</ele>
        <time>2020-05-02T10:36:32Z</time>
      </trkpt>
      <trkpt lat="46.05849" lon="6.1758">
        <ele>829.953</ele>
        <time>2020-05-02T10:36:33Z</time>
      </trkpt>
      <trkpt lat="46.05851" lon="6.17567">
        <ele>829.715</ele>
        <time>2020-05-02T10:36:34Z</time>
      </trkpt>
      <trkpt lat="46.05854" lon="6.17555">
        <ele>829.68</ele>
        <time>2020-05-02T10:36:35Z</time>
      </trkpt>
      <trkpt lat="46.0586" lon="6.17543">
        <ele>829.474</ele>
        <time>2020-05-02T10:36:36Z</time>
      </trkpt>
      <trkpt lat="46.05866" lon="6.17532">
        <ele>829.218</ele>
        <time>2020-05-02T10:36:37Z</time>
      </trkpt>
      <trkpt lat="46.05875" lon="6.1752">
        <ele>829.049</ele>
        <time>2020-05-02T10:36:38Z</time>
      </trkpt>
      <trkpt lat="46.05884" lon="6.17508">
        <ele>828.864</ele>
        <time>2020-05-02T10:36:39Z</time>
      </trkpt>
      <trkpt lat="46.05894" lon="6.17496">
        <ele>828.306</ele>
        <time>2020-05-02T10:36:40Z</time>
      </trkpt>
      <trkpt lat="46.05905" lon="6.17485">
        <ele>827.816</ele>
        <time>2020-05-02T10:36:41Z</time>
      </trkpt>
      <trkpt lat="46.05915" lon="6.17473">
        <ele>827.108</ele>
        <time>2020-05-02T10:36:42Z</time>
      </trkpt>
      <trkpt lat="46.05925" lon="6.17464">
        <ele>826.34</ele>
        <time>2020-05-02T10:36:43Z</time>
      </trkpt>
      <trkpt lat="46.05935" lon="6.17455">
        <ele>825.444</ele>
        <time>2020-05-02T10:36:44Z</time>
      </trkpt>
      <trkpt lat="46.05944" lon="6.17446">
        <ele>824.873</ele>
        <time>2020-05-02T10:36:45Z</time>
      </trkpt>
      <trkpt lat="46.05954" lon="6.17437">
        <ele>824.185</ele>
        <time>2020-05-02T10:36:46Z</time>
      </trkpt>
      <trkpt lat="46.05964" lon="6.17428">
        <ele>823.63</ele>
        <time>2020-05-02T10:36:47Z</time>
      </trkpt>
      <trkpt lat="46.05974" lon="6.17419">
        <ele>823.594</ele>
        <time>2020-05-02T10:36:48Z</time>
      </trkpt>
      <trkpt lat="46.05984" lon="6.1741">
        <ele>823.528</ele>
        <time>2020-05-02T10:36:49Z</time>
      </trkpt>
      <trkpt lat="46.05993" lon="6.17401">
        <ele>823.659</ele>
        <time>2020-05-02T10:36:50Z</time>
      </trkpt>
      <trkpt lat="46.06001" lon="6.17394">
        <ele>823.876</ele>
        <time>2020-05-02T10:36:51Z</time>
      </trkpt>
      <trkpt lat="46.06009" lon="6.17387">
        <ele>824.19</ele>
        <time>2020-05-02T10:36:52Z</time>
      </trkpt>
      <trkpt lat="46.06017" lon="6.17379">
        <ele>824.219</ele>
        <time>2020-05-02T10:36:53Z</time>
      </trkpt>
      <trkpt lat="46.06024" lon="6.17369">
        <ele>824.308</ele>
        <time>2020-05-02T10:36:54Z</time>
      </trkpt>
      <trkpt lat="46.06032" lon="6.17359">
        <ele>824.371</ele>
        <time>2020-05-02T10:36:55Z</time>
      </trkpt>
      <trkpt lat="46.06039" lon="6.17347">
        <ele>824.375</ele>
        <time>2020-05-02T10:36:56Z</time>
      </trkpt>
      <trkpt lat="46.06045" lon="6.17333">
        <ele>824.394</ele>
        <time>2020-05-02T10:36:57Z</time>
      </trkpt>
      <trkpt lat="46.06052" lon="6.17321">
        <ele>824.396</ele>
        <time>2020-05-02T10:36:58Z</time>
      </trkpt>
      <trkpt lat="46.06058" lon="6.17308">
        <ele>824.351</ele>
        <time>2020-05-02T10:36:59Z</time>
      </trkpt>
      <trkpt lat="46.06065" lon="6.17297">
        <ele>824.315</ele>
        <time>2020-05-02T10:37:00Z</time>
      </trkpt>
      <trkpt lat="46.06072" lon="6.17288">
        <ele>824.379</ele>
        <time>2020-05-02T10:37:01Z</time>
      </trkpt>
      <trkpt lat="46.0608" lon="6.17278">
        <ele>824.34</ele>
        <time>2020-05-02T10:37:02Z</time>
      </trkpt>
      <trkpt lat="46.06089" lon="6.17269">
        <ele>824.297</ele>
        <time>2020-05-02T10:37:03Z</time>
      </trkpt>
      <trkpt lat="46.06097" lon="6.1726">
        <ele>824.223</ele>
        <time>2020-05-02T10:37:04Z</time>
      </trkpt>
      <trkpt lat="46.06105" lon="6.17251">
        <ele>824.525</ele>
        <time>2020-05-02T10:37:05Z</time>
      </trkpt>
      <trkpt lat="46.06114" lon="6.17241">
        <ele>824.808</ele>
        <time>2020-05-02T10:37:06Z</time>
      </trkpt>
      <trkpt lat="46.06124" lon="6.1723">
        <ele>825.243</ele>
        <time>2020-05-02T10:37:07Z</time>
      </trkpt>
      <trkpt lat="46.06136" lon="6.17219">
        <ele>825.747</ele>
        <time>2020-05-02T10:37:08Z</time>
      </trkpt>
      <trkpt lat="46.06147" lon="6.1721">
        <ele>826.326</ele>
        <time>2020-05-02T10:37:09Z</time>
      </trkpt>
      <trkpt lat="46.06159" lon="6.17203">
        <ele>827.048</ele>
        <time>2020-05-02T10:37:10Z</time>
      </trkpt>
      <trkpt lat="46.0617" lon="6.17198">
        <ele>827.463</ele>
        <time>2020-05-02T10:37:11Z</time>
      </trkpt>
      <trkpt lat="46.06182" lon="6.17192">
        <ele>827.727</ele>
        <time>2020-05-02T10:37:12Z</time>
      </trkpt>
      <trkpt lat="46.06194" lon="6.17186">
        <ele>827.831</ele>
        <time>2020-05-02T10:37:13Z</time>
      </trkpt>
      <trkpt lat="46.06206" lon="6.1718">
        <ele>827.822</ele>
        <time>2020-05-02T10:37:14Z</time>
      </trkpt>
      <trkpt lat="46.06218" lon="6.17174">
        <ele>827.532</ele>
        <time>2020-05-02T10:37:15Z</time>
      </trkpt>
      <trkpt lat="46.06229" lon="6.17168">
        <ele>827.392</ele>
        <time>2020-05-02T10:37:16Z</time>
      </trkpt>
      <trkpt lat="46.06239" lon="6.17163">
        <ele>827.211</ele>
        <time>2020-05-02T10:37:17Z</time>
      </trkpt>
      <trkpt lat="46.06249" lon="6.17157">
        <ele>827.008</ele>
        <time>2020-05-02T10:37:18Z</time>
      </trkpt>
      <trkpt lat="46.06259" lon="6.17152">
        <ele>826.897</ele>
        <time>2020-05-02T10:37:19Z</time>
      </trkpt>
      <trkpt lat="46.06267" lon="6.17148">
        <ele>826.671</ele>
        <time>2020-05-02T10:37:20Z</time>
      </trkpt>
      <trkpt lat="46.06274" lon="6.17144">
        <ele>826.37</ele>
        <time>2020-05-02T10:37:21Z</time>
      </trkpt>
      <trkpt lat="46.0628" lon="6.17141">
        <ele>826.072</ele>
        <time>2020-05-02T10:37:22Z</time>
      </trkpt>
      <trkpt lat="46.06286" lon="6.17138">
        <ele>825.747</ele>
        <time>2020-05-02T10:37:23Z</time>
      </trkpt>
      <trkpt lat="46.06291" lon="6.17132">
        <ele>825.491</ele>
        <time>2020-05-02T10:37:24Z</time>
      </trkpt>
      <trkpt lat="46.06297" lon="6.17126">
        <ele>825.255</ele>
        <time>2020-05-02T10:37:25Z</time>
      </trkpt>
      <trkpt lat="46.06303" lon="6.17118">
        <ele>825.166</ele>
        <time>2020-05-02T10:37:26Z</time>
      </trkpt>
      <trkpt lat="46.0631" lon="6.1711">
        <ele>824.959</ele>
        <time>2020-05-02T10:37:27Z</time>
      </trkpt>
      <trkpt lat="46.06318" lon="6.17106">
        <ele>824.703</ele>
        <time>2020-05-02T10:37:28Z</time>
      </trkpt>
      <trkpt lat="46.06329" lon="6.17104">
        <ele>824.423</ele>
        <time>2020-05-02T10:37:29Z</time>
      </trkpt>
      <trkpt lat="46.06341" lon="6.17103">
        <ele>824.008</ele>
        <time>2020-05-02T10:37:30Z</time>
      </trkpt>
      <trkpt lat="46.06351" lon="6.17103">
        <ele>823.699</ele>
        <time>2020-05-02T10:37:31Z</time>
      </trkpt>
      <trkpt lat="46.0636" lon="6.17099">
        <ele>823.113</ele>
        <time>2020-05-02T10:37:32Z</time>
      </trkpt>
      <trkpt lat="46.0637" lon="6.17094">
        <ele>822.792</ele>
        <time>2020-05-02T10:37:33Z</time>
      </trkpt>
      <trkpt lat="46.06379" lon="6.17088">
        <ele>822.074</ele>
        <time>2020-05-02T10:37:34Z</time>
      </trkpt>
      <trkpt lat="46.06389" lon="6.17082">
        <ele>822.019</ele>
        <time>2020-05-02T10:37:35Z</time>
      </trkpt>
      <trkpt lat="46.06398" lon="6.17077">
        <ele>821.243</ele>
        <time>2020-05-02T10:37:36Z</time>
      </trkpt>
      <trkpt lat="46.06408" lon="6.17072">
        <ele>820.317</ele>
        <time>2020-05-02T10:37:37Z</time>
      </trkpt>
      <trkpt lat="46.06417" lon="6.17066">
        <ele>819.598</ele>
        <time>2020-05-02T10:37:38Z</time>
      </trkpt>
      <trkpt lat="46.06427" lon="6.1706">
        <ele>818.738</ele>
        <time>2020-05-02T10:37:39Z</time>
      </trkpt>
      <trkpt lat="46.06435" lon="6.17055">
        <ele>818.17</ele>
        <time>2020-05-02T10:37:40Z</time>
      </trkpt>
      <trkpt lat="46.06444" lon="6.17051">
        <ele>817.617</ele>
        <time>2020-05-02T10:37:41Z</time>
      </trkpt>
      <trkpt lat="46.06453" lon="6.17046">
        <ele>816.808</ele>
        <time>2020-05-02T10:37:42Z</time>
      </trkpt>
      <trkpt lat="46.0646" lon="6.17039">
        <ele>815.937</ele>
        <time>2020-05-02T10:37:43Z</time>
      </trkpt>
      <trkpt lat="46.06467" lon="6.17029">
        <ele>814.971</ele>
        <time>2020-05-02T10:37:44Z</time>
      </trkpt>
      <trkpt lat="46.06471" lon="6.17018">
        <ele>813.95</ele>
        <time>2020-05-02T10:37:45Z</time>
      </trkpt>
      <trkpt lat="46.06476" lon="6.17009">
        <ele>812.962</ele>
        <time>2020-05-02T10:37:46Z</time>
      </trkpt>
      <trkpt lat="46.06483" lon="6.17001">
        <ele>812.047</ele>
        <time>2020-05-02T10:37:47Z</time>
      </trkpt>
      <trkpt lat="46.06491" lon="6.16996">
        <ele>811.121</ele>
        <time>2020-05-02T10:37:48Z</time>
      </trkpt>
      <trkpt lat="46.06501" lon="6.16996">
        <ele>810.385</ele>
        <time>2020-05-02T10:37:49Z</time>
      </trkpt>
      <trkpt lat="46.0651" lon="6.16999">
        <ele>809.436</ele>
        <time>2020-05-02T10:37:50Z</time>
      </trkpt>
      <trkpt lat="46.06519" lon="6.17005">
        <ele>808.567</ele>
        <time>2020-05-02T10:37:51Z</time>
      </trkpt>
      <trkpt lat="46.06528" lon="6.17012">
        <ele>807.781</ele>
        <time>2020-05-02T10:37:52Z</time>
      </trkpt>
      <trkpt lat="46.06538" lon="6.1702">
        <ele>806.919</ele>
        <time>2020-05-02T10:37:53Z</time>
      </trkpt>
      <trkpt lat="46.06547" lon="6.17026">
        <ele>806.108</ele>
        <time>2020-05-02T10:37:54Z</time>
      </trkpt>
      <trkpt lat="46.06557" lon="6.17031">
        <ele>805.27</ele>
        <time>2020-05-02T10:37:55Z</time>
      </trkpt>
      <trkpt lat="46.06566" lon="6.17035">
        <ele>804.334</ele>
        <time>2020-05-02T10:37:56Z</time>
      </trkpt>
      <trkpt lat="46.06575" lon="6.17038">
        <ele>803.383</ele>
        <time>2020-05-02T10:37:57Z</time>
      </trkpt>
      <trkpt lat="46.06584" lon="6.17039">
        <ele>802.315</ele>
        <time>2020-05-02T10:37:58Z</time>
      </trkpt>
      <trkpt lat="46.06593" lon="6.17036">
        <ele>801.32</ele>
        <time>2020-05-02T10:37:59Z</time>
      </trkpt>
      <trkpt lat="46.06601" lon="6.1703">
        <ele>800.374</ele>
        <time>2020-05-02T10:38:00Z</time>
      </trkpt>
      <trkpt lat="46.0661" lon="6.17023">
        <ele>799.348</ele>
        <time>2020-05-02T10:38:01Z</time>
      </trkpt>
      <trkpt lat="46.06618" lon="6.17017">
        <ele>798.389</ele>
        <time>2020-05-02T10:38:02Z</time>
      </trkpt>
      <trkpt lat="46.06627" lon="6.17014">
        <ele>797.489</ele>
        <time>2020-05-02T10:38:03Z</time>
      </trkpt>
      <trkpt lat="46.06637" lon="6.17015">
        <ele>796.506</ele>
        <time>2020-05-02T10:38:04Z</time>
      </trkpt>
      <trkpt lat="46.06645" lon="6.17019">
        <ele>795.526</ele>
        <time>2020-05-02T10:38:05Z</time>
      </trkpt>
      <trkpt lat="46.06653" lon="6.17024">
        <ele>794.708</ele>
        <time>2020-05-02T10:38:06Z</time>
      </trkpt>
      <trkpt lat="46.06661" lon="6.17028">
        <ele>794.022</ele>
        <time>2020-05-02T10:38:07Z</time>
      </trkpt>
      <trkpt lat="46.0667" lon="6.17032">
        <ele>793.436</ele>
        <time>2020-05-02T10:38:08Z</time>
      </trkpt>
      <trkpt lat="46.06679" lon="6.17039">
        <ele>793.025</ele>
        <time>2020-05-02T10:38:09Z</time>
      </trkpt>
      <trkpt lat="46.06689" lon="6.17045">
        <ele>792.887</ele>
        <time>2020-05-02T10:38:10Z</time>
      </trkpt>
      <trkpt lat="46.06699" lon="6.17049">
        <ele>792.832</ele>
        <time>2020-05-02T10:38:11Z</time>
      </trkpt>
      <trkpt lat="46.06709" lon="6.17054">
        <ele>792.936</ele>
        <time>2020-05-02T10:38:12Z</time>
      </trkpt>
      <trkpt lat="46.06721" lon="6.17058">
        <ele>793.19</ele>
        <time>2020-05-02T10:38:13Z</time>
      </trkpt>
      <trkpt lat="46.06731" lon="6.17063">
        <ele>793.111</ele>
        <time>2020-05-02T10:38:14Z</time>
      </trkpt>
      <trkpt lat="46.06742" lon="6.1707">
        <ele>793.162</ele>
        <time>2020-05-02T10:38:15Z</time>
      </trkpt>
      <trkpt lat="46.06751" lon="6.17079">
        <ele>792.983</ele>
        <time>2020-05-02T10:38:16Z</time>
      </trkpt>
      <trkpt lat="46.06761" lon="6.17086">
        <ele>792.511</ele>
        <time>2020-05-02T10:38:17Z</time>
      </trkpt>
      <trkpt lat="46.0677" lon="6.17092">
        <ele>792.008</ele>
        <time>2020-05-02T10:38:18Z</time>
      </trkpt>
      <trkpt lat="46.0678" lon="6.17098">
        <ele>791.59</ele>
        <time>2020-05-02T10:38:19Z</time>
      </trkpt>
      <trkpt lat="46.06789" lon="6.17106">
        <ele>791.284</ele>
        <time>2020-05-02T10:38:20Z</time>
      </trkpt>
      <trkpt lat="46.068" lon="6.17112">
        <ele>791.263</ele>
        <time>2020-05-02T10:38:21Z</time>
      </trkpt>
      <trkpt lat="46.06812" lon="6.17116">
        <ele>791.285</ele>
        <time>2020-05-02T10:38:22Z</time>
      </trkpt>
      <trkpt lat="46.06821" lon="6.17122">
        <ele>791.47</ele>
        <time>2020-05-02T10:38:23Z</time>
      </trkpt>
      <trkpt lat="46.06831" lon="6.17126">
        <ele>791.784</ele>
        <time>2020-05-02T10:38:24Z</time>
      </trkpt>
      <trkpt lat="46.06839" lon="6.17129">
        <ele>792.088</ele>
        <time>2020-05-02T10:38:25Z</time>
      </trkpt>
      <trkpt lat="46.06846" lon="6.17132">
        <ele>792.389</ele>
        <time>2020-05-02T10:38:26Z</time>
      </trkpt>
      <trkpt lat="46.06853" lon="6.17135">
        <ele>792.529</ele>
        <time>2020-05-02T10:38:27Z</time>
      </trkpt>
      <trkpt lat="46.06858" lon="6.17136">
        <ele>792.7</ele>
        <time>2020-05-02T10:38:28Z</time>
      </trkpt>
      <trkpt lat="46.06864" lon="6.17137">
        <ele>792.82</ele>
        <time>2020-05-02T10:38:29Z</time>
      </trkpt>
      <trkpt lat="46.06871" lon="6.17136">
        <ele>792.908</ele>
        <time>2020-05-02T10:38:30Z</time>
      </trkpt>
      <trkpt lat="46.06877" lon="6.17133">
        <ele>792.946</ele>
        <time>2020-05-02T10:38:31Z</time>
      </trkpt>
      <trkpt lat="46.06882" lon="6.1713">
        <ele>792.99</ele>
        <time>2020-05-02T10:38:32Z</time>
      </trkpt>
      <trkpt lat="46.06887" lon="6.17126">
        <ele>792.959</ele>
        <time>2020-05-02T10:38:33Z</time>
      </trkpt>
      <trkpt lat="46.06892" lon="6.17122">
        <ele>792.811</ele>
        <time>2020-05-02T10:38:34Z</time>
      </trkpt>
      <trkpt lat="46.06897" lon="6.1712">
        <ele>792.766</ele>
        <time>2020-05-02T10:38:35Z</time>
      </trkpt>
      <trkpt lat="46.06904" lon="6.1712">
        <ele>792.51</ele>
        <time>2020-05-02T10:38:36Z</time>
      </trkpt>
      <trkpt lat="46.06911" lon="6.17119">
        <ele>792.324</ele>
        <time>2020-05-02T10:38:37Z</time>
      </trkpt>
      <trkpt lat="46.06919" lon="6.1712">
        <ele>792.025</ele>
        <time>2020-05-02T10:38:38Z</time>
      </trkpt>
      <trkpt lat="46.06926" lon="6.17121">
        <ele>791.784</ele>
        <time>2020-05-02T10:38:39Z</time>
      </trkpt>
      <trkpt lat="46.06933" lon="6.17121">
        <ele>791.307</ele>
        <time>2020-05-02T10:38:40Z</time>
      </trkpt>
      <trkpt lat="46.06941" lon="6.17119">
        <ele>790.917</ele>
        <time>2020-05-02T10:38:41Z</time>
      </trkpt>
      <trkpt lat="46.06948" lon="6.17116">
        <ele>790.608</ele>
        <time>2020-05-02T10:38:42Z</time>
      </trkpt>
      <trkpt lat="46.06954" lon="6.17115">
        <ele>790.242</ele>
        <time>2020-05-02T10:38:43Z</time>
      </trkpt>
      <trkpt lat="46.06958" lon="6.17111">
        <ele>789.796</ele>
        <time>2020-05-02T10:38:44Z</time>
      </trkpt>
      <trkpt lat="46.06962" lon="6.17106">
        <ele>789.265</ele>
        <time>2020-05-02T10:38:45Z</time>
      </trkpt>
      <trkpt lat="46.06966" lon="6.17099">
        <ele>788.887</ele>
        <time>2020-05-02T10:38:46Z</time>
      </trkpt>
      <trkpt lat="46.06968" lon="6.17092">
        <ele>788.322</ele>
        <time>2020-05-02T10:38:47Z</time>
      </trkpt>
      <trkpt lat="46.0697" lon="6.17086">
        <ele>787.876</ele>
        <time>2020-05-02T10:38:48Z</time>
      </trkpt>
      <trkpt lat="46.06973" lon="6.17079">
        <ele>787.21</ele>
        <time>2020-05-02T10:38:49Z</time>
      </trkpt>
      <trkpt lat="46.06977" lon="6.17071">
        <ele>786.691</ele>
        <time>2020-05-02T10:38:50Z</time>
      </trkpt>
      <trkpt lat="46.06984" lon="6.17069">
        <ele>786.032</ele>
        <time>2020-05-02T10:38:51Z</time>
      </trkpt>
      <trkpt lat="46.06989" lon="6.17066">
        <ele>785.492</ele>
        <time>2020-05-02T10:38:52Z</time>
      </trkpt>
      <trkpt lat="46.06993" lon="6.17065">
        <ele>784.811</ele>
        <time>2020-05-02T10:38:53Z</time>
      </trkpt>
      <trkpt lat="46.06999" lon="6.17062">
        <ele>784.308</ele>
        <time>2020-05-02T10:38:54Z</time>
      </trkpt>
      <trkpt lat="46.07006" lon="6.17059">
        <ele>783.857</ele>
        <time>2020-05-02T10:38:55Z</time>
      </trkpt>
      <trkpt lat="46.07013" lon="6.17055">
        <ele>783.221</ele>
        <time>2020-05-02T10:38:56Z</time>
      </trkpt>
      <trkpt lat="46.0702" lon="6.17051">
        <ele>782.69</ele>
        <time>2020-05-02T10:38:57Z</time>
      </trkpt>
      <trkpt lat="46.07027" lon="6.17048">
        <ele>781.972</ele>
        <time>2020-05-02T10:38:58Z</time>
      </trkpt>
      <trkpt lat="46.07032" lon="6.17045">
        <ele>781.247</ele>
        <time>2020-05-02T10:38:59Z</time>
      </trkpt>
      <trkpt lat="46.07038" lon="6.17041">
        <ele>780.521</ele>
        <time>2020-05-02T10:39:00Z</time>
      </trkpt>
      <trkpt lat="46.07045" lon="6.17038">
        <ele>779.885</ele>
        <time>2020-05-02T10:39:01Z</time>
      </trkpt>
      <trkpt lat="46.07051" lon="6.17034">
        <ele>779.126</ele>
        <time>2020-05-02T10:39:02Z</time>
      </trkpt>
      <trkpt lat="46.07057" lon="6.1703">
        <ele>778.486</ele>
        <time>2020-05-02T10:39:03Z</time>
      </trkpt>
      <trkpt lat="46.07065" lon="6.17024">
        <ele>777.86</ele>
        <time>2020-05-02T10:39:04Z</time>
      </trkpt>
      <trkpt lat="46.07071" lon="6.1702">
        <ele>777.226</ele>
        <time>2020-05-02T10:39:05Z</time>
      </trkpt>
      <trkpt lat="46.07078" lon="6.17017">
        <ele>776.608</ele>
        <time>2020-05-02T10:39:06Z</time>
      </trkpt>
      <trkpt lat="46.07084" lon="6.17014">
        <ele>776.022</ele>
        <time>2020-05-02T10:39:07Z</time>
      </trkpt>
      <trkpt lat="46.07088" lon="6.17012">
        <ele>775.316</ele>
        <time>2020-05-02T10:39:08Z</time>
      </trkpt>
      <trkpt lat="46.07095" lon="6.1701">
        <ele>774.675</ele>
        <time>2020-05-02T10:39:09Z</time>
      </trkpt>
      <trkpt lat="46.071" lon="6.17006">
        <ele>773.987</ele>
        <time>2020-05-02T10:39:10Z</time>
      </trkpt>
      <trkpt lat="46.07106" lon="6.17003">
        <ele>773.272</ele>
        <time>2020-05-02T10:39:11Z</time>
      </trkpt>
      <trkpt lat="46.07113" lon="6.17002">
        <ele>772.636</ele>
        <time>2020-05-02T10:39:12Z</time>
      </trkpt>
      <trkpt lat="46.07122" lon="6.17">
        <ele>771.95</ele>
        <time>2020-05-02T10:39:13Z</time>
      </trkpt>
      <trkpt lat="46.0713" lon="6.16999">
        <ele>771.251</ele>
        <time>2020-05-02T10:39:14Z</time>
      </trkpt>
      <trkpt lat="46.07137" lon="6.16997">
        <ele>770.598</ele>
        <time>2020-05-02T10:39:15Z</time>
      </trkpt>
      <trkpt lat="46.07144" lon="6.16996">
        <ele>769.815</ele>
        <time>2020-05-02T10:39:16Z</time>
      </trkpt>
      <trkpt lat="46.07152" lon="6.16995">
        <ele>769.126</ele>
        <time>2020-05-02T10:39:17Z</time>
      </trkpt>
      <trkpt lat="46.0716" lon="6.16992">
        <ele>768.508</ele>
        <time>2020-05-02T10:39:18Z</time>
      </trkpt>
      <trkpt lat="46.07168" lon="6.16991">
        <ele>767.923</ele>
        <time>2020-05-02T10:39:19Z</time>
      </trkpt>
      <trkpt lat="46.07176" lon="6.16989">
        <ele>767.387</ele>
        <time>2020-05-02T10:39:20Z</time>
      </trkpt>
      <trkpt lat="46.07182" lon="6.16989">
        <ele>766.716</ele>
        <time>2020-05-02T10:39:21Z</time>
      </trkpt>
      <trkpt lat="46.07189" lon="6.16989">
        <ele>766.178</ele>
        <time>2020-05-02T10:39:22Z</time>
      </trkpt>
      <trkpt lat="46.07195" lon="6.16988">
        <ele>765.593</ele>
        <time>2020-05-02T10:39:23Z</time>
      </trkpt>
      <trkpt lat="46.07202" lon="6.16987">
        <ele>764.927</ele>
        <time>2020-05-02T10:39:24Z</time>
      </trkpt>
      <trkpt lat="46.07208" lon="6.16987">
        <ele>764.481</ele>
        <time>2020-05-02T10:39:25Z</time>
      </trkpt>
      <trkpt lat="46.07214" lon="6.16987">
        <ele>763.962</ele>
        <time>2020-05-02T10:39:26Z</time>
      </trkpt>
      <trkpt lat="46.0722" lon="6.16988">
        <ele>763.475</ele>
        <time>2020-05-02T10:39:27Z</time>
      </trkpt>
      <trkpt lat="46.07224" lon="6.16988">
        <ele>762.428</ele>
        <time>2020-05-02T10:39:29Z</time>
      </trkpt>
      <trkpt lat="46.07229" lon="6.16996">
        <ele>760.62</ele>
        <time>2020-05-02T10:39:32Z</time>
      </trkpt>
      <trkpt lat="46.07236" lon="6.17005">
        <ele>759.508</ele>
        <time>2020-05-02T10:39:34Z</time>
      </trkpt>
      <trkpt lat="46.0725" lon="6.17011">
        <ele>759.041</ele>
        <time>2020-05-02T10:39:35Z</time>
      </trkpt>
      <trkpt lat="46.07259" lon="6.17016">
        <ele>758.415</ele>
        <time>2020-05-02T10:39:36Z</time>
      </trkpt>
      <trkpt lat="46.07266" lon="6.17021">
        <ele>757.874</ele>
        <time>2020-05-02T10:39:37Z</time>
      </trkpt>
      <trkpt lat="46.07273" lon="6.17024">
        <ele>757.186</ele>
        <time>2020-05-02T10:39:38Z</time>
      </trkpt>
      <trkpt lat="46.07282" lon="6.17025">
        <ele>756.591</ele>
        <time>2020-05-02T10:39:39Z</time>
      </trkpt>
      <trkpt lat="46.07291" lon="6.17027">
        <ele>756.045</ele>
        <time>2020-05-02T10:39:40Z</time>
      </trkpt>
      <trkpt lat="46.07296" lon="6.17026">
        <ele>755.339</ele>
        <time>2020-05-02T10:39:43Z</time>
      </trkpt>
      <trkpt lat="46.073" lon="6.17027">
        <ele>756.12</ele>
        <time>2020-05-02T10:40:02Z</time>
      </trkpt>
      <trkpt lat="46.07296" lon="6.17031">
        <ele>756.275</ele>
        <time>2020-05-02T10:40:28Z</time>
      </trkpt>
      <trkpt lat="46.07301" lon="6.17032">
        <ele>756.928</ele>
        <time>2020-05-02T10:40:36Z</time>
      </trkpt>
      <trkpt lat="46.07307" lon="6.17033">
        <ele>757.02</ele>
        <time>2020-05-02T10:40:48Z</time>
      </trkpt>
      <trkpt lat="46.0731" lon="6.1704">
        <ele>757.008</ele>
        <time>2020-05-02T10:40:52Z</time>
      </trkpt>
      <trkpt lat="46.07313" lon="6.17044">
        <ele>757.031</ele>
        <time>2020-05-02T10:40:54Z</time>
      </trkpt>
      <trkpt lat="46.07318" lon="6.17049">
        <ele>757.185</ele>
        <time>2020-05-02T10:41:02Z</time>
      </trkpt>
      <trkpt lat="46.07322" lon="6.17056">
        <ele>757.164</ele>
        <time>2020-05-02T10:41:04Z</time>
      </trkpt>
      <trkpt lat="46.07326" lon="6.1706">
        <ele>757.146</ele>
        <time>2020-05-02T10:41:05Z</time>
      </trkpt>
      <trkpt lat="46.07329" lon="6.17065">
        <ele>757.161</ele>
        <time>2020-05-02T10:41:06Z</time>
      </trkpt>
      <trkpt lat="46.07333" lon="6.17071">
        <ele>757.065</ele>
        <time>2020-05-02T10:41:08Z</time>
      </trkpt>
      <trkpt lat="46.07339" lon="6.17077">
        <ele>756.929</ele>
        <time>2020-05-02T10:41:10Z</time>
      </trkpt>
      <trkpt lat="46.07345" lon="6.17081">
        <ele>756.52</ele>
        <time>2020-05-02T10:41:12Z</time>
      </trkpt>
      <trkpt lat="46.0735" lon="6.17086">
        <ele>756.079</ele>
        <time>2020-05-02T10:41:14Z</time>
      </trkpt>
      <trkpt lat="46.07355" lon="6.17091">
        <ele>755.505</ele>
        <time>2020-05-02T10:41:16Z</time>
      </trkpt>
      <trkpt lat="46.07362" lon="6.17095">
        <ele>755.025</ele>
        <time>2020-05-02T10:41:18Z</time>
      </trkpt>
      <trkpt lat="46.07365" lon="6.17099">
        <ele>754.708</ele>
        <time>2020-05-02T10:41:20Z</time>
      </trkpt>
      <trkpt lat="46.07369" lon="6.17104">
        <ele>754.431</ele>
        <time>2020-05-02T10:41:22Z</time>
      </trkpt>
      <trkpt lat="46.07374" lon="6.17107">
        <ele>754.035</ele>
        <time>2020-05-02T10:41:24Z</time>
      </trkpt>
      <trkpt lat="46.07379" lon="6.17111">
        <ele>753.714</ele>
        <time>2020-05-02T10:41:26Z</time>
      </trkpt>
      <trkpt lat="46.07385" lon="6.17115">
        <ele>753.366</ele>
        <time>2020-05-02T10:41:28Z</time>
      </trkpt>
      <trkpt lat="46.07389" lon="6.17118">
        <ele>753.031</ele>
        <time>2020-05-02T10:41:30Z</time>
      </trkpt>
      <trkpt lat="46.07396" lon="6.17121">
        <ele>752.575</ele>
        <time>2020-05-02T10:41:33Z</time>
      </trkpt>
      <trkpt lat="46.07401" lon="6.17123">
        <ele>752.349</ele>
        <time>2020-05-02T10:41:35Z</time>
      </trkpt>
      <trkpt lat="46.07408" lon="6.17128">
        <ele>752.16</ele>
        <time>2020-05-02T10:41:37Z</time>
      </trkpt>
      <trkpt lat="46.07411" lon="6.17133">
        <ele>751.842</ele>
        <time>2020-05-02T10:41:39Z</time>
      </trkpt>
      <trkpt lat="46.07417" lon="6.17136">
        <ele>751.322</ele>
        <time>2020-05-02T10:41:42Z</time>
      </trkpt>
      <trkpt lat="46.07426" lon="6.17139">
        <ele>750.414</ele>
        <time>2020-05-02T10:41:51Z</time>
      </trkpt>
      <trkpt lat="46.07429" lon="6.17145">
        <ele>750.208</ele>
        <time>2020-05-02T10:41:54Z</time>
      </trkpt>
      <trkpt lat="46.07432" lon="6.1715">
        <ele>749.918</ele>
        <time>2020-05-02T10:41:56Z</time>
      </trkpt>
      <trkpt lat="46.07437" lon="6.17155">
        <ele>749.062</ele>
        <time>2020-05-02T10:42:00Z</time>
      </trkpt>
      <trkpt lat="46.0744" lon="6.1716">
        <ele>748.671</ele>
        <time>2020-05-02T10:42:02Z</time>
      </trkpt>
      <trkpt lat="46.07445" lon="6.17169">
        <ele>748.183</ele>
        <time>2020-05-02T10:42:04Z</time>
      </trkpt>
      <trkpt lat="46.0745" lon="6.17174">
        <ele>747.328</ele>
        <time>2020-05-02T10:42:07Z</time>
      </trkpt>
      <trkpt lat="46.07454" lon="6.1718">
        <ele>746.812</ele>
        <time>2020-05-02T10:42:09Z</time>
      </trkpt>
      <trkpt lat="46.07458" lon="6.17185">
        <ele>745.716</ele>
        <time>2020-05-02T10:42:14Z</time>
      </trkpt>
      <trkpt lat="46.07461" lon="6.17194">
        <ele>745.587</ele>
        <time>2020-05-02T10:42:17Z</time>
      </trkpt>
      <trkpt lat="46.07466" lon="6.17199">
        <ele>745.222</ele>
        <time>2020-05-02T10:42:19Z</time>
      </trkpt>
      <trkpt lat="46.0747" lon="6.17206">
        <ele>745.262</ele>
        <time>2020-05-02T10:42:21Z</time>
      </trkpt>
      <trkpt lat="46.07469" lon="6.17198">
        <ele>746.908</ele>
        <time>2020-05-02T10:42:39Z</time>
      </trkpt>
      <trkpt lat="46.07472" lon="6.17193">
        <ele>746.708</ele>
        <time>2020-05-02T10:42:43Z</time>
      </trkpt>
      <trkpt lat="46.07477" lon="6.17186">
        <ele>746.376</ele>
        <time>2020-05-02T10:42:45Z</time>
      </trkpt>
      <trkpt lat="46.0748" lon="6.17176">
        <ele>745.75</ele>
        <time>2020-05-02T10:42:47Z</time>
      </trkpt>
      <trkpt lat="46.0748" lon="6.17168">
        <ele>745.119</ele>
        <time>2020-05-02T10:42:49Z</time>
      </trkpt>
      <trkpt lat="46.07479" lon="6.17162">
        <ele>744.791</ele>
        <time>2020-05-02T10:42:51Z</time>
      </trkpt>
      <trkpt lat="46.07476" lon="6.17152">
        <ele>744.336</ele>
        <time>2020-05-02T10:42:54Z</time>
      </trkpt>
      <trkpt lat="46.07477" lon="6.17145">
        <ele>743.89</ele>
        <time>2020-05-02T10:42:56Z</time>
      </trkpt>
      <trkpt lat="46.07479" lon="6.17138">
        <ele>743.194</ele>
        <time>2020-05-02T10:42:58Z</time>
      </trkpt>
      <trkpt lat="46.07482" lon="6.1713">
        <ele>741.975</ele>
        <time>2020-05-02T10:43:01Z</time>
      </trkpt>
      <trkpt lat="46.07487" lon="6.17116">
        <ele>741.077</ele>
        <time>2020-05-02T10:43:13Z</time>
      </trkpt>
      <trkpt lat="46.07488" lon="6.17109">
        <ele>740.461</ele>
        <time>2020-05-02T10:43:18Z</time>
      </trkpt>
      <trkpt lat="46.07492" lon="6.17101">
        <ele>740.027</ele>
        <time>2020-05-02T10:43:21Z</time>
      </trkpt>
      <trkpt lat="46.07494" lon="6.17095">
        <ele>740.108</ele>
        <time>2020-05-02T10:43:25Z</time>
      </trkpt>
      <trkpt lat="46.07499" lon="6.17094">
        <ele>740.071</ele>
        <time>2020-05-02T10:43:28Z</time>
      </trkpt>
      <trkpt lat="46.07504" lon="6.1709">
        <ele>739.825</ele>
        <time>2020-05-02T10:43:33Z</time>
      </trkpt>
      <trkpt lat="46.07509" lon="6.17087">
        <ele>739.524</ele>
        <time>2020-05-02T10:43:35Z</time>
      </trkpt>
      <trkpt lat="46.07515" lon="6.17088">
        <ele>739.096</ele>
        <time>2020-05-02T10:43:37Z</time>
      </trkpt>
      <trkpt lat="46.07522" lon="6.17096">
        <ele>738.931</ele>
        <time>2020-05-02T10:43:42Z</time>
      </trkpt>
      <trkpt lat="46.0753" lon="6.17106">
        <ele>739.425</ele>
        <time>2020-05-02T10:43:44Z</time>
      </trkpt>
      <trkpt lat="46.07536" lon="6.17112">
        <ele>739.869</ele>
        <time>2020-05-02T10:43:45Z</time>
      </trkpt>
      <trkpt lat="46.07542" lon="6.17116">
        <ele>740.44</ele>
        <time>2020-05-02T10:43:46Z</time>
      </trkpt>
      <trkpt lat="46.07546" lon="6.17123">
        <ele>741.012</ele>
        <time>2020-05-02T10:43:47Z</time>
      </trkpt>
      <trkpt lat="46.07549" lon="6.17132">
        <ele>741.632</ele>
        <time>2020-05-02T10:43:48Z</time>
      </trkpt>
      <trkpt lat="46.07551" lon="6.17139">
        <ele>742.205</ele>
        <time>2020-05-02T10:43:49Z</time>
      </trkpt>
      <trkpt lat="46.07553" lon="6.17148">
        <ele>743.108</ele>
        <time>2020-05-02T10:43:51Z</time>
      </trkpt>
      <trkpt lat="46.07559" lon="6.17159">
        <ele>743.845</ele>
        <time>2020-05-02T10:43:53Z</time>
      </trkpt>
      <trkpt lat="46.07564" lon="6.17172">
        <ele>744.699</ele>
        <time>2020-05-02T10:43:55Z</time>
      </trkpt>
      <trkpt lat="46.07568" lon="6.17184">
        <ele>745.768</ele>
        <time>2020-05-02T10:43:57Z</time>
      </trkpt>
      <trkpt lat="46.07571" lon="6.17191">
        <ele>746.25</ele>
        <time>2020-05-02T10:43:58Z</time>
      </trkpt>
      <trkpt lat="46.07574" lon="6.17197">
        <ele>746.765</ele>
        <time>2020-05-02T10:43:59Z</time>
      </trkpt>
      <trkpt lat="46.07577" lon="6.17202">
        <ele>747.279</ele>
        <time>2020-05-02T10:44:00Z</time>
      </trkpt>
      <trkpt lat="46.07581" lon="6.17211">
        <ele>748.763</ele>
        <time>2020-05-02T10:44:17Z</time>
      </trkpt>
      <trkpt lat="46.07584" lon="6.17224">
        <ele>748.884</ele>
        <time>2020-05-02T10:44:19Z</time>
      </trkpt>
      <trkpt lat="46.07588" lon="6.17232">
        <ele>749.167</ele>
        <time>2020-05-02T10:44:21Z</time>
      </trkpt>
      <trkpt lat="46.07591" lon="6.17236">
        <ele>749.781</ele>
        <time>2020-05-02T10:44:23Z</time>
      </trkpt>
      <trkpt lat="46.07595" lon="6.17242">
        <ele>750.419</ele>
        <time>2020-05-02T10:44:25Z</time>
      </trkpt>
      <trkpt lat="46.07598" lon="6.17248">
        <ele>750.808</ele>
        <time>2020-05-02T10:44:26Z</time>
      </trkpt>
      <trkpt lat="46.07602" lon="6.17254">
        <ele>751.62</ele>
        <time>2020-05-02T10:44:28Z</time>
      </trkpt>
      <trkpt lat="46.07606" lon="6.1726">
        <ele>752.534</ele>
        <time>2020-05-02T10:44:30Z</time>
      </trkpt>
      <trkpt lat="46.0761" lon="6.17266">
        <ele>753.683</ele>
        <time>2020-05-02T10:44:32Z</time>
      </trkpt>
      <trkpt lat="46.07615" lon="6.17272">
        <ele>754.685</ele>
        <time>2020-05-02T10:44:34Z</time>
      </trkpt>
      <trkpt lat="46.07619" lon="6.17276">
        <ele>755.19</ele>
        <time>2020-05-02T10:44:35Z</time>
      </trkpt>
      <trkpt lat="46.07624" lon="6.17282">
        <ele>755.624</ele>
        <time>2020-05-02T10:44:36Z</time>
      </trkpt>
      <trkpt lat="46.07627" lon="6.17287">
        <ele>756.188</ele>
        <time>2020-05-02T10:44:37Z</time>
      </trkpt>
      <trkpt lat="46.0763" lon="6.17292">
        <ele>756.629</ele>
        <time>2020-05-02T10:44:38Z</time>
      </trkpt>
      <trkpt lat="46.07635" lon="6.17301">
        <ele>757.769</ele>
        <time>2020-05-02T10:44:40Z</time>
      </trkpt>
      <trkpt lat="46.07638" lon="6.17306">
        <ele>758.204</ele>
        <time>2020-05-02T10:44:41Z</time>
      </trkpt>
      <trkpt lat="46.07641" lon="6.17314">
        <ele>759.024</ele>
        <time>2020-05-02T10:44:43Z</time>
      </trkpt>
      <trkpt lat="46.07643" lon="6.17323">
        <ele>759.708</ele>
        <time>2020-05-02T10:44:45Z</time>
      </trkpt>
      <trkpt lat="46.07647" lon="6.17332">
        <ele>760.39</ele>
        <time>2020-05-02T10:44:47Z</time>
      </trkpt>
      <trkpt lat="46.0765" lon="6.1734">
        <ele>760.654</ele>
        <time>2020-05-02T10:44:48Z</time>
      </trkpt>
      <trkpt lat="46.07651" lon="6.17347">
        <ele>760.993</ele>
        <time>2020-05-02T10:44:49Z</time>
      </trkpt>
      <trkpt lat="46.07651" lon="6.17353">
        <ele>761.175</ele>
        <time>2020-05-02T10:44:50Z</time>
      </trkpt>
      <trkpt lat="46.07651" lon="6.1736">
        <ele>761.32</ele>
        <time>2020-05-02T10:44:51Z</time>
      </trkpt>
      <trkpt lat="46.07652" lon="6.17374">
        <ele>761.534</ele>
        <time>2020-05-02T10:44:52Z</time>
      </trkpt>
      <trkpt lat="46.07652" lon="6.17385">
        <ele>761.758</ele>
        <time>2020-05-02T10:44:53Z</time>
      </trkpt>
      <trkpt lat="46.07653" lon="6.17393">
        <ele>762.039</ele>
        <time>2020-05-02T10:44:54Z</time>
      </trkpt>
      <trkpt lat="46.07653" lon="6.17401">
        <ele>762.452</ele>
        <time>2020-05-02T10:44:55Z</time>
      </trkpt>
      <trkpt lat="46.07651" lon="6.17407">
        <ele>762.753</ele>
        <time>2020-05-02T10:44:56Z</time>
      </trkpt>
      <trkpt lat="46.07645" lon="6.17417">
        <ele>763.508</ele>
        <time>2020-05-02T10:44:58Z</time>
      </trkpt>
      <trkpt lat="46.07637" lon="6.17421">
        <ele>763.808</ele>
        <time>2020-05-02T10:44:59Z</time>
      </trkpt>
      <trkpt lat="46.07631" lon="6.1743">
        <ele>764.129</ele>
        <time>2020-05-02T10:45:00Z</time>
      </trkpt>
      <trkpt lat="46.07626" lon="6.1744">
        <ele>764.563</ele>
        <time>2020-05-02T10:45:01Z</time>
      </trkpt>
      <trkpt lat="46.0762" lon="6.17449">
        <ele>765.012</ele>
        <time>2020-05-02T10:45:02Z</time>
      </trkpt>
      <trkpt lat="46.07615" lon="6.17459">
        <ele>765.634</ele>
        <time>2020-05-02T10:45:03Z</time>
      </trkpt>
      <trkpt lat="46.07608" lon="6.1747">
        <ele>766.329</ele>
        <time>2020-05-02T10:45:04Z</time>
      </trkpt>
      <trkpt lat="46.07601" lon="6.17482">
        <ele>767.113</ele>
        <time>2020-05-02T10:45:05Z</time>
      </trkpt>
      <trkpt lat="46.07596" lon="6.17492">
        <ele>768.027</ele>
        <time>2020-05-02T10:45:06Z</time>
      </trkpt>
      <trkpt lat="46.07592" lon="6.17502">
        <ele>768.938</ele>
        <time>2020-05-02T10:45:07Z</time>
      </trkpt>
      <trkpt lat="46.0759" lon="6.17514">
        <ele>769.893</ele>
        <time>2020-05-02T10:45:08Z</time>
      </trkpt>
      <trkpt lat="46.07589" lon="6.17528">
        <ele>770.765</ele>
        <time>2020-05-02T10:45:09Z</time>
      </trkpt>
      <trkpt lat="46.07588" lon="6.17542">
        <ele>771.621</ele>
        <time>2020-05-02T10:45:10Z</time>
      </trkpt>
      <trkpt lat="46.07587" lon="6.17554">
        <ele>772.508</ele>
        <time>2020-05-02T10:45:11Z</time>
      </trkpt>
      <trkpt lat="46.07586" lon="6.17564">
        <ele>773.463</ele>
        <time>2020-05-02T10:45:12Z</time>
      </trkpt>
      <trkpt lat="46.07585" lon="6.17575">
        <ele>774.337</ele>
        <time>2020-05-02T10:45:13Z</time>
      </trkpt>
      <trkpt lat="46.07583" lon="6.17585">
        <ele>775.286</ele>
        <time>2020-05-02T10:45:14Z</time>
      </trkpt>
      <trkpt lat="46.0758" lon="6.17596">
        <ele>776.068</ele>
        <time>2020-05-02T10:45:15Z</time>
      </trkpt>
      <trkpt lat="46.07576" lon="6.17606">
        <ele>776.613</ele>
        <time>2020-05-02T10:45:16Z</time>
      </trkpt>
      <trkpt lat="46.07572" lon="6.17619">
        <ele>777.237</ele>
        <time>2020-05-02T10:45:17Z</time>
      </trkpt>
      <trkpt lat="46.07569" lon="6.1763">
        <ele>777.891</ele>
        <time>2020-05-02T10:45:18Z</time>
      </trkpt>
      <trkpt lat="46.07567" lon="6.1764">
        <ele>778.562</ele>
        <time>2020-05-02T10:45:19Z</time>
      </trkpt>
      <trkpt lat="46.07565" lon="6.17649">
        <ele>779.218</ele>
        <time>2020-05-02T10:45:20Z</time>
      </trkpt>
      <trkpt lat="46.07561" lon="6.17657">
        <ele>779.998</ele>
        <time>2020-05-02T10:45:21Z</time>
      </trkpt>
      <trkpt lat="46.07557" lon="6.17664">
        <ele>780.717</ele>
        <time>2020-05-02T10:45:22Z</time>
      </trkpt>
      <trkpt lat="46.07551" lon="6.17672">
        <ele>781.508</ele>
        <time>2020-05-02T10:45:23Z</time>
      </trkpt>
      <trkpt lat="46.07545" lon="6.1768">
        <ele>782.315</ele>
        <time>2020-05-02T10:45:24Z</time>
      </trkpt>
      <trkpt lat="46.0754" lon="6.17688">
        <ele>783.139</ele>
        <time>2020-05-02T10:45:25Z</time>
      </trkpt>
      <trkpt lat="46.07535" lon="6.17697">
        <ele>783.938</ele>
        <time>2020-05-02T10:45:26Z</time>
      </trkpt>
      <trkpt lat="46.0753" lon="6.17705">
        <ele>784.87</ele>
        <time>2020-05-02T10:45:27Z</time>
      </trkpt>
      <trkpt lat="46.07525" lon="6.17713">
        <ele>785.795</ele>
        <time>2020-05-02T10:45:28Z</time>
      </trkpt>
      <trkpt lat="46.07519" lon="6.17722">
        <ele>786.629</ele>
        <time>2020-05-02T10:45:29Z</time>
      </trkpt>
      <trkpt lat="46.07514" lon="6.17731">
        <ele>787.563</ele>
        <time>2020-05-02T10:45:30Z</time>
      </trkpt>
      <trkpt lat="46.07511" lon="6.17742">
        <ele>788.464</ele>
        <time>2020-05-02T10:45:31Z</time>
      </trkpt>
      <trkpt lat="46.07508" lon="6.17752">
        <ele>789.337</ele>
        <time>2020-05-02T10:45:32Z</time>
      </trkpt>
      <trkpt lat="46.07508" lon="6.17759">
        <ele>790.149</ele>
        <time>2020-05-02T10:45:33Z</time>
      </trkpt>
      <trkpt lat="46.07505" lon="6.17769">
        <ele>791.513</ele>
        <time>2020-05-02T10:45:35Z</time>
      </trkpt>
      <trkpt lat="46.07503" lon="6.1778">
        <ele>792.708</ele>
        <time>2020-05-02T10:45:37Z</time>
      </trkpt>
      <trkpt lat="46.07504" lon="6.17787">
        <ele>793.747</ele>
        <time>2020-05-02T10:45:39Z</time>
      </trkpt>
      <trkpt lat="46.07506" lon="6.17799">
        <ele>794.521</ele>
        <time>2020-05-02T10:45:41Z</time>
      </trkpt>
      <trkpt lat="46.07509" lon="6.17805">
        <ele>794.91</ele>
        <time>2020-05-02T10:45:42Z</time>
      </trkpt>
      <trkpt lat="46.07509" lon="6.17814">
        <ele>795.332</ele>
        <time>2020-05-02T10:45:43Z</time>
      </trkpt>
      <trkpt lat="46.07509" lon="6.17822">
        <ele>795.767</ele>
        <time>2020-05-02T10:45:44Z</time>
      </trkpt>
      <trkpt lat="46.07511" lon="6.17831">
        <ele>796.171</ele>
        <time>2020-05-02T10:45:45Z</time>
      </trkpt>
      <trkpt lat="46.07512" lon="6.17839">
        <ele>796.635</ele>
        <time>2020-05-02T10:45:46Z</time>
      </trkpt>
      <trkpt lat="46.07514" lon="6.17847">
        <ele>797.146</ele>
        <time>2020-05-02T10:45:47Z</time>
      </trkpt>
      <trkpt lat="46.07515" lon="6.17859">
        <ele>798.424</ele>
        <time>2020-05-02T10:45:49Z</time>
      </trkpt>
      <trkpt lat="46.07516" lon="6.17869">
        <ele>799.804</ele>
        <time>2020-05-02T10:45:51Z</time>
      </trkpt>
      <trkpt lat="46.07516" lon="6.17877">
        <ele>801.414</ele>
        <time>2020-05-02T10:45:53Z</time>
      </trkpt>
      <trkpt lat="46.07514" lon="6.17886">
        <ele>803.008</ele>
        <time>2020-05-02T10:45:55Z</time>
      </trkpt>
      <trkpt lat="46.07518" lon="6.17908">
        <ele>804.646</ele>
        <time>2020-05-02T10:46:11Z</time>
      </trkpt>
      <trkpt lat="46.07517" lon="6.17925">
        <ele>805.46</ele>
        <time>2020-05-02T10:46:16Z</time>
      </trkpt>
      <trkpt lat="46.0752" lon="6.17933">
        <ele>805.649</ele>
        <time>2020-05-02T10:46:19Z</time>
      </trkpt>
      <trkpt lat="46.07523" lon="6.17941">
        <ele>805.441</ele>
        <time>2020-05-02T10:46:21Z</time>
      </trkpt>
      <trkpt lat="46.07525" lon="6.17947">
        <ele>805.966</ele>
        <time>2020-05-02T10:46:24Z</time>
      </trkpt>
      <trkpt lat="46.07527" lon="6.17955">
        <ele>806.74</ele>
        <time>2020-05-02T10:46:26Z</time>
      </trkpt>
      <trkpt lat="46.07524" lon="6.17961">
        <ele>807.744</ele>
        <time>2020-05-02T10:46:36Z</time>
      </trkpt>
      <trkpt lat="46.07525" lon="6.17969">
        <ele>807.595</ele>
        <time>2020-05-02T10:46:40Z</time>
      </trkpt>
      <trkpt lat="46.07525" lon="6.17976">
        <ele>807.232</ele>
        <time>2020-05-02T10:46:42Z</time>
      </trkpt>
      <trkpt lat="46.07525" lon="6.17984">
        <ele>806.992</ele>
        <time>2020-05-02T10:46:44Z</time>
      </trkpt>
      <trkpt lat="46.07526" lon="6.17992">
        <ele>807.111</ele>
        <time>2020-05-02T10:46:47Z</time>
      </trkpt>
      <trkpt lat="46.0753" lon="6.17998">
        <ele>807.308</ele>
        <time>2020-05-02T10:46:50Z</time>
      </trkpt>
      <trkpt lat="46.07533" lon="6.18005">
        <ele>807.037</ele>
        <time>2020-05-02T10:46:52Z</time>
      </trkpt>
      <trkpt lat="46.07531" lon="6.18016">
        <ele>807.091</ele>
        <time>2020-05-02T10:46:55Z</time>
      </trkpt>
      <trkpt lat="46.07531" lon="6.1803">
        <ele>808.03</ele>
        <time>2020-05-02T10:46:57Z</time>
      </trkpt>
      <trkpt lat="46.07532" lon="6.18037">
        <ele>809.422</ele>
        <time>2020-05-02T10:46:59Z</time>
      </trkpt>
      <trkpt lat="46.07538" lon="6.18048">
        <ele>810.597</ele>
        <time>2020-05-02T10:47:04Z</time>
      </trkpt>
      <trkpt lat="46.07537" lon="6.18054">
        <ele>810.511</ele>
        <time>2020-05-02T10:47:05Z</time>
      </trkpt>
      <trkpt lat="46.07535" lon="6.18066">
        <ele>810.775</ele>
        <time>2020-05-02T10:47:07Z</time>
      </trkpt>
      <trkpt lat="46.07534" lon="6.18072">
        <ele>810.996</ele>
        <time>2020-05-02T10:47:08Z</time>
      </trkpt>
      <trkpt lat="46.07535" lon="6.18087">
        <ele>811.793</ele>
        <time>2020-05-02T10:47:10Z</time>
      </trkpt>
      <trkpt lat="46.07531" lon="6.18093">
        <ele>813.165</ele>
        <time>2020-05-02T10:47:12Z</time>
      </trkpt>
      <trkpt lat="46.0753" lon="6.18104">
        <ele>814.821</ele>
        <time>2020-05-02T10:47:14Z</time>
      </trkpt>
      <trkpt lat="46.07533" lon="6.18114">
        <ele>816.508</ele>
        <time>2020-05-02T10:47:16Z</time>
      </trkpt>
      <trkpt lat="46.07532" lon="6.18121">
        <ele>818.173</ele>
        <time>2020-05-02T10:47:18Z</time>
      </trkpt>
      <trkpt lat="46.07527" lon="6.18126">
        <ele>819.577</ele>
        <time>2020-05-02T10:47:20Z</time>
      </trkpt>
      <trkpt lat="46.07522" lon="6.18133">
        <ele>821.386</ele>
        <time>2020-05-02T10:47:22Z</time>
      </trkpt>
      <trkpt lat="46.07518" lon="6.18138">
        <ele>822.448</ele>
        <time>2020-05-02T10:47:23Z</time>
      </trkpt>
      <trkpt lat="46.0751" lon="6.18144">
        <ele>825.243</ele>
        <time>2020-05-02T10:47:25Z</time>
      </trkpt>
      <trkpt lat="46.07505" lon="6.18147">
        <ele>826.537</ele>
        <time>2020-05-02T10:47:26Z</time>
      </trkpt>
      <trkpt lat="46.07499" lon="6.18154">
        <ele>830.111</ele>
        <time>2020-05-02T10:47:29Z</time>
      </trkpt>
      <trkpt lat="46.07492" lon="6.1816">
        <ele>831.162</ele>
        <time>2020-05-02T10:47:30Z</time>
      </trkpt>
      <trkpt lat="46.07484" lon="6.18166">
        <ele>832.397</ele>
        <time>2020-05-02T10:47:31Z</time>
      </trkpt>
      <trkpt lat="46.07478" lon="6.18173">
        <ele>833.523</ele>
        <time>2020-05-02T10:47:32Z</time>
      </trkpt>
      <trkpt lat="46.07474" lon="6.18178">
        <ele>834.625</ele>
        <time>2020-05-02T10:47:33Z</time>
      </trkpt>
      <trkpt lat="46.07469" lon="6.18193">
        <ele>836.408</ele>
        <time>2020-05-02T10:47:35Z</time>
      </trkpt>
      <trkpt lat="46.07465" lon="6.18203">
        <ele>837.043</ele>
        <time>2020-05-02T10:47:36Z</time>
      </trkpt>
      <trkpt lat="46.07462" lon="6.18213">
        <ele>837.547</ele>
        <time>2020-05-02T10:47:37Z</time>
      </trkpt>
      <trkpt lat="46.07457" lon="6.18222">
        <ele>838.066</ele>
        <time>2020-05-02T10:47:38Z</time>
      </trkpt>
      <trkpt lat="46.07452" lon="6.18227">
        <ele>838.648</ele>
        <time>2020-05-02T10:47:39Z</time>
      </trkpt>
      <trkpt lat="46.07442" lon="6.18241">
        <ele>838.673</ele>
        <time>2020-05-02T10:47:40Z</time>
      </trkpt>
      <trkpt lat="46.07435" lon="6.18252">
        <ele>839.547</ele>
        <time>2020-05-02T10:47:41Z</time>
      </trkpt>
      <trkpt lat="46.0743" lon="6.1826">
        <ele>840.591</ele>
        <time>2020-05-02T10:47:42Z</time>
      </trkpt>
      <trkpt lat="46.07427" lon="6.1827">
        <ele>841.632</ele>
        <time>2020-05-02T10:47:43Z</time>
      </trkpt>
      <trkpt lat="46.07424" lon="6.18278">
        <ele>842.825</ele>
        <time>2020-05-02T10:47:44Z</time>
      </trkpt>
      <trkpt lat="46.07421" lon="6.18288">
        <ele>844.026</ele>
        <time>2020-05-02T10:47:45Z</time>
      </trkpt>
      <trkpt lat="46.07419" lon="6.18301">
        <ele>845.108</ele>
        <time>2020-05-02T10:47:46Z</time>
      </trkpt>
      <trkpt lat="46.07415" lon="6.18313">
        <ele>846.208</ele>
        <time>2020-05-02T10:47:47Z</time>
      </trkpt>
      <trkpt lat="46.07411" lon="6.18323">
        <ele>847.566</ele>
        <time>2020-05-02T10:47:48Z</time>
      </trkpt>
      <trkpt lat="46.07407" lon="6.18327">
        <ele>848.81</ele>
        <time>2020-05-02T10:47:49Z</time>
      </trkpt>
      <trkpt lat="46.07404" lon="6.18336">
        <ele>849.929</ele>
        <time>2020-05-02T10:47:50Z</time>
      </trkpt>
      <trkpt lat="46.07402" lon="6.18345">
        <ele>851.161</ele>
        <time>2020-05-02T10:47:51Z</time>
      </trkpt>
      <trkpt lat="46.07398" lon="6.18356">
        <ele>852.466</ele>
        <time>2020-05-02T10:47:52Z</time>
      </trkpt>
      <trkpt lat="46.07394" lon="6.18365">
        <ele>853.86</ele>
        <time>2020-05-02T10:47:53Z</time>
      </trkpt>
      <trkpt lat="46.07388" lon="6.1837">
        <ele>855.394</ele>
        <time>2020-05-02T10:47:54Z</time>
      </trkpt>
      <trkpt lat="46.07379" lon="6.18374">
        <ele>858.525</ele>
        <time>2020-05-02T10:47:56Z</time>
      </trkpt>
      <trkpt lat="46.07372" lon="6.18378">
        <ele>861.072</ele>
        <time>2020-05-02T10:47:58Z</time>
      </trkpt>
      <trkpt lat="46.07365" lon="6.18381">
        <ele>862.113</ele>
        <time>2020-05-02T10:47:59Z</time>
      </trkpt>
      <trkpt lat="46.07356" lon="6.18387">
        <ele>863.114</ele>
        <time>2020-05-02T10:48:00Z</time>
      </trkpt>
      <trkpt lat="46.0735" lon="6.18393">
        <ele>864.108</ele>
        <time>2020-05-02T10:48:01Z</time>
      </trkpt>
      <trkpt lat="46.07341" lon="6.18397">
        <ele>866.461</ele>
        <time>2020-05-02T10:48:03Z</time>
      </trkpt>
      <trkpt lat="46.07332" lon="6.18396">
        <ele>868.955</ele>
        <time>2020-05-02T10:48:05Z</time>
      </trkpt>
      <trkpt lat="46.07326" lon="6.18396">
        <ele>870.164</ele>
        <time>2020-05-02T10:48:06Z</time>
      </trkpt>
      <trkpt lat="46.0732" lon="6.18393">
        <ele>871.216</ele>
        <time>2020-05-02T10:48:07Z</time>
      </trkpt>
      <trkpt lat="46.07312" lon="6.18394">
        <ele>873.241</ele>
        <time>2020-05-02T10:48:09Z</time>
      </trkpt>
      <trkpt lat="46.07308" lon="6.18399">
        <ele>874.255</ele>
        <time>2020-05-02T10:48:10Z</time>
      </trkpt>
      <trkpt lat="46.07302" lon="6.18403">
        <ele>875.279</ele>
        <time>2020-05-02T10:48:11Z</time>
      </trkpt>
      <trkpt lat="46.07295" lon="6.18405">
        <ele>876.28</ele>
        <time>2020-05-02T10:48:12Z</time>
      </trkpt>
      <trkpt lat="46.0729" lon="6.18408">
        <ele>877.425</ele>
        <time>2020-05-02T10:48:13Z</time>
      </trkpt>
      <trkpt lat="46.07285" lon="6.1841">
        <ele>878.526</ele>
        <time>2020-05-02T10:48:14Z</time>
      </trkpt>
      <trkpt lat="46.07278" lon="6.18413">
        <ele>879.808</ele>
        <time>2020-05-02T10:48:15Z</time>
      </trkpt>
      <trkpt lat="46.07272" lon="6.1842">
        <ele>881.308</ele>
        <time>2020-05-02T10:48:16Z</time>
      </trkpt>
      <trkpt lat="46.07267" lon="6.18425">
        <ele>882.936</ele>
        <time>2020-05-02T10:48:17Z</time>
      </trkpt>
      <trkpt lat="46.07262" lon="6.18435">
        <ele>884.51</ele>
        <time>2020-05-02T10:48:18Z</time>
      </trkpt>
      <trkpt lat="46.07258" lon="6.18445">
        <ele>886.349</ele>
        <time>2020-05-02T10:48:19Z</time>
      </trkpt>
      <trkpt lat="46.07252" lon="6.18451">
        <ele>888.021</ele>
        <time>2020-05-02T10:48:20Z</time>
      </trkpt>
      <trkpt lat="46.07247" lon="6.18457">
        <ele>889.456</ele>
        <time>2020-05-02T10:48:21Z</time>
      </trkpt>
      <trkpt lat="46.07241" lon="6.18465">
        <ele>890.95</ele>
        <time>2020-05-02T10:48:22Z</time>
      </trkpt>
      <trkpt lat="46.07233" lon="6.18476">
        <ele>893.474</ele>
        <time>2020-05-02T10:48:24Z</time>
      </trkpt>
      <trkpt lat="46.07226" lon="6.18481">
        <ele>895.425</ele>
        <time>2020-05-02T10:48:26Z</time>
      </trkpt>
      <trkpt lat="46.07222" lon="6.18487">
        <ele>896.356</ele>
        <time>2020-05-02T10:48:27Z</time>
      </trkpt>
      <trkpt lat="46.07215" lon="6.18496">
        <ele>897.159</ele>
        <time>2020-05-02T10:48:28Z</time>
      </trkpt>
      <trkpt lat="46.07208" lon="6.18503">
        <ele>897.814</ele>
        <time>2020-05-02T10:48:29Z</time>
      </trkpt>
      <trkpt lat="46.07203" lon="6.18511">
        <ele>898.508</ele>
        <time>2020-05-02T10:48:30Z</time>
      </trkpt>
      <trkpt lat="46.07198" lon="6.18517">
        <ele>899.279</ele>
        <time>2020-05-02T10:48:31Z</time>
      </trkpt>
      <trkpt lat="46.07192" lon="6.18525">
        <ele>899.743</ele>
        <time>2020-05-02T10:48:32Z</time>
      </trkpt>
      <trkpt lat="46.07185" lon="6.18535">
        <ele>900.262</ele>
        <time>2020-05-02T10:48:33Z</time>
      </trkpt>
      <trkpt lat="46.07178" lon="6.18546">
        <ele>900.954</ele>
        <time>2020-05-02T10:48:34Z</time>
      </trkpt>
      <trkpt lat="46.0717" lon="6.1855">
        <ele>901.819</ele>
        <time>2020-05-02T10:48:35Z</time>
      </trkpt>
      <trkpt lat="46.07164" lon="6.18558">
        <ele>903.023</ele>
        <time>2020-05-02T10:48:36Z</time>
      </trkpt>
      <trkpt lat="46.07156" lon="6.18566">
        <ele>904.327</ele>
        <time>2020-05-02T10:48:37Z</time>
      </trkpt>
      <trkpt lat="46.07151" lon="6.18572">
        <ele>905.758</ele>
        <time>2020-05-02T10:48:38Z</time>
      </trkpt>
      <trkpt lat="46.07144" lon="6.18579">
        <ele>907.171</ele>
        <time>2020-05-02T10:48:39Z</time>
      </trkpt>
      <trkpt lat="46.07137" lon="6.18587">
        <ele>908.641</ele>
        <time>2020-05-02T10:48:40Z</time>
      </trkpt>
      <trkpt lat="46.07134" lon="6.18592">
        <ele>910.115</ele>
        <time>2020-05-02T10:48:41Z</time>
      </trkpt>
      <trkpt lat="46.07128" lon="6.18598">
        <ele>911.508</ele>
        <time>2020-05-02T10:48:42Z</time>
      </trkpt>
      <trkpt lat="46.07123" lon="6.18604">
        <ele>912.821</ele>
        <time>2020-05-02T10:48:43Z</time>
      </trkpt>
      <trkpt lat="46.07117" lon="6.18611">
        <ele>914.215</ele>
        <time>2020-05-02T10:48:44Z</time>
      </trkpt>
      <trkpt lat="46.07112" lon="6.18614">
        <ele>915.514</ele>
        <time>2020-05-02T10:48:45Z</time>
      </trkpt>
      <trkpt lat="46.07089" lon="6.18632">
        <ele>918.936</ele>
        <time>2020-05-02T10:52:06Z</time>
      </trkpt>
      <trkpt lat="46.07083" lon="6.18624">
        <ele>919.251</ele>
        <time>2020-05-02T10:52:08Z</time>
      </trkpt>
      <trkpt lat="46.07079" lon="6.18618">
        <ele>919.545</ele>
        <time>2020-05-02T10:52:10Z</time>
      </trkpt>
      <trkpt lat="46.07074" lon="6.18616">
        <ele>919.719</ele>
        <time>2020-05-02T10:52:11Z</time>
      </trkpt>
      <trkpt lat="46.0707" lon="6.18612">
        <ele>919.96</ele>
        <time>2020-05-02T10:52:12Z</time>
      </trkpt>
      <trkpt lat="46.07067" lon="6.18606">
        <ele>920.095</ele>
        <time>2020-05-02T10:52:13Z</time>
      </trkpt>
      <trkpt lat="46.07061" lon="6.18602">
        <ele>920.449</ele>
        <time>2020-05-02T10:52:14Z</time>
      </trkpt>
      <trkpt lat="46.07049" lon="6.18595">
        <ele>921.123</ele>
        <time>2020-05-02T10:52:15Z</time>
      </trkpt>
      <trkpt lat="46.07046" lon="6.18585">
        <ele>921.808</ele>
        <time>2020-05-02T10:52:16Z</time>
      </trkpt>
      <trkpt lat="46.0704" lon="6.18581">
        <ele>922.523</ele>
        <time>2020-05-02T10:52:17Z</time>
      </trkpt>
      <trkpt lat="46.07034" lon="6.18573">
        <ele>923.467</ele>
        <time>2020-05-02T10:52:18Z</time>
      </trkpt>
      <trkpt lat="46.07027" lon="6.18567">
        <ele>924.956</ele>
        <time>2020-05-02T10:52:20Z</time>
      </trkpt>
      <trkpt lat="46.07021" lon="6.18562">
        <ele>925.588</ele>
        <time>2020-05-02T10:52:21Z</time>
      </trkpt>
      <trkpt lat="46.07016" lon="6.18551">
        <ele>926.153</ele>
        <time>2020-05-02T10:52:22Z</time>
      </trkpt>
      <trkpt lat="46.0701" lon="6.18545">
        <ele>926.627</ele>
        <time>2020-05-02T10:52:23Z</time>
      </trkpt>
      <trkpt lat="46.07003" lon="6.1854">
        <ele>927.051</ele>
        <time>2020-05-02T10:52:24Z</time>
      </trkpt>
      <trkpt lat="46.06997" lon="6.18536">
        <ele>927.482</ele>
        <time>2020-05-02T10:52:25Z</time>
      </trkpt>
      <trkpt lat="46.06991" lon="6.1853">
        <ele>927.763</ele>
        <time>2020-05-02T10:52:26Z</time>
      </trkpt>
      <trkpt lat="46.06986" lon="6.18524">
        <ele>928.044</ele>
        <time>2020-05-02T10:52:27Z</time>
      </trkpt>
      <trkpt lat="46.0698" lon="6.18519">
        <ele>928.218</ele>
        <time>2020-05-02T10:52:28Z</time>
      </trkpt>
      <trkpt lat="46.06971" lon="6.18513">
        <ele>928.408</ele>
        <time>2020-05-02T10:52:29Z</time>
      </trkpt>
      <trkpt lat="46.06964" lon="6.18509">
        <ele>928.43</ele>
        <time>2020-05-02T10:52:30Z</time>
      </trkpt>
      <trkpt lat="46.06958" lon="6.18506">
        <ele>928.744</ele>
        <time>2020-05-02T10:52:31Z</time>
      </trkpt>
      <trkpt lat="46.06952" lon="6.18506">
        <ele>929.193</ele>
        <time>2020-05-02T10:52:32Z</time>
      </trkpt>
      <trkpt lat="46.06946" lon="6.18508">
        <ele>929.335</ele>
        <time>2020-05-02T10:52:33Z</time>
      </trkpt>
      <trkpt lat="46.06938" lon="6.18512">
        <ele>929.78</ele>
        <time>2020-05-02T10:52:34Z</time>
      </trkpt>
      <trkpt lat="46.06933" lon="6.18515">
        <ele>930.464</ele>
        <time>2020-05-02T10:52:35Z</time>
      </trkpt>
      <trkpt lat="46.06927" lon="6.18517">
        <ele>930.818</ele>
        <time>2020-05-02T10:52:36Z</time>
      </trkpt>
      <trkpt lat="46.0692" lon="6.1852">
        <ele>931.439</ele>
        <time>2020-05-02T10:52:38Z</time>
      </trkpt>
      <trkpt lat="46.06914" lon="6.18523">
        <ele>931.642</ele>
        <time>2020-05-02T10:52:39Z</time>
      </trkpt>
      <trkpt lat="46.06908" lon="6.18526">
        <ele>931.822</ele>
        <time>2020-05-02T10:52:40Z</time>
      </trkpt>
      <trkpt lat="46.06899" lon="6.18529">
        <ele>932.014</ele>
        <time>2020-05-02T10:52:41Z</time>
      </trkpt>
      <trkpt lat="46.06894" lon="6.18533">
        <ele>932.208</ele>
        <time>2020-05-02T10:52:42Z</time>
      </trkpt>
      <trkpt lat="46.06885" lon="6.18539">
        <ele>932.328</ele>
        <time>2020-05-02T10:52:43Z</time>
      </trkpt>
      <trkpt lat="46.06876" lon="6.18545">
        <ele>932.492</ele>
        <time>2020-05-02T10:52:44Z</time>
      </trkpt>
      <trkpt lat="46.06868" lon="6.18551">
        <ele>932.811</ele>
        <time>2020-05-02T10:52:45Z</time>
      </trkpt>
      <trkpt lat="46.06861" lon="6.18556">
        <ele>933.373</ele>
        <time>2020-05-02T10:52:46Z</time>
      </trkpt>
      <trkpt lat="46.06853" lon="6.18562">
        <ele>933.988</ele>
        <time>2020-05-02T10:52:47Z</time>
      </trkpt>
      <trkpt lat="46.06846" lon="6.18569">
        <ele>934.712</ele>
        <time>2020-05-02T10:52:48Z</time>
      </trkpt>
      <trkpt lat="46.06839" lon="6.18575">
        <ele>935.946</ele>
        <time>2020-05-02T10:52:49Z</time>
      </trkpt>
      <trkpt lat="46.06833" lon="6.1858">
        <ele>936.967</ele>
        <time>2020-05-02T10:52:50Z</time>
      </trkpt>
      <trkpt lat="46.06826" lon="6.18582">
        <ele>937.925</ele>
        <time>2020-05-02T10:52:51Z</time>
      </trkpt>
      <trkpt lat="46.0682" lon="6.18587">
        <ele>938.926</ele>
        <time>2020-05-02T10:52:52Z</time>
      </trkpt>
      <trkpt lat="46.06814" lon="6.18589">
        <ele>939.908</ele>
        <time>2020-05-02T10:52:53Z</time>
      </trkpt>
      <trkpt lat="46.06807" lon="6.18593">
        <ele>940.708</ele>
        <time>2020-05-02T10:52:54Z</time>
      </trkpt>
      <trkpt lat="46.06799" lon="6.18596">
        <ele>941.496</ele>
        <time>2020-05-02T10:52:55Z</time>
      </trkpt>
      <trkpt lat="46.06793" lon="6.186">
        <ele>941.95</ele>
        <time>2020-05-02T10:52:56Z</time>
      </trkpt>
      <trkpt lat="46.06787" lon="6.18604">
        <ele>942.459</ele>
        <time>2020-05-02T10:52:57Z</time>
      </trkpt>
      <trkpt lat="46.06781" lon="6.18607">
        <ele>942.961</ele>
        <time>2020-05-02T10:52:58Z</time>
      </trkpt>
      <trkpt lat="46.06775" lon="6.18615">
        <ele>943.286</ele>
        <time>2020-05-02T10:52:59Z</time>
      </trkpt>
      <trkpt lat="46.06769" lon="6.18623">
        <ele>943.55</ele>
        <time>2020-05-02T10:53:00Z</time>
      </trkpt>
      <trkpt lat="46.06765" lon="6.18633">
        <ele>943.954</ele>
        <time>2020-05-02T10:53:01Z</time>
      </trkpt>
      <trkpt lat="46.06761" lon="6.18641">
        <ele>944.275</ele>
        <time>2020-05-02T10:53:02Z</time>
      </trkpt>
      <trkpt lat="46.06755" lon="6.18648">
        <ele>944.515</ele>
        <time>2020-05-02T10:53:03Z</time>
      </trkpt>
      <trkpt lat="46.0675" lon="6.18655">
        <ele>944.765</ele>
        <time>2020-05-02T10:53:04Z</time>
      </trkpt>
      <trkpt lat="46.06745" lon="6.18662">
        <ele>944.711</ele>
        <time>2020-05-02T10:53:05Z</time>
      </trkpt>
      <trkpt lat="46.06739" lon="6.18669">
        <ele>944.408</ele>
        <time>2020-05-02T10:53:06Z</time>
      </trkpt>
      <trkpt lat="46.06734" lon="6.18674">
        <ele>944.195</ele>
        <time>2020-05-02T10:53:07Z</time>
      </trkpt>
      <trkpt lat="46.06728" lon="6.18681">
        <ele>943.749</ele>
        <time>2020-05-02T10:53:08Z</time>
      </trkpt>
      <trkpt lat="46.06721" lon="6.18691">
        <ele>943.358</ele>
        <time>2020-05-02T10:53:09Z</time>
      </trkpt>
      <trkpt lat="46.06712" lon="6.18706">
        <ele>943.07</ele>
        <time>2020-05-02T10:53:10Z</time>
      </trkpt>
      <trkpt lat="46.06706" lon="6.18717">
        <ele>943.055</ele>
        <time>2020-05-02T10:53:11Z</time>
      </trkpt>
      <trkpt lat="46.06701" lon="6.18729">
        <ele>943.029</ele>
        <time>2020-05-02T10:53:12Z</time>
      </trkpt>
      <trkpt lat="46.06696" lon="6.18739">
        <ele>943.143</ele>
        <time>2020-05-02T10:53:13Z</time>
      </trkpt>
      <trkpt lat="46.06691" lon="6.18746">
        <ele>943.384</ele>
        <time>2020-05-02T10:53:14Z</time>
      </trkpt>
      <trkpt lat="46.06688" lon="6.18758">
        <ele>943.341</ele>
        <time>2020-05-02T10:53:15Z</time>
      </trkpt>
      <trkpt lat="46.06687" lon="6.18774">
        <ele>943.281</ele>
        <time>2020-05-02T10:53:16Z</time>
      </trkpt>
      <trkpt lat="46.06687" lon="6.1879">
        <ele>943.209</ele>
        <time>2020-05-02T10:53:17Z</time>
      </trkpt>
      <trkpt lat="46.06686" lon="6.18806">
        <ele>943.308</ele>
        <time>2020-05-02T10:53:18Z</time>
      </trkpt>
      <trkpt lat="46.06685" lon="6.18817">
        <ele>943.418</ele>
        <time>2020-05-02T10:53:19Z</time>
      </trkpt>
      <trkpt lat="46.06685" lon="6.18828">
        <ele>943.712</ele>
        <time>2020-05-02T10:53:20Z</time>
      </trkpt>
      <trkpt lat="46.06684" lon="6.18841">
        <ele>943.991</ele>
        <time>2020-05-02T10:53:21Z</time>
      </trkpt>
      <trkpt lat="46.06687" lon="6.18846">
        <ele>944.173</ele>
        <time>2020-05-02T10:53:22Z</time>
      </trkpt>
      <trkpt lat="46.06691" lon="6.18856">
        <ele>944.228</ele>
        <time>2020-05-02T10:53:23Z</time>
      </trkpt>
      <trkpt lat="46.06694" lon="6.18866">
        <ele>944.222</ele>
        <time>2020-05-02T10:53:24Z</time>
      </trkpt>
      <trkpt lat="46.06698" lon="6.18876">
        <ele>944.256</ele>
        <time>2020-05-02T10:53:25Z</time>
      </trkpt>
      <trkpt lat="46.067" lon="6.18887">
        <ele>944.297</ele>
        <time>2020-05-02T10:53:26Z</time>
      </trkpt>
      <trkpt lat="46.06703" lon="6.18897">
        <ele>944.211</ele>
        <time>2020-05-02T10:53:27Z</time>
      </trkpt>
      <trkpt lat="46.06705" lon="6.18907">
        <ele>944.221</ele>
        <time>2020-05-02T10:53:28Z</time>
      </trkpt>
      <trkpt lat="46.06707" lon="6.18916">
        <ele>944.303</ele>
        <time>2020-05-02T10:53:29Z</time>
      </trkpt>
      <trkpt lat="46.0671" lon="6.18926">
        <ele>944.308</ele>
        <time>2020-05-02T10:53:30Z</time>
      </trkpt>
      <trkpt lat="46.06714" lon="6.18934">
        <ele>944.495</ele>
        <time>2020-05-02T10:53:31Z</time>
      </trkpt>
      <trkpt lat="46.06717" lon="6.18942">
        <ele>944.549</ele>
        <time>2020-05-02T10:53:32Z</time>
      </trkpt>
      <trkpt lat="46.0672" lon="6.18955">
        <ele>944.828</ele>
        <time>2020-05-02T10:53:34Z</time>
      </trkpt>
      <trkpt lat="46.06724" lon="6.18962">
        <ele>945.07</ele>
        <time>2020-05-02T10:53:35Z</time>
      </trkpt>
      <trkpt lat="46.06728" lon="6.1897">
        <ele>945.245</ele>
        <time>2020-05-02T10:53:36Z</time>
      </trkpt>
      <trkpt lat="46.06733" lon="6.18976">
        <ele>945.539</ele>
        <time>2020-05-02T10:53:37Z</time>
      </trkpt>
      <trkpt lat="46.06738" lon="6.18983">
        <ele>945.713</ele>
        <time>2020-05-02T10:53:38Z</time>
      </trkpt>
      <trkpt lat="46.06742" lon="6.18989">
        <ele>946.084</ele>
        <time>2020-05-02T10:53:39Z</time>
      </trkpt>
      <trkpt lat="46.06745" lon="6.18994">
        <ele>946.323</ele>
        <time>2020-05-02T10:53:40Z</time>
      </trkpt>
      <trkpt lat="46.0675" lon="6.19">
        <ele>946.583</ele>
        <time>2020-05-02T10:53:41Z</time>
      </trkpt>
      <trkpt lat="46.06755" lon="6.19008">
        <ele>946.711</ele>
        <time>2020-05-02T10:53:42Z</time>
      </trkpt>
      <trkpt lat="46.06761" lon="6.19017">
        <ele>946.808</ele>
        <time>2020-05-02T10:53:43Z</time>
      </trkpt>
      <trkpt lat="46.06769" lon="6.19023">
        <ele>946.826</ele>
        <time>2020-05-02T10:53:44Z</time>
      </trkpt>
      <trkpt lat="46.06779" lon="6.19031">
        <ele>946.88</ele>
        <time>2020-05-02T10:53:45Z</time>
      </trkpt>
      <trkpt lat="46.06787" lon="6.19041">
        <ele>946.779</ele>
        <time>2020-05-02T10:53:46Z</time>
      </trkpt>
      <trkpt lat="46.06795" lon="6.19047">
        <ele>946.531</ele>
        <time>2020-05-02T10:53:47Z</time>
      </trkpt>
      <trkpt lat="46.06803" lon="6.19053">
        <ele>946.496</ele>
        <time>2020-05-02T10:53:48Z</time>
      </trkpt>
      <trkpt lat="46.06809" lon="6.19062">
        <ele>946.15</ele>
        <time>2020-05-02T10:53:49Z</time>
      </trkpt>
      <trkpt lat="46.06817" lon="6.19067">
        <ele>945.754</ele>
        <time>2020-05-02T10:53:50Z</time>
      </trkpt>
      <trkpt lat="46.06826" lon="6.19073">
        <ele>945.245</ele>
        <time>2020-05-02T10:53:51Z</time>
      </trkpt>
      <trkpt lat="46.06836" lon="6.19079">
        <ele>944.743</ele>
        <time>2020-05-02T10:53:52Z</time>
      </trkpt>
      <trkpt lat="46.06845" lon="6.19085">
        <ele>944.264</ele>
        <time>2020-05-02T10:53:53Z</time>
      </trkpt>
      <trkpt lat="46.06855" lon="6.19091">
        <ele>943.81</ele>
        <time>2020-05-02T10:53:54Z</time>
      </trkpt>
      <trkpt lat="46.06863" lon="6.19098">
        <ele>943.408</ele>
        <time>2020-05-02T10:53:55Z</time>
      </trkpt>
      <trkpt lat="46.06871" lon="6.19106">
        <ele>943.028</ele>
        <time>2020-05-02T10:53:56Z</time>
      </trkpt>
      <trkpt lat="46.06876" lon="6.19116">
        <ele>942.722</ele>
        <time>2020-05-02T10:53:57Z</time>
      </trkpt>
      <trkpt lat="46.06883" lon="6.19124">
        <ele>942.391</ele>
        <time>2020-05-02T10:53:58Z</time>
      </trkpt>
      <trkpt lat="46.06891" lon="6.19134">
        <ele>942.033</ele>
        <time>2020-05-02T10:53:59Z</time>
      </trkpt>
      <trkpt lat="46.06897" lon="6.19141">
        <ele>941.688</ele>
        <time>2020-05-02T10:54:00Z</time>
      </trkpt>
      <trkpt lat="46.06904" lon="6.19147">
        <ele>941.232</ele>
        <time>2020-05-02T10:54:01Z</time>
      </trkpt>
      <trkpt lat="46.06911" lon="6.19154">
        <ele>940.986</ele>
        <time>2020-05-02T10:54:02Z</time>
      </trkpt>
      <trkpt lat="46.06918" lon="6.19162">
        <ele>940.597</ele>
        <time>2020-05-02T10:54:03Z</time>
      </trkpt>
      <trkpt lat="46.06925" lon="6.19171">
        <ele>940.177</ele>
        <time>2020-05-02T10:54:04Z</time>
      </trkpt>
      <trkpt lat="46.06934" lon="6.19185">
        <ele>939.861</ele>
        <time>2020-05-02T10:54:05Z</time>
      </trkpt>
      <trkpt lat="46.06945" lon="6.19204">
        <ele>939.627</ele>
        <time>2020-05-02T10:54:06Z</time>
      </trkpt>
      <trkpt lat="46.06958" lon="6.19225">
        <ele>939.608</ele>
        <time>2020-05-02T10:54:07Z</time>
      </trkpt>
      <trkpt lat="46.06971" lon="6.19245">
        <ele>939.871</ele>
        <time>2020-05-02T10:54:08Z</time>
      </trkpt>
      <trkpt lat="46.06982" lon="6.19263">
        <ele>940.865</ele>
        <time>2020-05-02T10:54:09Z</time>
      </trkpt>
      <trkpt lat="46.0699" lon="6.19277">
        <ele>942.054</ele>
        <time>2020-05-02T10:54:10Z</time>
      </trkpt>
      <trkpt lat="46.06996" lon="6.19292">
        <ele>943.226</ele>
        <time>2020-05-02T10:54:11Z</time>
      </trkpt>
      <trkpt lat="46.07003" lon="6.19306">
        <ele>944.471</ele>
        <time>2020-05-02T10:54:12Z</time>
      </trkpt>
      <trkpt lat="46.07008" lon="6.1932">
        <ele>945.235</ele>
        <time>2020-05-02T10:54:13Z</time>
      </trkpt>
      <trkpt lat="46.07012" lon="6.19333">
        <ele>945.489</ele>
        <time>2020-05-02T10:54:14Z</time>
      </trkpt>
      <trkpt lat="46.07015" lon="6.19345">
        <ele>945.54</ele>
        <time>2020-05-02T10:54:15Z</time>
      </trkpt>
      <trkpt lat="46.07018" lon="6.19357">
        <ele>945.526</ele>
        <time>2020-05-02T10:54:16Z</time>
      </trkpt>
      <trkpt lat="46.07019" lon="6.19369">
        <ele>945.447</ele>
        <time>2020-05-02T10:54:17Z</time>
      </trkpt>
      <trkpt lat="46.0702" lon="6.19381">
        <ele>945.311</ele>
        <time>2020-05-02T10:54:18Z</time>
      </trkpt>
      <trkpt lat="46.07018" lon="6.19392">
        <ele>945.008</ele>
        <time>2020-05-02T10:54:19Z</time>
      </trkpt>
      <trkpt lat="46.07017" lon="6.19402">
        <ele>944.796</ele>
        <time>2020-05-02T10:54:20Z</time>
      </trkpt>
      <trkpt lat="46.07016" lon="6.19413">
        <ele>944.22</ele>
        <time>2020-05-02T10:54:21Z</time>
      </trkpt>
      <trkpt lat="46.07014" lon="6.1942">
        <ele>943.719</ele>
        <time>2020-05-02T10:54:22Z</time>
      </trkpt>
      <trkpt lat="46.07013" lon="6.19429">
        <ele>943.311</ele>
        <time>2020-05-02T10:54:23Z</time>
      </trkpt>
      <trkpt lat="46.07014" lon="6.19437">
        <ele>942.916</ele>
        <time>2020-05-02T10:54:24Z</time>
      </trkpt>
      <trkpt lat="46.07015" lon="6.19444">
        <ele>942.63</ele>
        <time>2020-05-02T10:54:25Z</time>
      </trkpt>
      <trkpt lat="46.07015" lon="6.19452">
        <ele>942.434</ele>
        <time>2020-05-02T10:54:26Z</time>
      </trkpt>
      <trkpt lat="46.07014" lon="6.19459">
        <ele>942.485</ele>
        <time>2020-05-02T10:54:27Z</time>
      </trkpt>
      <trkpt lat="46.07012" lon="6.19466">
        <ele>942.387</ele>
        <time>2020-05-02T10:54:28Z</time>
      </trkpt>
      <trkpt lat="46.07011" lon="6.19473">
        <ele>942.342</ele>
        <time>2020-05-02T10:54:29Z</time>
      </trkpt>
      <trkpt lat="46.07009" lon="6.19484">
        <ele>942.426</ele>
        <time>2020-05-02T10:54:31Z</time>
      </trkpt>
      <trkpt lat="46.07008" lon="6.19499">
        <ele>942.508</ele>
        <time>2020-05-02T10:54:33Z</time>
      </trkpt>
      <trkpt lat="46.07007" lon="6.19507">
        <ele>942.652</ele>
        <time>2020-05-02T10:54:34Z</time>
      </trkpt>
      <trkpt lat="46.07006" lon="6.19514">
        <ele>942.736</ele>
        <time>2020-05-02T10:54:35Z</time>
      </trkpt>
      <trkpt lat="46.07005" lon="6.19529">
        <ele>943.195</ele>
        <time>2020-05-02T10:54:37Z</time>
      </trkpt>
      <trkpt lat="46.07005" lon="6.19538">
        <ele>943.447</ele>
        <time>2020-05-02T10:54:38Z</time>
      </trkpt>
      <trkpt lat="46.07005" lon="6.19548">
        <ele>943.782</ele>
        <time>2020-05-02T10:54:39Z</time>
      </trkpt>
      <trkpt lat="46.07005" lon="6.19558">
        <ele>944.176</ele>
        <time>2020-05-02T10:54:40Z</time>
      </trkpt>
      <trkpt lat="46.07005" lon="6.19566">
        <ele>944.54</ele>
        <time>2020-05-02T10:54:41Z</time>
      </trkpt>
      <trkpt lat="46.07006" lon="6.19576">
        <ele>945.061</ele>
        <time>2020-05-02T10:54:42Z</time>
      </trkpt>
      <trkpt lat="46.07007" lon="6.19587">
        <ele>945.483</ele>
        <time>2020-05-02T10:54:43Z</time>
      </trkpt>
      <trkpt lat="46.07007" lon="6.19598">
        <ele>945.825</ele>
        <time>2020-05-02T10:54:44Z</time>
      </trkpt>
      <trkpt lat="46.07008" lon="6.19609">
        <ele>946.217</ele>
        <time>2020-05-02T10:54:45Z</time>
      </trkpt>
      <trkpt lat="46.0701" lon="6.1962">
        <ele>946.508</ele>
        <time>2020-05-02T10:54:46Z</time>
      </trkpt>
      <trkpt lat="46.07012" lon="6.19633">
        <ele>946.732</ele>
        <time>2020-05-02T10:54:47Z</time>
      </trkpt>
      <trkpt lat="46.07015" lon="6.19644">
        <ele>947.016</ele>
        <time>2020-05-02T10:54:48Z</time>
      </trkpt>
      <trkpt lat="46.07019" lon="6.19657">
        <ele>947.115</ele>
        <time>2020-05-02T10:54:49Z</time>
      </trkpt>
      <trkpt lat="46.07024" lon="6.19671">
        <ele>947.127</ele>
        <time>2020-05-02T10:54:50Z</time>
      </trkpt>
      <trkpt lat="46.07028" lon="6.19682">
        <ele>947.252</ele>
        <time>2020-05-02T10:54:51Z</time>
      </trkpt>
      <trkpt lat="46.07033" lon="6.19693">
        <ele>947.236</ele>
        <time>2020-05-02T10:54:52Z</time>
      </trkpt>
      <trkpt lat="46.07036" lon="6.19704">
        <ele>947.13</ele>
        <time>2020-05-02T10:54:53Z</time>
      </trkpt>
      <trkpt lat="46.07037" lon="6.19711">
        <ele>947.061</ele>
        <time>2020-05-02T10:54:54Z</time>
      </trkpt>
      <trkpt lat="46.07036" lon="6.19718">
        <ele>946.981</ele>
        <time>2020-05-02T10:54:55Z</time>
      </trkpt>
      <trkpt lat="46.07033" lon="6.19725">
        <ele>946.761</ele>
        <time>2020-05-02T10:54:56Z</time>
      </trkpt>
      <trkpt lat="46.0703" lon="6.19733">
        <ele>946.517</ele>
        <time>2020-05-02T10:54:57Z</time>
      </trkpt>
      <trkpt lat="46.07027" lon="6.19738">
        <ele>946.408</ele>
        <time>2020-05-02T10:54:58Z</time>
      </trkpt>
      <trkpt lat="46.07023" lon="6.19745">
        <ele>946.292</ele>
        <time>2020-05-02T10:54:59Z</time>
      </trkpt>
      <trkpt lat="46.07018" lon="6.19757">
        <ele>946.166</ele>
        <time>2020-05-02T10:55:00Z</time>
      </trkpt>
      <trkpt lat="46.07013" lon="6.19771">
        <ele>946.135</ele>
        <time>2020-05-02T10:55:01Z</time>
      </trkpt>
      <trkpt lat="46.0701" lon="6.19783">
        <ele>946.477</ele>
        <time>2020-05-02T10:55:02Z</time>
      </trkpt>
      <trkpt lat="46.07008" lon="6.19796">
        <ele>946.872</ele>
        <time>2020-05-02T10:55:03Z</time>
      </trkpt>
      <trkpt lat="46.0701" lon="6.1981">
        <ele>947.566</ele>
        <time>2020-05-02T10:55:04Z</time>
      </trkpt>
      <trkpt lat="46.07012" lon="6.19828">
        <ele>948.46</ele>
        <time>2020-05-02T10:55:05Z</time>
      </trkpt>
      <trkpt lat="46.07009" lon="6.19845">
        <ele>949.361</ele>
        <time>2020-05-02T10:55:06Z</time>
      </trkpt>
      <trkpt lat="46.07006" lon="6.1986">
        <ele>950.336</ele>
        <time>2020-05-02T10:55:07Z</time>
      </trkpt>
      <trkpt lat="46.07002" lon="6.19873">
        <ele>951.217</ele>
        <time>2020-05-02T10:55:08Z</time>
      </trkpt>
      <trkpt lat="46.06998" lon="6.19882">
        <ele>952.018</ele>
        <time>2020-05-02T10:55:09Z</time>
      </trkpt>
      <trkpt lat="46.06994" lon="6.19891">
        <ele>952.708</ele>
        <time>2020-05-02T10:55:10Z</time>
      </trkpt>
      <trkpt lat="46.0699" lon="6.19901">
        <ele>953.287</ele>
        <time>2020-05-02T10:55:11Z</time>
      </trkpt>
      <trkpt lat="46.06986" lon="6.1991">
        <ele>953.271</ele>
        <time>2020-05-02T10:55:12Z</time>
      </trkpt>
      <trkpt lat="46.06983" lon="6.19916">
        <ele>953.08</ele>
        <time>2020-05-02T10:55:13Z</time>
      </trkpt>
      <trkpt lat="46.0698" lon="6.19924">
        <ele>952.692</ele>
        <time>2020-05-02T10:55:14Z</time>
      </trkpt>
      <trkpt lat="46.06978" lon="6.19935">
        <ele>952.027</ele>
        <time>2020-05-02T10:55:15Z</time>
      </trkpt>
      <trkpt lat="46.06977" lon="6.1995">
        <ele>951.541</ele>
        <time>2020-05-02T10:55:16Z</time>
      </trkpt>
      <trkpt lat="46.06974" lon="6.19965">
        <ele>951.115</ele>
        <time>2020-05-02T10:55:17Z</time>
      </trkpt>
      <trkpt lat="46.06972" lon="6.19977">
        <ele>951.176</ele>
        <time>2020-05-02T10:55:18Z</time>
      </trkpt>
      <trkpt lat="46.0697" lon="6.19988">
        <ele>951.266</ele>
        <time>2020-05-02T10:55:19Z</time>
      </trkpt>
      <trkpt lat="46.06969" lon="6.19998">
        <ele>951.529</ele>
        <time>2020-05-02T10:55:20Z</time>
      </trkpt>
      <trkpt lat="46.06968" lon="6.20006">
        <ele>951.721</ele>
        <time>2020-05-02T10:55:21Z</time>
      </trkpt>
      <trkpt lat="46.06966" lon="6.20013">
        <ele>952.008</ele>
        <time>2020-05-02T10:55:22Z</time>
      </trkpt>
      <trkpt lat="46.06966" lon="6.20021">
        <ele>952.01</ele>
        <time>2020-05-02T10:55:23Z</time>
      </trkpt>
      <trkpt lat="46.06965" lon="6.20029">
        <ele>951.614</ele>
        <time>2020-05-02T10:55:24Z</time>
      </trkpt>
      <trkpt lat="46.06964" lon="6.2004">
        <ele>951.163</ele>
        <time>2020-05-02T10:55:25Z</time>
      </trkpt>
      <trkpt lat="46.06963" lon="6.20052">
        <ele>950.485</ele>
        <time>2020-05-02T10:55:26Z</time>
      </trkpt>
      <trkpt lat="46.06962" lon="6.20062">
        <ele>949.54</ele>
        <time>2020-05-02T10:55:27Z</time>
      </trkpt>
      <trkpt lat="46.06961" lon="6.20073">
        <ele>948.764</ele>
        <time>2020-05-02T10:55:28Z</time>
      </trkpt>
      <trkpt lat="46.06959" lon="6.20084">
        <ele>947.918</ele>
        <time>2020-05-02T10:55:29Z</time>
      </trkpt>
      <trkpt lat="46.06956" lon="6.20095">
        <ele>947.269</ele>
        <time>2020-05-02T10:55:30Z</time>
      </trkpt>
      <trkpt lat="46.06954" lon="6.20107">
        <ele>946.494</ele>
        <time>2020-05-02T10:55:31Z</time>
      </trkpt>
      <trkpt lat="46.06951" lon="6.20118">
        <ele>945.657</ele>
        <time>2020-05-02T10:55:32Z</time>
      </trkpt>
      <trkpt lat="46.06948" lon="6.20128">
        <ele>944.722</ele>
        <time>2020-05-02T10:55:33Z</time>
      </trkpt>
      <trkpt lat="46.06945" lon="6.20136">
        <ele>944.008</ele>
        <time>2020-05-02T10:55:34Z</time>
      </trkpt>
      <trkpt lat="46.06945" lon="6.20147">
        <ele>943.383</ele>
        <time>2020-05-02T10:55:35Z</time>
      </trkpt>
      <trkpt lat="46.06947" lon="6.2016">
        <ele>942.837</ele>
        <time>2020-05-02T10:55:36Z</time>
      </trkpt>
      <trkpt lat="46.06947" lon="6.20177">
        <ele>942.686</ele>
        <time>2020-05-02T10:55:37Z</time>
      </trkpt>
      <trkpt lat="46.0695" lon="6.20193">
        <ele>942.698</ele>
        <time>2020-05-02T10:55:38Z</time>
      </trkpt>
      <trkpt lat="46.06953" lon="6.20206">
        <ele>942.993</ele>
        <time>2020-05-02T10:55:39Z</time>
      </trkpt>
      <trkpt lat="46.06952" lon="6.20217">
        <ele>943.147</ele>
        <time>2020-05-02T10:55:40Z</time>
      </trkpt>
      <trkpt lat="46.06952" lon="6.20229">
        <ele>943.361</ele>
        <time>2020-05-02T10:55:41Z</time>
      </trkpt>
      <trkpt lat="46.06951" lon="6.20241">
        <ele>943.322</ele>
        <time>2020-05-02T10:55:42Z</time>
      </trkpt>
      <trkpt lat="46.06952" lon="6.20254">
        <ele>943.064</ele>
        <time>2020-05-02T10:55:43Z</time>
      </trkpt>
      <trkpt lat="46.06951" lon="6.20264">
        <ele>942.406</ele>
        <time>2020-05-02T10:55:44Z</time>
      </trkpt>
      <trkpt lat="46.0695" lon="6.20273">
        <ele>941.716</ele>
        <time>2020-05-02T10:55:45Z</time>
      </trkpt>
      <trkpt lat="46.06952" lon="6.20286">
        <ele>940.908</ele>
        <time>2020-05-02T10:55:46Z</time>
      </trkpt>
      <trkpt lat="46.06951" lon="6.20296">
        <ele>940.09</ele>
        <time>2020-05-02T10:55:47Z</time>
      </trkpt>
      <trkpt lat="46.06951" lon="6.20304">
        <ele>939.174</ele>
        <time>2020-05-02T10:55:48Z</time>
      </trkpt>
      <trkpt lat="46.06951" lon="6.20314">
        <ele>938.363</ele>
        <time>2020-05-02T10:55:49Z</time>
      </trkpt>
      <trkpt lat="46.06954" lon="6.20323">
        <ele>937.575</ele>
        <time>2020-05-02T10:55:50Z</time>
      </trkpt>
      <trkpt lat="46.06958" lon="6.20334">
        <ele>936.74</ele>
        <time>2020-05-02T10:55:51Z</time>
      </trkpt>
      <trkpt lat="46.06962" lon="6.2035">
        <ele>936.134</ele>
        <time>2020-05-02T10:55:52Z</time>
      </trkpt>
      <trkpt lat="46.06965" lon="6.20366">
        <ele>935.778</ele>
        <time>2020-05-02T10:55:53Z</time>
      </trkpt>
      <trkpt lat="46.06967" lon="6.20384">
        <ele>935.319</ele>
        <time>2020-05-02T10:55:54Z</time>
      </trkpt>
      <trkpt lat="46.06971" lon="6.20399">
        <ele>935.027</ele>
        <time>2020-05-02T10:55:55Z</time>
      </trkpt>
      <trkpt lat="46.06977" lon="6.20414">
        <ele>935.068</ele>
        <time>2020-05-02T10:55:56Z</time>
      </trkpt>
      <trkpt lat="46.06983" lon="6.20427">
        <ele>935.114</ele>
        <time>2020-05-02T10:55:57Z</time>
      </trkpt>
      <trkpt lat="46.06989" lon="6.20432">
        <ele>935.408</ele>
        <time>2020-05-02T10:55:58Z</time>
      </trkpt>
      <trkpt lat="46.06997" lon="6.20439">
        <ele>935.756</ele>
        <time>2020-05-02T10:55:59Z</time>
      </trkpt>
      <trkpt lat="46.07003" lon="6.20445">
        <ele>936.02</ele>
        <time>2020-05-02T10:56:00Z</time>
      </trkpt>
      <trkpt lat="46.0701" lon="6.20453">
        <ele>936.359</ele>
        <time>2020-05-02T10:56:01Z</time>
      </trkpt>
      <trkpt lat="46.07016" lon="6.20462">
        <ele>936.381</ele>
        <time>2020-05-02T10:56:02Z</time>
      </trkpt>
      <trkpt lat="46.07022" lon="6.20472">
        <ele>936.346</ele>
        <time>2020-05-02T10:56:03Z</time>
      </trkpt>
      <trkpt lat="46.07027" lon="6.2048">
        <ele>935.93</ele>
        <time>2020-05-02T10:56:04Z</time>
      </trkpt>
      <trkpt lat="46.07033" lon="6.20486">
        <ele>935.334</ele>
        <time>2020-05-02T10:56:05Z</time>
      </trkpt>
      <trkpt lat="46.07038" lon="6.2049">
        <ele>934.795</ele>
        <time>2020-05-02T10:56:06Z</time>
      </trkpt>
      <trkpt lat="46.07041" lon="6.20499">
        <ele>933.483</ele>
        <time>2020-05-02T10:56:08Z</time>
      </trkpt>
      <trkpt lat="46.07036" lon="6.20514">
        <ele>932.725</ele>
        <time>2020-05-02T10:56:10Z</time>
      </trkpt>
      <trkpt lat="46.0703" lon="6.20523">
        <ele>932.717</ele>
        <time>2020-05-02T10:56:11Z</time>
      </trkpt>
      <trkpt lat="46.07023" lon="6.20536">
        <ele>932.708</ele>
        <time>2020-05-02T10:56:12Z</time>
      </trkpt>
      <trkpt lat="46.07015" lon="6.2055">
        <ele>932.932</ele>
        <time>2020-05-02T10:56:13Z</time>
      </trkpt>
      <trkpt lat="46.07006" lon="6.20566">
        <ele>933.286</ele>
        <time>2020-05-02T10:56:14Z</time>
      </trkpt>
      <trkpt lat="46.06998" lon="6.2058">
        <ele>933.655</ele>
        <time>2020-05-02T10:56:15Z</time>
      </trkpt>
      <trkpt lat="46.06991" lon="6.20593">
        <ele>934.147</ele>
        <time>2020-05-02T10:56:16Z</time>
      </trkpt>
      <trkpt lat="46.06984" lon="6.20604">
        <ele>934.622</ele>
        <time>2020-05-02T10:56:17Z</time>
      </trkpt>
      <trkpt lat="46.06977" lon="6.20617">
        <ele>935.076</ele>
        <time>2020-05-02T10:56:18Z</time>
      </trkpt>
      <trkpt lat="46.06971" lon="6.2063">
        <ele>935.36</ele>
        <time>2020-05-02T10:56:19Z</time>
      </trkpt>
      <trkpt lat="46.06967" lon="6.20642">
        <ele>935.521</ele>
        <time>2020-05-02T10:56:20Z</time>
      </trkpt>
      <trkpt lat="46.06964" lon="6.20655">
        <ele>935.592</ele>
        <time>2020-05-02T10:56:21Z</time>
      </trkpt>
      <trkpt lat="46.06962" lon="6.20668">
        <ele>935.473</ele>
        <time>2020-05-02T10:56:22Z</time>
      </trkpt>
      <trkpt lat="46.0696" lon="6.2068">
        <ele>935.42</ele>
        <time>2020-05-02T10:56:23Z</time>
      </trkpt>
      <trkpt lat="46.06958" lon="6.20692">
        <ele>935.208</ele>
        <time>2020-05-02T10:56:24Z</time>
      </trkpt>
      <trkpt lat="46.06956" lon="6.20702">
        <ele>935.023</ele>
        <time>2020-05-02T10:56:25Z</time>
      </trkpt>
      <trkpt lat="46.06953" lon="6.20714">
        <ele>934.867</ele>
        <time>2020-05-02T10:56:26Z</time>
      </trkpt>
      <trkpt lat="46.06951" lon="6.20725">
        <ele>934.616</ele>
        <time>2020-05-02T10:56:27Z</time>
      </trkpt>
      <trkpt lat="46.06949" lon="6.20735">
        <ele>934.358</ele>
        <time>2020-05-02T10:56:28Z</time>
      </trkpt>
      <trkpt lat="46.06946" lon="6.20745">
        <ele>933.973</ele>
        <time>2020-05-02T10:56:29Z</time>
      </trkpt>
      <trkpt lat="46.06943" lon="6.20754">
        <ele>933.627</ele>
        <time>2020-05-02T10:56:30Z</time>
      </trkpt>
      <trkpt lat="46.06939" lon="6.20763">
        <ele>933.141</ele>
        <time>2020-05-02T10:56:31Z</time>
      </trkpt>
      <trkpt lat="46.06934" lon="6.20771">
        <ele>932.772</ele>
        <time>2020-05-02T10:56:32Z</time>
      </trkpt>
      <trkpt lat="46.06931" lon="6.20777">
        <ele>932.282</ele>
        <time>2020-05-02T10:56:33Z</time>
      </trkpt>
      <trkpt lat="46.06928" lon="6.20782">
        <ele>931.843</ele>
        <time>2020-05-02T10:56:34Z</time>
      </trkpt>
      <trkpt lat="46.06922" lon="6.20785">
        <ele>931.417</ele>
        <time>2020-05-02T10:56:35Z</time>
      </trkpt>
      <trkpt lat="46.06913" lon="6.20785">
        <ele>931.408</ele>
        <time>2020-05-02T10:56:36Z</time>
      </trkpt>
      <trkpt lat="46.06901" lon="6.20783">
        <ele>931.442</ele>
        <time>2020-05-02T10:56:37Z</time>
      </trkpt>
      <trkpt lat="46.06892" lon="6.20782">
        <ele>931.576</ele>
        <time>2020-05-02T10:56:38Z</time>
      </trkpt>
      <trkpt lat="46.06882" lon="6.20779">
        <ele>931.975</ele>
        <time>2020-05-02T10:56:39Z</time>
      </trkpt>
      <trkpt lat="46.06875" lon="6.20778">
        <ele>932.257</ele>
        <time>2020-05-02T10:56:40Z</time>
      </trkpt>
      <trkpt lat="46.06868" lon="6.20778">
        <ele>932.392</ele>
        <time>2020-05-02T10:56:41Z</time>
      </trkpt>
      <trkpt lat="46.0686" lon="6.20778">
        <ele>932.356</ele>
        <time>2020-05-02T10:56:42Z</time>
      </trkpt>
      <trkpt lat="46.06852" lon="6.20777">
        <ele>932.31</ele>
        <time>2020-05-02T10:56:43Z</time>
      </trkpt>
      <trkpt lat="46.06844" lon="6.20776">
        <ele>932.041</ele>
        <time>2020-05-02T10:56:44Z</time>
      </trkpt>
      <trkpt lat="46.06836" lon="6.20775">
        <ele>931.746</ele>
        <time>2020-05-02T10:56:45Z</time>
      </trkpt>
      <trkpt lat="46.06829" lon="6.20775">
        <ele>931.588</ele>
        <time>2020-05-02T10:56:46Z</time>
      </trkpt>
      <trkpt lat="46.06823" lon="6.20774">
        <ele>931.316</ele>
        <time>2020-05-02T10:56:47Z</time>
      </trkpt>
      <trkpt lat="46.06817" lon="6.20773">
        <ele>931.208</ele>
        <time>2020-05-02T10:56:48Z</time>
      </trkpt>
      <trkpt lat="46.06811" lon="6.20773">
        <ele>931.038</ele>
        <time>2020-05-02T10:56:49Z</time>
      </trkpt>
      <trkpt lat="46.06807" lon="6.20775">
        <ele>930.922</ele>
        <time>2020-05-02T10:56:50Z</time>
      </trkpt>
      <trkpt lat="46.068" lon="6.20782">
        <ele>930.511</ele>
        <time>2020-05-02T10:56:52Z</time>
      </trkpt>
      <trkpt lat="46.06802" lon="6.20799">
        <ele>930.143</ele>
        <time>2020-05-02T10:56:54Z</time>
      </trkpt>
      <trkpt lat="46.06804" lon="6.20811">
        <ele>930.068</ele>
        <time>2020-05-02T10:56:55Z</time>
      </trkpt>
      <trkpt lat="46.06804" lon="6.20823">
        <ele>929.912</ele>
        <time>2020-05-02T10:56:56Z</time>
      </trkpt>
      <trkpt lat="46.06806" lon="6.20833">
        <ele>929.916</ele>
        <time>2020-05-02T10:56:57Z</time>
      </trkpt>
      <trkpt lat="46.06805" lon="6.2084">
        <ele>929.887</ele>
        <time>2020-05-02T10:56:58Z</time>
      </trkpt>
      <trkpt lat="46.06807" lon="6.20851">
        <ele>929.629</ele>
        <time>2020-05-02T10:56:59Z</time>
      </trkpt>
      <trkpt lat="46.06808" lon="6.20864">
        <ele>929.4</ele>
        <time>2020-05-02T10:57:00Z</time>
      </trkpt>
      <trkpt lat="46.06808" lon="6.20877">
        <ele>928.92</ele>
        <time>2020-05-02T10:57:01Z</time>
      </trkpt>
      <trkpt lat="46.06808" lon="6.20889">
        <ele>928.408</ele>
        <time>2020-05-02T10:57:02Z</time>
      </trkpt>
      <trkpt lat="46.06809" lon="6.209">
        <ele>927.946</ele>
        <time>2020-05-02T10:57:03Z</time>
      </trkpt>
      <trkpt lat="46.06808" lon="6.2091">
        <ele>927.34</ele>
        <time>2020-05-02T10:57:04Z</time>
      </trkpt>
      <trkpt lat="46.06808" lon="6.20921">
        <ele>926.669</ele>
        <time>2020-05-02T10:57:05Z</time>
      </trkpt>
      <trkpt lat="46.06809" lon="6.20929">
        <ele>926.191</ele>
        <time>2020-05-02T10:57:06Z</time>
      </trkpt>
      <trkpt lat="46.06809" lon="6.20938">
        <ele>925.776</ele>
        <time>2020-05-02T10:57:07Z</time>
      </trkpt>
      <trkpt lat="46.06811" lon="6.20946">
        <ele>925.27</ele>
        <time>2020-05-02T10:57:09Z</time>
      </trkpt>
      <trkpt lat="46.06814" lon="6.20961">
        <ele>925.164</ele>
        <time>2020-05-02T10:57:11Z</time>
      </trkpt>
      <trkpt lat="46.06815" lon="6.20969">
        <ele>925.065</ele>
        <time>2020-05-02T10:57:12Z</time>
      </trkpt>
      <trkpt lat="46.06813" lon="6.20975">
        <ele>925.069</ele>
        <time>2020-05-02T10:57:13Z</time>
      </trkpt>
      <trkpt lat="46.06808" lon="6.20984">
        <ele>924.904</ele>
        <time>2020-05-02T10:57:15Z</time>
      </trkpt>
      <trkpt lat="46.06801" lon="6.20992">
        <ele>924.724</ele>
        <time>2020-05-02T10:57:17Z</time>
      </trkpt>
      <trkpt lat="46.06796" lon="6.20998">
        <ele>924.608</ele>
        <time>2020-05-02T10:57:19Z</time>
      </trkpt>
      <trkpt lat="46.0679" lon="6.21002">
        <ele>924.58</ele>
        <time>2020-05-02T10:57:21Z</time>
      </trkpt>
      <trkpt lat="46.06786" lon="6.21007">
        <ele>924.584</ele>
        <time>2020-05-02T10:57:22Z</time>
      </trkpt>
      <trkpt lat="46.06782" lon="6.21012">
        <ele>924.513</ele>
        <time>2020-05-02T10:57:23Z</time>
      </trkpt>
      <trkpt lat="46.06777" lon="6.21018">
        <ele>924.645</ele>
        <time>2020-05-02T10:57:24Z</time>
      </trkpt>
      <trkpt lat="46.06768" lon="6.21026">
        <ele>924.83</ele>
        <time>2020-05-02T10:57:25Z</time>
      </trkpt>
      <trkpt lat="46.06762" lon="6.21032">
        <ele>925.034</ele>
        <time>2020-05-02T10:57:26Z</time>
      </trkpt>
      <trkpt lat="46.06755" lon="6.21041">
        <ele>925.628</ele>
        <time>2020-05-02T10:57:29Z</time>
      </trkpt>
      <trkpt lat="46.06751" lon="6.21049">
        <ele>925.669</ele>
        <time>2020-05-02T10:57:30Z</time>
      </trkpt>
      <trkpt lat="46.06746" lon="6.21055">
        <ele>925.611</ele>
        <time>2020-05-02T10:57:31Z</time>
      </trkpt>
      <trkpt lat="46.06739" lon="6.21063">
        <ele>925.621</ele>
        <time>2020-05-02T10:57:32Z</time>
      </trkpt>
      <trkpt lat="46.06734" lon="6.21072">
        <ele>925.403</ele>
        <time>2020-05-02T10:57:33Z</time>
      </trkpt>
      <trkpt lat="46.06729" lon="6.21082">
        <ele>925.208</ele>
        <time>2020-05-02T10:57:34Z</time>
      </trkpt>
      <trkpt lat="46.06726" lon="6.21088">
        <ele>925.045</ele>
        <time>2020-05-02T10:57:35Z</time>
      </trkpt>
      <trkpt lat="46.06722" lon="6.21095">
        <ele>924.849</ele>
        <time>2020-05-02T10:57:36Z</time>
      </trkpt>
      <trkpt lat="46.06717" lon="6.21101">
        <ele>924.638</ele>
        <time>2020-05-02T10:57:37Z</time>
      </trkpt>
      <trkpt lat="46.06713" lon="6.21109">
        <ele>924.44</ele>
        <time>2020-05-02T10:57:38Z</time>
      </trkpt>
      <trkpt lat="46.0671" lon="6.21118">
        <ele>924.345</ele>
        <time>2020-05-02T10:57:39Z</time>
      </trkpt>
      <trkpt lat="46.06706" lon="6.21124">
        <ele>924.139</ele>
        <time>2020-05-02T10:57:40Z</time>
      </trkpt>
      <trkpt lat="46.06702" lon="6.21131">
        <ele>923.953</ele>
        <time>2020-05-02T10:57:41Z</time>
      </trkpt>
      <trkpt lat="46.06697" lon="6.21135">
        <ele>923.234</ele>
        <time>2020-05-02T10:57:43Z</time>
      </trkpt>
      <trkpt lat="46.06694" lon="6.21146">
        <ele>922.158</ele>
        <time>2020-05-02T10:57:45Z</time>
      </trkpt>
      <trkpt lat="46.06691" lon="6.21153">
        <ele>920.852</ele>
        <time>2020-05-02T10:57:47Z</time>
      </trkpt>
      <trkpt lat="46.06686" lon="6.21157">
        <ele>919.517</ele>
        <time>2020-05-02T10:57:49Z</time>
      </trkpt>
      <trkpt lat="46.06681" lon="6.21165">
        <ele>918.908</ele>
        <time>2020-05-02T10:57:51Z</time>
      </trkpt>
      <trkpt lat="46.06676" lon="6.21171">
        <ele>918.039</ele>
        <time>2020-05-02T10:57:53Z</time>
      </trkpt>
      <trkpt lat="46.06673" lon="6.21182">
        <ele>916.633</ele>
        <time>2020-05-02T10:58:02Z</time>
      </trkpt>
      <trkpt lat="46.06667" lon="6.21189">
        <ele>916.572</ele>
        <time>2020-05-02T10:58:04Z</time>
      </trkpt>
      <trkpt lat="46.06663" lon="6.21194">
        <ele>916.414</ele>
        <time>2020-05-02T10:58:05Z</time>
      </trkpt>
      <trkpt lat="46.06657" lon="6.21202">
        <ele>916.259</ele>
        <time>2020-05-02T10:58:07Z</time>
      </trkpt>
      <trkpt lat="46.06649" lon="6.21217">
        <ele>916.053</ele>
        <time>2020-05-02T10:58:09Z</time>
      </trkpt>
      <trkpt lat="46.06645" lon="6.21226">
        <ele>915.977</ele>
        <time>2020-05-02T10:58:10Z</time>
      </trkpt>
      <trkpt lat="46.0664" lon="6.21231">
        <ele>915.938</ele>
        <time>2020-05-02T10:58:11Z</time>
      </trkpt>
      <trkpt lat="46.06636" lon="6.21237">
        <ele>915.846</ele>
        <time>2020-05-02T10:58:12Z</time>
      </trkpt>
      <trkpt lat="46.06634" lon="6.21246">
        <ele>915.588</ele>
        <time>2020-05-02T10:58:14Z</time>
      </trkpt>
      <trkpt lat="46.06639" lon="6.21256">
        <ele>915.016</ele>
        <time>2020-05-02T10:58:16Z</time>
      </trkpt>
      <trkpt lat="46.06645" lon="6.21261">
        <ele>914.808</ele>
        <time>2020-05-02T10:58:17Z</time>
      </trkpt>
      <trkpt lat="46.06651" lon="6.21266">
        <ele>914.578</ele>
        <time>2020-05-02T10:58:19Z</time>
      </trkpt>
      <trkpt lat="46.06656" lon="6.21272">
        <ele>914.262</ele>
        <time>2020-05-02T10:58:22Z</time>
      </trkpt>
      <trkpt lat="46.0666" lon="6.21275">
        <ele>914.181</ele>
        <time>2020-05-02T10:58:24Z</time>
      </trkpt>
      <trkpt lat="46.06665" lon="6.21279">
        <ele>914.143</ele>
        <time>2020-05-02T10:58:26Z</time>
      </trkpt>
      <trkpt lat="46.0667" lon="6.21282">
        <ele>914.158</ele>
        <time>2020-05-02T10:58:28Z</time>
      </trkpt>
      <trkpt lat="46.06676" lon="6.21288">
        <ele>914.162</ele>
        <time>2020-05-02T10:58:30Z</time>
      </trkpt>
      <trkpt lat="46.06683" lon="6.21292">
        <ele>914.036</ele>
        <time>2020-05-02T10:58:32Z</time>
      </trkpt>
      <trkpt lat="46.06688" lon="6.21294">
        <ele>914.037</ele>
        <time>2020-05-02T10:58:33Z</time>
      </trkpt>
      <trkpt lat="46.06696" lon="6.21296">
        <ele>913.812</ele>
        <time>2020-05-02T10:58:35Z</time>
      </trkpt>
      <trkpt lat="46.067" lon="6.21303">
        <ele>913.632</ele>
        <time>2020-05-02T10:58:37Z</time>
      </trkpt>
      <trkpt lat="46.067" lon="6.21313">
        <ele>913.505</ele>
        <time>2020-05-02T10:58:39Z</time>
      </trkpt>
      <trkpt lat="46.06701" lon="6.21321">
        <ele>913.408</ele>
        <time>2020-05-02T10:58:41Z</time>
      </trkpt>
      <trkpt lat="46.06702" lon="6.21329">
        <ele>913.565</ele>
        <time>2020-05-02T10:58:43Z</time>
      </trkpt>
      <trkpt lat="46.06706" lon="6.21338">
        <ele>913.739</ele>
        <time>2020-05-02T10:58:45Z</time>
      </trkpt>
      <trkpt lat="46.06711" lon="6.21344">
        <ele>913.778</ele>
        <time>2020-05-02T10:58:46Z</time>
      </trkpt>
      <trkpt lat="46.06716" lon="6.21351">
        <ele>913.75</ele>
        <time>2020-05-02T10:58:47Z</time>
      </trkpt>
      <trkpt lat="46.06719" lon="6.21357">
        <ele>913.725</ele>
        <time>2020-05-02T10:58:48Z</time>
      </trkpt>
      <trkpt lat="46.06722" lon="6.21364">
        <ele>913.619</ele>
        <time>2020-05-02T10:58:49Z</time>
      </trkpt>
      <trkpt lat="46.06728" lon="6.21374">
        <ele>913.223</ele>
        <time>2020-05-02T10:58:51Z</time>
      </trkpt>
      <trkpt lat="46.06735" lon="6.2138">
        <ele>913.094</ele>
        <time>2020-05-02T10:58:52Z</time>
      </trkpt>
      <trkpt lat="46.06744" lon="6.21391">
        <ele>912.796</ele>
        <time>2020-05-02T10:58:54Z</time>
      </trkpt>
      <trkpt lat="46.06748" lon="6.21396">
        <ele>912.531</ele>
        <time>2020-05-02T10:58:55Z</time>
      </trkpt>
      <trkpt lat="46.06755" lon="6.21403">
        <ele>912.424</ele>
        <time>2020-05-02T10:58:56Z</time>
      </trkpt>
      <trkpt lat="46.06761" lon="6.21408">
        <ele>912.208</ele>
        <time>2020-05-02T10:58:57Z</time>
      </trkpt>
      <trkpt lat="46.06765" lon="6.21416">
        <ele>912.043</ele>
        <time>2020-05-02T10:58:58Z</time>
      </trkpt>
      <trkpt lat="46.0677" lon="6.21422">
        <ele>911.797</ele>
        <time>2020-05-02T10:58:59Z</time>
      </trkpt>
      <trkpt lat="46.06774" lon="6.21428">
        <ele>910.956</ele>
        <time>2020-05-02T10:59:01Z</time>
      </trkpt>
      <trkpt lat="46.06778" lon="6.21433">
        <ele>909.648</ele>
        <time>2020-05-02T10:59:04Z</time>
      </trkpt>
      <trkpt lat="46.06785" lon="6.21439">
        <ele>908.863</ele>
        <time>2020-05-02T10:59:07Z</time>
      </trkpt>
      <trkpt lat="46.06792" lon="6.21448">
        <ele>908.267</ele>
        <time>2020-05-02T10:59:09Z</time>
      </trkpt>
      <trkpt lat="46.06796" lon="6.21453">
        <ele>907.861</ele>
        <time>2020-05-02T10:59:10Z</time>
      </trkpt>
      <trkpt lat="46.068" lon="6.21459">
        <ele>907.352</ele>
        <time>2020-05-02T10:59:11Z</time>
      </trkpt>
      <trkpt lat="46.06804" lon="6.2147">
        <ele>906.835</ele>
        <time>2020-05-02T10:59:12Z</time>
      </trkpt>
      <trkpt lat="46.06807" lon="6.21483">
        <ele>906.386</ele>
        <time>2020-05-02T10:59:13Z</time>
      </trkpt>
      <trkpt lat="46.06809" lon="6.21491">
        <ele>905.714</ele>
        <time>2020-05-02T10:59:14Z</time>
      </trkpt>
      <trkpt lat="46.0681" lon="6.21505">
        <ele>904.508</ele>
        <time>2020-05-02T10:59:16Z</time>
      </trkpt>
      <trkpt lat="46.06808" lon="6.21512">
        <ele>903.967</ele>
        <time>2020-05-02T10:59:17Z</time>
      </trkpt>
      <trkpt lat="46.06806" lon="6.21519">
        <ele>903.261</ele>
        <time>2020-05-02T10:59:18Z</time>
      </trkpt>
      <trkpt lat="46.06804" lon="6.21526">
        <ele>902.47</ele>
        <time>2020-05-02T10:59:19Z</time>
      </trkpt>
      <trkpt lat="46.06804" lon="6.21534">
        <ele>901.792</ele>
        <time>2020-05-02T10:59:20Z</time>
      </trkpt>
      <trkpt lat="46.068" lon="6.21546">
        <ele>900.217</ele>
        <time>2020-05-02T10:59:22Z</time>
      </trkpt>
      <trkpt lat="46.06797" lon="6.21552">
        <ele>899.511</ele>
        <time>2020-05-02T10:59:23Z</time>
      </trkpt>
      <trkpt lat="46.06794" lon="6.21558">
        <ele>899.085</ele>
        <time>2020-05-02T10:59:24Z</time>
      </trkpt>
      <trkpt lat="46.06793" lon="6.21569">
        <ele>898.246</ele>
        <time>2020-05-02T10:59:26Z</time>
      </trkpt>
      <trkpt lat="46.06793" lon="6.21578">
        <ele>897.819</ele>
        <time>2020-05-02T10:59:28Z</time>
      </trkpt>
      <trkpt lat="46.06795" lon="6.21592">
        <ele>897.509</ele>
        <time>2020-05-02T10:59:30Z</time>
      </trkpt>
      <trkpt lat="46.06792" lon="6.21613">
        <ele>897.319</ele>
        <time>2020-05-02T11:00:32Z</time>
      </trkpt>
      <trkpt lat="46.06792" lon="6.21621">
        <ele>897.308</ele>
        <time>2020-05-02T11:00:34Z</time>
      </trkpt>
      <trkpt lat="46.06793" lon="6.2163">
        <ele>897.345</ele>
        <time>2020-05-02T11:00:36Z</time>
      </trkpt>
      <trkpt lat="46.06794" lon="6.2164">
        <ele>897.249</ele>
        <time>2020-05-02T11:00:38Z</time>
      </trkpt>
      <trkpt lat="46.06797" lon="6.21648">
        <ele>897.078</ele>
        <time>2020-05-02T11:00:40Z</time>
      </trkpt>
      <trkpt lat="46.068" lon="6.21654">
        <ele>896.67</ele>
        <time>2020-05-02T11:00:42Z</time>
      </trkpt>
      <trkpt lat="46.06804" lon="6.21661">
        <ele>896.075</ele>
        <time>2020-05-02T11:00:44Z</time>
      </trkpt>
      <trkpt lat="46.06809" lon="6.21669">
        <ele>895.459</ele>
        <time>2020-05-02T11:00:46Z</time>
      </trkpt>
      <trkpt lat="46.06813" lon="6.21677">
        <ele>894.843</ele>
        <time>2020-05-02T11:00:48Z</time>
      </trkpt>
      <trkpt lat="46.06817" lon="6.21684">
        <ele>894.444</ele>
        <time>2020-05-02T11:00:50Z</time>
      </trkpt>
      <trkpt lat="46.06819" lon="6.21695">
        <ele>893.925</ele>
        <time>2020-05-02T11:00:52Z</time>
      </trkpt>
      <trkpt lat="46.06821" lon="6.21703">
        <ele>893.426</ele>
        <time>2020-05-02T11:00:54Z</time>
      </trkpt>
      <trkpt lat="46.06823" lon="6.2171">
        <ele>892.908</ele>
        <time>2020-05-02T11:00:56Z</time>
      </trkpt>
      <trkpt lat="46.06827" lon="6.21715">
        <ele>892.208</ele>
        <time>2020-05-02T11:00:58Z</time>
      </trkpt>
      <trkpt lat="46.06832" lon="6.21721">
        <ele>891.346</ele>
        <time>2020-05-02T11:01:00Z</time>
      </trkpt>
      <trkpt lat="46.06851" lon="6.21735">
        <ele>888.75</ele>
        <time>2020-05-02T11:01:06Z</time>
      </trkpt>
      <trkpt lat="46.06857" lon="6.21738">
        <ele>888.159</ele>
        <time>2020-05-02T11:01:07Z</time>
      </trkpt>
      <trkpt lat="46.06864" lon="6.21742">
        <ele>886.941</ele>
        <time>2020-05-02T11:01:09Z</time>
      </trkpt>
      <trkpt lat="46.06868" lon="6.21746">
        <ele>886.356</ele>
        <time>2020-05-02T11:01:10Z</time>
      </trkpt>
      <trkpt lat="46.06873" lon="6.21751">
        <ele>885.79</ele>
        <time>2020-05-02T11:01:12Z</time>
      </trkpt>
      <trkpt lat="46.06882" lon="6.21755">
        <ele>884.564</ele>
        <time>2020-05-02T11:01:14Z</time>
      </trkpt>
      <trkpt lat="46.06889" lon="6.2176">
        <ele>883.495</ele>
        <time>2020-05-02T11:01:16Z</time>
      </trkpt>
      <trkpt lat="46.06895" lon="6.21766">
        <ele>882.556</ele>
        <time>2020-05-02T11:01:18Z</time>
      </trkpt>
      <trkpt lat="46.069" lon="6.21772">
        <ele>881.659</ele>
        <time>2020-05-02T11:01:20Z</time>
      </trkpt>
      <trkpt lat="46.06905" lon="6.21775">
        <ele>880.214</ele>
        <time>2020-05-02T11:01:24Z</time>
      </trkpt>
      <trkpt lat="46.0691" lon="6.21779">
        <ele>879.308</ele>
        <time>2020-05-02T11:01:27Z</time>
      </trkpt>
      <trkpt lat="46.06915" lon="6.21782">
        <ele>878.289</ele>
        <time>2020-05-02T11:01:30Z</time>
      </trkpt>
      <trkpt lat="46.06919" lon="6.21785">
        <ele>877.943</ele>
        <time>2020-05-02T11:01:31Z</time>
      </trkpt>
      <trkpt lat="46.06923" lon="6.21789">
        <ele>877.672</ele>
        <time>2020-05-02T11:01:32Z</time>
      </trkpt>
      <trkpt lat="46.06928" lon="6.21795">
        <ele>876.744</ele>
        <time>2020-05-02T11:01:35Z</time>
      </trkpt>
      <trkpt lat="46.06934" lon="6.21795">
        <ele>876.129</ele>
        <time>2020-05-02T11:01:37Z</time>
      </trkpt>
      <trkpt lat="46.0694" lon="6.21793">
        <ele>875.613</ele>
        <time>2020-05-02T11:01:39Z</time>
      </trkpt>
      <trkpt lat="46.06947" lon="6.21795">
        <ele>874.977</ele>
        <time>2020-05-02T11:01:41Z</time>
      </trkpt>
      <trkpt lat="46.06952" lon="6.21799">
        <ele>873.758</ele>
        <time>2020-05-02T11:01:44Z</time>
      </trkpt>
      <trkpt lat="46.06957" lon="6.21803">
        <ele>872.953</ele>
        <time>2020-05-02T11:01:46Z</time>
      </trkpt>
      <trkpt lat="46.06964" lon="6.21809">
        <ele>872.004</ele>
        <time>2020-05-02T11:01:48Z</time>
      </trkpt>
      <trkpt lat="46.06972" lon="6.21814">
        <ele>871.014</ele>
        <time>2020-05-02T11:01:51Z</time>
      </trkpt>
      <trkpt lat="46.0698" lon="6.21813">
        <ele>870.208</ele>
        <time>2020-05-02T11:01:53Z</time>
      </trkpt>
      <trkpt lat="46.06984" lon="6.2181">
        <ele>869.369</ele>
        <time>2020-05-02T11:01:55Z</time>
      </trkpt>
      <trkpt lat="46.06991" lon="6.21808">
        <ele>868.533</ele>
        <time>2020-05-02T11:01:57Z</time>
      </trkpt>
      <trkpt lat="46.06998" lon="6.21808">
        <ele>867.732</ele>
        <time>2020-05-02T11:01:59Z</time>
      </trkpt>
      <trkpt lat="46.07006" lon="6.21813">
        <ele>866.984</ele>
        <time>2020-05-02T11:02:01Z</time>
      </trkpt>
      <trkpt lat="46.07017" lon="6.21813">
        <ele>865.899</ele>
        <time>2020-05-02T11:02:27Z</time>
      </trkpt>
      <trkpt lat="46.07022" lon="6.21815">
        <ele>865.563</ele>
        <time>2020-05-02T11:02:46Z</time>
      </trkpt>
      <trkpt lat="46.07027" lon="6.21808">
        <ele>865.557</ele>
        <time>2020-05-02T11:02:47Z</time>
      </trkpt>
      <trkpt lat="46.07033" lon="6.21801">
        <ele>865.558</ele>
        <time>2020-05-02T11:02:48Z</time>
      </trkpt>
      <trkpt lat="46.07042" lon="6.21792">
        <ele>865.534</ele>
        <time>2020-05-02T11:02:49Z</time>
      </trkpt>
      <trkpt lat="46.07051" lon="6.21787">
        <ele>865.555</ele>
        <time>2020-05-02T11:02:50Z</time>
      </trkpt>
      <trkpt lat="46.0706" lon="6.21782">
        <ele>865.41</ele>
        <time>2020-05-02T11:02:51Z</time>
      </trkpt>
      <trkpt lat="46.07066" lon="6.21776">
        <ele>865.408</ele>
        <time>2020-05-02T11:02:52Z</time>
      </trkpt>
      <trkpt lat="46.07073" lon="6.2177">
        <ele>865.517</ele>
        <time>2020-05-02T11:02:53Z</time>
      </trkpt>
      <trkpt lat="46.07078" lon="6.21765">
        <ele>865.641</ele>
        <time>2020-05-02T11:02:54Z</time>
      </trkpt>
      <trkpt lat="46.07084" lon="6.21759">
        <ele>865.71</ele>
        <time>2020-05-02T11:02:55Z</time>
      </trkpt>
      <trkpt lat="46.07088" lon="6.21751">
        <ele>866.122</ele>
        <time>2020-05-02T11:02:56Z</time>
      </trkpt>
      <trkpt lat="46.07094" lon="6.21745">
        <ele>866.457</ele>
        <time>2020-05-02T11:02:57Z</time>
      </trkpt>
      <trkpt lat="46.07101" lon="6.21742">
        <ele>866.791</ele>
        <time>2020-05-02T11:02:58Z</time>
      </trkpt>
      <trkpt lat="46.07108" lon="6.21745">
        <ele>867.175</ele>
        <time>2020-05-02T11:02:59Z</time>
      </trkpt>
      <trkpt lat="46.07114" lon="6.21753">
        <ele>867.526</ele>
        <time>2020-05-02T11:03:00Z</time>
      </trkpt>
      <trkpt lat="46.07118" lon="6.21761">
        <ele>867.933</ele>
        <time>2020-05-02T11:03:01Z</time>
      </trkpt>
      <trkpt lat="46.07123" lon="6.21767">
        <ele>868.523</ele>
        <time>2020-05-02T11:03:02Z</time>
      </trkpt>
      <trkpt lat="46.07128" lon="6.21772">
        <ele>869.115</ele>
        <time>2020-05-02T11:03:03Z</time>
      </trkpt>
      <trkpt lat="46.07132" lon="6.21776">
        <ele>869.708</ele>
        <time>2020-05-02T11:03:04Z</time>
      </trkpt>
      <trkpt lat="46.07136" lon="6.21781">
        <ele>870.387</ele>
        <time>2020-05-02T11:03:05Z</time>
      </trkpt>
      <trkpt lat="46.0714" lon="6.21785">
        <ele>870.741</ele>
        <time>2020-05-02T11:03:06Z</time>
      </trkpt>
      <trkpt lat="46.07145" lon="6.2179">
        <ele>871.06</ele>
        <time>2020-05-02T11:03:07Z</time>
      </trkpt>
      <trkpt lat="46.0715" lon="6.21796">
        <ele>871.262</ele>
        <time>2020-05-02T11:03:08Z</time>
      </trkpt>
      <trkpt lat="46.07153" lon="6.218">
        <ele>871.467</ele>
        <time>2020-05-02T11:03:09Z</time>
      </trkpt>
      <trkpt lat="46.0716" lon="6.21803">
        <ele>871.551</ele>
        <time>2020-05-02T11:03:10Z</time>
      </trkpt>
      <trkpt lat="46.07168" lon="6.21808">
        <ele>871.735</ele>
        <time>2020-05-02T11:03:11Z</time>
      </trkpt>
      <trkpt lat="46.07176" lon="6.21812">
        <ele>871.876</ele>
        <time>2020-05-02T11:03:12Z</time>
      </trkpt>
      <trkpt lat="46.07184" lon="6.21816">
        <ele>872.025</ele>
        <time>2020-05-02T11:03:13Z</time>
      </trkpt>
      <trkpt lat="46.07191" lon="6.2182">
        <ele>872.126</ele>
        <time>2020-05-02T11:03:14Z</time>
      </trkpt>
      <trkpt lat="46.07198" lon="6.21823">
        <ele>872.308</ele>
        <time>2020-05-02T11:03:15Z</time>
      </trkpt>
      <trkpt lat="46.07203" lon="6.21827">
        <ele>872.408</ele>
        <time>2020-05-02T11:03:16Z</time>
      </trkpt>
      <trkpt lat="46.07212" lon="6.2183">
        <ele>872.726</ele>
        <time>2020-05-02T11:03:18Z</time>
      </trkpt>
      <trkpt lat="46.07217" lon="6.21832">
        <ele>872.97</ele>
        <time>2020-05-02T11:03:19Z</time>
      </trkpt>
      <trkpt lat="46.07225" lon="6.21836">
        <ele>873.419</ele>
        <time>2020-05-02T11:03:21Z</time>
      </trkpt>
      <trkpt lat="46.07231" lon="6.21838">
        <ele>873.721</ele>
        <time>2020-05-02T11:03:23Z</time>
      </trkpt>
      <trkpt lat="46.07237" lon="6.21841">
        <ele>873.796</ele>
        <time>2020-05-02T11:03:25Z</time>
      </trkpt>
      <trkpt lat="46.07242" lon="6.21845">
        <ele>873.77</ele>
        <time>2020-05-02T11:03:27Z</time>
      </trkpt>
      <trkpt lat="46.07247" lon="6.21847">
        <ele>873.754</ele>
        <time>2020-05-02T11:03:28Z</time>
      </trkpt>
      <trkpt lat="46.07254" lon="6.21848">
        <ele>873.735</ele>
        <time>2020-05-02T11:03:29Z</time>
      </trkpt>
      <trkpt lat="46.07262" lon="6.21849">
        <ele>873.751</ele>
        <time>2020-05-02T11:03:30Z</time>
      </trkpt>
      <trkpt lat="46.07271" lon="6.21851">
        <ele>873.701</ele>
        <time>2020-05-02T11:03:31Z</time>
      </trkpt>
      <trkpt lat="46.07278" lon="6.21851">
        <ele>873.711</ele>
        <time>2020-05-02T11:03:32Z</time>
      </trkpt>
      <trkpt lat="46.07283" lon="6.21853">
        <ele>873.508</ele>
        <time>2020-05-02T11:03:33Z</time>
      </trkpt>
      <trkpt lat="46.07288" lon="6.21857">
        <ele>873.349</ele>
        <time>2020-05-02T11:03:34Z</time>
      </trkpt>
      <trkpt lat="46.07294" lon="6.21861">
        <ele>873.163</ele>
        <time>2020-05-02T11:03:35Z</time>
      </trkpt>
      <trkpt lat="46.07302" lon="6.21866">
        <ele>872.852</ele>
        <time>2020-05-02T11:03:36Z</time>
      </trkpt>
      <trkpt lat="46.07307" lon="6.21871">
        <ele>872.454</ele>
        <time>2020-05-02T11:03:37Z</time>
      </trkpt>
      <trkpt lat="46.07312" lon="6.21876">
        <ele>872.149</ele>
        <time>2020-05-02T11:03:38Z</time>
      </trkpt>
      <trkpt lat="46.07317" lon="6.21879">
        <ele>871.823</ele>
        <time>2020-05-02T11:03:39Z</time>
      </trkpt>
      <trkpt lat="46.07322" lon="6.21882">
        <ele>871.567</ele>
        <time>2020-05-02T11:03:40Z</time>
      </trkpt>
      <trkpt lat="46.07327" lon="6.21884">
        <ele>871.218</ele>
        <time>2020-05-02T11:03:41Z</time>
      </trkpt>
      <trkpt lat="46.07332" lon="6.21886">
        <ele>870.984</ele>
        <time>2020-05-02T11:03:42Z</time>
      </trkpt>
      <trkpt lat="46.07337" lon="6.21889">
        <ele>870.607</ele>
        <time>2020-05-02T11:03:43Z</time>
      </trkpt>
      <trkpt lat="46.07342" lon="6.21891">
        <ele>870.217</ele>
        <time>2020-05-02T11:03:44Z</time>
      </trkpt>
      <trkpt lat="46.07347" lon="6.219">
        <ele>869.508</ele>
        <time>2020-05-02T11:03:46Z</time>
      </trkpt>
      <trkpt lat="46.07351" lon="6.21904">
        <ele>869.182</ele>
        <time>2020-05-02T11:03:47Z</time>
      </trkpt>
      <trkpt lat="46.07359" lon="6.21909">
        <ele>868.726</ele>
        <time>2020-05-02T11:03:48Z</time>
      </trkpt>
      <trkpt lat="46.07364" lon="6.21911">
        <ele>868.485</ele>
        <time>2020-05-02T11:03:49Z</time>
      </trkpt>
      <trkpt lat="46.0737" lon="6.21912">
        <ele>868.097</ele>
        <time>2020-05-02T11:03:50Z</time>
      </trkpt>
      <trkpt lat="46.07376" lon="6.21912">
        <ele>867.642</ele>
        <time>2020-05-02T11:03:51Z</time>
      </trkpt>
      <trkpt lat="46.0738" lon="6.21915">
        <ele>867.236</ele>
        <time>2020-05-02T11:03:52Z</time>
      </trkpt>
      <trkpt lat="46.07385" lon="6.21917">
        <ele>866.76</ele>
        <time>2020-05-02T11:03:53Z</time>
      </trkpt>
      <trkpt lat="46.07391" lon="6.21918">
        <ele>866.251</ele>
        <time>2020-05-02T11:03:54Z</time>
      </trkpt>
      <trkpt lat="46.07395" lon="6.21919">
        <ele>865.714</ele>
        <time>2020-05-02T11:03:55Z</time>
      </trkpt>
      <trkpt lat="46.074" lon="6.21919">
        <ele>864.754</ele>
        <time>2020-05-02T11:03:57Z</time>
      </trkpt>
      <trkpt lat="46.07406" lon="6.2192">
        <ele>863.809</ele>
        <time>2020-05-02T11:03:59Z</time>
      </trkpt>
      <trkpt lat="46.07411" lon="6.21923">
        <ele>863.308</ele>
        <time>2020-05-02T11:04:00Z</time>
      </trkpt>
      <trkpt lat="46.07416" lon="6.21927">
        <ele>862.845</ele>
        <time>2020-05-02T11:04:01Z</time>
      </trkpt>
      <trkpt lat="46.07421" lon="6.21928">
        <ele>862.349</ele>
        <time>2020-05-02T11:04:02Z</time>
      </trkpt>
      <trkpt lat="46.07428" lon="6.21929">
        <ele>861.338</ele>
        <time>2020-05-02T11:04:04Z</time>
      </trkpt>
      <trkpt lat="46.07436" lon="6.21932">
        <ele>860.52</ele>
        <time>2020-05-02T11:04:06Z</time>
      </trkpt>
      <trkpt lat="46.07439" lon="6.21938">
        <ele>860.185</ele>
        <time>2020-05-02T11:04:07Z</time>
      </trkpt>
      <trkpt lat="46.07442" lon="6.21949">
        <ele>859.319</ele>
        <time>2020-05-02T11:04:09Z</time>
      </trkpt>
      <trkpt lat="46.07441" lon="6.21959">
        <ele>859.023</ele>
        <time>2020-05-02T11:04:10Z</time>
      </trkpt>
      <trkpt lat="46.07441" lon="6.21967">
        <ele>858.674</ele>
        <time>2020-05-02T11:04:11Z</time>
      </trkpt>
      <trkpt lat="46.0744" lon="6.21974">
        <ele>858.227</ele>
        <time>2020-05-02T11:04:12Z</time>
      </trkpt>
      <trkpt lat="46.0744" lon="6.21983">
        <ele>857.968</ele>
        <time>2020-05-02T11:04:13Z</time>
      </trkpt>
      <trkpt lat="46.07438" lon="6.21992">
        <ele>857.514</ele>
        <time>2020-05-02T11:04:14Z</time>
      </trkpt>
      <trkpt lat="46.07436" lon="6.22">
        <ele>857.108</ele>
        <time>2020-05-02T11:04:15Z</time>
      </trkpt>
      <trkpt lat="46.0744" lon="6.22009">
        <ele>856.776</ele>
        <time>2020-05-02T11:04:16Z</time>
      </trkpt>
      <trkpt lat="46.07442" lon="6.22017">
        <ele>856.35</ele>
        <time>2020-05-02T11:04:17Z</time>
      </trkpt>
      <trkpt lat="46.07445" lon="6.22023">
        <ele>855.859</ele>
        <time>2020-05-02T11:04:18Z</time>
      </trkpt>
      <trkpt lat="46.07447" lon="6.22036">
        <ele>854.811</ele>
        <time>2020-05-02T11:04:20Z</time>
      </trkpt>
      <trkpt lat="46.07453" lon="6.22045">
        <ele>854.026</ele>
        <time>2020-05-02T11:04:22Z</time>
      </trkpt>
      <trkpt lat="46.0746" lon="6.22052">
        <ele>853.51</ele>
        <time>2020-05-02T11:04:24Z</time>
      </trkpt>
      <trkpt lat="46.07466" lon="6.22058">
        <ele>853.454</ele>
        <time>2020-05-02T11:04:25Z</time>
      </trkpt>
      <trkpt lat="46.07474" lon="6.22061">
        <ele>853.455</ele>
        <time>2020-05-02T11:04:26Z</time>
      </trkpt>
      <trkpt lat="46.07483" lon="6.22069">
        <ele>853.691</ele>
        <time>2020-05-02T11:04:27Z</time>
      </trkpt>
      <trkpt lat="46.07496" lon="6.22077">
        <ele>854.181</ele>
        <time>2020-05-02T11:04:28Z</time>
      </trkpt>
      <trkpt lat="46.0751" lon="6.2209">
        <ele>855.019</ele>
        <time>2020-05-02T11:04:29Z</time>
      </trkpt>
      <trkpt lat="46.07516" lon="6.22095">
        <ele>856.108</ele>
        <time>2020-05-02T11:04:30Z</time>
      </trkpt>
      <trkpt lat="46.07529" lon="6.22109">
        <ele>857.293</ele>
        <time>2020-05-02T11:04:31Z</time>
      </trkpt>
      <trkpt lat="46.07542" lon="6.22119">
        <ele>857.237</ele>
        <time>2020-05-02T11:04:32Z</time>
      </trkpt>
      <trkpt lat="46.07554" lon="6.22127">
        <ele>858.416</ele>
        <time>2020-05-02T11:04:33Z</time>
      </trkpt>
      <trkpt lat="46.07563" lon="6.22134">
        <ele>859.518</ele>
        <time>2020-05-02T11:04:34Z</time>
      </trkpt>
      <trkpt lat="46.0757" lon="6.2214">
        <ele>860.353</ele>
        <time>2020-05-02T11:04:35Z</time>
      </trkpt>
      <trkpt lat="46.07577" lon="6.22146">
        <ele>860.947</ele>
        <time>2020-05-02T11:04:36Z</time>
      </trkpt>
      <trkpt lat="46.07581" lon="6.22149">
        <ele>861.651</ele>
        <time>2020-05-02T11:04:37Z</time>
      </trkpt>
      <trkpt lat="46.07586" lon="6.22153">
        <ele>861.912</ele>
        <time>2020-05-02T11:04:38Z</time>
      </trkpt>
      <trkpt lat="46.07593" lon="6.22158">
        <ele>862.226</ele>
        <time>2020-05-02T11:04:40Z</time>
      </trkpt>
      <trkpt lat="46.07599" lon="6.22159">
        <ele>861.747</ele>
        <time>2020-05-02T11:05:58Z</time>
      </trkpt>
      <trkpt lat="46.07604" lon="6.22165">
        <ele>861.711</ele>
        <time>2020-05-02T11:05:59Z</time>
      </trkpt>
      <trkpt lat="46.07613" lon="6.22173">
        <ele>861.708</ele>
        <time>2020-05-02T11:06:00Z</time>
      </trkpt>
      <trkpt lat="46.07622" lon="6.2218">
        <ele>861.776</ele>
        <time>2020-05-02T11:06:01Z</time>
      </trkpt>
      <trkpt lat="46.0763" lon="6.22187">
        <ele>861.75</ele>
        <time>2020-05-02T11:06:02Z</time>
      </trkpt>
      <trkpt lat="46.07636" lon="6.22193">
        <ele>861.759</ele>
        <time>2020-05-02T11:06:03Z</time>
      </trkpt>
      <trkpt lat="46.07646" lon="6.22198">
        <ele>861.771</ele>
        <time>2020-05-02T11:06:04Z</time>
      </trkpt>
      <trkpt lat="46.07653" lon="6.22204">
        <ele>861.696</ele>
        <time>2020-05-02T11:06:05Z</time>
      </trkpt>
      <trkpt lat="46.0766" lon="6.22209">
        <ele>861.37</ele>
        <time>2020-05-02T11:06:06Z</time>
      </trkpt>
      <trkpt lat="46.07669" lon="6.22213">
        <ele>860.994</ele>
        <time>2020-05-02T11:06:07Z</time>
      </trkpt>
      <trkpt lat="46.07676" lon="6.22217">
        <ele>860.525</ele>
        <time>2020-05-02T11:06:08Z</time>
      </trkpt>
      <trkpt lat="46.07684" lon="6.22223">
        <ele>860.111</ele>
        <time>2020-05-02T11:06:09Z</time>
      </trkpt>
      <trkpt lat="46.0769" lon="6.22227">
        <ele>859.721</ele>
        <time>2020-05-02T11:06:10Z</time>
      </trkpt>
      <trkpt lat="46.07696" lon="6.22232">
        <ele>859.403</ele>
        <time>2020-05-02T11:06:11Z</time>
      </trkpt>
      <trkpt lat="46.07702" lon="6.22236">
        <ele>859.108</ele>
        <time>2020-05-02T11:06:12Z</time>
      </trkpt>
      <trkpt lat="46.0771" lon="6.22239">
        <ele>858.825</ele>
        <time>2020-05-02T11:06:13Z</time>
      </trkpt>
      <trkpt lat="46.07718" lon="6.22245">
        <ele>858.569</ele>
        <time>2020-05-02T11:06:14Z</time>
      </trkpt>
      <trkpt lat="46.07726" lon="6.2225">
        <ele>858.318</ele>
        <time>2020-05-02T11:06:15Z</time>
      </trkpt>
      <trkpt lat="46.07735" lon="6.22256">
        <ele>858.07</ele>
        <time>2020-05-02T11:06:16Z</time>
      </trkpt>
      <trkpt lat="46.07745" lon="6.2226">
        <ele>857.815</ele>
        <time>2020-05-02T11:06:17Z</time>
      </trkpt>
      <trkpt lat="46.07754" lon="6.22266">
        <ele>857.649</ele>
        <time>2020-05-02T11:06:18Z</time>
      </trkpt>
      <trkpt lat="46.07762" lon="6.22274">
        <ele>857.483</ele>
        <time>2020-05-02T11:06:19Z</time>
      </trkpt>
      <trkpt lat="46.0777" lon="6.2228">
        <ele>857.294</ele>
        <time>2020-05-02T11:06:20Z</time>
      </trkpt>
      <trkpt lat="46.07778" lon="6.22283">
        <ele>857.019</ele>
        <time>2020-05-02T11:06:21Z</time>
      </trkpt>
      <trkpt lat="46.07785" lon="6.22286">
        <ele>856.909</ele>
        <time>2020-05-02T11:06:22Z</time>
      </trkpt>
      <trkpt lat="46.07792" lon="6.2229">
        <ele>856.919</ele>
        <time>2020-05-02T11:06:23Z</time>
      </trkpt>
      <trkpt lat="46.078" lon="6.22295">
        <ele>856.908</ele>
        <time>2020-05-02T11:06:24Z</time>
      </trkpt>
      <trkpt lat="46.07807" lon="6.223">
        <ele>856.975</ele>
        <time>2020-05-02T11:06:25Z</time>
      </trkpt>
      <trkpt lat="46.07814" lon="6.22305">
        <ele>856.969</ele>
        <time>2020-05-02T11:06:26Z</time>
      </trkpt>
      <trkpt lat="46.0782" lon="6.22308">
        <ele>856.928</ele>
        <time>2020-05-02T11:06:27Z</time>
      </trkpt>
      <trkpt lat="46.07826" lon="6.22306">
        <ele>856.93</ele>
        <time>2020-05-02T11:06:28Z</time>
      </trkpt>
      <trkpt lat="46.07832" lon="6.22302">
        <ele>856.935</ele>
        <time>2020-05-02T11:06:29Z</time>
      </trkpt>
      <trkpt lat="46.07838" lon="6.22295">
        <ele>857.019</ele>
        <time>2020-05-02T11:06:30Z</time>
      </trkpt>
      <trkpt lat="46.07843" lon="6.22285">
        <ele>857.183</ele>
        <time>2020-05-02T11:06:31Z</time>
      </trkpt>
      <trkpt lat="46.0785" lon="6.22275">
        <ele>857.334</ele>
        <time>2020-05-02T11:06:32Z</time>
      </trkpt>
      <trkpt lat="46.07859" lon="6.22264">
        <ele>857.533</ele>
        <time>2020-05-02T11:06:33Z</time>
      </trkpt>
      <trkpt lat="46.07867" lon="6.22258">
        <ele>857.723</ele>
        <time>2020-05-02T11:06:34Z</time>
      </trkpt>
      <trkpt lat="46.07875" lon="6.22253">
        <ele>857.815</ele>
        <time>2020-05-02T11:06:35Z</time>
      </trkpt>
      <trkpt lat="46.07883" lon="6.22249">
        <ele>857.808</ele>
        <time>2020-05-02T11:06:36Z</time>
      </trkpt>
      <trkpt lat="46.07892" lon="6.22247">
        <ele>857.747</ele>
        <time>2020-05-02T11:06:37Z</time>
      </trkpt>
      <trkpt lat="46.07901" lon="6.22247">
        <ele>857.431</ele>
        <time>2020-05-02T11:06:38Z</time>
      </trkpt>
      <trkpt lat="46.0791" lon="6.22248">
        <ele>857.06</ele>
        <time>2020-05-02T11:06:39Z</time>
      </trkpt>
      <trkpt lat="46.07919" lon="6.22248">
        <ele>856.542</ele>
        <time>2020-05-02T11:06:40Z</time>
      </trkpt>
      <trkpt lat="46.07928" lon="6.22247">
        <ele>855.957</ele>
        <time>2020-05-02T11:06:41Z</time>
      </trkpt>
      <trkpt lat="46.07938" lon="6.22247">
        <ele>855.311</ele>
        <time>2020-05-02T11:06:42Z</time>
      </trkpt>
      <trkpt lat="46.07946" lon="6.22248">
        <ele>854.625</ele>
        <time>2020-05-02T11:06:43Z</time>
      </trkpt>
      <trkpt lat="46.07954" lon="6.2225">
        <ele>853.916</ele>
        <time>2020-05-02T11:06:44Z</time>
      </trkpt>
      <trkpt lat="46.07962" lon="6.22252">
        <ele>853.036</ele>
        <time>2020-05-02T11:06:45Z</time>
      </trkpt>
      <trkpt lat="46.0797" lon="6.22252">
        <ele>852.417</ele>
        <time>2020-05-02T11:06:46Z</time>
      </trkpt>
      <trkpt lat="46.07977" lon="6.22251">
        <ele>851.718</ele>
        <time>2020-05-02T11:06:47Z</time>
      </trkpt>
      <trkpt lat="46.07986" lon="6.22252">
        <ele>851.108</ele>
        <time>2020-05-02T11:06:48Z</time>
      </trkpt>
      <trkpt lat="46.07995" lon="6.22254">
        <ele>850.567</ele>
        <time>2020-05-02T11:06:49Z</time>
      </trkpt>
      <trkpt lat="46.08003" lon="6.22258">
        <ele>850.061</ele>
        <time>2020-05-02T11:06:50Z</time>
      </trkpt>
      <trkpt lat="46.08012" lon="6.22264">
        <ele>849.43</ele>
        <time>2020-05-02T11:06:51Z</time>
      </trkpt>
      <trkpt lat="46.0802" lon="6.22271">
        <ele>848.722</ele>
        <time>2020-05-02T11:06:52Z</time>
      </trkpt>
      <trkpt lat="46.08029" lon="6.22276">
        <ele>847.977</ele>
        <time>2020-05-02T11:06:53Z</time>
      </trkpt>
      <trkpt lat="46.08036" lon="6.2228">
        <ele>847.081</ele>
        <time>2020-05-02T11:06:54Z</time>
      </trkpt>
      <trkpt lat="46.08044" lon="6.22286">
        <ele>845.975</ele>
        <time>2020-05-02T11:06:55Z</time>
      </trkpt>
      <trkpt lat="46.08051" lon="6.22291">
        <ele>844.736</ele>
        <time>2020-05-02T11:06:56Z</time>
      </trkpt>
      <trkpt lat="46.08058" lon="6.22295">
        <ele>843.446</ele>
        <time>2020-05-02T11:06:57Z</time>
      </trkpt>
      <trkpt lat="46.08066" lon="6.22302">
        <ele>842.188</ele>
        <time>2020-05-02T11:06:58Z</time>
      </trkpt>
      <trkpt lat="46.08074" lon="6.22307">
        <ele>840.816</ele>
        <time>2020-05-02T11:06:59Z</time>
      </trkpt>
      <trkpt lat="46.08081" lon="6.22314">
        <ele>839.508</ele>
        <time>2020-05-02T11:07:00Z</time>
      </trkpt>
      <trkpt lat="46.0809" lon="6.22319">
        <ele>838.278</ele>
        <time>2020-05-02T11:07:01Z</time>
      </trkpt>
      <trkpt lat="46.08097" lon="6.22325">
        <ele>836.982</ele>
        <time>2020-05-02T11:07:02Z</time>
      </trkpt>
      <trkpt lat="46.08104" lon="6.22332">
        <ele>835.791</ele>
        <time>2020-05-02T11:07:03Z</time>
      </trkpt>
      <trkpt lat="46.08111" lon="6.22338">
        <ele>834.573</ele>
        <time>2020-05-02T11:07:04Z</time>
      </trkpt>
      <trkpt lat="46.08119" lon="6.22343">
        <ele>833.178</ele>
        <time>2020-05-02T11:07:05Z</time>
      </trkpt>
      <trkpt lat="46.08127" lon="6.2235">
        <ele>831.982</ele>
        <time>2020-05-02T11:07:06Z</time>
      </trkpt>
      <trkpt lat="46.08137" lon="6.22355">
        <ele>830.536</ele>
        <time>2020-05-02T11:07:07Z</time>
      </trkpt>
      <trkpt lat="46.08145" lon="6.2236">
        <ele>829.127</ele>
        <time>2020-05-02T11:07:08Z</time>
      </trkpt>
      <trkpt lat="46.08152" lon="6.22366">
        <ele>827.664</ele>
        <time>2020-05-02T11:07:09Z</time>
      </trkpt>
      <trkpt lat="46.0816" lon="6.22373">
        <ele>826.206</ele>
        <time>2020-05-02T11:07:10Z</time>
      </trkpt>
      <trkpt lat="46.08168" lon="6.22381">
        <ele>824.816</ele>
        <time>2020-05-02T11:07:11Z</time>
      </trkpt>
      <trkpt lat="46.08177" lon="6.22389">
        <ele>823.508</ele>
        <time>2020-05-02T11:07:12Z</time>
      </trkpt>
      <trkpt lat="46.08183" lon="6.22396">
        <ele>822.24</ele>
        <time>2020-05-02T11:07:13Z</time>
      </trkpt>
      <trkpt lat="46.08189" lon="6.22405">
        <ele>820.984</ele>
        <time>2020-05-02T11:07:14Z</time>
      </trkpt>
      <trkpt lat="46.08199" lon="6.22414">
        <ele>819.793</ele>
        <time>2020-05-02T11:07:15Z</time>
      </trkpt>
      <trkpt lat="46.08206" lon="6.22423">
        <ele>818.585</ele>
        <time>2020-05-02T11:07:16Z</time>
      </trkpt>
      <trkpt lat="46.08211" lon="6.22433">
        <ele>817.33</ele>
        <time>2020-05-02T11:07:17Z</time>
      </trkpt>
      <trkpt lat="46.08219" lon="6.22443">
        <ele>816.244</ele>
        <time>2020-05-02T11:07:18Z</time>
      </trkpt>
      <trkpt lat="46.08226" lon="6.22451">
        <ele>815.258</ele>
        <time>2020-05-02T11:07:19Z</time>
      </trkpt>
      <trkpt lat="46.08233" lon="6.22457">
        <ele>814.379</ele>
        <time>2020-05-02T11:07:20Z</time>
      </trkpt>
      <trkpt lat="46.0824" lon="6.22462">
        <ele>813.482</ele>
        <time>2020-05-02T11:07:21Z</time>
      </trkpt>
      <trkpt lat="46.08248" lon="6.22467">
        <ele>812.543</ele>
        <time>2020-05-02T11:07:22Z</time>
      </trkpt>
      <trkpt lat="46.08255" lon="6.2247">
        <ele>811.717</ele>
        <time>2020-05-02T11:07:23Z</time>
      </trkpt>
      <trkpt lat="46.08265" lon="6.22473">
        <ele>811.008</ele>
        <time>2020-05-02T11:07:24Z</time>
      </trkpt>
      <trkpt lat="46.08274" lon="6.22476">
        <ele>810.392</ele>
        <time>2020-05-02T11:07:25Z</time>
      </trkpt>
      <trkpt lat="46.08283" lon="6.22479">
        <ele>809.626</ele>
        <time>2020-05-02T11:07:26Z</time>
      </trkpt>
      <trkpt lat="46.08293" lon="6.22483">
        <ele>808.875</ele>
        <time>2020-05-02T11:07:27Z</time>
      </trkpt>
      <trkpt lat="46.08302" lon="6.22486">
        <ele>808.077</ele>
        <time>2020-05-02T11:07:28Z</time>
      </trkpt>
      <trkpt lat="46.08312" lon="6.22492">
        <ele>807.132</ele>
        <time>2020-05-02T11:07:29Z</time>
      </trkpt>
      <trkpt lat="46.08321" lon="6.22498">
        <ele>806.256</ele>
        <time>2020-05-02T11:07:30Z</time>
      </trkpt>
      <trkpt lat="46.08329" lon="6.22506">
        <ele>805.31</ele>
        <time>2020-05-02T11:07:31Z</time>
      </trkpt>
      <trkpt lat="46.08337" lon="6.22513">
        <ele>804.551</ele>
        <time>2020-05-02T11:07:32Z</time>
      </trkpt>
      <trkpt lat="46.08344" lon="6.22519">
        <ele>803.775</ele>
        <time>2020-05-02T11:07:33Z</time>
      </trkpt>
      <trkpt lat="46.08351" lon="6.22525">
        <ele>802.928</ele>
        <time>2020-05-02T11:07:34Z</time>
      </trkpt>
      <trkpt lat="46.08358" lon="6.2253">
        <ele>802.32</ele>
        <time>2020-05-02T11:07:35Z</time>
      </trkpt>
      <trkpt lat="46.08364" lon="6.22536">
        <ele>801.708</ele>
        <time>2020-05-02T11:07:36Z</time>
      </trkpt>
      <trkpt lat="46.0837" lon="6.22539">
        <ele>801.211</ele>
        <time>2020-05-02T11:07:37Z</time>
      </trkpt>
      <trkpt lat="46.08378" lon="6.22538">
        <ele>800.855</ele>
        <time>2020-05-02T11:07:38Z</time>
      </trkpt>
      <trkpt lat="46.08384" lon="6.22534">
        <ele>800.574</ele>
        <time>2020-05-02T11:07:39Z</time>
      </trkpt>
      <trkpt lat="46.0839" lon="6.22528">
        <ele>800.286</ele>
        <time>2020-05-02T11:07:40Z</time>
      </trkpt>
      <trkpt lat="46.08397" lon="6.22517">
        <ele>799.941</ele>
        <time>2020-05-02T11:07:41Z</time>
      </trkpt>
      <trkpt lat="46.08404" lon="6.22509">
        <ele>799.745</ele>
        <time>2020-05-02T11:07:42Z</time>
      </trkpt>
      <trkpt lat="46.08412" lon="6.225">
        <ele>799.579</ele>
        <time>2020-05-02T11:07:43Z</time>
      </trkpt>
      <trkpt lat="46.0842" lon="6.2249">
        <ele>799.15</ele>
        <time>2020-05-02T11:07:44Z</time>
      </trkpt>
      <trkpt lat="46.08428" lon="6.2248">
        <ele>798.935</ele>
        <time>2020-05-02T11:07:45Z</time>
      </trkpt>
      <trkpt lat="46.08436" lon="6.2247">
        <ele>798.886</ele>
        <time>2020-05-02T11:07:46Z</time>
      </trkpt>
      <trkpt lat="46.08444" lon="6.2246">
        <ele>798.514</ele>
        <time>2020-05-02T11:07:47Z</time>
      </trkpt>
      <trkpt lat="46.08451" lon="6.22451">
        <ele>798.208</ele>
        <time>2020-05-02T11:07:48Z</time>
      </trkpt>
      <trkpt lat="46.08459" lon="6.22441">
        <ele>797.987</ele>
        <time>2020-05-02T11:07:49Z</time>
      </trkpt>
      <trkpt lat="46.08466" lon="6.2243">
        <ele>797.511</ele>
        <time>2020-05-02T11:07:50Z</time>
      </trkpt>
      <trkpt lat="46.08473" lon="6.22418">
        <ele>797.25</ele>
        <time>2020-05-02T11:07:51Z</time>
      </trkpt>
      <trkpt lat="46.08478" lon="6.22404">
        <ele>797.282</ele>
        <time>2020-05-02T11:07:52Z</time>
      </trkpt>
      <trkpt lat="46.08483" lon="6.2239">
        <ele>797.057</ele>
        <time>2020-05-02T11:07:53Z</time>
      </trkpt>
      <trkpt lat="46.08487" lon="6.22375">
        <ele>796.831</ele>
        <time>2020-05-02T11:07:54Z</time>
      </trkpt>
      <trkpt lat="46.08491" lon="6.2236">
        <ele>796.635</ele>
        <time>2020-05-02T11:07:55Z</time>
      </trkpt>
      <trkpt lat="46.08495" lon="6.22344">
        <ele>796.456</ele>
        <time>2020-05-02T11:07:56Z</time>
      </trkpt>
      <trkpt lat="46.08498" lon="6.22329">
        <ele>796.124</ele>
        <time>2020-05-02T11:07:57Z</time>
      </trkpt>
      <trkpt lat="46.085" lon="6.22314">
        <ele>795.804</ele>
        <time>2020-05-02T11:07:58Z</time>
      </trkpt>
      <trkpt lat="46.08502" lon="6.22299">
        <ele>795.614</ele>
        <time>2020-05-02T11:07:59Z</time>
      </trkpt>
      <trkpt lat="46.08505" lon="6.22283">
        <ele>795.308</ele>
        <time>2020-05-02T11:08:00Z</time>
      </trkpt>
      <trkpt lat="46.08507" lon="6.22268">
        <ele>795.026</ele>
        <time>2020-05-02T11:08:01Z</time>
      </trkpt>
      <trkpt lat="46.0851" lon="6.22253">
        <ele>794.73</ele>
        <time>2020-05-02T11:08:02Z</time>
      </trkpt>
      <trkpt lat="46.08511" lon="6.22238">
        <ele>794.289</ele>
        <time>2020-05-02T11:08:03Z</time>
      </trkpt>
      <trkpt lat="46.08512" lon="6.22223">
        <ele>793.881</ele>
        <time>2020-05-02T11:08:04Z</time>
      </trkpt>
      <trkpt lat="46.08511" lon="6.22208">
        <ele>793.576</ele>
        <time>2020-05-02T11:08:05Z</time>
      </trkpt>
      <trkpt lat="46.08509" lon="6.22193">
        <ele>793.23</ele>
        <time>2020-05-02T11:08:06Z</time>
      </trkpt>
      <trkpt lat="46.08505" lon="6.22179">
        <ele>792.924</ele>
        <time>2020-05-02T11:08:07Z</time>
      </trkpt>
      <trkpt lat="46.08504" lon="6.22165">
        <ele>792.975</ele>
        <time>2020-05-02T11:08:08Z</time>
      </trkpt>
      <trkpt lat="46.08504" lon="6.22151">
        <ele>792.827</ele>
        <time>2020-05-02T11:08:09Z</time>
      </trkpt>
      <trkpt lat="46.08506" lon="6.22136">
        <ele>792.768</ele>
        <time>2020-05-02T11:08:10Z</time>
      </trkpt>
      <trkpt lat="46.08509" lon="6.2212">
        <ele>792.614</ele>
        <time>2020-05-02T11:08:11Z</time>
      </trkpt>
      <trkpt lat="46.08513" lon="6.22106">
        <ele>792.508</ele>
        <time>2020-05-02T11:08:12Z</time>
      </trkpt>
      <trkpt lat="46.08518" lon="6.22093">
        <ele>792.396</ele>
        <time>2020-05-02T11:08:13Z</time>
      </trkpt>
      <trkpt lat="46.08523" lon="6.2208">
        <ele>792.37</ele>
        <time>2020-05-02T11:08:14Z</time>
      </trkpt>
      <trkpt lat="46.08527" lon="6.2207">
        <ele>792.389</ele>
        <time>2020-05-02T11:08:15Z</time>
      </trkpt>
      <trkpt lat="46.08532" lon="6.22063">
        <ele>792.451</ele>
        <time>2020-05-02T11:08:16Z</time>
      </trkpt>
      <trkpt lat="46.08535" lon="6.22054">
        <ele>792.426</ele>
        <time>2020-05-02T11:08:17Z</time>
      </trkpt>
      <trkpt lat="46.08538" lon="6.22045">
        <ele>792.55</ele>
        <time>2020-05-02T11:08:18Z</time>
      </trkpt>
      <trkpt lat="46.08541" lon="6.22035">
        <ele>792.554</ele>
        <time>2020-05-02T11:08:19Z</time>
      </trkpt>
      <trkpt lat="46.08544" lon="6.22025">
        <ele>792.375</ele>
        <time>2020-05-02T11:08:20Z</time>
      </trkpt>
      <trkpt lat="46.08547" lon="6.22016">
        <ele>792.235</ele>
        <time>2020-05-02T11:08:21Z</time>
      </trkpt>
      <trkpt lat="46.08549" lon="6.22007">
        <ele>792.286</ele>
        <time>2020-05-02T11:08:22Z</time>
      </trkpt>
      <trkpt lat="46.08551" lon="6.22001">
        <ele>792.214</ele>
        <time>2020-05-02T11:08:23Z</time>
      </trkpt>
      <trkpt lat="46.08553" lon="6.21995">
        <ele>792.208</ele>
        <time>2020-05-02T11:08:24Z</time>
      </trkpt>
      <trkpt lat="46.08563" lon="6.21996">
        <ele>792.287</ele>
        <time>2020-05-02T11:08:26Z</time>
      </trkpt>
      <trkpt lat="46.08566" lon="6.22002">
        <ele>792.171</ele>
        <time>2020-05-02T11:08:27Z</time>
      </trkpt>
      <trkpt lat="46.08571" lon="6.22007">
        <ele>792.04</ele>
        <time>2020-05-02T11:08:28Z</time>
      </trkpt>
      <trkpt lat="46.08576" lon="6.22014">
        <ele>791.712</ele>
        <time>2020-05-02T11:08:29Z</time>
      </trkpt>
      <trkpt lat="46.08581" lon="6.22023">
        <ele>791.477</ele>
        <time>2020-05-02T11:08:30Z</time>
      </trkpt>
      <trkpt lat="46.08586" lon="6.22032">
        <ele>790.951</ele>
        <time>2020-05-02T11:08:31Z</time>
      </trkpt>
      <trkpt lat="46.08592" lon="6.22042">
        <ele>790.495</ele>
        <time>2020-05-02T11:08:32Z</time>
      </trkpt>
      <trkpt lat="46.08598" lon="6.22053">
        <ele>789.916</ele>
        <time>2020-05-02T11:08:33Z</time>
      </trkpt>
      <trkpt lat="46.08603" lon="6.22063">
        <ele>789.475</ele>
        <time>2020-05-02T11:08:34Z</time>
      </trkpt>
      <trkpt lat="46.08608" lon="6.22074">
        <ele>788.928</ele>
        <time>2020-05-02T11:08:35Z</time>
      </trkpt>
      <trkpt lat="46.08612" lon="6.22085">
        <ele>788.52</ele>
        <time>2020-05-02T11:08:36Z</time>
      </trkpt>
      <trkpt lat="46.08616" lon="6.22097">
        <ele>788.108</ele>
        <time>2020-05-02T11:08:37Z</time>
      </trkpt>
      <trkpt lat="46.08622" lon="6.2211">
        <ele>787.691</ele>
        <time>2020-05-02T11:08:38Z</time>
      </trkpt>
      <trkpt lat="46.08627" lon="6.22122">
        <ele>787.165</ele>
        <time>2020-05-02T11:08:39Z</time>
      </trkpt>
      <trkpt lat="46.08633" lon="6.22133">
        <ele>786.684</ele>
        <time>2020-05-02T11:08:40Z</time>
      </trkpt>
      <trkpt lat="46.0864" lon="6.22143">
        <ele>786.146</ele>
        <time>2020-05-02T11:08:41Z</time>
      </trkpt>
      <trkpt lat="46.08646" lon="6.22154">
        <ele>785.731</ele>
        <time>2020-05-02T11:08:42Z</time>
      </trkpt>
      <trkpt lat="46.08653" lon="6.22163">
        <ele>785.435</ele>
        <time>2020-05-02T11:08:43Z</time>
      </trkpt>
      <trkpt lat="46.08661" lon="6.22171">
        <ele>785.199</ele>
        <time>2020-05-02T11:08:44Z</time>
      </trkpt>
      <trkpt lat="46.08668" lon="6.2218">
        <ele>784.96</ele>
        <time>2020-05-02T11:08:45Z</time>
      </trkpt>
      <trkpt lat="46.08675" lon="6.22189">
        <ele>784.866</ele>
        <time>2020-05-02T11:08:46Z</time>
      </trkpt>
      <trkpt lat="46.08681" lon="6.22197">
        <ele>784.529</ele>
        <time>2020-05-02T11:08:47Z</time>
      </trkpt>
      <trkpt lat="46.08688" lon="6.22205">
        <ele>784.021</ele>
        <time>2020-05-02T11:08:48Z</time>
      </trkpt>
      <trkpt lat="46.08695" lon="6.22213">
        <ele>783.508</ele>
        <time>2020-05-02T11:08:49Z</time>
      </trkpt>
      <trkpt lat="46.08702" lon="6.2222">
        <ele>783.05</ele>
        <time>2020-05-02T11:08:50Z</time>
      </trkpt>
      <trkpt lat="46.08708" lon="6.22226">
        <ele>782.464</ele>
        <time>2020-05-02T11:08:51Z</time>
      </trkpt>
      <trkpt lat="46.08713" lon="6.22233">
        <ele>781.773</ele>
        <time>2020-05-02T11:08:52Z</time>
      </trkpt>
      <trkpt lat="46.08719" lon="6.2224">
        <ele>781.115</ele>
        <time>2020-05-02T11:08:53Z</time>
      </trkpt>
      <trkpt lat="46.08726" lon="6.22247">
        <ele>780.58</ele>
        <time>2020-05-02T11:08:54Z</time>
      </trkpt>
      <trkpt lat="46.08732" lon="6.22255">
        <ele>779.934</ele>
        <time>2020-05-02T11:08:55Z</time>
      </trkpt>
      <trkpt lat="46.08738" lon="6.22264">
        <ele>779.398</ele>
        <time>2020-05-02T11:08:56Z</time>
      </trkpt>
      <trkpt lat="46.08744" lon="6.22272">
        <ele>778.819</ele>
        <time>2020-05-02T11:08:57Z</time>
      </trkpt>
      <trkpt lat="46.0875" lon="6.22279">
        <ele>778.388</ele>
        <time>2020-05-02T11:08:58Z</time>
      </trkpt>
      <trkpt lat="46.08756" lon="6.22286">
        <ele>777.924</ele>
        <time>2020-05-02T11:08:59Z</time>
      </trkpt>
      <trkpt lat="46.08762" lon="6.22296">
        <ele>777.426</ele>
        <time>2020-05-02T11:09:00Z</time>
      </trkpt>
      <trkpt lat="46.08766" lon="6.22306">
        <ele>777.008</ele>
        <time>2020-05-02T11:09:01Z</time>
      </trkpt>
      <trkpt lat="46.08771" lon="6.22315">
        <ele>776.512</ele>
        <time>2020-05-02T11:09:02Z</time>
      </trkpt>
      <trkpt lat="46.08774" lon="6.22324">
        <ele>776.016</ele>
        <time>2020-05-02T11:09:03Z</time>
      </trkpt>
      <trkpt lat="46.08778" lon="6.22332">
        <ele>775.585</ele>
        <time>2020-05-02T11:09:04Z</time>
      </trkpt>
      <trkpt lat="46.08781" lon="6.22339">
        <ele>775.067</ele>
        <time>2020-05-02T11:09:05Z</time>
      </trkpt>
      <trkpt lat="46.08785" lon="6.22346">
        <ele>774.562</ele>
        <time>2020-05-02T11:09:06Z</time>
      </trkpt>
      <trkpt lat="46.08793" lon="6.22353">
        <ele>774.156</ele>
        <time>2020-05-02T11:09:07Z</time>
      </trkpt>
      <trkpt lat="46.08799" lon="6.22359">
        <ele>773.81</ele>
        <time>2020-05-02T11:09:08Z</time>
      </trkpt>
      <trkpt lat="46.08804" lon="6.22365">
        <ele>773.431</ele>
        <time>2020-05-02T11:09:09Z</time>
      </trkpt>
      <trkpt lat="46.08808" lon="6.22372">
        <ele>773.121</ele>
        <time>2020-05-02T11:09:10Z</time>
      </trkpt>
      <trkpt lat="46.08814" lon="6.22378">
        <ele>772.941</ele>
        <time>2020-05-02T11:09:11Z</time>
      </trkpt>
      <trkpt lat="46.08821" lon="6.22383">
        <ele>772.705</ele>
        <time>2020-05-02T11:09:12Z</time>
      </trkpt>
      <trkpt lat="46.08827" lon="6.22391">
        <ele>772.508</ele>
        <time>2020-05-02T11:09:13Z</time>
      </trkpt>
      <trkpt lat="46.08832" lon="6.22398">
        <ele>772.436</ele>
        <time>2020-05-02T11:09:14Z</time>
      </trkpt>
      <trkpt lat="46.0884" lon="6.22405">
        <ele>772.38</ele>
        <time>2020-05-02T11:09:15Z</time>
      </trkpt>
      <trkpt lat="46.08846" lon="6.22412">
        <ele>772.299</ele>
        <time>2020-05-02T11:09:16Z</time>
      </trkpt>
      <trkpt lat="46.08851" lon="6.22419">
        <ele>772.141</ele>
        <time>2020-05-02T11:09:17Z</time>
      </trkpt>
      <trkpt lat="46.08856" lon="6.22425">
        <ele>771.946</ele>
        <time>2020-05-02T11:09:18Z</time>
      </trkpt>
      <trkpt lat="46.08861" lon="6.22429">
        <ele>771.76</ele>
        <time>2020-05-02T11:09:19Z</time>
      </trkpt>
      <trkpt lat="46.08866" lon="6.22432">
        <ele>771.534</ele>
        <time>2020-05-02T11:09:20Z</time>
      </trkpt>
      <trkpt lat="46.08871" lon="6.22436">
        <ele>771.375</ele>
        <time>2020-05-02T11:09:21Z</time>
      </trkpt>
      <trkpt lat="46.08877" lon="6.2244">
        <ele>771.188</ele>
        <time>2020-05-02T11:09:22Z</time>
      </trkpt>
      <trkpt lat="46.08882" lon="6.22446">
        <ele>770.924</ele>
        <time>2020-05-02T11:09:23Z</time>
      </trkpt>
      <trkpt lat="46.08888" lon="6.22452">
        <ele>770.726</ele>
        <time>2020-05-02T11:09:24Z</time>
      </trkpt>
      <trkpt lat="46.08893" lon="6.22457">
        <ele>770.508</ele>
        <time>2020-05-02T11:09:25Z</time>
      </trkpt>
      <trkpt lat="46.08898" lon="6.22463">
        <ele>770.362</ele>
        <time>2020-05-02T11:09:26Z</time>
      </trkpt>
      <trkpt lat="46.08903" lon="6.22468">
        <ele>770.056</ele>
        <time>2020-05-02T11:09:27Z</time>
      </trkpt>
      <trkpt lat="46.08909" lon="6.22472">
        <ele>769.725</ele>
        <time>2020-05-02T11:09:28Z</time>
      </trkpt>
      <trkpt lat="46.08914" lon="6.22477">
        <ele>769.387</ele>
        <time>2020-05-02T11:09:29Z</time>
      </trkpt>
      <trkpt lat="46.0892" lon="6.22481">
        <ele>768.922</ele>
        <time>2020-05-02T11:09:30Z</time>
      </trkpt>
      <trkpt lat="46.08927" lon="6.22486">
        <ele>768.596</ele>
        <time>2020-05-02T11:09:31Z</time>
      </trkpt>
      <trkpt lat="46.08934" lon="6.22489">
        <ele>768.18</ele>
        <time>2020-05-02T11:09:32Z</time>
      </trkpt>
      <trkpt lat="46.08941" lon="6.2249">
        <ele>767.721</ele>
        <time>2020-05-02T11:09:33Z</time>
      </trkpt>
      <trkpt lat="46.08949" lon="6.22492">
        <ele>767.327</ele>
        <time>2020-05-02T11:09:34Z</time>
      </trkpt>
      <trkpt lat="46.08954" lon="6.22492">
        <ele>766.968</ele>
        <time>2020-05-02T11:09:35Z</time>
      </trkpt>
      <trkpt lat="46.08961" lon="6.22494">
        <ele>766.214</ele>
        <time>2020-05-02T11:09:37Z</time>
      </trkpt>
      <trkpt lat="46.08969" lon="6.22494">
        <ele>765.708</ele>
        <time>2020-05-02T11:09:39Z</time>
      </trkpt>
      <trkpt lat="46.08974" lon="6.22495">
        <ele>765.476</ele>
        <time>2020-05-02T11:09:40Z</time>
      </trkpt>
      <trkpt lat="46.08979" lon="6.22494">
        <ele>765.07</ele>
        <time>2020-05-02T11:09:41Z</time>
      </trkpt>
      <trkpt lat="46.08985" lon="6.22493">
        <ele>764.539</ele>
        <time>2020-05-02T11:09:42Z</time>
      </trkpt>
      <trkpt lat="46.08991" lon="6.22491">
        <ele>763.931</ele>
        <time>2020-05-02T11:09:43Z</time>
      </trkpt>
      <trkpt lat="46.09001" lon="6.22489">
        <ele>762.956</ele>
        <time>2020-05-02T11:09:45Z</time>
      </trkpt>
      <trkpt lat="46.09006" lon="6.22487">
        <ele>762.54</ele>
        <time>2020-05-02T11:09:46Z</time>
      </trkpt>
      <trkpt lat="46.09012" lon="6.22486">
        <ele>762.184</ele>
        <time>2020-05-02T11:09:47Z</time>
      </trkpt>
      <trkpt lat="46.09018" lon="6.22485">
        <ele>761.755</ele>
        <time>2020-05-02T11:09:48Z</time>
      </trkpt>
      <trkpt lat="46.09026" lon="6.22481">
        <ele>761.118</ele>
        <time>2020-05-02T11:09:49Z</time>
      </trkpt>
      <trkpt lat="46.09031" lon="6.22476">
        <ele>760.598</ele>
        <time>2020-05-02T11:09:50Z</time>
      </trkpt>
      <trkpt lat="46.09035" lon="6.22473">
        <ele>759.817</ele>
        <time>2020-05-02T11:09:51Z</time>
      </trkpt>
      <trkpt lat="46.09044" lon="6.22475">
        <ele>758.608</ele>
        <time>2020-05-02T11:09:53Z</time>
      </trkpt>
      <trkpt lat="46.09049" lon="6.22474">
        <ele>758.115</ele>
        <time>2020-05-02T11:09:54Z</time>
      </trkpt>
      <trkpt lat="46.09061" lon="6.22476">
        <ele>756.949</ele>
        <time>2020-05-02T11:09:56Z</time>
      </trkpt>
      <trkpt lat="46.09071" lon="6.22472">
        <ele>756.198</ele>
        <time>2020-05-02T11:09:57Z</time>
      </trkpt>
      <trkpt lat="46.09079" lon="6.22477">
        <ele>755.27</ele>
        <time>2020-05-02T11:09:58Z</time>
      </trkpt>
      <trkpt lat="46.09078" lon="6.22463">
        <ele>754.375</ele>
        <time>2020-05-02T11:09:59Z</time>
      </trkpt>
      <trkpt lat="46.09085" lon="6.22464">
        <ele>753.499</ele>
        <time>2020-05-02T11:10:00Z</time>
      </trkpt>
      <trkpt lat="46.09091" lon="6.22465">
        <ele>751.763</ele>
        <time>2020-05-02T11:10:02Z</time>
      </trkpt>
      <trkpt lat="46.09096" lon="6.22464">
        <ele>750.084</ele>
        <time>2020-05-02T11:10:07Z</time>
      </trkpt>
      <trkpt lat="46.09103" lon="6.22465">
        <ele>749.852</ele>
        <time>2020-05-02T11:10:09Z</time>
      </trkpt>
      <trkpt lat="46.0911" lon="6.22468">
        <ele>749.653</ele>
        <time>2020-05-02T11:10:11Z</time>
      </trkpt>
      <trkpt lat="46.09117" lon="6.22471">
        <ele>749.508</ele>
        <time>2020-05-02T11:10:12Z</time>
      </trkpt>
      <trkpt lat="46.09124" lon="6.22475">
        <ele>749.308</ele>
        <time>2020-05-02T11:10:13Z</time>
      </trkpt>
      <trkpt lat="46.09129" lon="6.22479">
        <ele>749.019</ele>
        <time>2020-05-02T11:10:14Z</time>
      </trkpt>
      <trkpt lat="46.09135" lon="6.22481">
        <ele>748.623</ele>
        <time>2020-05-02T11:10:15Z</time>
      </trkpt>
      <trkpt lat="46.0914" lon="6.22483">
        <ele>748.052</ele>
        <time>2020-05-02T11:10:16Z</time>
      </trkpt>
      <trkpt lat="46.09146" lon="6.22486">
        <ele>747.334</ele>
        <time>2020-05-02T11:10:17Z</time>
      </trkpt>
      <trkpt lat="46.09153" lon="6.22493">
        <ele>746.539</ele>
        <time>2020-05-02T11:10:18Z</time>
      </trkpt>
      <trkpt lat="46.09156" lon="6.22499">
        <ele>745.773</ele>
        <time>2020-05-02T11:10:19Z</time>
      </trkpt>
      <trkpt lat="46.0916" lon="6.22505">
        <ele>744.877</ele>
        <time>2020-05-02T11:10:20Z</time>
      </trkpt>
      <trkpt lat="46.09163" lon="6.22515">
        <ele>743.998</ele>
        <time>2020-05-02T11:10:21Z</time>
      </trkpt>
      <trkpt lat="46.09167" lon="6.22523">
        <ele>742.218</ele>
        <time>2020-05-02T11:10:23Z</time>
      </trkpt>
      <trkpt lat="46.09175" lon="6.2253">
        <ele>740.798</ele>
        <time>2020-05-02T11:10:25Z</time>
      </trkpt>
      <trkpt lat="46.09178" lon="6.22534">
        <ele>740.017</ele>
        <time>2020-05-02T11:10:26Z</time>
      </trkpt>
      <trkpt lat="46.09184" lon="6.22538">
        <ele>739.408</ele>
        <time>2020-05-02T11:10:27Z</time>
      </trkpt>
      <trkpt lat="46.09188" lon="6.2254">
        <ele>738.735</ele>
        <time>2020-05-02T11:10:28Z</time>
      </trkpt>
      <trkpt lat="46.09193" lon="6.22543">
        <ele>738.039</ele>
        <time>2020-05-02T11:10:29Z</time>
      </trkpt>
      <trkpt lat="46.09201" lon="6.22548">
        <ele>736.738</ele>
        <time>2020-05-02T11:10:31Z</time>
      </trkpt>
      <trkpt lat="46.0921" lon="6.22549">
        <ele>735.32</ele>
        <time>2020-05-02T11:10:33Z</time>
      </trkpt>
      <trkpt lat="46.09215" lon="6.22551">
        <ele>734.565</ele>
        <time>2020-05-02T11:10:34Z</time>
      </trkpt>
      <trkpt lat="46.09219" lon="6.22556">
        <ele>733.789</ele>
        <time>2020-05-02T11:10:35Z</time>
      </trkpt>
      <trkpt lat="46.09223" lon="6.2256">
        <ele>732.933</ele>
        <time>2020-05-02T11:10:36Z</time>
      </trkpt>
      <trkpt lat="46.09228" lon="6.22566">
        <ele>731.514</ele>
        <time>2020-05-02T11:10:38Z</time>
      </trkpt>
      <trkpt lat="46.09235" lon="6.2257">
        <ele>730.323</ele>
        <time>2020-05-02T11:10:40Z</time>
      </trkpt>
      <trkpt lat="46.09239" lon="6.22574">
        <ele>729.683</ele>
        <time>2020-05-02T11:10:41Z</time>
      </trkpt>
      <trkpt lat="46.09246" lon="6.22578">
        <ele>728.911</ele>
        <time>2020-05-02T11:10:42Z</time>
      </trkpt>
      <trkpt lat="46.09254" lon="6.22587">
        <ele>727.508</ele>
        <time>2020-05-02T11:10:44Z</time>
      </trkpt>
      <trkpt lat="46.09258" lon="6.22596">
        <ele>726.266</ele>
        <time>2020-05-02T11:10:46Z</time>
      </trkpt>
      <trkpt lat="46.09261" lon="6.22603">
        <ele>725.02</ele>
        <time>2020-05-02T11:10:48Z</time>
      </trkpt>
      <trkpt lat="46.09265" lon="6.22614">
        <ele>723.989</ele>
        <time>2020-05-02T11:10:50Z</time>
      </trkpt>
      <trkpt lat="46.09271" lon="6.22621">
        <ele>722.641</ele>
        <time>2020-05-02T11:10:52Z</time>
      </trkpt>
      <trkpt lat="46.09276" lon="6.22631">
        <ele>720.956</ele>
        <time>2020-05-02T11:10:54Z</time>
      </trkpt>
      <trkpt lat="46.09275" lon="6.22638">
        <ele>720.09</ele>
        <time>2020-05-02T11:10:55Z</time>
      </trkpt>
      <trkpt lat="46.09273" lon="6.22645">
        <ele>719.214</ele>
        <time>2020-05-02T11:10:56Z</time>
      </trkpt>
      <trkpt lat="46.09267" lon="6.22656">
        <ele>718.095</ele>
        <time>2020-05-02T11:10:58Z</time>
      </trkpt>
      <trkpt lat="46.09262" lon="6.2266">
        <ele>717.886</ele>
        <time>2020-05-02T11:11:00Z</time>
      </trkpt>
      <trkpt lat="46.09254" lon="6.2267">
        <ele>718.96</ele>
        <time>2020-05-02T11:11:33Z</time>
      </trkpt>
      <trkpt lat="46.0925" lon="6.22675">
        <ele>718.926</ele>
        <time>2020-05-02T11:11:35Z</time>
      </trkpt>
      <trkpt lat="46.09244" lon="6.22679">
        <ele>719.008</ele>
        <time>2020-05-02T11:11:37Z</time>
      </trkpt>
      <trkpt lat="46.09238" lon="6.2268">
        <ele>719.172</ele>
        <time>2020-05-02T11:11:38Z</time>
      </trkpt>
      <trkpt lat="46.09233" lon="6.22681">
        <ele>720.046</ele>
        <time>2020-05-02T11:11:40Z</time>
      </trkpt>
      <trkpt lat="46.09229" lon="6.22691">
        <ele>721.515</ele>
        <time>2020-05-02T11:11:42Z</time>
      </trkpt>
      <trkpt lat="46.0923" lon="6.22706">
        <ele>723.417</ele>
        <time>2020-05-02T11:11:44Z</time>
      </trkpt>
      <trkpt lat="46.09232" lon="6.22716">
        <ele>724.242</ele>
        <time>2020-05-02T11:11:45Z</time>
      </trkpt>
      <trkpt lat="46.09233" lon="6.22731">
        <ele>724.956</ele>
        <time>2020-05-02T11:11:46Z</time>
      </trkpt>
      <trkpt lat="46.09234" lon="6.22748">
        <ele>725.73</ele>
        <time>2020-05-02T11:11:47Z</time>
      </trkpt>
      <trkpt lat="46.09234" lon="6.22763">
        <ele>726.681</ele>
        <time>2020-05-02T11:11:48Z</time>
      </trkpt>
      <trkpt lat="46.09235" lon="6.22779">
        <ele>727.653</ele>
        <time>2020-05-02T11:11:49Z</time>
      </trkpt>
      <trkpt lat="46.09235" lon="6.22795">
        <ele>729.104</ele>
        <time>2020-05-02T11:11:50Z</time>
      </trkpt>
      <trkpt lat="46.09237" lon="6.22807">
        <ele>731.114</ele>
        <time>2020-05-02T11:11:51Z</time>
      </trkpt>
      <trkpt lat="46.09238" lon="6.22816">
        <ele>733.408</ele>
        <time>2020-05-02T11:11:52Z</time>
      </trkpt>
      <trkpt lat="46.09246" lon="6.22825">
        <ele>737.659</ele>
        <time>2020-05-02T11:11:54Z</time>
      </trkpt>
      <trkpt lat="46.09251" lon="6.22834">
        <ele>739.123</ele>
        <time>2020-05-02T11:11:55Z</time>
      </trkpt>
      <trkpt lat="46.09255" lon="6.22845">
        <ele>740.112</ele>
        <time>2020-05-02T11:11:56Z</time>
      </trkpt>
      <trkpt lat="46.09256" lon="6.22854">
        <ele>740.744</ele>
        <time>2020-05-02T11:11:57Z</time>
      </trkpt>
      <trkpt lat="46.09253" lon="6.22865">
        <ele>741.229</ele>
        <time>2020-05-02T11:11:58Z</time>
      </trkpt>
      <trkpt lat="46.09248" lon="6.22876">
        <ele>741.723</ele>
        <time>2020-05-02T11:11:59Z</time>
      </trkpt>
      <trkpt lat="46.09244" lon="6.22882">
        <ele>742.497</ele>
        <time>2020-05-02T11:12:00Z</time>
      </trkpt>
      <trkpt lat="46.09244" lon="6.229">
        <ele>744.268</ele>
        <time>2020-05-02T11:12:02Z</time>
      </trkpt>
      <trkpt lat="46.09247" lon="6.2291">
        <ele>745.282</ele>
        <time>2020-05-02T11:12:03Z</time>
      </trkpt>
      <trkpt lat="46.0925" lon="6.22919">
        <ele>746.343</ele>
        <time>2020-05-02T11:12:04Z</time>
      </trkpt>
      <trkpt lat="46.09257" lon="6.22931">
        <ele>747.417</ele>
        <time>2020-05-02T11:12:05Z</time>
      </trkpt>
      <trkpt lat="46.09264" lon="6.22942">
        <ele>748.308</ele>
        <time>2020-05-02T11:12:06Z</time>
      </trkpt>
      <trkpt lat="46.09269" lon="6.22954">
        <ele>749.142</ele>
        <time>2020-05-02T11:12:07Z</time>
      </trkpt>
      <trkpt lat="46.09271" lon="6.22966">
        <ele>750.036</ele>
        <time>2020-05-02T11:12:08Z</time>
      </trkpt>
      <trkpt lat="46.09274" lon="6.22976">
        <ele>750.745</ele>
        <time>2020-05-02T11:12:09Z</time>
      </trkpt>
      <trkpt lat="46.09276" lon="6.22982">
        <ele>751.197</ele>
        <time>2020-05-02T11:12:10Z</time>
      </trkpt>
      <trkpt lat="46.0928" lon="6.22989">
        <ele>751.712</ele>
        <time>2020-05-02T11:12:12Z</time>
      </trkpt>
      <trkpt lat="46.09284" lon="6.22997">
        <ele>751.856</ele>
        <time>2020-05-02T11:12:14Z</time>
      </trkpt>
      <trkpt lat="46.09285" lon="6.23007">
        <ele>752.43</ele>
        <time>2020-05-02T11:12:16Z</time>
      </trkpt>
      <trkpt lat="46.09284" lon="6.23014">
        <ele>753.391</ele>
        <time>2020-05-02T11:12:18Z</time>
      </trkpt>
      <trkpt lat="46.09282" lon="6.23021">
        <ele>754.084</ele>
        <time>2020-05-02T11:12:20Z</time>
      </trkpt>
      <trkpt lat="46.09277" lon="6.23032">
        <ele>754.407</ele>
        <time>2020-05-02T11:12:22Z</time>
      </trkpt>
      <trkpt lat="46.09277" lon="6.2304">
        <ele>754.617</ele>
        <time>2020-05-02T11:12:23Z</time>
      </trkpt>
      <trkpt lat="46.09278" lon="6.23047">
        <ele>754.908</ele>
        <time>2020-05-02T11:12:24Z</time>
      </trkpt>
      <trkpt lat="46.09279" lon="6.23053">
        <ele>755.232</ele>
        <time>2020-05-02T11:12:25Z</time>
      </trkpt>
      <trkpt lat="46.09276" lon="6.23066">
        <ele>755.916</ele>
        <time>2020-05-02T11:12:27Z</time>
      </trkpt>
      <trkpt lat="46.09271" lon="6.23072">
        <ele>756.395</ele>
        <time>2020-05-02T11:12:28Z</time>
      </trkpt>
      <trkpt lat="46.09264" lon="6.23077">
        <ele>756.797</ele>
        <time>2020-05-02T11:12:29Z</time>
      </trkpt>
      <trkpt lat="46.0926" lon="6.2308">
        <ele>757.342</ele>
        <time>2020-05-02T11:12:30Z</time>
      </trkpt>
      <trkpt lat="46.09255" lon="6.23088">
        <ele>758.096</ele>
        <time>2020-05-02T11:12:31Z</time>
      </trkpt>
      <trkpt lat="46.09252" lon="6.23098">
        <ele>759.01</ele>
        <time>2020-05-02T11:12:32Z</time>
      </trkpt>
      <trkpt lat="46.0925" lon="6.23109">
        <ele>760.161</ele>
        <time>2020-05-02T11:12:33Z</time>
      </trkpt>
      <trkpt lat="46.09245" lon="6.2312">
        <ele>761.355</ele>
        <time>2020-05-02T11:12:34Z</time>
      </trkpt>
      <trkpt lat="46.0924" lon="6.23128">
        <ele>762.507</ele>
        <time>2020-05-02T11:12:35Z</time>
      </trkpt>
      <trkpt lat="46.09236" lon="6.23136">
        <ele>763.617</ele>
        <time>2020-05-02T11:12:36Z</time>
      </trkpt>
      <trkpt lat="46.09233" lon="6.23143">
        <ele>764.608</ele>
        <time>2020-05-02T11:12:37Z</time>
      </trkpt>
      <trkpt lat="46.0923" lon="6.23153">
        <ele>765.679</ele>
        <time>2020-05-02T11:12:38Z</time>
      </trkpt>
      <trkpt lat="46.09227" lon="6.23161">
        <ele>766.893</ele>
        <time>2020-05-02T11:12:39Z</time>
      </trkpt>
      <trkpt lat="46.09221" lon="6.23171">
        <ele>768.972</ele>
        <time>2020-05-02T11:12:41Z</time>
      </trkpt>
      <trkpt lat="46.09218" lon="6.23178">
        <ele>769.944</ele>
        <time>2020-05-02T11:12:42Z</time>
      </trkpt>
      <trkpt lat="46.09217" lon="6.23186">
        <ele>770.999</ele>
        <time>2020-05-02T11:12:43Z</time>
      </trkpt>
      <trkpt lat="46.09216" lon="6.23194">
        <ele>771.913</ele>
        <time>2020-05-02T11:12:44Z</time>
      </trkpt>
      <trkpt lat="46.09214" lon="6.23201">
        <ele>773.087</ele>
        <time>2020-05-02T11:12:45Z</time>
      </trkpt>
      <trkpt lat="46.09218" lon="6.23226">
        <ele>779.928</ele>
        <time>2020-05-02T11:12:56Z</time>
      </trkpt>
      <trkpt lat="46.09223" lon="6.23231">
        <ele>779.949</ele>
        <time>2020-05-02T11:12:57Z</time>
      </trkpt>
      <trkpt lat="46.09231" lon="6.23235">
        <ele>780.002</ele>
        <time>2020-05-02T11:12:58Z</time>
      </trkpt>
      <trkpt lat="46.09241" lon="6.2324">
        <ele>780.122</ele>
        <time>2020-05-02T11:12:59Z</time>
      </trkpt>
      <trkpt lat="46.09251" lon="6.23246">
        <ele>780.108</ele>
        <time>2020-05-02T11:13:00Z</time>
      </trkpt>
      <trkpt lat="46.09261" lon="6.23253">
        <ele>780.238</ele>
        <time>2020-05-02T11:13:01Z</time>
      </trkpt>
      <trkpt lat="46.09271" lon="6.2326">
        <ele>780.212</ele>
        <time>2020-05-02T11:13:02Z</time>
      </trkpt>
      <trkpt lat="46.09283" lon="6.23269">
        <ele>780.221</ele>
        <time>2020-05-02T11:13:03Z</time>
      </trkpt>
      <trkpt lat="46.09296" lon="6.23279">
        <ele>780.263</ele>
        <time>2020-05-02T11:13:04Z</time>
      </trkpt>
      <trkpt lat="46.09306" lon="6.23291">
        <ele>780.198</ele>
        <time>2020-05-02T11:13:05Z</time>
      </trkpt>
      <trkpt lat="46.09316" lon="6.23301">
        <ele>780.192</ele>
        <time>2020-05-02T11:13:06Z</time>
      </trkpt>
      <trkpt lat="46.09325" lon="6.23312">
        <ele>780.056</ele>
        <time>2020-05-02T11:13:07Z</time>
      </trkpt>
      <trkpt lat="46.09334" lon="6.23321">
        <ele>779.857</ele>
        <time>2020-05-02T11:13:08Z</time>
      </trkpt>
      <trkpt lat="46.09343" lon="6.23331">
        <ele>779.877</ele>
        <time>2020-05-02T11:13:09Z</time>
      </trkpt>
      <trkpt lat="46.09353" lon="6.2334">
        <ele>779.661</ele>
        <time>2020-05-02T11:13:10Z</time>
      </trkpt>
      <trkpt lat="46.09362" lon="6.23349">
        <ele>779.627</ele>
        <time>2020-05-02T11:13:11Z</time>
      </trkpt>
      <trkpt lat="46.0937" lon="6.23358">
        <ele>779.408</ele>
        <time>2020-05-02T11:13:12Z</time>
      </trkpt>
      <trkpt lat="46.0938" lon="6.23366">
        <ele>779.211</ele>
        <time>2020-05-02T11:13:13Z</time>
      </trkpt>
      <trkpt lat="46.09389" lon="6.23375">
        <ele>778.955</ele>
        <time>2020-05-02T11:13:14Z</time>
      </trkpt>
      <trkpt lat="46.09399" lon="6.23384">
        <ele>778.764</ele>
        <time>2020-05-02T11:13:15Z</time>
      </trkpt>
      <trkpt lat="46.09409" lon="6.23393">
        <ele>778.396</ele>
        <time>2020-05-02T11:13:16Z</time>
      </trkpt>
      <trkpt lat="46.09419" lon="6.23401">
        <ele>778.271</ele>
        <time>2020-05-02T11:13:17Z</time>
      </trkpt>
      <trkpt lat="46.09429" lon="6.2341">
        <ele>777.955</ele>
        <time>2020-05-02T11:13:18Z</time>
      </trkpt>
      <trkpt lat="46.09439" lon="6.23419">
        <ele>777.879</ele>
        <time>2020-05-02T11:13:19Z</time>
      </trkpt>
      <trkpt lat="46.0945" lon="6.23429">
        <ele>777.74</ele>
        <time>2020-05-02T11:13:20Z</time>
      </trkpt>
      <trkpt lat="46.09461" lon="6.23441">
        <ele>777.514</ele>
        <time>2020-05-02T11:13:21Z</time>
      </trkpt>
      <trkpt lat="46.0947" lon="6.23453">
        <ele>777.554</ele>
        <time>2020-05-02T11:13:22Z</time>
      </trkpt>
      <trkpt lat="46.09479" lon="6.23466">
        <ele>777.409</ele>
        <time>2020-05-02T11:13:23Z</time>
      </trkpt>
      <trkpt lat="46.09489" lon="6.23482">
        <ele>777.408</ele>
        <time>2020-05-02T11:13:24Z</time>
      </trkpt>
      <trkpt lat="46.095" lon="6.23498">
        <ele>777.475</ele>
        <time>2020-05-02T11:13:25Z</time>
      </trkpt>
      <trkpt lat="46.09509" lon="6.23514">
        <ele>777.399</ele>
        <time>2020-05-02T11:13:26Z</time>
      </trkpt>
      <trkpt lat="46.09517" lon="6.2353">
        <ele>777.358</ele>
        <time>2020-05-02T11:13:27Z</time>
      </trkpt>
      <trkpt lat="46.09522" lon="6.23545">
        <ele>777.11</ele>
        <time>2020-05-02T11:13:28Z</time>
      </trkpt>
      <trkpt lat="46.09527" lon="6.23559">
        <ele>776.995</ele>
        <time>2020-05-02T11:13:29Z</time>
      </trkpt>
      <trkpt lat="46.09532" lon="6.23572">
        <ele>776.669</ele>
        <time>2020-05-02T11:13:30Z</time>
      </trkpt>
      <trkpt lat="46.09537" lon="6.23584">
        <ele>776.343</ele>
        <time>2020-05-02T11:13:31Z</time>
      </trkpt>
      <trkpt lat="46.09542" lon="6.23595">
        <ele>775.974</ele>
        <time>2020-05-02T11:13:32Z</time>
      </trkpt>
      <trkpt lat="46.09546" lon="6.23604">
        <ele>775.547</ele>
        <time>2020-05-02T11:13:33Z</time>
      </trkpt>
      <trkpt lat="46.09551" lon="6.23611">
        <ele>775.229</ele>
        <time>2020-05-02T11:13:34Z</time>
      </trkpt>
      <trkpt lat="46.09558" lon="6.23614">
        <ele>774.921</ele>
        <time>2020-05-02T11:13:35Z</time>
      </trkpt>
      <trkpt lat="46.09568" lon="6.2361">
        <ele>774.708</ele>
        <time>2020-05-02T11:13:36Z</time>
      </trkpt>
      <trkpt lat="46.09581" lon="6.23618">
        <ele>774.228</ele>
        <time>2020-05-02T11:13:38Z</time>
      </trkpt>
      <trkpt lat="46.09577" lon="6.23628">
        <ele>773.932</ele>
        <time>2020-05-02T11:13:40Z</time>
      </trkpt>
      <trkpt lat="46.09573" lon="6.23633">
        <ele>773.951</ele>
        <time>2020-05-02T11:13:41Z</time>
      </trkpt>
      <trkpt lat="46.09568" lon="6.23637">
        <ele>774.023</ele>
        <time>2020-05-02T11:13:42Z</time>
      </trkpt>
      <trkpt lat="46.09564" lon="6.2364">
        <ele>774.258</ele>
        <time>2020-05-02T11:13:43Z</time>
      </trkpt>
      <trkpt lat="46.09559" lon="6.23647">
        <ele>774.622</ele>
        <time>2020-05-02T11:13:44Z</time>
      </trkpt>
      <trkpt lat="46.09555" lon="6.23653">
        <ele>775.126</ele>
        <time>2020-05-02T11:13:45Z</time>
      </trkpt>
      <trkpt lat="46.09552" lon="6.23659">
        <ele>775.787</ele>
        <time>2020-05-02T11:13:46Z</time>
      </trkpt>
      <trkpt lat="46.09545" lon="6.23668">
        <ele>776.922</ele>
        <time>2020-05-02T11:13:48Z</time>
      </trkpt>
      <trkpt lat="46.0954" lon="6.23673">
        <ele>777.962</ele>
        <time>2020-05-02T11:13:50Z</time>
      </trkpt>
      <trkpt lat="46.09535" lon="6.23677">
        <ele>779.108</ele>
        <time>2020-05-02T11:13:53Z</time>
      </trkpt>
      <trkpt lat="46.09527" lon="6.23676">
        <ele>779.808</ele>
        <time>2020-05-02T11:13:56Z</time>
      </trkpt>
      <trkpt lat="46.09517" lon="6.23668">
        <ele>780.136</ele>
        <time>2020-05-02T11:13:58Z</time>
      </trkpt>
      <trkpt lat="46.09513" lon="6.23662">
        <ele>780.36</ele>
        <time>2020-05-02T11:13:59Z</time>
      </trkpt>
      <trkpt lat="46.09507" lon="6.2365">
        <ele>780.819</ele>
        <time>2020-05-02T11:14:01Z</time>
      </trkpt>
      <trkpt lat="46.09502" lon="6.23642">
        <ele>781.211</ele>
        <time>2020-05-02T11:14:02Z</time>
      </trkpt>
      <trkpt lat="46.09497" lon="6.23634">
        <ele>781.746</ele>
        <time>2020-05-02T11:14:03Z</time>
      </trkpt>
      <trkpt lat="46.09487" lon="6.23632">
        <ele>782.24</ele>
        <time>2020-05-02T11:14:04Z</time>
      </trkpt>
      <trkpt lat="46.09479" lon="6.23626">
        <ele>782.954</ele>
        <time>2020-05-02T11:14:05Z</time>
      </trkpt>
      <trkpt lat="46.0947" lon="6.2362">
        <ele>783.735</ele>
        <time>2020-05-02T11:14:06Z</time>
      </trkpt>
      <trkpt lat="46.09463" lon="6.23617">
        <ele>784.651</ele>
        <time>2020-05-02T11:14:07Z</time>
      </trkpt>
      <trkpt lat="46.09457" lon="6.23612">
        <ele>785.501</ele>
        <time>2020-05-02T11:14:08Z</time>
      </trkpt>
      <trkpt lat="46.0945" lon="6.23605">
        <ele>786.511</ele>
        <time>2020-05-02T11:14:09Z</time>
      </trkpt>
      <trkpt lat="46.09441" lon="6.23599">
        <ele>787.408</ele>
        <time>2020-05-02T11:14:10Z</time>
      </trkpt>
      <trkpt lat="46.09433" lon="6.23593">
        <ele>788.179</ele>
        <time>2020-05-02T11:14:11Z</time>
      </trkpt>
      <trkpt lat="46.09425" lon="6.23586">
        <ele>788.773</ele>
        <time>2020-05-02T11:14:12Z</time>
      </trkpt>
      <trkpt lat="46.09418" lon="6.23579">
        <ele>789.292</ele>
        <time>2020-05-02T11:14:13Z</time>
      </trkpt>
      <trkpt lat="46.09412" lon="6.23574">
        <ele>789.634</ele>
        <time>2020-05-02T11:14:14Z</time>
      </trkpt>
      <trkpt lat="46.09404" lon="6.23567">
        <ele>789.949</ele>
        <time>2020-05-02T11:14:15Z</time>
      </trkpt>
      <trkpt lat="46.09395" lon="6.23559">
        <ele>790.383</ele>
        <time>2020-05-02T11:14:16Z</time>
      </trkpt>
      <trkpt lat="46.09386" lon="6.2355">
        <ele>790.767</ele>
        <time>2020-05-02T11:14:17Z</time>
      </trkpt>
      <trkpt lat="46.09378" lon="6.23542">
        <ele>791.158</ele>
        <time>2020-05-02T11:14:18Z</time>
      </trkpt>
      <trkpt lat="46.09369" lon="6.2353">
        <ele>791.492</ele>
        <time>2020-05-02T11:14:19Z</time>
      </trkpt>
      <trkpt lat="46.09361" lon="6.23519">
        <ele>791.773</ele>
        <time>2020-05-02T11:14:20Z</time>
      </trkpt>
      <trkpt lat="46.09354" lon="6.23505">
        <ele>792.02</ele>
        <time>2020-05-02T11:14:21Z</time>
      </trkpt>
      <trkpt lat="46.09348" lon="6.23491">
        <ele>792.308</ele>
        <time>2020-05-02T11:14:22Z</time>
      </trkpt>
      <trkpt lat="46.09341" lon="6.23477">
        <ele>792.713</ele>
        <time>2020-05-02T11:14:23Z</time>
      </trkpt>
      <trkpt lat="46.09334" lon="6.23466">
        <ele>793.177</ele>
        <time>2020-05-02T11:14:24Z</time>
      </trkpt>
      <trkpt lat="46.09326" lon="6.23456">
        <ele>793.516</ele>
        <time>2020-05-02T11:14:25Z</time>
      </trkpt>
      <trkpt lat="46.09318" lon="6.23447">
        <ele>794.058</ele>
        <time>2020-05-02T11:14:26Z</time>
      </trkpt>
      <trkpt lat="46.09309" lon="6.23437">
        <ele>794.393</ele>
        <time>2020-05-02T11:14:27Z</time>
      </trkpt>
      <trkpt lat="46.09299" lon="6.23425">
        <ele>794.677</ele>
        <time>2020-05-02T11:14:28Z</time>
      </trkpt>
      <trkpt lat="46.0929" lon="6.23416">
        <ele>795.111</ele>
        <time>2020-05-02T11:14:29Z</time>
      </trkpt>
      <trkpt lat="46.0928" lon="6.23413">
        <ele>795.842</ele>
        <time>2020-05-02T11:14:30Z</time>
      </trkpt>
      <trkpt lat="46.0927" lon="6.23409">
        <ele>796.559</ele>
        <time>2020-05-02T11:14:31Z</time>
      </trkpt>
      <trkpt lat="46.0926" lon="6.23405">
        <ele>797.403</ele>
        <time>2020-05-02T11:14:32Z</time>
      </trkpt>
      <trkpt lat="46.0925" lon="6.23402">
        <ele>798.323</ele>
        <time>2020-05-02T11:14:33Z</time>
      </trkpt>
      <trkpt lat="46.09242" lon="6.23398">
        <ele>799.208</ele>
        <time>2020-05-02T11:14:34Z</time>
      </trkpt>
      <trkpt lat="46.09233" lon="6.23396">
        <ele>799.929</ele>
        <time>2020-05-02T11:14:35Z</time>
      </trkpt>
      <trkpt lat="46.09224" lon="6.23397">
        <ele>799.923</ele>
        <time>2020-05-02T11:14:36Z</time>
      </trkpt>
      <trkpt lat="46.09216" lon="6.23403">
        <ele>800.482</ele>
        <time>2020-05-02T11:14:37Z</time>
      </trkpt>
      <trkpt lat="46.09209" lon="6.23413">
        <ele>800.924</ele>
        <time>2020-05-02T11:14:38Z</time>
      </trkpt>
      <trkpt lat="46.09202" lon="6.23424">
        <ele>801.389</ele>
        <time>2020-05-02T11:14:39Z</time>
      </trkpt>
      <trkpt lat="46.09198" lon="6.23437">
        <ele>801.833</ele>
        <time>2020-05-02T11:14:40Z</time>
      </trkpt>
      <trkpt lat="46.09194" lon="6.23448">
        <ele>802.457</ele>
        <time>2020-05-02T11:14:41Z</time>
      </trkpt>
      <trkpt lat="46.0919" lon="6.23457">
        <ele>803.128</ele>
        <time>2020-05-02T11:14:42Z</time>
      </trkpt>
      <trkpt lat="46.09186" lon="6.23463">
        <ele>803.777</ele>
        <time>2020-05-02T11:14:43Z</time>
      </trkpt>
      <trkpt lat="46.09181" lon="6.23467">
        <ele>804.461</ele>
        <time>2020-05-02T11:14:44Z</time>
      </trkpt>
      <trkpt lat="46.09175" lon="6.23467">
        <ele>805.127</ele>
        <time>2020-05-02T11:14:45Z</time>
      </trkpt>
      <trkpt lat="46.09167" lon="6.23464">
        <ele>805.808</ele>
        <time>2020-05-02T11:14:46Z</time>
      </trkpt>
      <trkpt lat="46.09159" lon="6.23459">
        <ele>806.651</ele>
        <time>2020-05-02T11:14:47Z</time>
      </trkpt>
      <trkpt lat="46.09152" lon="6.23452">
        <ele>807.535</ele>
        <time>2020-05-02T11:14:48Z</time>
      </trkpt>
      <trkpt lat="46.09145" lon="6.23445">
        <ele>808.514</ele>
        <time>2020-05-02T11:14:49Z</time>
      </trkpt>
      <trkpt lat="46.09138" lon="6.2344">
        <ele>809.576</ele>
        <time>2020-05-02T11:14:50Z</time>
      </trkpt>
      <trkpt lat="46.09131" lon="6.23434">
        <ele>810.421</ele>
        <time>2020-05-02T11:14:51Z</time>
      </trkpt>
      <trkpt lat="46.09124" lon="6.2343">
        <ele>811.265</ele>
        <time>2020-05-02T11:14:52Z</time>
      </trkpt>
      <trkpt lat="46.09116" lon="6.23425">
        <ele>811.929</ele>
        <time>2020-05-02T11:14:53Z</time>
      </trkpt>
      <trkpt lat="46.09108" lon="6.2342">
        <ele>812.55</ele>
        <time>2020-05-02T11:14:54Z</time>
      </trkpt>
      <trkpt lat="46.091" lon="6.23414">
        <ele>813.081</ele>
        <time>2020-05-02T11:14:55Z</time>
      </trkpt>
      <trkpt lat="46.09093" lon="6.23409">
        <ele>813.461</ele>
        <time>2020-05-02T11:14:56Z</time>
      </trkpt>
      <trkpt lat="46.09086" lon="6.23403">
        <ele>813.817</ele>
        <time>2020-05-02T11:14:57Z</time>
      </trkpt>
      <trkpt lat="46.09079" lon="6.23396">
        <ele>814.308</ele>
        <time>2020-05-02T11:14:58Z</time>
      </trkpt>
      <trkpt lat="46.09071" lon="6.23387">
        <ele>814.762</ele>
        <time>2020-05-02T11:14:59Z</time>
      </trkpt>
      <trkpt lat="46.09066" lon="6.23378">
        <ele>815.236</ele>
        <time>2020-05-02T11:15:00Z</time>
      </trkpt>
      <trkpt lat="46.09061" lon="6.2337">
        <ele>815.525</ele>
        <time>2020-05-02T11:15:01Z</time>
      </trkpt>
      <trkpt lat="46.09056" lon="6.23362">
        <ele>815.917</ele>
        <time>2020-05-02T11:15:02Z</time>
      </trkpt>
      <trkpt lat="46.09052" lon="6.23354">
        <ele>816.212</ele>
        <time>2020-05-02T11:15:03Z</time>
      </trkpt>
      <trkpt lat="46.09047" lon="6.23343">
        <ele>816.516</ele>
        <time>2020-05-02T11:15:04Z</time>
      </trkpt>
      <trkpt lat="46.0904" lon="6.23332">
        <ele>816.86</ele>
        <time>2020-05-02T11:15:05Z</time>
      </trkpt>
      <trkpt lat="46.09032" lon="6.23319">
        <ele>817.261</ele>
        <time>2020-05-02T11:15:06Z</time>
      </trkpt>
      <trkpt lat="46.09023" lon="6.23305">
        <ele>817.521</ele>
        <time>2020-05-02T11:15:07Z</time>
      </trkpt>
      <trkpt lat="46.09014" lon="6.23294">
        <ele>817.941</ele>
        <time>2020-05-02T11:15:08Z</time>
      </trkpt>
      <trkpt lat="46.09007" lon="6.23285">
        <ele>818.305</ele>
        <time>2020-05-02T11:15:09Z</time>
      </trkpt>
      <trkpt lat="46.09" lon="6.23277">
        <ele>818.708</ele>
        <time>2020-05-02T11:15:10Z</time>
      </trkpt>
      <trkpt lat="46.08994" lon="6.23271">
        <ele>819.176</ele>
        <time>2020-05-02T11:15:11Z</time>
      </trkpt>
      <trkpt lat="46.08988" lon="6.23267">
        <ele>819.58</ele>
        <time>2020-05-02T11:15:12Z</time>
      </trkpt>
      <trkpt lat="46.08982" lon="6.23266">
        <ele>820.279</ele>
        <time>2020-05-02T11:15:14Z</time>
      </trkpt>
      <trkpt lat="46.08975" lon="6.23268">
        <ele>820.691</ele>
        <time>2020-05-02T11:15:16Z</time>
      </trkpt>
      <trkpt lat="46.08968" lon="6.23272">
        <ele>820.856</ele>
        <time>2020-05-02T11:15:18Z</time>
      </trkpt>
      <trkpt lat="46.08962" lon="6.23285">
        <ele>821.62</ele>
        <time>2020-05-02T11:15:20Z</time>
      </trkpt>
      <trkpt lat="46.08958" lon="6.23291">
        <ele>822.234</ele>
        <time>2020-05-02T11:15:21Z</time>
      </trkpt>
      <trkpt lat="46.08954" lon="6.23299">
        <ele>822.975</ele>
        <time>2020-05-02T11:15:22Z</time>
      </trkpt>
      <trkpt lat="46.08949" lon="6.23309">
        <ele>824.677</ele>
        <time>2020-05-02T11:15:24Z</time>
      </trkpt>
      <trkpt lat="46.08945" lon="6.23315">
        <ele>825.361</ele>
        <time>2020-05-02T11:15:25Z</time>
      </trkpt>
      <trkpt lat="46.08943" lon="6.23322">
        <ele>826.027</ele>
        <time>2020-05-02T11:15:26Z</time>
      </trkpt>
      <trkpt lat="46.08939" lon="6.2333">
        <ele>826.608</ele>
        <time>2020-05-02T11:15:27Z</time>
      </trkpt>
      <trkpt lat="46.08933" lon="6.23341">
        <ele>827.341</ele>
        <time>2020-05-02T11:15:28Z</time>
      </trkpt>
      <trkpt lat="46.08926" lon="6.23349">
        <ele>828.235</ele>
        <time>2020-05-02T11:15:29Z</time>
      </trkpt>
      <trkpt lat="46.08919" lon="6.23356">
        <ele>829.144</ele>
        <time>2020-05-02T11:15:30Z</time>
      </trkpt>
      <trkpt lat="46.08911" lon="6.23362">
        <ele>830.126</ele>
        <time>2020-05-02T11:15:31Z</time>
      </trkpt>
      <trkpt lat="46.08902" lon="6.23365">
        <ele>831.291</ele>
        <time>2020-05-02T11:15:32Z</time>
      </trkpt>
      <trkpt lat="46.08896" lon="6.23367">
        <ele>832.215</ele>
        <time>2020-05-02T11:15:33Z</time>
      </trkpt>
      <trkpt lat="46.08889" lon="6.23368">
        <ele>833.169</ele>
        <time>2020-05-02T11:15:34Z</time>
      </trkpt>
      <trkpt lat="46.08884" lon="6.23368">
        <ele>834.18</ele>
        <time>2020-05-02T11:15:35Z</time>
      </trkpt>
      <trkpt lat="46.08879" lon="6.23369">
        <ele>835.017</ele>
        <time>2020-05-02T11:15:36Z</time>
      </trkpt>
      <trkpt lat="46.08872" lon="6.23369">
        <ele>836.687</ele>
        <time>2020-05-02T11:15:38Z</time>
      </trkpt>
      <trkpt lat="46.08864" lon="6.23372">
        <ele>838.815</ele>
        <time>2020-05-02T11:15:41Z</time>
      </trkpt>
      <trkpt lat="46.08859" lon="6.23375">
        <ele>839.608</ele>
        <time>2020-05-02T11:15:42Z</time>
      </trkpt>
      <trkpt lat="46.08854" lon="6.23378">
        <ele>840.325</ele>
        <time>2020-05-02T11:15:43Z</time>
      </trkpt>
      <trkpt lat="46.08849" lon="6.2338">
        <ele>841.119</ele>
        <time>2020-05-02T11:15:44Z</time>
      </trkpt>
      <trkpt lat="46.08844" lon="6.23381">
        <ele>842.858</ele>
        <time>2020-05-02T11:15:46Z</time>
      </trkpt>
      <trkpt lat="46.08839" lon="6.23378">
        <ele>843.57</ele>
        <time>2020-05-02T11:15:47Z</time>
      </trkpt>
      <trkpt lat="46.08832" lon="6.23385">
        <ele>844.965</ele>
        <time>2020-05-02T11:15:49Z</time>
      </trkpt>
      <trkpt lat="46.08826" lon="6.23391">
        <ele>845.739</ele>
        <time>2020-05-02T11:15:50Z</time>
      </trkpt>
      <trkpt lat="46.08821" lon="6.23397">
        <ele>846.583</ele>
        <time>2020-05-02T11:15:51Z</time>
      </trkpt>
      <trkpt lat="46.08818" lon="6.23402">
        <ele>847.564</ele>
        <time>2020-05-02T11:15:52Z</time>
      </trkpt>
      <trkpt lat="46.08814" lon="6.23412">
        <ele>849.698</ele>
        <time>2020-05-02T11:15:54Z</time>
      </trkpt>
      <trkpt lat="46.08811" lon="6.23418">
        <ele>850.615</ele>
        <time>2020-05-02T11:15:55Z</time>
      </trkpt>
      <trkpt lat="46.08806" lon="6.23426">
        <ele>851.626</ele>
        <time>2020-05-02T11:15:56Z</time>
      </trkpt>
      <trkpt lat="46.08803" lon="6.23435">
        <ele>852.508</ele>
        <time>2020-05-02T11:15:57Z</time>
      </trkpt>
      <trkpt lat="46.08799" lon="6.23442">
        <ele>853.463</ele>
        <time>2020-05-02T11:15:58Z</time>
      </trkpt>
      <trkpt lat="46.08793" lon="6.23446">
        <ele>854.397</ele>
        <time>2020-05-02T11:15:59Z</time>
      </trkpt>
      <trkpt lat="46.08788" lon="6.23449">
        <ele>855.346</ele>
        <time>2020-05-02T11:16:00Z</time>
      </trkpt>
      <trkpt lat="46.08782" lon="6.23451">
        <ele>856.258</ele>
        <time>2020-05-02T11:16:01Z</time>
      </trkpt>
      <trkpt lat="46.08777" lon="6.23453">
        <ele>856.913</ele>
        <time>2020-05-02T11:16:02Z</time>
      </trkpt>
      <trkpt lat="46.0877" lon="6.23458">
        <ele>857.547</ele>
        <time>2020-05-02T11:16:03Z</time>
      </trkpt>
      <trkpt lat="46.08763" lon="6.23461">
        <ele>857.921</ele>
        <time>2020-05-02T11:16:04Z</time>
      </trkpt>
      <trkpt lat="46.08758" lon="6.23462">
        <ele>858.152</ele>
        <time>2020-05-02T11:16:05Z</time>
      </trkpt>
      <trkpt lat="46.08748" lon="6.23464">
        <ele>858.366</ele>
        <time>2020-05-02T11:16:07Z</time>
      </trkpt>
      <trkpt lat="46.08743" lon="6.23466">
        <ele>858.429</ele>
        <time>2020-05-02T11:16:08Z</time>
      </trkpt>
      <trkpt lat="46.08739" lon="6.23468">
        <ele>858.421</ele>
        <time>2020-05-02T11:16:09Z</time>
      </trkpt>
      <trkpt lat="46.08734" lon="6.23469">
        <ele>858.508</ele>
        <time>2020-05-02T11:16:10Z</time>
      </trkpt>
      <trkpt lat="46.08727" lon="6.23473">
        <ele>858.75</ele>
        <time>2020-05-02T11:16:11Z</time>
      </trkpt>
      <trkpt lat="46.08723" lon="6.23475">
        <ele>858.974</ele>
        <time>2020-05-02T11:16:12Z</time>
      </trkpt>
      <trkpt lat="46.08717" lon="6.23478">
        <ele>859.043</ele>
        <time>2020-05-02T11:16:13Z</time>
      </trkpt>
      <trkpt lat="46.0871" lon="6.23479">
        <ele>859.325</ele>
        <time>2020-05-02T11:16:14Z</time>
      </trkpt>
      <trkpt lat="46.08702" lon="6.23481">
        <ele>859.79</ele>
        <time>2020-05-02T11:16:15Z</time>
      </trkpt>
      <trkpt lat="46.08696" lon="6.23482">
        <ele>860.034</ele>
        <time>2020-05-02T11:16:16Z</time>
      </trkpt>
      <trkpt lat="46.0869" lon="6.23484">
        <ele>860.438</ele>
        <time>2020-05-02T11:16:17Z</time>
      </trkpt>
      <trkpt lat="46.08684" lon="6.23487">
        <ele>860.869</ele>
        <time>2020-05-02T11:16:18Z</time>
      </trkpt>
      <trkpt lat="46.08678" lon="6.23491">
        <ele>861.133</ele>
        <time>2020-05-02T11:16:19Z</time>
      </trkpt>
      <trkpt lat="46.08672" lon="6.23495">
        <ele>861.323</ele>
        <time>2020-05-02T11:16:20Z</time>
      </trkpt>
      <trkpt lat="46.08667" lon="6.23501">
        <ele>861.615</ele>
        <time>2020-05-02T11:16:21Z</time>
      </trkpt>
      <trkpt lat="46.08663" lon="6.23507">
        <ele>861.908</ele>
        <time>2020-05-02T11:16:22Z</time>
      </trkpt>
      <trkpt lat="46.08661" lon="6.23513">
        <ele>862.417</ele>
        <time>2020-05-02T11:16:23Z</time>
      </trkpt>
      <trkpt lat="46.08661" lon="6.23526">
        <ele>863.191</ele>
        <time>2020-05-02T11:16:24Z</time>
      </trkpt>
      <trkpt lat="46.08661" lon="6.23542">
        <ele>863.96</ele>
        <time>2020-05-02T11:16:25Z</time>
      </trkpt>
      <trkpt lat="46.08659" lon="6.23559">
        <ele>865.032</ele>
        <time>2020-05-02T11:16:26Z</time>
      </trkpt>
      <trkpt lat="46.08657" lon="6.23577">
        <ele>866.287</ele>
        <time>2020-05-02T11:16:27Z</time>
      </trkpt>
      <trkpt lat="46.08653" lon="6.23593">
        <ele>867.481</ele>
        <time>2020-05-02T11:16:28Z</time>
      </trkpt>
      <trkpt lat="46.08649" lon="6.23611">
        <ele>868.875</ele>
        <time>2020-05-02T11:16:29Z</time>
      </trkpt>
      <trkpt lat="46.08646" lon="6.23625">
        <ele>870.326</ele>
        <time>2020-05-02T11:16:30Z</time>
      </trkpt>
      <trkpt lat="46.08643" lon="6.23639">
        <ele>871.914</ele>
        <time>2020-05-02T11:16:31Z</time>
      </trkpt>
      <trkpt lat="46.0864" lon="6.23653">
        <ele>873.354</ele>
        <time>2020-05-02T11:16:32Z</time>
      </trkpt>
      <trkpt lat="46.08637" lon="6.23671">
        <ele>874.609</ele>
        <time>2020-05-02T11:16:33Z</time>
      </trkpt>
      <trkpt lat="46.08635" lon="6.23686">
        <ele>876.008</ele>
        <time>2020-05-02T11:16:34Z</time>
      </trkpt>
      <trkpt lat="46.08632" lon="6.237">
        <ele>877.315</ele>
        <time>2020-05-02T11:16:35Z</time>
      </trkpt>
      <trkpt lat="46.0863" lon="6.23712">
        <ele>878.469</ele>
        <time>2020-05-02T11:16:36Z</time>
      </trkpt>
      <trkpt lat="46.08628" lon="6.23722">
        <ele>879.388</ele>
        <time>2020-05-02T11:16:37Z</time>
      </trkpt>
      <trkpt lat="46.08625" lon="6.23731">
        <ele>880.33</ele>
        <time>2020-05-02T11:16:38Z</time>
      </trkpt>
      <trkpt lat="46.08621" lon="6.23736">
        <ele>880.945</ele>
        <time>2020-05-02T11:16:39Z</time>
      </trkpt>
      <trkpt lat="46.08616" lon="6.23742">
        <ele>881.429</ele>
        <time>2020-05-02T11:16:40Z</time>
      </trkpt>
      <trkpt lat="46.0861" lon="6.23746">
        <ele>881.843</ele>
        <time>2020-05-02T11:16:41Z</time>
      </trkpt>
      <trkpt lat="46.08601" lon="6.23748">
        <ele>882.084</ele>
        <time>2020-05-02T11:16:43Z</time>
      </trkpt>
      <trkpt lat="46.08596" lon="6.23752">
        <ele>882.034</ele>
        <time>2020-05-02T11:16:44Z</time>
      </trkpt>
      <trkpt lat="46.0859" lon="6.23756">
        <ele>882.055</ele>
        <time>2020-05-02T11:16:45Z</time>
      </trkpt>
      <trkpt lat="46.08582" lon="6.23761">
        <ele>881.91</ele>
        <time>2020-05-02T11:16:46Z</time>
      </trkpt>
      <trkpt lat="46.08576" lon="6.23767">
        <ele>881.808</ele>
        <time>2020-05-02T11:16:47Z</time>
      </trkpt>
      <trkpt lat="46.0857" lon="6.23771">
        <ele>881.577</ele>
        <time>2020-05-02T11:16:49Z</time>
      </trkpt>
      <trkpt lat="46.08563" lon="6.23776">
        <ele>880.821</ele>
        <time>2020-05-02T11:16:56Z</time>
      </trkpt>
      <trkpt lat="46.08559" lon="6.2378">
        <ele>880.85</ele>
        <time>2020-05-02T11:16:57Z</time>
      </trkpt>
      <trkpt lat="46.08555" lon="6.23784">
        <ele>880.832</ele>
        <time>2020-05-02T11:16:58Z</time>
      </trkpt>
      <trkpt lat="46.08551" lon="6.23788">
        <ele>880.737</ele>
        <time>2020-05-02T11:16:59Z</time>
      </trkpt>
      <trkpt lat="46.08547" lon="6.23794">
        <ele>880.621</ele>
        <time>2020-05-02T11:17:00Z</time>
      </trkpt>
      <trkpt lat="46.08541" lon="6.23799">
        <ele>880.665</ele>
        <time>2020-05-02T11:17:01Z</time>
      </trkpt>
      <trkpt lat="46.08537" lon="6.23804">
        <ele>880.546</ele>
        <time>2020-05-02T11:17:02Z</time>
      </trkpt>
      <trkpt lat="46.08532" lon="6.2381">
        <ele>880.481</ele>
        <time>2020-05-02T11:17:03Z</time>
      </trkpt>
      <trkpt lat="46.08525" lon="6.23819">
        <ele>880.461</ele>
        <time>2020-05-02T11:17:04Z</time>
      </trkpt>
      <trkpt lat="46.0852" lon="6.23824">
        <ele>880.417</ele>
        <time>2020-05-02T11:17:05Z</time>
      </trkpt>
      <trkpt lat="46.08515" lon="6.23831">
        <ele>880.408</ele>
        <time>2020-05-02T11:17:06Z</time>
      </trkpt>
      <trkpt lat="46.08509" lon="6.23838">
        <ele>880.522</ele>
        <time>2020-05-02T11:17:07Z</time>
      </trkpt>
      <trkpt lat="46.08502" lon="6.23847">
        <ele>880.696</ele>
        <time>2020-05-02T11:17:08Z</time>
      </trkpt>
      <trkpt lat="46.08493" lon="6.23861">
        <ele>880.865</ele>
        <time>2020-05-02T11:17:09Z</time>
      </trkpt>
      <trkpt lat="46.08483" lon="6.23874">
        <ele>881.137</ele>
        <time>2020-05-02T11:17:10Z</time>
      </trkpt>
      <trkpt lat="46.08475" lon="6.23885">
        <ele>881.692</ele>
        <time>2020-05-02T11:17:11Z</time>
      </trkpt>
      <trkpt lat="46.08468" lon="6.23893">
        <ele>882.196</ele>
        <time>2020-05-02T11:17:12Z</time>
      </trkpt>
      <trkpt lat="46.08462" lon="6.23901">
        <ele>882.68</ele>
        <time>2020-05-02T11:17:13Z</time>
      </trkpt>
      <trkpt lat="46.08458" lon="6.23907">
        <ele>883.291</ele>
        <time>2020-05-02T11:17:14Z</time>
      </trkpt>
      <trkpt lat="46.08454" lon="6.23913">
        <ele>883.747</ele>
        <time>2020-05-02T11:17:15Z</time>
      </trkpt>
      <trkpt lat="46.0845" lon="6.23917">
        <ele>884.029</ele>
        <time>2020-05-02T11:17:16Z</time>
      </trkpt>
      <trkpt lat="46.08444" lon="6.23922">
        <ele>884.421</ele>
        <time>2020-05-02T11:17:18Z</time>
      </trkpt>
      <trkpt lat="46.08437" lon="6.23916">
        <ele>884.608</ele>
        <time>2020-05-02T11:17:21Z</time>
      </trkpt>
      <trkpt lat="46.08431" lon="6.23905">
        <ele>884.868</ele>
        <time>2020-05-02T11:17:23Z</time>
      </trkpt>
      <trkpt lat="46.08426" lon="6.23899">
        <ele>885.082</ele>
        <time>2020-05-02T11:17:24Z</time>
      </trkpt>
      <trkpt lat="46.0842" lon="6.23892">
        <ele>885.251</ele>
        <time>2020-05-02T11:17:25Z</time>
      </trkpt>
      <trkpt lat="46.08415" lon="6.23888">
        <ele>885.443</ele>
        <time>2020-05-02T11:17:26Z</time>
      </trkpt>
      <trkpt lat="46.08411" lon="6.23884">
        <ele>885.668</ele>
        <time>2020-05-02T11:17:27Z</time>
      </trkpt>
      <trkpt lat="46.08406" lon="6.2388">
        <ele>885.632</ele>
        <time>2020-05-02T11:17:28Z</time>
      </trkpt>
      <trkpt lat="46.08398" lon="6.23873">
        <ele>885.646</ele>
        <time>2020-05-02T11:17:29Z</time>
      </trkpt>
      <trkpt lat="46.08389" lon="6.23867">
        <ele>885.537</ele>
        <time>2020-05-02T11:17:30Z</time>
      </trkpt>
      <trkpt lat="46.08382" lon="6.23862">
        <ele>885.354</ele>
        <time>2020-05-02T11:17:31Z</time>
      </trkpt>
      <trkpt lat="46.08375" lon="6.23854">
        <ele>885.156</ele>
        <time>2020-05-02T11:17:32Z</time>
      </trkpt>
      <trkpt lat="46.0837" lon="6.23847">
        <ele>884.811</ele>
        <time>2020-05-02T11:17:33Z</time>
      </trkpt>
      <trkpt lat="46.08365" lon="6.23839">
        <ele>884.508</ele>
        <time>2020-05-02T11:17:34Z</time>
      </trkpt>
      <trkpt lat="46.08361" lon="6.23834">
        <ele>884.229</ele>
        <time>2020-05-02T11:17:35Z</time>
      </trkpt>
      <trkpt lat="46.08355" lon="6.23828">
        <ele>883.983</ele>
        <time>2020-05-02T11:17:36Z</time>
      </trkpt>
      <trkpt lat="46.0835" lon="6.23822">
        <ele>883.672</ele>
        <time>2020-05-02T11:17:37Z</time>
      </trkpt>
      <trkpt lat="46.08344" lon="6.23815">
        <ele>883.214</ele>
        <time>2020-05-02T11:17:38Z</time>
      </trkpt>
      <trkpt lat="46.08339" lon="6.23807">
        <ele>882.829</ele>
        <time>2020-05-02T11:17:39Z</time>
      </trkpt>
      <trkpt lat="46.08335" lon="6.23801">
        <ele>882.413</ele>
        <time>2020-05-02T11:17:40Z</time>
      </trkpt>
      <trkpt lat="46.08329" lon="6.23797">
        <ele>882.147</ele>
        <time>2020-05-02T11:17:41Z</time>
      </trkpt>
      <trkpt lat="46.08324" lon="6.23797">
        <ele>881.818</ele>
        <time>2020-05-02T11:17:42Z</time>
      </trkpt>
      <trkpt lat="46.08318" lon="6.23799">
        <ele>881.591</ele>
        <time>2020-05-02T11:17:43Z</time>
      </trkpt>
      <trkpt lat="46.08311" lon="6.23804">
        <ele>881.381</ele>
        <time>2020-05-02T11:17:44Z</time>
      </trkpt>
      <trkpt lat="46.08306" lon="6.23807">
        <ele>881.119</ele>
        <time>2020-05-02T11:17:45Z</time>
      </trkpt>
      <trkpt lat="46.08301" lon="6.23812">
        <ele>880.808</ele>
        <time>2020-05-02T11:17:47Z</time>
      </trkpt>
      <trkpt lat="46.08293" lon="6.23814">
        <ele>880.753</ele>
        <time>2020-05-02T11:17:49Z</time>
      </trkpt>
      <trkpt lat="46.08287" lon="6.23811">
        <ele>880.787</ele>
        <time>2020-05-02T11:17:50Z</time>
      </trkpt>
      <trkpt lat="46.08282" lon="6.23808">
        <ele>880.716</ele>
        <time>2020-05-02T11:17:51Z</time>
      </trkpt>
      <trkpt lat="46.08277" lon="6.23808">
        <ele>880.738</ele>
        <time>2020-05-02T11:17:52Z</time>
      </trkpt>
      <trkpt lat="46.08269" lon="6.23808">
        <ele>880.633</ele>
        <time>2020-05-02T11:17:54Z</time>
      </trkpt>
      <trkpt lat="46.08257" lon="6.23809">
        <ele>880.697</ele>
        <time>2020-05-02T11:17:56Z</time>
      </trkpt>
      <trkpt lat="46.0825" lon="6.23809">
        <ele>880.621</ele>
        <time>2020-05-02T11:17:57Z</time>
      </trkpt>
      <trkpt lat="46.08243" lon="6.23808">
        <ele>880.552</ele>
        <time>2020-05-02T11:17:58Z</time>
      </trkpt>
      <trkpt lat="46.08236" lon="6.23804">
        <ele>880.591</ele>
        <time>2020-05-02T11:17:59Z</time>
      </trkpt>
      <trkpt lat="46.08227" lon="6.23799">
        <ele>880.481</ele>
        <time>2020-05-02T11:18:00Z</time>
      </trkpt>
      <trkpt lat="46.08223" lon="6.23793">
        <ele>880.419</ele>
        <time>2020-05-02T11:18:01Z</time>
      </trkpt>
      <trkpt lat="46.08217" lon="6.23789">
        <ele>880.408</ele>
        <time>2020-05-02T11:18:02Z</time>
      </trkpt>
      <trkpt lat="46.08211" lon="6.23786">
        <ele>880.473</ele>
        <time>2020-05-02T11:18:03Z</time>
      </trkpt>
      <trkpt lat="46.08205" lon="6.23781">
        <ele>880.687</ele>
        <time>2020-05-02T11:18:04Z</time>
      </trkpt>
      <trkpt lat="46.08199" lon="6.23775">
        <ele>880.886</ele>
        <time>2020-05-02T11:18:05Z</time>
      </trkpt>
      <trkpt lat="46.08191" lon="6.2377">
        <ele>880.938</ele>
        <time>2020-05-02T11:18:06Z</time>
      </trkpt>
      <trkpt lat="46.08187" lon="6.23765">
        <ele>881.033</ele>
        <time>2020-05-02T11:18:07Z</time>
      </trkpt>
      <trkpt lat="46.08181" lon="6.2376">
        <ele>881.047</ele>
        <time>2020-05-02T11:18:08Z</time>
      </trkpt>
      <trkpt lat="46.08174" lon="6.23754">
        <ele>880.961</ele>
        <time>2020-05-02T11:18:09Z</time>
      </trkpt>
      <trkpt lat="46.08168" lon="6.23749">
        <ele>880.912</ele>
        <time>2020-05-02T11:18:10Z</time>
      </trkpt>
      <trkpt lat="46.08161" lon="6.23745">
        <ele>880.995</ele>
        <time>2020-05-02T11:18:11Z</time>
      </trkpt>
      <trkpt lat="46.08157" lon="6.23741">
        <ele>880.849</ele>
        <time>2020-05-02T11:18:12Z</time>
      </trkpt>
      <trkpt lat="46.08151" lon="6.23736">
        <ele>880.823</ele>
        <time>2020-05-02T11:18:13Z</time>
      </trkpt>
      <trkpt lat="46.08148" lon="6.23732">
        <ele>880.808</ele>
        <time>2020-05-02T11:18:14Z</time>
      </trkpt>
      <trkpt lat="46.08142" lon="6.23724">
        <ele>880.513</ele>
        <time>2020-05-02T11:18:16Z</time>
      </trkpt>
      <trkpt lat="46.08135" lon="6.23717">
        <ele>880.227</ele>
        <time>2020-05-02T11:18:18Z</time>
      </trkpt>
      <trkpt lat="46.08129" lon="6.23714">
        <ele>880.196</ele>
        <time>2020-05-02T11:18:19Z</time>
      </trkpt>
      <trkpt lat="46.08124" lon="6.23712">
        <ele>880.038</ele>
        <time>2020-05-02T11:18:20Z</time>
      </trkpt>
      <trkpt lat="46.08119" lon="6.23709">
        <ele>879.973</ele>
        <time>2020-05-02T11:18:21Z</time>
      </trkpt>
      <trkpt lat="46.08114" lon="6.23707">
        <ele>879.947</ele>
        <time>2020-05-02T11:18:22Z</time>
      </trkpt>
      <trkpt lat="46.08106" lon="6.23701">
        <ele>880.091</ele>
        <time>2020-05-02T11:18:24Z</time>
      </trkpt>
      <trkpt lat="46.08101" lon="6.23697">
        <ele>880.262</ele>
        <time>2020-05-02T11:18:26Z</time>
      </trkpt>
      <trkpt lat="46.08088" lon="6.23698">
        <ele>880.269</ele>
        <time>2020-05-02T11:18:49Z</time>
      </trkpt>
      <trkpt lat="46.08082" lon="6.23693">
        <ele>880.304</ele>
        <time>2020-05-02T11:18:52Z</time>
      </trkpt>
      <trkpt lat="46.08077" lon="6.23691">
        <ele>880.424</ele>
        <time>2020-05-02T11:18:54Z</time>
      </trkpt>
      <trkpt lat="46.08071" lon="6.2369">
        <ele>880.708</ele>
        <time>2020-05-02T11:18:56Z</time>
      </trkpt>
      <trkpt lat="46.08065" lon="6.23688">
        <ele>881.17</ele>
        <time>2020-05-02T11:18:58Z</time>
      </trkpt>
      <trkpt lat="46.08058" lon="6.23684">
        <ele>881.424</ele>
        <time>2020-05-02T11:19:00Z</time>
      </trkpt>
      <trkpt lat="46.08052" lon="6.23682">
        <ele>881.583</ele>
        <time>2020-05-02T11:19:01Z</time>
      </trkpt>
      <trkpt lat="46.08045" lon="6.2368">
        <ele>881.655</ele>
        <time>2020-05-02T11:19:02Z</time>
      </trkpt>
      <trkpt lat="46.08036" lon="6.23677">
        <ele>881.79</ele>
        <time>2020-05-02T11:19:03Z</time>
      </trkpt>
      <trkpt lat="46.08029" lon="6.23674">
        <ele>881.914</ele>
        <time>2020-05-02T11:19:04Z</time>
      </trkpt>
      <trkpt lat="46.08021" lon="6.23672">
        <ele>882.298</ele>
        <time>2020-05-02T11:19:05Z</time>
      </trkpt>
      <trkpt lat="46.08015" lon="6.23668">
        <ele>882.819</ele>
        <time>2020-05-02T11:19:06Z</time>
      </trkpt>
      <trkpt lat="46.08006" lon="6.23662">
        <ele>884.354</ele>
        <time>2020-05-02T11:19:08Z</time>
      </trkpt>
      <trkpt lat="46.07999" lon="6.2366">
        <ele>885.056</ele>
        <time>2020-05-02T11:19:09Z</time>
      </trkpt>
      <trkpt lat="46.07995" lon="6.23657">
        <ele>885.711</ele>
        <time>2020-05-02T11:19:10Z</time>
      </trkpt>
      <trkpt lat="46.07989" lon="6.23655">
        <ele>886.008</ele>
        <time>2020-05-02T11:19:11Z</time>
      </trkpt>
      <trkpt lat="46.07984" lon="6.2365">
        <ele>886.179</ele>
        <time>2020-05-02T11:19:12Z</time>
      </trkpt>
      <trkpt lat="46.07974" lon="6.23644">
        <ele>886.283</ele>
        <time>2020-05-02T11:19:13Z</time>
      </trkpt>
      <trkpt lat="46.07969" lon="6.23642">
        <ele>886.362</ele>
        <time>2020-05-02T11:19:14Z</time>
      </trkpt>
      <trkpt lat="46.07963" lon="6.23635">
        <ele>886.434</ele>
        <time>2020-05-02T11:19:15Z</time>
      </trkpt>
      <trkpt lat="46.07955" lon="6.23631">
        <ele>886.599</ele>
        <time>2020-05-02T11:19:16Z</time>
      </trkpt>
      <trkpt lat="46.07951" lon="6.23627">
        <ele>886.553</ele>
        <time>2020-05-02T11:19:17Z</time>
      </trkpt>
      <trkpt lat="46.07945" lon="6.23623">
        <ele>886.647</ele>
        <time>2020-05-02T11:19:18Z</time>
      </trkpt>
      <trkpt lat="46.07939" lon="6.2362">
        <ele>886.898</ele>
        <time>2020-05-02T11:19:19Z</time>
      </trkpt>
      <trkpt lat="46.07933" lon="6.23617">
        <ele>886.911</ele>
        <time>2020-05-02T11:19:20Z</time>
      </trkpt>
      <trkpt lat="46.07927" lon="6.23614">
        <ele>887.021</ele>
        <time>2020-05-02T11:19:21Z</time>
      </trkpt>
      <trkpt lat="46.0792" lon="6.2361">
        <ele>887.303</ele>
        <time>2020-05-02T11:19:22Z</time>
      </trkpt>
      <trkpt lat="46.07914" lon="6.23603">
        <ele>887.508</ele>
        <time>2020-05-02T11:19:23Z</time>
      </trkpt>
      <trkpt lat="46.07909" lon="6.23599">
        <ele>887.515</ele>
        <time>2020-05-02T11:19:24Z</time>
      </trkpt>
      <trkpt lat="46.07904" lon="6.23596">
        <ele>887.569</ele>
        <time>2020-05-02T11:19:25Z</time>
      </trkpt>
      <trkpt lat="46.07898" lon="6.23594">
        <ele>887.578</ele>
        <time>2020-05-02T11:19:26Z</time>
      </trkpt>
      <trkpt lat="46.07892" lon="6.23593">
        <ele>887.48</ele>
        <time>2020-05-02T11:19:27Z</time>
      </trkpt>
      <trkpt lat="46.07885" lon="6.23596">
        <ele>887.345</ele>
        <time>2020-05-02T11:19:28Z</time>
      </trkpt>
      <trkpt lat="46.07876" lon="6.23601">
        <ele>887.079</ele>
        <time>2020-05-02T11:19:29Z</time>
      </trkpt>
      <trkpt lat="46.07869" lon="6.23604">
        <ele>886.673</ele>
        <time>2020-05-02T11:19:30Z</time>
      </trkpt>
      <trkpt lat="46.07858" lon="6.23608">
        <ele>886.174</ele>
        <time>2020-05-02T11:19:31Z</time>
      </trkpt>
      <trkpt lat="46.07851" lon="6.2361">
        <ele>885.648</ele>
        <time>2020-05-02T11:19:32Z</time>
      </trkpt>
      <trkpt lat="46.07844" lon="6.2361">
        <ele>884.861</ele>
        <time>2020-05-02T11:19:33Z</time>
      </trkpt>
      <trkpt lat="46.07834" lon="6.23601">
        <ele>884.217</ele>
        <time>2020-05-02T11:19:34Z</time>
      </trkpt>
      <trkpt lat="46.07827" lon="6.23587">
        <ele>883.508</ele>
        <time>2020-05-02T11:19:35Z</time>
      </trkpt>
      <trkpt lat="46.0782" lon="6.23569">
        <ele>883.248</ele>
        <time>2020-05-02T11:19:36Z</time>
      </trkpt>
      <trkpt lat="46.07828" lon="6.23563">
        <ele>882.982</ele>
        <time>2020-05-02T11:19:38Z</time>
      </trkpt>
      <trkpt lat="46.07836" lon="6.23558">
        <ele>883.041</ele>
        <time>2020-05-02T11:19:39Z</time>
      </trkpt>
      <trkpt lat="46.07841" lon="6.23552">
        <ele>883.233</ele>
        <time>2020-05-02T11:19:40Z</time>
      </trkpt>
      <trkpt lat="46.07846" lon="6.23546">
        <ele>883.328</ele>
        <time>2020-05-02T11:19:41Z</time>
      </trkpt>
      <trkpt lat="46.07853" lon="6.23538">
        <ele>883.472</ele>
        <time>2020-05-02T11:19:43Z</time>
      </trkpt>
      <trkpt lat="46.07856" lon="6.23533">
        <ele>883.516</ele>
        <time>2020-05-02T11:19:44Z</time>
      </trkpt>
      <trkpt lat="46.0786" lon="6.23528">
        <ele>883.687</ele>
        <time>2020-05-02T11:19:45Z</time>
      </trkpt>
      <trkpt lat="46.07862" lon="6.23522">
        <ele>883.827</ele>
        <time>2020-05-02T11:19:46Z</time>
      </trkpt>
      <trkpt lat="46.07868" lon="6.23518">
        <ele>884.068</ele>
        <time>2020-05-02T11:19:47Z</time>
      </trkpt>
      <trkpt lat="46.07872" lon="6.23512">
        <ele>884.314</ele>
        <time>2020-05-02T11:19:48Z</time>
      </trkpt>
      <trkpt lat="46.07876" lon="6.23507">
        <ele>884.508</ele>
        <time>2020-05-02T11:19:49Z</time>
      </trkpt>
      <trkpt lat="46.07881" lon="6.23502">
        <ele>884.776</ele>
        <time>2020-05-02T11:19:50Z</time>
      </trkpt>
      <trkpt lat="46.07886" lon="6.23498">
        <ele>884.95</ele>
        <time>2020-05-02T11:19:51Z</time>
      </trkpt>
      <trkpt lat="46.07891" lon="6.23491">
        <ele>885.199</ele>
        <time>2020-05-02T11:19:52Z</time>
      </trkpt>
      <trkpt lat="46.07895" lon="6.23483">
        <ele>885.261</ele>
        <time>2020-05-02T11:19:53Z</time>
      </trkpt>
      <trkpt lat="46.07898" lon="6.23473">
        <ele>885.426</ele>
        <time>2020-05-02T11:19:54Z</time>
      </trkpt>
      <trkpt lat="46.07902" lon="6.2346">
        <ele>885.65</ele>
        <time>2020-05-02T11:19:55Z</time>
      </trkpt>
      <trkpt lat="46.07905" lon="6.23449">
        <ele>885.834</ele>
        <time>2020-05-02T11:19:56Z</time>
      </trkpt>
      <trkpt lat="46.07908" lon="6.23438">
        <ele>885.935</ele>
        <time>2020-05-02T11:19:57Z</time>
      </trkpt>
      <trkpt lat="46.0791" lon="6.23426">
        <ele>886.215</ele>
        <time>2020-05-02T11:19:58Z</time>
      </trkpt>
      <trkpt lat="46.07911" lon="6.23416">
        <ele>886.665</ele>
        <time>2020-05-02T11:19:59Z</time>
      </trkpt>
      <trkpt lat="46.07909" lon="6.23407">
        <ele>887.111</ele>
        <time>2020-05-02T11:20:00Z</time>
      </trkpt>
      <trkpt lat="46.07908" lon="6.23397">
        <ele>887.708</ele>
        <time>2020-05-02T11:20:01Z</time>
      </trkpt>
      <trkpt lat="46.07894" lon="6.23397">
        <ele>888.475</ele>
        <time>2020-05-02T11:20:02Z</time>
      </trkpt>
      <trkpt lat="46.07886" lon="6.23399">
        <ele>889.119</ele>
        <time>2020-05-02T11:20:03Z</time>
      </trkpt>
      <trkpt lat="46.07875" lon="6.23412">
        <ele>889.738</ele>
        <time>2020-05-02T11:20:04Z</time>
      </trkpt>
      <trkpt lat="46.07869" lon="6.23421">
        <ele>890.32</ele>
        <time>2020-05-02T11:20:05Z</time>
      </trkpt>
      <trkpt lat="46.07863" lon="6.23431">
        <ele>890.845</ele>
        <time>2020-05-02T11:20:06Z</time>
      </trkpt>
      <trkpt lat="46.07857" lon="6.23441">
        <ele>891.429</ele>
        <time>2020-05-02T11:20:07Z</time>
      </trkpt>
      <trkpt lat="46.0785" lon="6.23452">
        <ele>891.943</ele>
        <time>2020-05-02T11:20:08Z</time>
      </trkpt>
      <trkpt lat="46.07842" lon="6.23462">
        <ele>892.584</ele>
        <time>2020-05-02T11:20:09Z</time>
      </trkpt>
      <trkpt lat="46.07833" lon="6.23471">
        <ele>893.117</ele>
        <time>2020-05-02T11:20:10Z</time>
      </trkpt>
      <trkpt lat="46.07825" lon="6.23478">
        <ele>893.887</ele>
        <time>2020-05-02T11:20:11Z</time>
      </trkpt>
      <trkpt lat="46.07816" lon="6.23483">
        <ele>894.615</ele>
        <time>2020-05-02T11:20:12Z</time>
      </trkpt>
      <trkpt lat="46.07805" lon="6.23485">
        <ele>895.508</ele>
        <time>2020-05-02T11:20:13Z</time>
      </trkpt>
      <trkpt lat="46.07794" lon="6.23486">
        <ele>896.425</ele>
        <time>2020-05-02T11:20:14Z</time>
      </trkpt>
      <trkpt lat="46.07782" lon="6.23484">
        <ele>897.389</ele>
        <time>2020-05-02T11:20:15Z</time>
      </trkpt>
      <trkpt lat="46.07771" lon="6.23482">
        <ele>898.228</ele>
        <time>2020-05-02T11:20:16Z</time>
      </trkpt>
      <trkpt lat="46.07761" lon="6.23479">
        <ele>899.16</ele>
        <time>2020-05-02T11:20:17Z</time>
      </trkpt>
      <trkpt lat="46.07751" lon="6.23477">
        <ele>899.555</ele>
        <time>2020-05-02T11:20:18Z</time>
      </trkpt>
      <trkpt lat="46.07742" lon="6.23476">
        <ele>899.869</ele>
        <time>2020-05-02T11:20:19Z</time>
      </trkpt>
      <trkpt lat="46.07733" lon="6.23471">
        <ele>900.143</ele>
        <time>2020-05-02T11:20:20Z</time>
      </trkpt>
      <trkpt lat="46.07725" lon="6.23469">
        <ele>900.344</ele>
        <time>2020-05-02T11:20:21Z</time>
      </trkpt>
      <trkpt lat="46.07718" lon="6.23465">
        <ele>900.325</ele>
        <time>2020-05-02T11:20:22Z</time>
      </trkpt>
      <trkpt lat="46.07713" lon="6.23464">
        <ele>900.426</ele>
        <time>2020-05-02T11:20:23Z</time>
      </trkpt>
      <trkpt lat="46.07708" lon="6.23461">
        <ele>900.408</ele>
        <time>2020-05-02T11:20:24Z</time>
      </trkpt>
      <trkpt lat="46.07704" lon="6.23455">
        <ele>900.308</ele>
        <time>2020-05-02T11:20:25Z</time>
      </trkpt>
      <trkpt lat="46.07702" lon="6.23447">
        <ele>900.046</ele>
        <time>2020-05-02T11:20:26Z</time>
      </trkpt>
      <trkpt lat="46.07703" lon="6.23438">
        <ele>899.89</ele>
        <time>2020-05-02T11:20:27Z</time>
      </trkpt>
      <trkpt lat="46.07706" lon="6.23429">
        <ele>899.599</ele>
        <time>2020-05-02T11:20:28Z</time>
      </trkpt>
      <trkpt lat="46.07711" lon="6.23419">
        <ele>899.391</ele>
        <time>2020-05-02T11:20:29Z</time>
      </trkpt>
      <trkpt lat="46.07716" lon="6.23404">
        <ele>898.956</ele>
        <time>2020-05-02T11:20:30Z</time>
      </trkpt>
      <trkpt lat="46.07722" lon="6.2339">
        <ele>898.56</ele>
        <time>2020-05-02T11:20:31Z</time>
      </trkpt>
      <trkpt lat="46.07727" lon="6.23378">
        <ele>897.944</ele>
        <time>2020-05-02T11:20:32Z</time>
      </trkpt>
      <trkpt lat="46.07731" lon="6.23369">
        <ele>897.125</ele>
        <time>2020-05-02T11:20:33Z</time>
      </trkpt>
      <trkpt lat="46.07734" lon="6.23361">
        <ele>896.213</ele>
        <time>2020-05-02T11:20:34Z</time>
      </trkpt>
      <trkpt lat="46.07735" lon="6.23352">
        <ele>895.343</ele>
        <time>2020-05-02T11:20:35Z</time>
      </trkpt>
      <trkpt lat="46.07735" lon="6.23343">
        <ele>894.407</ele>
        <time>2020-05-02T11:20:36Z</time>
      </trkpt>
      <trkpt lat="46.07734" lon="6.23334">
        <ele>893.608</ele>
        <time>2020-05-02T11:20:37Z</time>
      </trkpt>
      <trkpt lat="46.07733" lon="6.23325">
        <ele>892.985</ele>
        <time>2020-05-02T11:20:38Z</time>
      </trkpt>
      <trkpt lat="46.07733" lon="6.23317">
        <ele>892.379</ele>
        <time>2020-05-02T11:20:39Z</time>
      </trkpt>
      <trkpt lat="46.07733" lon="6.2331">
        <ele>891.748</ele>
        <time>2020-05-02T11:20:40Z</time>
      </trkpt>
      <trkpt lat="46.07733" lon="6.23298">
        <ele>890.49</ele>
        <time>2020-05-02T11:20:42Z</time>
      </trkpt>
      <trkpt lat="46.07731" lon="6.23287">
        <ele>889.395</ele>
        <time>2020-05-02T11:20:44Z</time>
      </trkpt>
      <trkpt lat="46.07728" lon="6.2328">
        <ele>888.369</ele>
        <time>2020-05-02T11:20:46Z</time>
      </trkpt>
      <trkpt lat="46.07731" lon="6.23275">
        <ele>887.233</ele>
        <time>2020-05-02T11:20:49Z</time>
      </trkpt>
      <trkpt lat="46.07739" lon="6.23274">
        <ele>886.354</ele>
        <time>2020-05-02T11:20:52Z</time>
      </trkpt>
      <trkpt lat="46.07746" lon="6.23274">
        <ele>885.696</ele>
        <time>2020-05-02T11:20:53Z</time>
      </trkpt>
      <trkpt lat="46.07752" lon="6.23273">
        <ele>884.931</ele>
        <time>2020-05-02T11:20:54Z</time>
      </trkpt>
      <trkpt lat="46.07758" lon="6.23273">
        <ele>884.224</ele>
        <time>2020-05-02T11:20:55Z</time>
      </trkpt>
      <trkpt lat="46.07766" lon="6.23273">
        <ele>883.008</ele>
        <time>2020-05-02T11:20:57Z</time>
      </trkpt>
      <trkpt lat="46.07771" lon="6.23273">
        <ele>882.993</ele>
        <time>2020-05-02T11:20:58Z</time>
      </trkpt>
      <trkpt lat="46.07777" lon="6.23276">
        <ele>882.947</ele>
        <time>2020-05-02T11:20:59Z</time>
      </trkpt>
      <trkpt lat="46.0778" lon="6.23282">
        <ele>882.966</ele>
        <time>2020-05-02T11:21:00Z</time>
      </trkpt>
      <trkpt lat="46.07781" lon="6.23292">
        <ele>882.918</ele>
        <time>2020-05-02T11:21:01Z</time>
      </trkpt>
      <trkpt lat="46.07781" lon="6.23302">
        <ele>883.013</ele>
        <time>2020-05-02T11:21:02Z</time>
      </trkpt>
      <trkpt lat="46.07776" lon="6.23314">
        <ele>882.957</ele>
        <time>2020-05-02T11:21:04Z</time>
      </trkpt>
      <trkpt lat="46.07773" lon="6.23322">
        <ele>882.721</ele>
        <time>2020-05-02T11:21:06Z</time>
      </trkpt>
      <trkpt lat="46.07765" lon="6.23322">
        <ele>882.622</ele>
        <time>2020-05-02T11:21:08Z</time>
      </trkpt>
      <trkpt lat="46.07759" lon="6.23317">
        <ele>882.823</ele>
        <time>2020-05-02T11:21:09Z</time>
      </trkpt>
      <trkpt lat="46.07756" lon="6.2331">
        <ele>883.183</ele>
        <time>2020-05-02T11:21:10Z</time>
      </trkpt>
      <trkpt lat="46.07752" lon="6.23304">
        <ele>883.311</ele>
        <time>2020-05-02T11:21:11Z</time>
      </trkpt>
      <trkpt lat="46.07748" lon="6.23299">
        <ele>883.508</ele>
        <time>2020-05-02T11:21:12Z</time>
      </trkpt>
      <trkpt lat="46.07748" lon="6.23286">
        <ele>883.646</ele>
        <time>2020-05-02T11:21:14Z</time>
      </trkpt>
      <trkpt lat="46.0775" lon="6.2328">
        <ele>883.66</ele>
        <time>2020-05-02T11:21:15Z</time>
      </trkpt>
      <trkpt lat="46.07755" lon="6.23273">
        <ele>883.499</ele>
        <time>2020-05-02T11:21:16Z</time>
      </trkpt>
      <trkpt lat="46.07763" lon="6.23264">
        <ele>883.211</ele>
        <time>2020-05-02T11:21:18Z</time>
      </trkpt>
      <trkpt lat="46.07768" lon="6.23257">
        <ele>883.076</ele>
        <time>2020-05-02T11:21:19Z</time>
      </trkpt>
      <trkpt lat="46.07773" lon="6.23248">
        <ele>882.97</ele>
        <time>2020-05-02T11:21:21Z</time>
      </trkpt>
      <trkpt lat="46.0778" lon="6.2325">
        <ele>882.734</ele>
        <time>2020-05-02T11:21:23Z</time>
      </trkpt>
      <trkpt lat="46.07785" lon="6.23251">
        <ele>882.565</ele>
        <time>2020-05-02T11:21:26Z</time>
      </trkpt>
      <trkpt lat="46.07792" lon="6.2325">
        <ele>882.677</ele>
        <time>2020-05-02T11:21:28Z</time>
      </trkpt>
      <trkpt lat="46.07802" lon="6.23252">
        <ele>882.461</ele>
        <time>2020-05-02T11:21:30Z</time>
      </trkpt>
      <trkpt lat="46.07809" lon="6.23258">
        <ele>882.127</ele>
        <time>2020-05-02T11:21:31Z</time>
      </trkpt>
      <trkpt lat="46.07814" lon="6.23267">
        <ele>881.808</ele>
        <time>2020-05-02T11:21:32Z</time>
      </trkpt>
      <trkpt lat="46.07818" lon="6.23277">
        <ele>881.491</ele>
        <time>2020-05-02T11:21:33Z</time>
      </trkpt>
      <trkpt lat="46.07819" lon="6.23284">
        <ele>881.015</ele>
        <time>2020-05-02T11:21:34Z</time>
      </trkpt>
      <trkpt lat="46.0782" lon="6.23292">
        <ele>880.574</ele>
        <time>2020-05-02T11:21:37Z</time>
      </trkpt>
      <trkpt lat="46.07817" lon="6.23287">
        <ele>879.926</ele>
        <time>2020-05-02T11:22:55Z</time>
      </trkpt>
      <trkpt lat="46.0782" lon="6.23291">
        <ele>880.211</ele>
        <time>2020-05-02T11:23:05Z</time>
      </trkpt>
      <trkpt lat="46.07826" lon="6.23293">
        <ele>879.815</ele>
        <time>2020-05-02T11:23:08Z</time>
      </trkpt>
      <trkpt lat="46.07832" lon="6.23296">
        <ele>879.449</ele>
        <time>2020-05-02T11:23:10Z</time>
      </trkpt>
      <trkpt lat="46.07838" lon="6.23297">
        <ele>878.94</ele>
        <time>2020-05-02T11:23:11Z</time>
      </trkpt>
      <trkpt lat="46.07846" lon="6.23296">
        <ele>877.614</ele>
        <time>2020-05-02T11:23:13Z</time>
      </trkpt>
      <trkpt lat="46.07855" lon="6.23296">
        <ele>876.254</ele>
        <time>2020-05-02T11:23:15Z</time>
      </trkpt>
      <trkpt lat="46.07861" lon="6.23297">
        <ele>875.509</ele>
        <time>2020-05-02T11:23:16Z</time>
      </trkpt>
      <trkpt lat="46.07869" lon="6.23292">
        <ele>874.308</ele>
        <time>2020-05-02T11:23:18Z</time>
      </trkpt>
      <trkpt lat="46.07875" lon="6.23291">
        <ele>873.655</ele>
        <time>2020-05-02T11:23:19Z</time>
      </trkpt>
      <trkpt lat="46.07881" lon="6.23291">
        <ele>872.939</ele>
        <time>2020-05-02T11:23:20Z</time>
      </trkpt>
      <trkpt lat="46.07888" lon="6.23286">
        <ele>871.348</ele>
        <time>2020-05-02T11:23:22Z</time>
      </trkpt>
      <trkpt lat="46.07893" lon="6.23282">
        <ele>869.66</ele>
        <time>2020-05-02T11:23:24Z</time>
      </trkpt>
      <trkpt lat="46.07901" lon="6.23279">
        <ele>867.945</ele>
        <time>2020-05-02T11:23:26Z</time>
      </trkpt>
      <trkpt lat="46.07906" lon="6.23276">
        <ele>866.689</ele>
        <time>2020-05-02T11:23:28Z</time>
      </trkpt>
      <trkpt lat="46.07911" lon="6.23275">
        <ele>866.213</ele>
        <time>2020-05-02T11:23:29Z</time>
      </trkpt>
      <trkpt lat="46.07916" lon="6.23274">
        <ele>865.874</ele>
        <time>2020-05-02T11:23:30Z</time>
      </trkpt>
      <trkpt lat="46.07922" lon="6.23273">
        <ele>865.294</ele>
        <time>2020-05-02T11:23:31Z</time>
      </trkpt>
      <trkpt lat="46.07927" lon="6.23275">
        <ele>864.557</ele>
        <time>2020-05-02T11:23:32Z</time>
      </trkpt>
      <trkpt lat="46.07936" lon="6.23278">
        <ele>862.822</ele>
        <time>2020-05-02T11:23:34Z</time>
      </trkpt>
      <trkpt lat="46.07941" lon="6.23283">
        <ele>862.008</ele>
        <time>2020-05-02T11:23:35Z</time>
      </trkpt>
      <trkpt lat="46.07945" lon="6.23286">
        <ele>861.443</ele>
        <time>2020-05-02T11:23:36Z</time>
      </trkpt>
      <trkpt lat="46.07951" lon="6.23288">
        <ele>860.847</ele>
        <time>2020-05-02T11:23:37Z</time>
      </trkpt>
      <trkpt lat="46.07956" lon="6.23291">
        <ele>860.126</ele>
        <time>2020-05-02T11:23:38Z</time>
      </trkpt>
      <trkpt lat="46.07963" lon="6.23295">
        <ele>859.438</ele>
        <time>2020-05-02T11:23:39Z</time>
      </trkpt>
      <trkpt lat="46.07969" lon="6.23298">
        <ele>858.583</ele>
        <time>2020-05-02T11:23:40Z</time>
      </trkpt>
      <trkpt lat="46.07974" lon="6.233">
        <ele>857.597</ele>
        <time>2020-05-02T11:23:41Z</time>
      </trkpt>
      <trkpt lat="46.0798" lon="6.23301">
        <ele>856.551</ele>
        <time>2020-05-02T11:23:42Z</time>
      </trkpt>
      <trkpt lat="46.07986" lon="6.23299">
        <ele>855.562</ele>
        <time>2020-05-02T11:23:43Z</time>
      </trkpt>
      <trkpt lat="46.07991" lon="6.23296">
        <ele>854.416</ele>
        <time>2020-05-02T11:23:44Z</time>
      </trkpt>
      <trkpt lat="46.07998" lon="6.23293">
        <ele>852.576</ele>
        <time>2020-05-02T11:23:46Z</time>
      </trkpt>
      <trkpt lat="46.08004" lon="6.23295">
        <ele>850.713</ele>
        <time>2020-05-02T11:23:48Z</time>
      </trkpt>
      <trkpt lat="46.08006" lon="6.23308">
        <ele>849.408</ele>
        <time>2020-05-02T11:23:50Z</time>
      </trkpt>
      <trkpt lat="46.08004" lon="6.23321">
        <ele>849.145</ele>
        <time>2020-05-02T11:23:51Z</time>
      </trkpt>
      <trkpt lat="46.08001" lon="6.23331">
        <ele>849.119</ele>
        <time>2020-05-02T11:23:52Z</time>
      </trkpt>
      <trkpt lat="46.07998" lon="6.23337">
        <ele>849.628</ele>
        <time>2020-05-02T11:23:53Z</time>
      </trkpt>
      <trkpt lat="46.07992" lon="6.23345">
        <ele>850.38</ele>
        <time>2020-05-02T11:23:54Z</time>
      </trkpt>
      <trkpt lat="46.0799" lon="6.23351">
        <ele>851.255</ele>
        <time>2020-05-02T11:23:55Z</time>
      </trkpt>
      <trkpt lat="46.07987" lon="6.23358">
        <ele>852.179</ele>
        <time>2020-05-02T11:23:56Z</time>
      </trkpt>
      <trkpt lat="46.07985" lon="6.23367">
        <ele>853.823</ele>
        <time>2020-05-02T11:23:58Z</time>
      </trkpt>
      <trkpt lat="46.07986" lon="6.23373">
        <ele>856.184</ele>
        <time>2020-05-02T11:24:10Z</time>
      </trkpt>
      <trkpt lat="46.07986" lon="6.23381">
        <ele>856.255</ele>
        <time>2020-05-02T11:24:11Z</time>
      </trkpt>
      <trkpt lat="46.07986" lon="6.23394">
        <ele>856.407</ele>
        <time>2020-05-02T11:24:12Z</time>
      </trkpt>
      <trkpt lat="46.07986" lon="6.23407">
        <ele>856.817</ele>
        <time>2020-05-02T11:24:13Z</time>
      </trkpt>
      <trkpt lat="46.07986" lon="6.23422">
        <ele>857.208</ele>
        <time>2020-05-02T11:24:14Z</time>
      </trkpt>
      <trkpt lat="46.07989" lon="6.23431">
        <ele>857.849</ele>
        <time>2020-05-02T11:24:15Z</time>
      </trkpt>
      <trkpt lat="46.07994" lon="6.23439">
        <ele>858.473</ele>
        <time>2020-05-02T11:24:16Z</time>
      </trkpt>
      <trkpt lat="46.07997" lon="6.23445">
        <ele>858.872</ele>
        <time>2020-05-02T11:24:17Z</time>
      </trkpt>
      <trkpt lat="46.08" lon="6.23451">
        <ele>859.184</ele>
        <time>2020-05-02T11:24:18Z</time>
      </trkpt>
      <trkpt lat="46.08004" lon="6.23459">
        <ele>859.459</ele>
        <time>2020-05-02T11:24:19Z</time>
      </trkpt>
      <trkpt lat="46.08009" lon="6.23464">
        <ele>859.643</ele>
        <time>2020-05-02T11:24:20Z</time>
      </trkpt>
      <trkpt lat="46.08016" lon="6.23469">
        <ele>859.737</ele>
        <time>2020-05-02T11:24:21Z</time>
      </trkpt>
      <trkpt lat="46.08024" lon="6.2347">
        <ele>859.958</ele>
        <time>2020-05-02T11:24:22Z</time>
      </trkpt>
      <trkpt lat="46.08031" lon="6.23473">
        <ele>860.277</ele>
        <time>2020-05-02T11:24:23Z</time>
      </trkpt>
      <trkpt lat="46.08037" lon="6.23472">
        <ele>860.561</ele>
        <time>2020-05-02T11:24:24Z</time>
      </trkpt>
      <trkpt lat="46.08043" lon="6.23471">
        <ele>860.827</ele>
        <time>2020-05-02T11:24:25Z</time>
      </trkpt>
      <trkpt lat="46.08052" lon="6.23472">
        <ele>861.208</ele>
        <time>2020-05-02T11:24:26Z</time>
      </trkpt>
      <trkpt lat="46.08058" lon="6.23472">
        <ele>861.621</ele>
        <time>2020-05-02T11:24:27Z</time>
      </trkpt>
      <trkpt lat="46.08064" lon="6.23471">
        <ele>861.915</ele>
        <time>2020-05-02T11:24:28Z</time>
      </trkpt>
      <trkpt lat="46.08072" lon="6.23464">
        <ele>862.154</ele>
        <time>2020-05-02T11:24:29Z</time>
      </trkpt>
      <trkpt lat="46.08078" lon="6.23458">
        <ele>862.296</ele>
        <time>2020-05-02T11:24:30Z</time>
      </trkpt>
      <trkpt lat="46.08085" lon="6.23451">
        <ele>862.241</ele>
        <time>2020-05-02T11:24:31Z</time>
      </trkpt>
      <trkpt lat="46.08091" lon="6.23446">
        <ele>862.165</ele>
        <time>2020-05-02T11:24:32Z</time>
      </trkpt>
      <trkpt lat="46.08097" lon="6.23442">
        <ele>862.049</ele>
        <time>2020-05-02T11:24:33Z</time>
      </trkpt>
      <trkpt lat="46.08104" lon="6.23437">
        <ele>861.94</ele>
        <time>2020-05-02T11:24:34Z</time>
      </trkpt>
      <trkpt lat="46.08111" lon="6.23434">
        <ele>861.848</ele>
        <time>2020-05-02T11:24:35Z</time>
      </trkpt>
      <trkpt lat="46.08119" lon="6.23432">
        <ele>861.761</ele>
        <time>2020-05-02T11:24:36Z</time>
      </trkpt>
      <trkpt lat="46.08125" lon="6.23429">
        <ele>861.617</ele>
        <time>2020-05-02T11:24:37Z</time>
      </trkpt>
      <trkpt lat="46.08132" lon="6.23424">
        <ele>861.608</ele>
        <time>2020-05-02T11:24:38Z</time>
      </trkpt>
      <trkpt lat="46.08138" lon="6.23417">
        <ele>861.388</ele>
        <time>2020-05-02T11:24:39Z</time>
      </trkpt>
      <trkpt lat="46.08144" lon="6.23411">
        <ele>861.122</ele>
        <time>2020-05-02T11:24:40Z</time>
      </trkpt>
      <trkpt lat="46.08151" lon="6.23402">
        <ele>860.641</ele>
        <time>2020-05-02T11:24:41Z</time>
      </trkpt>
      <trkpt lat="46.08156" lon="6.23392">
        <ele>860.033</ele>
        <time>2020-05-02T11:24:42Z</time>
      </trkpt>
      <trkpt lat="46.08161" lon="6.23381">
        <ele>859.138</ele>
        <time>2020-05-02T11:24:43Z</time>
      </trkpt>
      <trkpt lat="46.08165" lon="6.23371">
        <ele>858.172</ele>
        <time>2020-05-02T11:24:44Z</time>
      </trkpt>
      <trkpt lat="46.0817" lon="6.23361">
        <ele>857.076</ele>
        <time>2020-05-02T11:24:45Z</time>
      </trkpt>
      <trkpt lat="46.08175" lon="6.23354">
        <ele>856.037</ele>
        <time>2020-05-02T11:24:46Z</time>
      </trkpt>
      <trkpt lat="46.08182" lon="6.23347">
        <ele>854.994</ele>
        <time>2020-05-02T11:24:47Z</time>
      </trkpt>
      <trkpt lat="46.08188" lon="6.23339">
        <ele>853.957</ele>
        <time>2020-05-02T11:24:48Z</time>
      </trkpt>
      <trkpt lat="46.08194" lon="6.2333">
        <ele>852.822</ele>
        <time>2020-05-02T11:24:49Z</time>
      </trkpt>
      <trkpt lat="46.08199" lon="6.23322">
        <ele>851.508</ele>
        <time>2020-05-02T11:24:50Z</time>
      </trkpt>
      <trkpt lat="46.08204" lon="6.23313">
        <ele>850.263</ele>
        <time>2020-05-02T11:24:51Z</time>
      </trkpt>
      <trkpt lat="46.08208" lon="6.23306">
        <ele>848.847</ele>
        <time>2020-05-02T11:24:52Z</time>
      </trkpt>
      <trkpt lat="46.08211" lon="6.23298">
        <ele>847.316</ele>
        <time>2020-05-02T11:24:53Z</time>
      </trkpt>
      <trkpt lat="46.08213" lon="6.23292">
        <ele>846.078</ele>
        <time>2020-05-02T11:24:54Z</time>
      </trkpt>
      <trkpt lat="46.08216" lon="6.23286">
        <ele>844.723</ele>
        <time>2020-05-02T11:24:55Z</time>
      </trkpt>
      <trkpt lat="46.08217" lon="6.23274">
        <ele>842.447</ele>
        <time>2020-05-02T11:24:57Z</time>
      </trkpt>
      <trkpt lat="46.08216" lon="6.23265">
        <ele>841.571</ele>
        <time>2020-05-02T11:24:58Z</time>
      </trkpt>
      <trkpt lat="46.08218" lon="6.23255">
        <ele>839.862</ele>
        <time>2020-05-02T11:25:00Z</time>
      </trkpt>
      <trkpt lat="46.08219" lon="6.23248">
        <ele>839.074</ele>
        <time>2020-05-02T11:25:01Z</time>
      </trkpt>
      <trkpt lat="46.08218" lon="6.23241">
        <ele>838.256</ele>
        <time>2020-05-02T11:25:02Z</time>
      </trkpt>
      <trkpt lat="46.08216" lon="6.23196">
        <ele>833.521</ele>
        <time>2020-05-02T11:25:29Z</time>
      </trkpt>
      <trkpt lat="46.08222" lon="6.23192">
        <ele>833.408</ele>
        <time>2020-05-02T11:25:31Z</time>
      </trkpt>
      <trkpt lat="46.08227" lon="6.23189">
        <ele>833.251</ele>
        <time>2020-05-02T11:25:32Z</time>
      </trkpt>
      <trkpt lat="46.08233" lon="6.23188">
        <ele>832.835</ele>
        <time>2020-05-02T11:25:33Z</time>
      </trkpt>
      <trkpt lat="46.08238" lon="6.23189">
        <ele>832.294</ele>
        <time>2020-05-02T11:25:34Z</time>
      </trkpt>
      <trkpt lat="46.08244" lon="6.23186">
        <ele>831.256</ele>
        <time>2020-05-02T11:25:35Z</time>
      </trkpt>
      <trkpt lat="46.08254" lon="6.23183">
        <ele>830.181</ele>
        <time>2020-05-02T11:25:36Z</time>
      </trkpt>
      <trkpt lat="46.08265" lon="6.23176">
        <ele>828.735</ele>
        <time>2020-05-02T11:25:37Z</time>
      </trkpt>
      <trkpt lat="46.08273" lon="6.23173">
        <ele>827.229</ele>
        <time>2020-05-02T11:25:38Z</time>
      </trkpt>
      <trkpt lat="46.08279" lon="6.23171">
        <ele>825.74</ele>
        <time>2020-05-02T11:25:39Z</time>
      </trkpt>
      <trkpt lat="46.08287" lon="6.23165">
        <ele>824.314</ele>
        <time>2020-05-02T11:25:40Z</time>
      </trkpt>
      <trkpt lat="46.08293" lon="6.23162">
        <ele>822.854</ele>
        <time>2020-05-02T11:25:41Z</time>
      </trkpt>
      <trkpt lat="46.08298" lon="6.23156">
        <ele>821.409</ele>
        <time>2020-05-02T11:25:42Z</time>
      </trkpt>
      <trkpt lat="46.08303" lon="6.23152">
        <ele>820.208</ele>
        <time>2020-05-02T11:25:43Z</time>
      </trkpt>
      <trkpt lat="46.0831" lon="6.23148">
        <ele>819.195</ele>
        <time>2020-05-02T11:25:44Z</time>
      </trkpt>
      <trkpt lat="46.08319" lon="6.23145">
        <ele>818.199</ele>
        <time>2020-05-02T11:25:45Z</time>
      </trkpt>
      <trkpt lat="46.08328" lon="6.23144">
        <ele>817.488</ele>
        <time>2020-05-02T11:25:46Z</time>
      </trkpt>
      <trkpt lat="46.08335" lon="6.23146">
        <ele>816.94</ele>
        <time>2020-05-02T11:25:47Z</time>
      </trkpt>
      <trkpt lat="46.08342" lon="6.23147">
        <ele>816.525</ele>
        <time>2020-05-02T11:25:48Z</time>
      </trkpt>
      <trkpt lat="46.08348" lon="6.23148">
        <ele>816.119</ele>
        <time>2020-05-02T11:25:49Z</time>
      </trkpt>
      <trkpt lat="46.08353" lon="6.23149">
        <ele>815.893</ele>
        <time>2020-05-02T11:25:50Z</time>
      </trkpt>
      <trkpt lat="46.08359" lon="6.23149">
        <ele>815.494</ele>
        <time>2020-05-02T11:25:51Z</time>
      </trkpt>
      <trkpt lat="46.08365" lon="6.23145">
        <ele>814.983</ele>
        <time>2020-05-02T11:25:52Z</time>
      </trkpt>
      <trkpt lat="46.08369" lon="6.2314">
        <ele>814.125</ele>
        <time>2020-05-02T11:25:54Z</time>
      </trkpt>
    </trkseg>
  </trk>
</gpx>